# Wetter Temperatur Luftdruck Luftfeuchtigkeit Sichtweite Windgeschwindigkeit Windrichtung Zeit
1 Clouds 2 1004 74 10000 6.7 250 21:42 28.01.2020
2 Clouds 2 1004 74 10000 7.7 250 21:20 28.01.2020
3 Clouds 1 1004 100 10000 10.3 260 20:46 28.01.2020
4 Clouds 2 1003 80 10000 6.7 230 20:28 28.01.2020
5 Clouds 2 1002 80 10000 5.7 250 19:59 28.01.2020
6 Clouds 2 1002 74 10000 5.7 270 19:38 28.01.2020
7 Clouds 2 1002 74 10000 5.7 270 19:20 28.01.2020
8 Clouds 2 1002 74 10000 5.7 250 18:58 28.01.2020
9 Clouds 2 1001 74 10000 5.7 250 18:39 28.01.2020
10 Clouds 2 1001 74 10000 5.7 250 18:21 28.01.2020
11 Rain 2 1001 74 10000 8.2 250 17:56 28.01.2020
12 Rain 2 1000 74 10000 9.3 240 17:37 28.01.2020
13 Rain 2 1000 70 10000 9.3 240 17:19 28.01.2020
14 Rain 3 1000 70 10000 7.7 240 16:45 28.01.2020
15 Rain 3 1000 100 10000 8.7 240 16:27 28.01.2020
16 Rain 4 1000 70 10000 10.3 250 15:59 28.01.2020
17 Rain 4 1000 70 10000 10.3 250 15:40 28.01.2020
18 Rain 4 1000 70 10000 7.2 250 15:18 28.01.2020
19 Rain 3 1000 70 10000 9.3 260 14:44 28.01.2020
20 Rain 3 999 60 5000 13.4 260 14:20 28.01.2020
21 Clouds 4 998 70 10000 10.3 230 13:45 28.01.2020
22 Rain 5 998 75 10000 7.7 230 13:25 28.01.2020
23 Rain 4 998 80 10000 6.7 240 12:58 28.01.2020
24 Rain 5 998 80 10000 8.7 260 12:40 28.01.2020
25 Rain 4 998 80 10000 8.7 260 12:22 28.01.2020
26 Rain 5 998 100 10000 15.4 260 11:41 28.01.2020
27 Rain 6 998 100 10000 15.4 260 11:22 28.01.2020
28 Clouds 6 997 81 10000 6.7 190 10:55 28.01.2020
29 Clouds 6 997 81 10000 5.1 180 10:37 28.01.2020
30 Clouds 6 997 81 10000 5.1 180 10:18 28.01.2020
31 Rain 5 998 86 10000 4.1 150 09:42 28.01.2020
32 Clouds 5 998 81 10000 4.1 150 09:20 28.01.2020
33 Clouds 5 999 81 10000 4.6 160 08:46 28.01.2020
34 Clouds 5 999 81 10000 4.6 160 08:26 28.01.2020
35 Clouds 5 999 81 10000 4.6 170 07:56 28.01.2020
36 Rain 5 1000 81 10000 4.6 190 07:35 28.01.2020
37 Clouds 6 1000 87 10000 4.1 190 06:48 28.01.2020
38 Clouds 6 1000 87 10000 4.1 190 06:48 28.01.2020
39 Clouds 6 1000 87 10000 3.1 180 06:25 28.01.2020
40 Rain 5 1001 87 10000 2.6 180 05:40 28.01.2020
41 Rain 5 1001 87 10000 2.6 180 05:40 28.01.2020
42 Rain 5 1001 87 10000 3.1 200 05:22 28.01.2020
43 Clouds 5 1001 87 10000 4.6 170 03:50 28.01.2020
44 Rain 5 1002 87 10000 5.1 170 02:48 28.01.2020
45 Rain 5 1002 100 10000 4.6 190 02:25 28.01.2020
46 Rain 5 1003 100 10000 5.1 190 01:55 28.01.2020
47 Rain 5 1003 100 10000 4.1 180 01:22 28.01.2020
48 Rain 5 1005 81 10000 4.6 190 00:45 28.01.2020
49 Rain 5 1004 100 10000 4.1 190 00:22 28.01.2020
50 Rain 5 1005 81 10000 4.1 190 23:44 27.01.2020
51 Rain 5 1005 100 10000 5.1 210 23:20 27.01.2020
52 Rain 6 1006 81 10000 3.1 130 22:45 27.01.2020
53 Rain 6 1006 81 10000 3.6 150 22:20 27.01.2020
54 Rain 6 1006 81 10000 3.6 150 22:20 27.01.2020
55 Rain 6 1006 81 10000 3.6 150 22:20 27.01.2020
56 Rain 6 1007 81 10000 4.6 160 21:57 27.01.2020
57 Rain 6 1007 81 10000 4.6 160 21:39 27.01.2020
58 Rain 6 1007 81 10000 5.1 160 21:19 27.01.2020
59 Rain 6 1008 81 10000 5.7 160 20:57 27.01.2020
60 Rain 6 1008 81 10000 3.6 170 20:37 27.01.2020
61 Rain 6 1008 81 10000 3.6 170 20:19 27.01.2020
62 Rain 5 1009 75 10000 5.1 190 19:55 27.01.2020
63 Rain 6 1009 81 10000 6.7 180 19:37 27.01.2020
64 Rain 6 1009 81 10000 6.7 180 19:19 27.01.2020
65 Rain 6 1010 70 10000 5.1 180 18:39 27.01.2020
66 Rain 6 1010 70 10000 5.1 180 18:21 27.01.2020
67 Clouds 6 1010 70 10000 5.7 170 17:57 27.01.2020
68 Rain 7 1010 70 10000 4.6 160 17:37 27.01.2020
69 Clouds 7 1010 70 10000 4.6 160 17:18 27.01.2020
70 Clouds 7 1010 70 10000 4.6 160 16:42 27.01.2020
71 Clouds 7 1011 70 10000 3.1 150 16:24 27.01.2020
72 Clouds 7 1011 66 10000 4.1 150 15:59 27.01.2020
73 Clouds 7 1011 66 10000 3.6 170 15:40 27.01.2020
74 Clouds 8 1011 66 10000 3.6 170 15:19 27.01.2020
75 Clouds 7 1012 61 10000 3.1 160 14:55 27.01.2020
76 Clouds 7 1012 66 10000 4.1 160 14:37 27.01.2020
77 Clouds 8 1012 66 10000 4.1 160 14:18 27.01.2020
78 Clouds 7 1013 70 10000 3.6 170 13:42 27.01.2020
79 Clouds 7 1013 70 10000 3.1 160 13:21 27.01.2020
80 Clouds 6 1014 75 10000 3.1 170 12:56 27.01.2020
81 Clouds 6 1014 81 10000 3.6 160 12:38 27.01.2020
82 Clouds 5 1014 81 10000 3.6 160 12:19 27.01.2020
83 Clouds 5 1015 80 10000 3.6 130 11:42 27.01.2020
84 Clouds 5 1015 86 10000 3.6 140 11:42 27.01.2020
85 Clouds 4 1015 80 10000 3.6 130 11:21 27.01.2020
86 Clouds 4 1015 80 10000 3.6 130 11:21 27.01.2020
87 Clouds 4 1015 80 10000 3.6 130 11:21 27.01.2020
88 Clouds 3 1015 86 10000 3.1 130 10:55 27.01.2020
89 Clouds 3 1015 93 10000 3.1 110 10:36 27.01.2020
90 Clouds 2 1015 93 10000 3.1 110 10:18 27.01.2020
91 Rain 2 1016 93 10000 3.1 100 09:39 27.01.2020
92 Rain 2 1016 93 10000 3.1 100 09:18 27.01.2020
93 Clouds 1 1016 89 10000 3.6 110 08:46 27.01.2020
94 Clouds 1 1016 92 10000 2.6 110 08:22 27.01.2020
95 Rain 0 1016 100 10000 2.6 200 07:55 27.01.2020
96 Clouds 0 1016 92 10000 3.6 110 07:35 27.01.2020
97 Clouds 0 1016 92 7000 4.1 100 06:55 27.01.2020
98 Mist 0 1016 92 3200 3.6 110 06:27 27.01.2020
99 Mist 0 1017 92 2900 2.6 110 05:37 27.01.2020
100 Mist -1 1017 92 2900 3.1 120 04:20 27.01.2020
101 Mist -1 1017 100 2900 4.1 110 03:23 27.01.2020
102 Mist -1 1018 100 3100 3.1 110 01:32 27.01.2020
103 Mist 0 1018 92 3100 4.1 110 00:59 27.01.2020
104 Mist 0 1018 100 3100 3.1 120 00:37 27.01.2020
105 Mist 0 1018 100 3100 3.1 120 00:19 27.01.2020
106 Mist 0 1018 91 3500 3.6 100 23:41 26.01.2020
107 Mist 0 1018 86 3500 3.1 110 23:20 26.01.2020
108 Mist -1 1018 86 4500 3.6 100 22:57 26.01.2020
109 Clouds 0 1018 86 6000 3.1 110 22:37 26.01.2020
110 Clouds 0 1018 86 6000 3.1 110 22:18 26.01.2020
111 Clouds 0 1018 86 6000 3.6 100 21:56 26.01.2020
112 Clouds 0 1018 86 6000 3.6 100 21:38 26.01.2020
113 Clouds 0 1018 93 7000 2.6 110 21:19 26.01.2020
114 Clouds 1 1018 86 8000 2.1 130 20:55 26.01.2020
115 Clouds 1 1018 93 10000 3.6 100 20:37 26.01.2020
116 Clouds 1 1018 93 10000 3.6 100 20:18 26.01.2020
117 Clouds 1 1018 100 10000 1 100 19:56 26.01.2020
118 Clouds 1 1018 100 10000 1 10 19:37 26.01.2020
119 Clouds 1 1018 100 10000 1 10 19:37 26.01.2020
120 Clouds 1 1018 100 10000 1 10 19:18 26.01.2020
121 Clouds 2 1018 93 10000 1.5 100 18:41 26.01.2020
122 Clouds 2 1018 93 10000 1.5 100 18:22 26.01.2020
123 Clouds 2 1018 86 10000 0.5 0 17:58 26.01.2020
124 Clouds 3 1018 86 10000 0.5 0 17:39 26.01.2020
125 Clouds 3 1018 86 10000 0.5 0 17:19 26.01.2020
126 Clouds 4 1018 80 10000 1.5 340 16:58 26.01.2020
127 Clouds 4 1018 75 10000 1 0 16:39 26.01.2020
128 Clouds 4 1018 75 10000 1 0 16:39 26.01.2020
129 Clouds 4 1018 80 10000 1.5 340 16:39 26.01.2020
130 Clouds 4 1018 75 10000 1 0 16:20 26.01.2020
131 Clouds 4 1016 1 0 1.44 173 15:57 26.01.2020
132 Clouds 4 1016 1 0 1.44 173 15:39 26.01.2020
133 Clouds 4 1016 1 0 1.44 173 15:18 26.01.2020
134 Clouds 4 1016 1 0 1.44 173 14:40 26.01.2020
135 Clouds 4 1016 1 0 1.66 158 14:20 26.01.2020
136 Clouds 4 1019 80 0 1.66 158 13:43 26.01.2020
137 Clouds 4 1017 1 0 0.45 191 13:21 26.01.2020
138 Clouds 4 1017 1 0 0.45 182 12:58 26.01.2020
139 Clouds 4 1017 1 0 0.45 191 12:40 26.01.2020
140 Clouds 3 1019 87 0 3.58 14 12:21 26.01.2020
141 Clouds 3 1019 89 0 3.13 6 11:57 26.01.2020
142 Mist 3 1019 81 1000 1.56 156 11:39 26.01.2020
143 Mist 2 1020 92 2800 1 90 11:18 26.01.2020
144 Mist 1 1020 92 2800 1 90 10:58 26.01.2020
145 Mist 1 1020 92 2800 1 90 10:38 26.01.2020
146 Mist 1 1020 92 2800 1 90 10:20 26.01.2020
147 Mist 0 1020 100 1900 1 120 09:57 26.01.2020
148 Mist 0 1019 92 5000 1.53 160 09:39 26.01.2020
149 Mist 0 1019 92 5000 1.53 160 09:20 26.01.2020
150 Mist 0 1020 100 1700 0.5 0 08:43 26.01.2020
151 Mist -1 1019 100 4400 2.1 150 08:22 26.01.2020
152 Mist 0 1019 92 2200 0.5 0 07:56 26.01.2020
153 Mist 0 1019 100 2500 0.5 0 07:38 26.01.2020
154 Mist 0 1019 100 2500 0.5 0 07:19 26.01.2020
155 Mist 0 1020 100 2000 1 0 06:29 26.01.2020
156 Mist -1 1019 100 2000 1 0 05:30 26.01.2020
157 Mist -1 1019 92 2000 0.5 0 04:44 26.01.2020
158 Fog 0 1020 100 100 0.5 40 02:40 26.01.2020
159 Fog 0 1020 100 100 0.5 0 01:47 26.01.2020
160 Fog 0 1021 100 100 1 20 01:24 26.01.2020
161 Fog 0 1021 100 100 1 0 00:44 26.01.2020
162 Fog 0 1021 100 100 1 0 00:26 26.01.2020
163 Clouds 0 1024 97 0 1.16 151 23:40 25.01.2020
164 Clouds 0 1019 1 0 1.11 130 23:21 25.01.2020
165 Clouds 0 1024 96 0 1.11 130 22:58 25.01.2020
166 Clouds 0 1019 1 0 1.11 130 22:39 25.01.2020
167 Clouds 0 1019 1 0 1.11 130 22:18 25.01.2020
168 Clouds 0 1023 81 0 1.11 130 21:55 25.01.2020
169 Clouds 0 1023 89 0 1.11 130 21:37 25.01.2020
170 Clouds 0 1023 89 0 1.11 130 21:19 25.01.2020
171 Clouds 0 1021 96 0 0.89 217 20:43 25.01.2020
172 Clouds 0 1023 89 0 1.11 130 20:24 25.01.2020
173 Clouds 1 1022 79 0 0.97 142 19:48 25.01.2020
174 Clouds 0 1020 1 0 1.07 159 19:20 25.01.2020
175 Clouds 0 1025 96 0 1.07 159 18:59 25.01.2020
176 Clouds 0 1025 96 0 1.07 159 18:41 25.01.2020
177 Clouds 0 1019 1 0 0.97 142 18:21 25.01.2020
178 Clouds 0 1023 87 0 0.45 40 17:56 25.01.2020
179 Clouds 0 1021 93 0 0.89 228 17:37 25.01.2020
180 Clouds 0 1022 10 0 0.53 88 17:18 25.01.2020
181 Clouds 0 1019 1 0 0.53 88 16:42 25.01.2020
182 Clouds 0 1021 92 0 0.89 225 16:23 25.01.2020
183 Clouds 0 1023 83 0 0.53 88 15:56 25.01.2020
184 Clouds 0 1023 83 0 0.53 88 15:37 25.01.2020
185 Clouds 0 1021 93 0 0.89 225 15:19 25.01.2020
186 Clouds 0 1023 83 0 0.53 88 14:41 25.01.2020
187 Clouds 0 1025 96 0 0.52 216 14:19 25.01.2020
188 Clouds 0 1020 1 0 0.52 216 13:44 25.01.2020
189 Clouds 0 1024 83 0 0.52 216 13:25 25.01.2020
190 Mist -1 1023 92 2500 0.5 0 12:50 25.01.2020
191 Mist -1 1023 92 2500 0.5 0 12:30 25.01.2020
192 Mist -1 1023 92 2500 0.5 0 11:57 25.01.2020
193 Mist -1 1023 92 3500 1 0 11:38 25.01.2020
194 Mist -1 1023 92 3500 1 0 11:19 25.01.2020
195 Mist -2 1022 100 5000 0.57 137 10:42 25.01.2020
196 Mist -2 1022 100 5000 0.57 137 10:21 25.01.2020
197 Clouds -3 1022 92 6000 1 0 09:59 25.01.2020
198 Clouds -3 1022 92 6000 1 0 09:38 25.01.2020
199 Clouds -3 1022 85 5000 0.5 0 09:19 25.01.2020
200 Mist -4 1022 92 4500 1.5 350 08:42 25.01.2020
201 Clouds -4 1022 92 5000 0.5 0 07:54 25.01.2020
202 Mist -4 1021 100 2400 1.5 210 07:21 25.01.2020
203 Mist -4 1021 100 2800 1.25 211 06:31 25.01.2020
204 Mist -4 1021 92 4500 1 0 05:51 25.01.2020
205 Mist -4 1021 92 4500 0.5 10 05:32 25.01.2020
206 Mist -4 1021 100 3200 0.86 195 03:56 25.01.2020
207 Mist -4 1022 100 4000 1 0 03:37 25.01.2020
208 Mist -4 1022 92 3700 2.6 120 02:35 25.01.2020
209 Mist -4 1022 92 3500 3.1 100 01:54 25.01.2020
210 Mist -3 1022 92 4000 0.5 0 00:59 25.01.2020
211 Mist -4 1022 100 4000 1 110 00:37 25.01.2020
212 Mist -3 1022 100 4000 1 110 00:18 25.01.2020
213 Mist -3 1022 100 4000 1 110 00:18 25.01.2020
214 Mist -3 1022 100 4500 2.1 110 23:41 24.01.2020
215 Mist -3 1022 100 4500 2.1 110 23:23 24.01.2020
216 Mist -3 1022 92 4500 3.6 110 22:46 24.01.2020
217 Mist -3 1023 86 4500 2.6 100 22:26 24.01.2020
218 Mist -3 1023 92 4500 3.1 100 21:57 24.01.2020
219 Mist -3 1023 92 4500 2.6 130 21:39 24.01.2020
220 Mist -3 1023 92 4500 2.6 130 21:18 24.01.2020
221 Mist -3 1023 92 4500 2.6 130 21:18 24.01.2020
222 Mist -2 1023 92 4000 2.6 120 20:42 24.01.2020
223 Mist -2 1023 86 4000 2.1 130 20:21 24.01.2020
224 Mist -2 1023 92 4000 1.5 350 19:58 24.01.2020
225 Mist -2 1023 92 4000 1.5 350 19:39 24.01.2020
226 Mist -2 1023 92 4000 1 0 19:21 24.01.2020
227 Mist -1 1023 92 4000 1 90 18:43 24.01.2020
228 Mist -1 1023 92 4000 1 90 18:43 24.01.2020
229 Clouds -1 1022 86 6000 1 0 18:24 24.01.2020
230 Clouds -1 1022 86 6000 1 0 17:56 24.01.2020
231 Clouds -1 1022 86 6000 1 0 17:56 24.01.2020
232 Clouds -1 1022 86 6000 1 0 17:38 24.01.2020
233 Clouds 0 1022 57 8000 2.1 70 17:18 24.01.2020
234 Clouds 0 1022 74 8000 2.6 90 16:39 24.01.2020
235 Clouds 0 1023 80 8000 2.6 90 16:21 24.01.2020
236 Clouds 0 1023 80 8000 2.6 90 16:21 24.01.2020
237 Clouds 1 1023 80 7000 2.6 90 15:43 24.01.2020
238 Clouds 0 1023 74 7000 1.5 0 15:23 24.01.2020
239 Clouds 0 1023 80 7000 1 0 14:59 24.01.2020
240 Clouds 0 1024 74 7000 1 0 14:40 24.01.2020
241 Clouds 0 1024 74 7000 1 0 14:22 24.01.2020
242 Clouds 0 1024 51 7000 0.5 0 13:43 24.01.2020
243 Clouds 0 1024 53 7000 1.5 180 13:23 24.01.2020
244 Clouds 0 1024 53 7000 2.1 200 12:45 24.01.2020
245 Clouds 0 1024 53 7000 2.1 200 12:45 24.01.2020
246 Clouds -1 1025 86 7000 2.1 160 12:23 24.01.2020
247 Clouds -1 1025 86 6000 2.1 220 11:57 24.01.2020
248 Clouds -1 1025 92 6000 2.1 220 11:39 24.01.2020
249 Clouds -1 1025 92 6000 2.1 220 11:18 24.01.2020
250 Clouds -2 1025 92 6000 1.5 160 10:42 24.01.2020
251 Clouds -2 1025 86 6000 1 0 10:21 24.01.2020
252 Clouds -2 1025 92 6000 1 0 09:54 24.01.2020
253 Clouds -2 1025 92 6000 1.5 100 09:36 24.01.2020
254 Clouds -2 1025 92 6000 1.5 100 09:18 24.01.2020
255 Mist -2 1025 92 4500 1.5 120 08:39 24.01.2020
256 Mist -2 1025 92 4500 2.1 120 08:18 24.01.2020
257 Mist -2 1024 92 4700 2.1 120 07:47 24.01.2020
258 Clouds -2 1025 92 6000 2.1 110 07:22 24.01.2020
259 Clouds -2 1025 92 6000 2.1 110 07:22 24.01.2020
260 Mist -3 1025 92 4200 2.6 100 06:43 24.01.2020
261 Mist -3 1024 92 4000 1.5 90 06:23 24.01.2020
262 Mist -3 1024 100 2500 1.5 110 05:22 24.01.2020
263 Fog -3 1026 100 5000 0.5 120 03:34 24.01.2020
264 Clouds -4 1026 92 6000 0.5 0 02:39 24.01.2020
265 Clouds -4 1026 92 6000 0.5 0 02:20 24.01.2020
266 Clouds -4 1026 92 6000 0.5 0 01:38 24.01.2020
267 Clear -4 1026 92 8000 1.5 130 00:42 24.01.2020
268 Clear -4 1026 92 8000 1.5 130 00:19 24.01.2020
269 Clear -4 1026 100 9000 0.5 0 23:41 23.01.2020
270 Clear -4 1026 100 9000 0.5 0 23:21 23.01.2020
271 Mist -4 1026 100 6000 0.98 95 22:58 23.01.2020
272 Clear -4 1027 92 10000 0.5 350 22:37 23.01.2020
273 Clear -4 1027 92 10000 0.5 350 22:18 23.01.2020
274 Clear -3 1027 92 10000 0.5 0 21:55 23.01.2020
275 Clear -3 1027 92 10000 0.5 90 21:37 23.01.2020
276 Clear -3 1027 92 10000 0.5 90 21:18 23.01.2020
277 Clear -2 1027 92 10000 0.5 0 20:41 23.01.2020
278 Clear -2 1027 92 10000 0.5 0 20:22 23.01.2020
279 Clear -2 1027 92 10000 0.5 0 19:57 23.01.2020
280 Clear -2 1027 92 10000 0.5 0 19:39 23.01.2020
281 Clear -2 1027 92 10000 0.5 10 19:39 23.01.2020
282 Clear -2 1027 92 10000 0.5 10 19:21 23.01.2020
283 Clouds -1 1027 86 10000 1 50 18:56 23.01.2020
284 Clouds -1 1028 80 10000 1 80 18:38 23.01.2020
285 Clouds -1 1028 80 10000 1 80 18:19 23.01.2020
286 Clouds 0 1028 80 10000 1.5 80 17:45 23.01.2020
287 Clouds 0 1028 80 10000 1.5 80 17:21 23.01.2020
288 Clouds 1 1028 80 10000 2.6 60 16:59 23.01.2020
289 Clouds 1 1029 80 10000 2.1 110 16:39 23.01.2020
290 Clouds 1 1029 80 10000 2.1 110 16:19 23.01.2020
291 Clouds 1 1029 80 10000 2.6 90 15:58 23.01.2020
292 Clouds 1 1029 80 10000 3.1 130 15:38 23.01.2020
293 Clouds 1 1029 80 10000 3.1 130 15:19 23.01.2020
294 Mist 1 1029 100 6000 4.1 90 14:58 23.01.2020
295 Mist 1 1029 100 6000 3.1 110 14:40 23.01.2020
296 Mist 1 1029 100 6000 3.1 110 14:21 23.01.2020
297 Clouds 1 1031 80 10000 5.1 130 13:46 23.01.2020
298 Clouds 1 1031 80 10000 5.1 130 13:21 23.01.2020
299 Mist 1 1030 100 4800 5.1 90 12:57 23.01.2020
300 Mist 1 1030 100 4800 5.1 90 12:57 23.01.2020
301 Clouds 1 1032 80 10000 5.1 130 12:39 23.01.2020
302 Clouds 1 1032 80 10000 5.1 130 12:20 23.01.2020
303 Mist 1 1031 100 5000 4.6 110 11:45 23.01.2020
304 Mist 0 1031 100 3200 4.1 90 11:25 23.01.2020
305 Clouds 0 1033 74 8000 6.2 110 10:59 23.01.2020
306 Clouds 0 1033 74 8000 5.7 120 10:40 23.01.2020
307 Clouds -1 1033 74 8000 5.7 120 10:19 23.01.2020
308 Clouds -1 1033 92 7000 2.6 100 09:41 23.01.2020
309 Clouds -1 1033 92 7000 2.6 100 09:22 23.01.2020
310 Clouds -1 1033 92 6000 1.5 100 08:56 23.01.2020
311 Clouds -1 1033 92 6000 1.5 100 08:38 23.01.2020
312 Mist -1 1033 92 5000 1 0 08:19 23.01.2020
313 Mist -1 1033 86 5000 1 0 07:39 23.01.2020
314 Mist -1 1033 86 5000 1 0 07:18 23.01.2020
315 Mist -1 1032 100 4400 2.6 50 06:44 23.01.2020
316 Mist -1 1034 92 5000 1 70 06:18 23.01.2020
317 Clouds -2 1034 92 5000 0.5 0 04:25 23.01.2020
318 Clouds -1 1035 92 5000 1 0 03:47 23.01.2020
319 Mist -2 1035 92 5000 1 0 01:55 23.01.2020
320 Mist -2 1036 92 3400 0.5 0 00:46 23.01.2020
321 Mist -2 1036 92 3400 0.5 0 00:24 23.01.2020
322 Mist -2 1036 92 3500 1 0 23:46 22.01.2020
323 Mist -2 1036 92 3800 0.5 80 23:28 22.01.2020
324 Mist -2 1035 92 4000 0.5 0 22:55 22.01.2020
325 Mist -2 1035 92 3500 0.5 0 22:36 22.01.2020
326 Mist -2 1035 92 3500 0.5 0 22:18 22.01.2020
327 Mist -2 1035 92 3300 1 0 21:38 22.01.2020
328 Clouds -2 1035 86 6000 1.5 30 21:20 22.01.2020
329 Clouds -2 1035 86 7000 1 0 20:55 22.01.2020
330 Clouds -2 1035 86 7000 1 90 20:36 22.01.2020
331 Clouds -2 1035 86 7000 1 90 20:18 22.01.2020
332 Clouds -2 1035 86 7000 1.5 60 19:42 22.01.2020
333 Clouds -2 1034 86 7000 2.1 30 19:21 22.01.2020
334 Clouds -2 1034 86 7000 2.1 30 19:21 22.01.2020
335 Clouds -2 1034 86 7000 1.5 30 18:59 22.01.2020
336 Clouds -2 1034 86 7000 1.5 40 18:40 22.01.2020
337 Clouds -2 1034 86 7000 1.5 40 18:21 22.01.2020
338 Clouds -2 1034 86 7000 1 0 17:59 22.01.2020
339 Clouds -2 1034 86 7000 1 0 17:39 22.01.2020
340 Clouds -2 1034 86 7000 1 0 17:20 22.01.2020
341 Clouds -2 1034 86 8000 1.5 10 16:56 22.01.2020
342 Clouds -2 1034 86 9000 1 0 16:37 22.01.2020
343 Clouds -2 1034 86 9000 1 0 16:37 22.01.2020
344 Clouds -2 1034 86 9000 1 0 16:18 22.01.2020
345 Clouds -1 1033 80 8000 2.1 270 15:42 22.01.2020
346 Clouds -2 1034 80 8000 1 0 15:24 22.01.2020
347 Clouds -2 1034 80 8000 0.5 0 14:59 22.01.2020
348 Clouds -2 1034 80 8000 1 0 14:38 22.01.2020
349 Clouds -2 1034 80 8000 1 0 14:20 22.01.2020
350 Clouds -2 1034 86 7000 1.5 250 13:56 22.01.2020
351 Mist -2 1035 86 4500 1 0 13:37 22.01.2020
352 Mist -2 1035 86 4500 1 0 13:19 22.01.2020
353 Clouds -2 1035 86 7000 1 0 12:56 22.01.2020
354 Clouds -2 1035 86 7000 1 0 12:56 22.01.2020
355 Clouds -2 1035 86 7000 2.1 300 12:38 22.01.2020
356 Clouds -2 1035 86 7000 2.1 300 12:19 22.01.2020
357 Clouds -2 1035 86 7000 2.1 260 11:56 22.01.2020
358 Clouds -2 1034 86 7000 2.6 220 11:38 22.01.2020
359 Clouds -3 1034 86 7000 2.6 220 11:19 22.01.2020
360 Clouds -3 1034 86 7000 2.6 220 11:19 22.01.2020
361 Clouds -3 1034 86 6000 1.5 160 10:44 22.01.2020
362 Mist -3 1034 92 5000 2.1 150 10:21 22.01.2020
363 Mist -3 1035 86 5000 1 0 09:45 22.01.2020
364 Mist -3 1035 100 4500 0.5 0 09:26 22.01.2020
365 Mist -3 1035 92 4300 1.5 130 08:59 22.01.2020
366 Mist -3 1035 92 4300 1.5 130 08:40 22.01.2020
367 Mist -3 1035 92 4700 2.1 30 08:21 22.01.2020
368 Mist -3 1035 92 4700 1 0 07:59 22.01.2020
369 Mist -3 1035 92 4700 2.1 120 07:40 22.01.2020
370 Mist -3 1035 92 4700 2.1 120 07:21 22.01.2020
371 Mist -3 1035 92 4700 2.1 120 07:21 22.01.2020
372 Mist -3 1035 92 4700 1.5 70 06:33 22.01.2020
373 Mist -3 1034 100 1400 0.36 196 05:42 22.01.2020
374 Mist -3 1034 100 1400 0.36 196 05:42 22.01.2020
375 Mist -3 1035 92 4500 2.6 110 04:24 22.01.2020
376 Mist -3 1034 100 3000 3.1 160 03:26 22.01.2020
377 Mist -3 1036 92 4500 2.6 140 02:38 22.01.2020
378 Mist -3 1037 92 4700 2.1 90 00:46 22.01.2020
379 Mist -3 1037 92 5000 2.6 130 00:27 22.01.2020
380 Mist -3 1037 92 5000 3.6 130 23:55 21.01.2020
381 Clouds -3 1038 92 6000 2.6 140 23:36 21.01.2020
382 Clouds -3 1038 92 6000 2.6 140 23:18 21.01.2020
383 Clouds -4 1038 92 8000 0.5 0 22:40 21.01.2020
384 Clouds -4 1038 92 8000 0.5 0 22:20 21.01.2020
385 Clouds -4 1038 92 8000 2.1 90 21:57 21.01.2020
386 Clouds -4 1038 92 8000 2.1 90 21:38 21.01.2020
387 Clouds -3 1038 85 8000 1 0 21:20 21.01.2020
388 Clear -3 1038 92 9000 1 120 20:56 21.01.2020
389 Clear -3 1038 92 10000 0.5 0 20:37 21.01.2020
390 Clear -3 1038 92 10000 0.5 0 20:18 21.01.2020
391 Clear -3 1039 92 10000 0.5 350 19:56 21.01.2020
392 Clear -3 1039 92 10000 0.5 350 19:37 21.01.2020
393 Clouds -3 1038 100 10000 1.5 100 19:19 21.01.2020
394 Clear -2 1039 92 10000 1.5 230 18:55 21.01.2020
395 Clouds -2 1038 100 10000 1.5 110 18:37 21.01.2020
396 Clear -1 1039 86 10000 0.5 0 18:18 21.01.2020
397 Clear -1 1039 86 10000 1 220 17:44 21.01.2020
398 Clouds 0 1039 65 10000 1.5 210 17:20 21.01.2020
399 Clouds 0 1039 65 10000 1.5 240 16:58 21.01.2020
400 Clouds 1 1039 65 10000 2.6 230 16:37 21.01.2020
401 Clouds 1 1039 65 10000 2.6 230 16:18 21.01.2020
402 Clouds 2 1040 74 10000 2.6 230 15:42 21.01.2020
403 Clouds 2 1039 100 10000 1.5 140 15:21 21.01.2020
404 Clouds 2 1040 74 10000 2.1 190 14:59 21.01.2020
405 Clouds 1 1039 100 10000 2.6 130 14:37 21.01.2020
406 Clouds 1 1039 100 10000 2.6 130 14:19 21.01.2020
407 Clouds 2 1041 74 10000 2.6 200 13:40 21.01.2020
408 Clouds 1 1041 74 10000 2.6 200 13:19 21.01.2020
409 Clouds 1 1041 60 10000 3.1 200 12:43 21.01.2020
410 Clouds 1 1042 60 10000 3.1 200 12:43 21.01.2020
411 Clouds 1 1042 60 10000 3.1 200 12:25 21.01.2020
412 Clouds 0 1042 60 10000 3.6 170 11:57 21.01.2020
413 Clouds 0 1041 100 10000 3.6 140 11:38 21.01.2020
414 Clouds -1 1041 100 10000 3.6 140 11:20 21.01.2020
415 Mist -1 1041 100 8000 3.1 130 10:44 21.01.2020
416 Clear -2 1042 86 10000 1 0 10:24 21.01.2020
417 Clear -4 1042 86 10000 0.84 106 09:59 21.01.2020
418 Clear -4 1042 86 10000 0.84 106 09:41 21.01.2020
419 -273 0 0 0 0 0 09:22 21.01.2020
420 Mist -5 1041 100 2600 1.5 120 08:48 21.01.2020
421 Mist -6 1041 100 2000 2.6 50 08:29 21.01.2020
422 Clear -5 1042 92 10000 1.5 350 07:57 21.01.2020
423 Clear -5 1042 92 10000 1.5 350 07:38 21.01.2020
424 Clear -6 1042 92 10000 1.5 340 07:20 21.01.2020
425 Clear -5 1042 92 10000 1 350 06:45 21.01.2020
426 Clear -5 1042 92 10000 1 10 06:25 21.01.2020
427 Clear -5 1042 92 10000 1 10 05:41 21.01.2020
428 Clear -5 1042 92 10000 1 360 04:39 21.01.2020
429 Clear -4 1043 92 10000 0.5 0 02:55 21.01.2020
430 Clear -4 1043 92 9000 0.5 40 01:51 21.01.2020
431 Clear -3 1044 100 10000 1 360 00:57 21.01.2020
432 Clear -3 1044 92 10000 1 0 00:35 21.01.2020
433 Clear -3 1044 92 10000 1 0 23:57 20.01.2020
434 Clear -3 1044 92 10000 0.5 230 23:37 20.01.2020
435 Clear -3 1044 92 10000 0.5 230 23:18 20.01.2020
436 Clear -3 1044 92 10000 0.5 230 23:18 20.01.2020
437 Clear -2 1044 86 10000 1.5 130 22:56 20.01.2020
438 Clear -2 1044 92 10000 2.1 60 22:37 20.01.2020
439 Clear -2 1044 92 10000 2.1 60 22:18 20.01.2020
440 Clear -2 1044 86 10000 1 0 21:57 20.01.2020
441 Clear -2 1045 86 10000 2.1 90 21:36 20.01.2020
442 Clear -2 1045 86 10000 2.1 90 21:18 20.01.2020
443 Clear -2 1045 86 10000 1.5 90 20:55 20.01.2020
444 Clear -1 1045 85 10000 2.1 70 20:36 20.01.2020
445 Clear -1 1045 80 10000 2.1 70 20:18 20.01.2020
446 Clouds -1 1045 86 10000 2.1 50 19:56 20.01.2020
447 Clouds -1 1044 86 10000 1.5 40 19:37 20.01.2020
448 Clouds -1 1044 86 10000 1.5 40 19:18 20.01.2020
449 Clouds 0 1044 74 10000 2.1 60 18:42 20.01.2020
450 Clouds 0 1044 74 10000 2.1 60 18:21 20.01.2020
451 Clouds 2 1044 74 10000 2.1 40 17:39 20.01.2020
452 Clouds 3 1044 74 10000 1.5 40 17:19 20.01.2020
453 Clouds 3 1044 69 10000 1.5 60 16:55 20.01.2020
454 Clouds 4 1044 64 10000 1.5 70 16:36 20.01.2020
455 Clouds 4 1044 64 10000 1.5 70 16:18 20.01.2020
456 Clouds 4 1045 64 10000 1.5 90 15:41 20.01.2020
457 Clouds 4 1045 60 10000 2.1 80 15:22 20.01.2020
458 Clouds 5 1045 60 10000 2.1 80 14:59 20.01.2020
459 Clouds 4 1045 60 10000 2.1 80 14:40 20.01.2020
460 Clouds 4 1045 60 10000 2.6 60 14:21 20.01.2020
461 Clouds 4 1045 65 10000 2.1 0 13:57 20.01.2020
462 Clouds 4 1045 100 10000 3.6 40 13:38 20.01.2020
463 Clouds 4 1045 100 10000 3.6 40 13:20 20.01.2020
464 Clouds 4 1045 62 10000 1.5 20 12:42 20.01.2020
465 Clouds 3 1046 62 10000 0.5 0 12:23 20.01.2020
466 Clouds 3 1046 62 10000 0.5 0 11:56 20.01.2020
467 Clouds 3 1046 62 10000 1 0 11:37 20.01.2020
468 Clouds 2 1046 73 10000 1 0 11:18 20.01.2020
469 Clouds 2 1045 73 10000 0.5 0 10:46 20.01.2020
470 Clouds 1 1045 73 10000 0.5 0 10:21 20.01.2020
471 Mist 0 1044 100 4400 1.62 71 09:42 20.01.2020
472 Mist 0 1044 100 4400 1.62 71 09:24 20.01.2020
473 Clouds 0 1044 100 10000 0.5 350 08:56 20.01.2020
474 Clouds 0 1044 73 10000 0.5 0 08:34 20.01.2020
475 Clouds 0 1044 90 10000 0.5 0 07:59 20.01.2020
476 Clouds 0 1044 90 10000 0.5 0 07:41 20.01.2020
477 Clouds 0 1044 90 10000 0.5 0 07:21 20.01.2020
478 Clouds 0 1043 90 10000 1.5 330 06:42 20.01.2020
479 Clouds 0 1043 90 10000 1.5 330 06:21 20.01.2020
480 Clouds 0 1043 90 10000 0.5 320 05:38 20.01.2020
481 Clouds 0 1043 91 10000 0.5 320 05:19 20.01.2020
482 Clouds 0 1043 91 10000 0.5 0 03:55 20.01.2020
483 Clouds 1 1042 89 10000 0.5 320 01:58 20.01.2020
484 Clouds 1 1042 89 10000 1 0 01:39 20.01.2020
485 Clouds 1 1042 89 10000 1 0 00:56 20.01.2020
486 Clouds 1 1042 89 10000 1 0 00:38 20.01.2020
487 Clouds 1 1042 89 10000 1.5 120 00:38 20.01.2020
488 Clouds 1 1042 89 10000 1.5 120 00:20 20.01.2020
489 Clouds 1 1041 89 10000 2.6 110 23:38 19.01.2020
490 Clouds 1 1041 90 10000 2.6 110 23:18 19.01.2020
491 Clouds 1 1041 90 10000 1 340 22:55 19.01.2020
492 Clouds 1 1040 90 10000 1 0 22:37 19.01.2020
493 Clouds 1 1040 90 10000 1 0 22:19 19.01.2020
494 Clouds 1 1040 90 10000 2.1 300 21:56 19.01.2020
495 Clouds 1 1040 90 10000 1 360 21:37 19.01.2020
496 Clouds 1 1040 90 10000 1 360 21:19 19.01.2020
497 Clouds 1 1039 90 10000 2.1 300 20:56 19.01.2020
498 Clouds 1 1039 90 10000 1.5 310 20:38 19.01.2020
499 Clouds 1 1039 85 10000 1.5 310 20:19 19.01.2020
500 Clouds 1 1039 92 10000 1.5 340 19:55 19.01.2020
501 Clouds 1 1038 85 10000 0.5 0 19:37 19.01.2020
502 Clouds 1 1038 85 10000 0.5 0 19:19 19.01.2020
503 Clouds 1 1038 86 10000 1 330 18:55 19.01.2020
504 Rain 2 1038 86 10000 1.5 300 18:37 19.01.2020
505 Rain 2 1038 86 10000 1.5 300 18:19 19.01.2020
506 Clouds 2 1037 80 10000 1 300 17:57 19.01.2020
507 Clouds 2 1037 80 10000 2.6 310 17:38 19.01.2020
508 Clouds 2 1037 80 10000 2.6 310 17:19 19.01.2020
509 Clouds 2 1036 74 10000 2.6 330 16:57 19.01.2020
510 Clouds 3 1036 100 10000 1.19 349 16:37 19.01.2020
511 Clouds 3 1036 100 10000 1.19 349 16:19 19.01.2020
512 Rain 3 1035 80 10000 4.1 320 15:55 19.01.2020
513 Clouds 3 1035 80 10000 3.1 310 15:37 19.01.2020
514 Clouds 3 1035 80 10000 3.1 310 15:18 19.01.2020
515 Clouds 3 1034 80 10000 1.5 300 14:41 19.01.2020
516 Clouds 3 1034 80 10000 1.5 300 14:21 19.01.2020
517 Clouds 3 1034 80 10000 2.6 350 13:59 19.01.2020
518 Clouds 3 1034 80 10000 2.6 350 13:40 19.01.2020
519 Clouds 3 1034 78 10000 2.1 310 13:22 19.01.2020
520 Clouds 3 1034 78 10000 2.6 300 12:59 19.01.2020
521 Clouds 3 1034 78 10000 1.5 320 12:41 19.01.2020
522 Clouds 2 1034 78 10000 1.5 320 12:21 19.01.2020
523 Clouds 2 1034 78 10000 2.1 290 11:57 19.01.2020
524 Clouds 2 1034 78 10000 1.5 300 11:39 19.01.2020
525 Clouds 2 1034 88 10000 1.5 300 11:18 19.01.2020
526 Mist 1 1033 88 8000 2.1 280 10:41 19.01.2020
527 Mist 1 1033 88 8000 2.1 280 10:21 19.01.2020
528 Clouds 1 1032 88 10000 1 0 09:58 19.01.2020
529 Snow 1 1031 88 2400 2.1 270 09:39 19.01.2020
530 Snow 1 1031 88 2400 2.1 270 09:21 19.01.2020
531 Clouds 1 1031 88 10000 0.5 0 08:56 19.01.2020
532 Clouds 1 1031 88 10000 0.5 0 08:38 19.01.2020
533 Clouds 1 1031 93 10000 1 280 08:19 19.01.2020
534 Clouds 1 1030 93 10000 0.5 0 07:29 19.01.2020
535 Clouds 0 1030 93 10000 1 290 06:55 19.01.2020
536 Snow 0 1030 93 10000 1 310 06:23 19.01.2020
537 Clouds 1 1029 93 10000 1 270 04:18 19.01.2020
538 Clouds 1 1028 100 10000 3.1 280 02:34 19.01.2020
539 Clouds 1 1028 91 10000 2.6 290 01:43 19.01.2020
540 Clouds 1 1028 91 10000 2.6 290 01:21 19.01.2020
541 Clouds 2 1027 91 10000 4.6 280 00:45 19.01.2020
542 Clouds 2 1027 100 10000 2.6 270 00:24 19.01.2020
543 Clouds 2 1027 100 10000 2.6 270 23:55 18.01.2020
544 Clouds 2 1027 91 10000 2.1 260 23:36 18.01.2020
545 Clouds 2 1027 89 10000 2.1 260 23:18 18.01.2020
546 Clouds 2 1027 89 10000 2.1 270 22:42 18.01.2020
547 Clouds 2 1027 89 10000 1 0 22:24 18.01.2020
548 Clouds 2 1027 89 10000 1 240 21:58 18.01.2020
549 Clouds 2 1027 89 10000 1 240 21:39 18.01.2020
550 Clouds 2 1027 89 10000 1 0 21:20 18.01.2020
551 Clouds 2 1027 89 10000 2.6 250 20:57 18.01.2020
552 Clouds 2 1026 89 10000 2.1 230 20:39 18.01.2020
553 Clouds 2 1026 91 10000 2.1 230 20:19 18.01.2020
554 Clouds 3 1026 91 10000 2.1 210 19:43 18.01.2020
555 Clouds 3 1026 91 10000 2.1 210 19:24 18.01.2020
556 Clouds 3 1026 91 10000 2.6 230 18:43 18.01.2020
557 Clouds 3 1026 91 10000 3.6 230 18:25 18.01.2020
558 Clouds 3 1026 91 10000 3.6 230 18:25 18.01.2020
559 Clouds 3 1026 91 10000 2.6 230 17:59 18.01.2020
560 Clouds 3 1026 91 10000 2.6 230 17:40 18.01.2020
561 Clouds 4 1025 65 10000 3.1 240 17:20 18.01.2020
562 Clouds 4 1025 65 10000 4.1 260 16:56 18.01.2020
563 Clouds 5 1025 80 10000 4.1 260 16:38 18.01.2020
564 Clouds 5 1025 80 10000 4.1 260 16:19 18.01.2020
565 Clouds 5 1025 80 10000 3.1 260 15:44 18.01.2020
566 Clouds 5 1025 80 10000 3.1 290 15:25 18.01.2020
567 Clouds 5 1025 80 10000 3.6 270 14:59 18.01.2020
568 Clouds 5 1025 80 10000 3.6 270 14:40 18.01.2020
569 Clouds 6 1025 71 10000 4.6 260 14:19 18.01.2020
570 Clouds 6 1025 70 10000 4.6 250 13:55 18.01.2020
571 Clouds 6 1026 71 10000 5.7 250 13:36 18.01.2020
572 Clouds 5 1026 74 10000 5.7 250 13:18 18.01.2020
573 Clouds 5 1026 74 10000 5.7 250 13:18 18.01.2020
574 Clouds 6 1026 70 10000 4.1 270 12:40 18.01.2020
575 Clouds 5 1026 70 10000 4.1 270 12:21 18.01.2020
576 Clouds 5 1026 75 10000 4.1 250 11:45 18.01.2020
577 Clouds 5 1026 75 10000 4.1 250 11:24 18.01.2020
578 Clouds 4 1026 80 10000 3.6 260 10:58 18.01.2020
579 Clouds 4 1026 80 10000 3.6 260 10:39 18.01.2020
580 Clouds 4 1026 80 10000 3.6 260 10:20 18.01.2020
581 Clouds 4 1026 80 10000 3.6 260 10:20 18.01.2020
582 Clouds 4 1026 86 10000 3.6 250 09:49 18.01.2020
583 Clouds 3 1026 86 10000 2.6 240 09:31 18.01.2020
584 Clouds 3 1025 80 10000 1.5 220 08:57 18.01.2020
585 Clouds 3 1025 80 10000 1.5 220 08:39 18.01.2020
586 Clouds 3 1025 93 10000 1 260 08:19 18.01.2020
587 Clouds 3 1025 80 10000 2.1 240 07:50 18.01.2020
588 Clouds 3 1025 86 10000 2.6 230 07:31 18.01.2020
589 Clouds 4 1024 86 10000 2.6 260 06:47 18.01.2020
590 Clouds 4 1024 86 10000 3.1 270 05:59 18.01.2020
591 Clouds 4 1023 80 10000 4.1 280 05:24 18.01.2020
592 Clouds 4 1022 87 10000 3.6 260 02:56 18.01.2020
593 Drizzle 5 1021 100 10000 4.1 260 01:54 18.01.2020
594 Clouds 5 1021 100 10000 2.6 240 01:30 18.01.2020
595 Clouds 5 1021 100 10000 2.6 250 00:37 18.01.2020
596 Clouds 5 1021 100 10000 2.6 250 00:37 18.01.2020
597 Clouds 5 1021 100 10000 2.6 250 00:37 18.01.2020
598 Clouds 5 1021 100 10000 2.6 250 00:18 18.01.2020
599 Drizzle 5 1020 87 10000 1.5 200 23:41 17.01.2020
600 Rain 5 1020 87 10000 2.1 180 23:20 17.01.2020
601 Rain 5 1020 100 10000 4.1 240 22:45 17.01.2020
602 Clouds 5 1020 93 10000 1.5 150 22:22 17.01.2020
603 Rain 5 1020 86 10000 2.1 130 21:59 17.01.2020
604 Rain 5 1020 86 10000 2.1 130 21:41 17.01.2020
605 Rain 4 1020 86 10000 2.1 120 21:22 17.01.2020
606 Drizzle 4 1020 100 10000 4.6 240 20:57 17.01.2020
607 Clouds 4 1019 86 10000 1 0 20:38 17.01.2020
608 Clouds 4 1019 86 10000 1 0 20:20 17.01.2020
609 Clouds 4 1019 86 10000 1 0 20:20 17.01.2020
610 Clouds 4 1019 80 10000 3.1 120 19:55 17.01.2020
611 Clouds 4 1019 80 10000 3.1 120 19:55 17.01.2020
612 Clouds 4 1019 80 10000 4.1 100 19:37 17.01.2020
613 Clouds 4 1019 80 10000 4.1 100 19:18 17.01.2020
614 Clouds 5 1019 80 10000 3.6 100 18:47 17.01.2020
615 Clouds 5 1019 75 10000 5.1 130 18:28 17.01.2020
616 Clouds 5 1018 75 10000 4.1 120 17:56 17.01.2020
617 Clouds 5 1018 75 10000 4.1 120 17:56 17.01.2020
618 Clouds 4 1018 80 10000 3.6 120 17:38 17.01.2020
619 Clouds 5 1018 80 10000 3.6 120 17:20 17.01.2020
620 Clouds 5 1018 75 10000 3.6 120 16:43 17.01.2020
621 Clouds 5 1018 70 10000 3.6 130 16:20 17.01.2020
622 Clouds 6 1018 65 10000 3.1 130 15:49 17.01.2020
623 Clouds 6 1018 65 10000 3.6 130 15:28 17.01.2020
624 Clouds 6 1018 70 10000 3.1 130 14:59 17.01.2020
625 Clouds 6 1018 70 10000 3.1 130 14:40 17.01.2020
626 -273 0 0 0 0 0 14:22 17.01.2020
627 Clouds 5 1019 70 10000 2.6 130 13:42 17.01.2020
628 Clouds 5 1019 70 10000 3.1 140 13:22 17.01.2020
629 Clouds 4 1020 75 10000 3.1 150 12:46 17.01.2020
630 Clouds 3 1020 75 10000 3.1 150 12:23 17.01.2020
631 Clouds 3 1020 86 9000 3.6 130 11:41 17.01.2020
632 Clouds 3 1020 80 10000 3.1 150 11:41 17.01.2020
633 Clear 2 1020 86 9000 3.6 130 11:20 17.01.2020
634 Clear 1 1021 83 9000 3.1 120 10:56 17.01.2020
635 Clear 1 1021 83 9000 2.1 120 10:37 17.01.2020
636 Clear 1 1021 83 9000 2.1 120 10:19 17.01.2020
637 Mist 0 1020 83 5000 2.1 180 09:43 17.01.2020
638 Fog -1 1021 92 8000 2.6 110 09:21 17.01.2020
639 Clouds -1 1021 92 10000 1.5 90 08:56 17.01.2020
640 Clouds -1 1021 92 10000 1 0 08:38 17.01.2020
641 Clouds -1 1021 92 10000 1 0 08:19 17.01.2020
642 Clouds -1 1021 100 10000 2.6 200 07:43 17.01.2020
643 Clear -1 1021 92 10000 2.6 130 07:25 17.01.2020
644 Clouds -1 1021 100 10000 2.6 80 06:51 17.01.2020
645 Clouds -1 1022 100 10000 1 0 06:30 17.01.2020
646 Fog 0 1022 93 10000 2.1 90 04:27 17.01.2020
647 Clear 1 1023 90 0 0.89 215 02:56 17.01.2020
648 Clear 1 1023 90 0 0.89 215 02:56 17.01.2020
649 Clear 1 1010 80 0 1.32 157 02:32 17.01.2020
650 Clear 1 1010 81 0 1.34 132 01:33 17.01.2020
651 Clear 1 1011 78 0 2.02 114 00:59 17.01.2020
652 Clear 1 1011 78 0 2.02 114 00:59 17.01.2020
653 Clear 1 1025 88 0 0.89 220 00:35 17.01.2020
654 Clear 2 1026 90 10000 0.5 350 23:57 16.01.2020
655 Clear 1 1026 90 10000 0.5 350 23:38 16.01.2020
656 Clear 2 1026 88 10000 0.5 350 23:19 16.01.2020
657 Clear 2 1026 93 10000 0.5 0 22:41 16.01.2020
658 Clear 3 1026 93 10000 0.5 0 22:21 16.01.2020
659 Clear 3 1027 93 10000 0.5 0 21:57 16.01.2020
660 Clear 3 1027 86 10000 1.5 110 21:37 16.01.2020
661 Clear 3 1027 86 10000 1.5 110 21:19 16.01.2020
662 Clear 3 1027 86 10000 2.6 110 20:56 16.01.2020
663 Clear 4 1027 86 10000 3.1 100 20:37 16.01.2020
664 Clear 4 1027 86 10000 3.1 100 20:18 16.01.2020
665 Clear 5 1027 80 10000 3.6 100 19:55 16.01.2020
666 Clear 5 1028 86 10000 3.1 90 19:37 16.01.2020
667 Clear 5 1028 86 10000 3.1 90 19:18 16.01.2020
668 Clouds 5 1027 80 10000 4.1 100 18:55 16.01.2020
669 Clouds 6 1028 80 10000 3.6 120 18:36 16.01.2020
670 Clouds 6 1028 80 10000 3.6 120 18:18 16.01.2020
671 Clouds 7 1028 70 10000 3.6 100 17:41 16.01.2020
672 Clouds 8 1028 70 10000 3.6 100 17:22 16.01.2020
673 Clouds 8 1028 66 10000 2.6 110 16:57 16.01.2020
674 Clouds 9 1027 66 10000 3.1 150 16:38 16.01.2020
675 Clouds 10 1027 66 10000 3.1 150 16:19 16.01.2020
676 Clouds 10 1027 62 10000 3.1 130 15:44 16.01.2020
677 Clouds 11 1027 54 10000 3.1 160 15:22 16.01.2020
678 Clouds 11 1028 54 10000 1 0 14:56 16.01.2020
679 Clouds 11 1028 54 10000 1.5 150 14:37 16.01.2020
680 Clouds 11 1028 54 10000 1.5 150 14:19 16.01.2020
681 Clouds 10 1028 58 10000 1.5 110 13:44 16.01.2020
682 Clouds 10 1028 66 10000 2.1 120 13:25 16.01.2020
683 Clouds 9 1029 66 10000 2.6 140 12:46 16.01.2020
684 Clouds 9 1029 66 10000 3.1 140 12:28 16.01.2020
685 Clouds 8 1029 66 10000 4.6 140 11:57 16.01.2020
686 Clouds 8 1029 70 10000 3.6 140 11:39 16.01.2020
687 Clouds 7 1029 70 10000 3.6 140 11:21 16.01.2020
688 Rain 6 1029 75 10000 3.1 120 10:39 16.01.2020
689 Rain 6 1029 75 10000 3.1 120 10:21 16.01.2020
690 Clouds 5 1029 81 10000 3.1 110 09:58 16.01.2020
691 Clouds 5 1029 75 10000 3.1 100 09:40 16.01.2020
692 Clouds 5 1029 75 10000 3.1 100 09:21 16.01.2020
693 Clouds 5 1029 75 10000 3.6 100 08:52 16.01.2020
694 Clouds 5 1028 75 10000 3.6 100 08:34 16.01.2020
695 Clouds 5 1028 75 10000 3.1 110 07:59 16.01.2020
696 Clouds 5 1028 75 10000 3.1 110 07:39 16.01.2020
697 Clouds 5 1028 75 10000 3.6 100 07:20 16.01.2020
698 Clouds 5 1028 75 10000 3.6 100 06:43 16.01.2020
699 Clouds 5 1028 75 10000 3.1 100 06:21 16.01.2020
700 Clouds 5 1027 75 10000 3.1 120 05:45 16.01.2020
701 Clouds 4 1027 75 10000 3.1 110 04:40 16.01.2020
702 Clouds 4 1026 70 10000 3.1 110 03:28 16.01.2020
703 Clouds 4 1026 75 10000 3.6 100 02:43 16.01.2020
704 Clouds 5 1025 75 10000 3.1 130 00:54 16.01.2020
705 Clouds 4 1024 75 10000 3.6 130 00:24 16.01.2020
706 Clouds 4 1024 80 10000 3.6 120 23:51 15.01.2020
707 Clouds 3 1023 82 10000 4.1 130 23:23 15.01.2020
708 Clouds 3 1023 85 10000 4.6 110 22:59 15.01.2020
709 Clouds 3 1023 85 10000 4.6 110 22:41 15.01.2020
710 Clouds 3 1023 80 10000 4.1 110 22:19 15.01.2020
711 Clouds 3 1023 85 10000 3.6 110 21:58 15.01.2020
712 Clouds 4 1023 85 10000 3.6 110 21:40 15.01.2020
713 Clouds 4 1022 85 10000 3.6 120 21:21 15.01.2020
714 Clouds 4 1022 85 10000 3.6 110 20:58 15.01.2020
715 Clouds 4 1022 85 10000 3.6 110 20:58 15.01.2020
716 Clouds 4 1022 85 10000 3.6 110 20:40 15.01.2020
717 Clouds 4 1022 82 10000 3.6 120 20:21 15.01.2020
718 Clouds 4 1022 75 10000 4.1 110 19:55 15.01.2020
719 Clouds 4 1022 75 10000 4.1 110 19:55 15.01.2020
720 Clouds 4 1022 75 10000 4.1 110 19:55 15.01.2020
721 Clouds 4 1021 75 10000 3.1 130 19:37 15.01.2020
722 Clouds 5 1021 75 10000 3.1 130 19:19 15.01.2020
723 Clouds 5 1021 75 10000 4.1 120 18:57 15.01.2020
724 Clouds 5 1021 75 10000 4.1 120 18:38 15.01.2020
725 Clouds 6 1020 70 10000 3.6 120 18:20 15.01.2020
726 Clouds 6 1020 61 10000 2.1 140 18:20 15.01.2020
727 Clouds 6 1020 70 10000 3.6 120 18:20 15.01.2020
728 Clouds 6 1020 61 10000 2.1 140 17:58 15.01.2020
729 Clouds 7 1020 57 10000 2.1 150 17:40 15.01.2020
730 Clear 7 1020 57 10000 2.1 150 17:21 15.01.2020
731 Clear 8 1019 53 10000 2.6 180 16:42 15.01.2020
732 Clear 9 1019 50 10000 3.1 170 16:24 15.01.2020
733 Clear 10 1018 46 10000 3.1 180 15:59 15.01.2020
734 Clear 10 1018 46 10000 3.6 180 15:41 15.01.2020
735 Clear 11 1018 46 10000 3.6 180 15:20 15.01.2020
736 Clear 10 1018 46 10000 2.6 180 14:44 15.01.2020
737 Clouds 11 1018 50 10000 3.6 180 14:21 15.01.2020
738 Clouds 10 1018 46 10000 3.6 160 13:56 15.01.2020
739 Clouds 10 1018 46 10000 3.1 140 13:38 15.01.2020
740 Clouds 9 1018 45 10000 3.1 140 13:19 15.01.2020
741 Clouds 9 1019 45 10000 3.6 140 12:41 15.01.2020
742 Clouds 8 1019 52 10000 3.6 160 12:20 15.01.2020
743 Clouds 7 1019 56 10000 2.6 160 11:59 15.01.2020
744 Clouds 7 1019 60 10000 3.6 150 11:38 15.01.2020
745 Clouds 7 1019 60 10000 3.6 150 11:38 15.01.2020
746 Clouds 5 1019 60 10000 3.6 150 11:19 15.01.2020
747 Clouds 5 1019 60 10000 4.1 140 10:46 15.01.2020
748 Clouds 4 1019 64 10000 3.6 130 10:28 15.01.2020
749 Clouds 3 1019 69 10000 5.1 130 09:55 15.01.2020
750 Clouds 3 1019 69 10000 4.1 130 09:37 15.01.2020
751 Clouds 3 1019 69 10000 4.1 130 09:19 15.01.2020
752 Clouds 3 1019 69 10000 4.1 130 08:44 15.01.2020
753 Clouds 3 1019 74 10000 4.1 130 08:23 15.01.2020
754 Clouds 3 1019 74 10000 4.1 130 07:54 15.01.2020
755 Clouds 3 1019 74 10000 3.6 140 07:32 15.01.2020
756 Clouds 3 1018 69 10000 4.6 130 06:48 15.01.2020
757 Clouds 3 1018 74 10000 3.1 140 06:23 15.01.2020
758 Clouds 4 1018 74 10000 4.1 120 04:45 15.01.2020
759 Clouds 5 1018 47 10000 2.6 110 02:39 15.01.2020
760 Clouds 5 1018 48 10000 4.1 130 01:28 15.01.2020
761 Clouds 5 1018 49 10000 5.1 130 00:59 15.01.2020
762 Clouds 5 1018 49 10000 5.1 130 00:59 15.01.2020
763 Clouds 6 1018 49 10000 3.6 140 00:36 15.01.2020
764 Clouds 6 1018 49 10000 3.6 140 00:18 15.01.2020
765 Clouds 6 1018 65 10000 4.1 140 23:45 14.01.2020
766 Clouds 6 1018 49 10000 4.1 130 23:24 14.01.2020
767 Clouds 6 1018 48 10000 3.1 120 22:41 14.01.2020
768 Clouds 6 1018 48 10000 3.1 120 22:19 14.01.2020
769 Clouds 6 1018 48 10000 4.1 110 21:59 14.01.2020
770 Clouds 6 1017 48 10000 4.6 130 21:40 14.01.2020
771 Clouds 6 1017 48 10000 4.6 130 21:22 14.01.2020
772 Clouds 6 1017 48 10000 5.1 140 20:59 14.01.2020
773 Clouds 6 1017 48 10000 5.1 140 20:40 14.01.2020
774 Clouds 6 1017 48 10000 5.1 140 20:40 14.01.2020
775 Rain 6 1018 65 10000 4.1 130 20:20 14.01.2020
776 Rain 6 1018 65 10000 4.1 130 20:20 14.01.2020
777 Rain 6 1018 65 10000 4.1 130 19:56 14.01.2020
778 Drizzle 6 1017 75 10000 4.6 160 19:38 14.01.2020
779 Drizzle 6 1017 75 10000 4.6 160 19:18 14.01.2020
780 Rain 6 1017 65 10000 4.1 140 18:55 14.01.2020
781 Clouds 6 1017 59 10000 4.6 150 18:37 14.01.2020
782 Clouds 6 1017 59 10000 4.6 150 18:18 14.01.2020
783 Clouds 6 1017 59 10000 4.6 150 17:38 14.01.2020
784 Clouds 7 1017 58 10000 4.6 150 17:19 14.01.2020
785 Clouds 7 1017 58 10000 4.6 140 16:55 14.01.2020
786 Clouds 7 1017 58 10000 4.6 140 16:55 14.01.2020
787 Clouds 7 1016 61 10000 3.6 130 16:37 14.01.2020
788 Clouds 7 1016 61 10000 3.6 130 16:19 14.01.2020
789 Clouds 7 1016 57 10000 4.6 130 15:42 14.01.2020
790 Clouds 7 1016 58 10000 4.6 150 15:19 14.01.2020
791 Clouds 7 1016 58 10000 4.6 150 14:47 14.01.2020
792 Clouds 8 1016 46 10000 4.6 160 14:23 14.01.2020
793 Clouds 8 1016 49 10000 4.6 150 13:59 14.01.2020
794 Clouds 7 1016 49 10000 5.7 150 13:40 14.01.2020
795 Clouds 7 1016 49 10000 5.7 150 13:19 14.01.2020
796 Clouds 7 1016 52 10000 5.1 160 12:42 14.01.2020
797 Clouds 6 1016 56 10000 5.7 140 12:23 14.01.2020
798 Clouds 5 1016 60 10000 4.6 140 11:57 14.01.2020
799 Clouds 5 1016 65 10000 4.6 140 11:39 14.01.2020
800 Clouds 4 1016 65 10000 4.6 140 11:20 14.01.2020
801 Clouds 3 1017 64 10000 3.1 140 10:56 14.01.2020
802 Clouds 3 1017 69 10000 3.6 140 10:37 14.01.2020
803 Clouds 2 1017 69 10000 3.6 140 10:19 14.01.2020
804 Clouds 2 1016 74 10000 4.6 130 09:42 14.01.2020
805 Clouds 2 1016 80 10000 5.1 130 09:23 14.01.2020
806 Clouds 1 1016 80 10000 4.6 120 08:58 14.01.2020
807 Clouds 1 1016 80 10000 4.6 120 08:39 14.01.2020
808 Clouds 0 1015 80 10000 4.6 120 08:20 14.01.2020
809 Clouds 0 1016 70 10000 4.1 120 07:40 14.01.2020
810 Clouds 0 1016 70 10000 4.1 120 06:59 14.01.2020
811 Clouds 1 1016 70 10000 4.1 120 06:59 14.01.2020
812 Clouds 0 1016 70 10000 4.1 120 06:40 14.01.2020
813 Clouds 0 1015 80 10000 5.1 120 05:56 14.01.2020
814 Clouds 0 1016 86 10000 3.6 130 04:24 14.01.2020
815 Clouds 0 1016 86 10000 4.1 130 03:45 14.01.2020
816 Clouds 1 1016 77 10000 4.1 120 02:30 14.01.2020
817 Clouds 1 1018 82 10000 3.1 110 01:18 14.01.2020
818 Clouds 1 1018 82 10000 4.1 120 00:42 14.01.2020
819 Clouds 1 1018 82 10000 3.6 130 00:21 14.01.2020
820 Clouds 1 1017 86 10000 3.1 120 23:42 13.01.2020
821 Clouds 1 1018 78 10000 2.6 130 23:18 13.01.2020
822 Clouds 1 1018 78 10000 2.6 130 23:18 13.01.2020
823 Clouds 2 1018 78 10000 3.1 120 22:55 13.01.2020
824 Clouds 2 1018 100 10000 3.1 120 22:37 13.01.2020
825 Clouds 2 1018 100 10000 3.1 120 22:19 13.01.2020
826 Clouds 2 1018 93 10000 3.1 110 21:54 13.01.2020
827 Rain 2 1018 86 10000 4.1 120 21:36 13.01.2020
828 Clouds 3 1019 86 10000 4.1 120 21:18 13.01.2020
829 Clouds 3 1019 86 10000 4.1 120 20:42 13.01.2020
830 Rain 3 1019 86 10000 2.1 130 20:23 13.01.2020
831 Clouds 3 1019 86 10000 3.1 140 19:59 13.01.2020
832 Clouds 4 1019 86 10000 3.1 140 19:41 13.01.2020
833 Clouds 4 1019 100 10000 2.1 160 19:20 13.01.2020
834 Clouds 4 1019 100 10000 2.1 160 19:20 13.01.2020
835 Clouds 4 1020 86 10000 3.6 140 18:58 13.01.2020
836 Clouds 4 1020 86 10000 3.6 140 18:58 13.01.2020
837 Clouds 4 1020 86 10000 3.6 140 18:38 13.01.2020
838 Clouds 4 1020 80 10000 3.6 160 18:38 13.01.2020
839 Clouds 4 1020 80 10000 3.6 160 18:19 13.01.2020
840 Clouds 4 1019 100 10000 2.6 160 17:57 13.01.2020
841 Clouds 4 1019 86 10000 3.6 140 17:38 13.01.2020
842 Clouds 4 1019 86 10000 3.6 140 17:20 13.01.2020
843 Clouds 5 1018 1 0 0.45 171 16:40 13.01.2020
844 Clouds 5 1018 1 0 0.45 171 16:40 13.01.2020
845 Clouds 5 1018 1 0 0.89 186 16:22 13.01.2020
846 Clouds 5 1007 75 0 1.79 106 15:55 13.01.2020
847 Clouds 5 1018 1 0 2.43 148 15:36 13.01.2020
848 Clouds 5 1018 1 0 0.89 187 15:18 13.01.2020
849 Clouds 5 1023 91 0 0.45 173 14:42 13.01.2020
850 Clouds 5 1020 82 0 1.79 210 14:23 13.01.2020
851 Clouds 5 1007 73 0 1.79 217 13:57 13.01.2020
852 Clouds 5 1019 1 0 0.89 189 13:39 13.01.2020
853 Clouds 4 1021 83 0 1.79 212 13:20 13.01.2020
854 Mist 4 1022 100 4400 2.6 160 12:43 13.01.2020
855 Mist 4 1022 100 4400 2.6 160 12:23 13.01.2020
856 Mist 4 1022 100 4400 2.6 160 11:59 13.01.2020
857 Clouds 4 1023 86 10000 3.6 140 11:39 13.01.2020
858 Clouds 3 1023 86 10000 3.6 140 11:19 13.01.2020
859 Clouds 3 1024 93 8000 3.6 140 10:57 13.01.2020
860 Clouds 3 1024 93 7000 4.1 150 10:38 13.01.2020
861 Clouds 3 1024 93 7000 4.1 150 10:20 13.01.2020
862 Clouds 3 1024 93 7000 3.6 140 09:55 13.01.2020
863 Clouds 3 1024 93 7000 4.1 150 09:37 13.01.2020
864 Clouds 3 1024 93 7000 4.1 150 09:19 13.01.2020
865 Clouds 3 1024 93 7000 2.6 140 08:38 13.01.2020
866 Clouds 3 1024 93 7000 2.6 140 08:19 13.01.2020
867 Clouds 3 1024 93 7000 2.6 140 07:45 13.01.2020
868 Clouds 3 1024 93 7000 2.6 160 07:27 13.01.2020
869 Clouds 3 1025 93 10000 2.1 140 06:39 13.01.2020
870 Clouds 3 1025 93 10000 1.5 110 05:57 13.01.2020
871 Clouds 3 1025 93 10000 2.6 160 05:19 13.01.2020
872 Clouds 2 1026 93 10000 1 0 03:44 13.01.2020
873 Clouds 2 1026 86 10000 1.5 180 02:51 13.01.2020
874 Clouds 2 1026 100 10000 5.1 250 02:30 13.01.2020
875 Clouds 2 1026 89 10000 2.1 170 01:33 13.01.2020
876 Clouds 2 1026 89 10000 1.5 140 00:48 13.01.2020
877 Clouds 2 1027 89 10000 2.1 120 00:26 13.01.2020
878 Clouds 2 1027 89 10000 2.1 130 23:59 12.01.2020
879 Clouds 2 1027 89 10000 2.1 130 23:40 12.01.2020
880 Clouds 2 1026 82 10000 2.6 150 23:22 12.01.2020
881 Clouds 2 1026 82 10000 2.6 150 22:56 12.01.2020
882 Drizzle 2 1027 82 10000 2.6 170 22:37 12.01.2020
883 Drizzle 2 1027 82 10000 2.6 170 22:19 12.01.2020
884 Clouds 2 1026 100 10000 3.1 220 21:54 12.01.2020
885 Clouds 2 1026 80 10000 2.6 170 21:36 12.01.2020
886 Clouds 2 1026 80 10000 2.6 170 21:18 12.01.2020
887 Clouds 2 1026 100 10000 3.1 200 20:54 12.01.2020
888 Clouds 2 1026 100 10000 2.6 190 20:36 12.01.2020
889 Clouds 2 1026 100 10000 2.6 190 20:18 12.01.2020
890 Clouds 2 1026 80 10000 3.1 180 19:54 12.01.2020
891 Clouds 2 1027 80 10000 2.6 190 19:36 12.01.2020
892 Clouds 1 1027 80 10000 2.6 190 19:18 12.01.2020
893 Clouds 1 1027 80 10000 2.6 190 19:18 12.01.2020
894 Clouds 1 1027 80 10000 3.1 200 18:54 12.01.2020
895 Clouds 1 1026 80 10000 2.6 230 18:36 12.01.2020
896 Clouds 1 1027 80 10000 2.1 240 18:18 12.01.2020
897 Clouds 1 1027 80 10000 2.1 240 17:42 12.01.2020
898 Clouds 2 1026 80 10000 1.5 250 17:20 12.01.2020
899 Clouds 2 1026 80 10000 2.6 250 16:57 12.01.2020
900 Clouds 2 1026 81 10000 1.5 210 16:37 12.01.2020
901 Clouds 2 1026 81 10000 1.5 210 16:19 12.01.2020
902 Clouds 2 1026 80 10000 2.1 200 15:43 12.01.2020
903 Clouds 2 1026 80 10000 3.6 220 15:25 12.01.2020
904 Clouds 2 1026 80 10000 3.1 220 14:57 12.01.2020
905 Clouds 2 1026 80 10000 4.1 230 14:38 12.01.2020
906 Clouds 2 1026 80 10000 4.1 230 14:20 12.01.2020
907 Clouds 2 1026 75 10000 4.1 220 13:55 12.01.2020
908 Rain 2 1026 75 10000 3.6 220 13:36 12.01.2020
909 Rain 2 1026 75 10000 3.6 220 13:18 12.01.2020
910 Rain 2 1026 75 10000 3.6 220 13:18 12.01.2020
911 Rain 2 1026 70 10000 3.6 220 13:18 12.01.2020
912 Clouds 2 1027 70 10000 2.1 190 12:43 12.01.2020
913 Clouds 1 1027 80 10000 2.1 190 12:21 12.01.2020
914 Clouds 1 1027 86 10000 2.1 180 11:59 12.01.2020
915 Clouds 0 1027 86 10000 2.1 180 11:39 12.01.2020
916 Clouds 0 1028 83 10000 1 0 11:21 12.01.2020
917 Mist -1 1027 100 8000 2.23 208 10:42 12.01.2020
918 Clouds -1 1027 92 10000 1.5 100 10:22 12.01.2020
919 Clouds -2 1027 92 10000 2.1 110 09:59 12.01.2020
920 Clouds -2 1027 92 10000 2.6 110 09:41 12.01.2020
921 Clouds -2 1027 92 10000 2.6 110 09:20 12.01.2020
922 Mist -3 1026 100 4400 1.5 210 08:45 12.01.2020
923 Clouds -4 1027 100 10000 1 100 08:21 12.01.2020
924 Clouds -4 1027 92 10000 1.5 100 07:44 12.01.2020
925 Clouds -4 1027 92 10000 2.6 100 07:25 12.01.2020
926 Clouds -3 1027 92 10000 2.6 100 06:49 12.01.2020
927 Clouds -4 1027 92 10000 3.1 110 06:30 12.01.2020
928 Clouds -3 1028 92 10000 3.1 100 05:47 12.01.2020
929 Clouds -3 1028 92 10000 3.1 100 04:51 12.01.2020
930 Clouds -3 1029 92 10000 2.6 100 03:27 12.01.2020
931 Clouds -2 1029 92 10000 3.1 100 02:34 12.01.2020
932 Clouds -2 1029 92 10000 3.1 100 01:55 12.01.2020
933 Clouds -2 1030 92 10000 2.6 100 01:29 12.01.2020
934 Clouds -2 1030 92 10000 3.1 100 00:42 12.01.2020
935 Clouds -2 1030 92 10000 3.1 100 00:20 12.01.2020
936 Clouds -2 1030 92 10000 3.1 100 23:55 11.01.2020
937 Clouds -2 1031 92 10000 3.6 110 23:37 11.01.2020
938 Clouds -2 1031 92 10000 3.6 110 23:18 11.01.2020
939 Clouds -2 1031 86 10000 3.1 100 22:42 11.01.2020
940 Clouds -2 1031 86 10000 2.6 110 22:21 11.01.2020
941 Clouds -2 1031 86 10000 2.6 100 21:59 11.01.2020
942 Clouds -1 1031 86 10000 2.6 100 21:41 11.01.2020
943 Clouds -1 1031 86 10000 2.6 100 21:18 11.01.2020
944 Clouds -1 1031 86 10000 3.1 100 20:42 11.01.2020
945 Clouds -1 1032 75 10000 3.1 90 20:22 11.01.2020
946 Clouds 0 1032 74 10000 3.1 100 19:59 11.01.2020
947 Clouds 0 1032 74 10000 3.1 100 19:40 11.01.2020
948 Clouds 0 1032 74 10000 3.1 100 19:40 11.01.2020
949 Clouds 0 1032 80 10000 2.1 100 19:22 11.01.2020
950 Clouds 1 1032 74 10000 2.6 100 18:59 11.01.2020
951 Clouds 1 1032 74 10000 2.6 100 18:39 11.01.2020
952 Clouds 1 1032 74 10000 1 120 18:20 11.01.2020
953 Clouds 2 1032 74 10000 1.5 180 17:58 11.01.2020
954 Clouds 2 1032 69 10000 3.1 160 17:40 11.01.2020
955 Clouds 2 1032 69 10000 3.1 160 17:19 11.01.2020
956 Clouds 3 1033 64 10000 2.6 250 16:46 11.01.2020
957 Clouds 4 1032 64 10000 2.1 200 16:46 11.01.2020
958 Clouds 4 1033 64 10000 2.6 250 16:27 11.01.2020
959 Clouds 4 1032 69 10000 0.57 208 15:59 11.01.2020
960 Clouds 5 1032 65 10000 2.1 230 15:41 11.01.2020
961 Clouds 5 1032 72 10000 1 0 15:22 11.01.2020
962 Clouds 5 1032 65 10000 1 0 14:57 11.01.2020
963 Clouds 5 1032 65 10000 1 0 14:38 11.01.2020
964 Clouds 5 1032 65 10000 1 0 14:20 11.01.2020
965 Clouds 4 1033 65 10000 2.1 260 13:40 11.01.2020
966 Clouds 4 1033 64 10000 0.76 208 13:20 11.01.2020
967 Clouds 4 1033 71 10000 2.6 280 12:58 11.01.2020
968 Clouds 5 1034 71 10000 1.5 310 12:39 11.01.2020
969 Clouds 5 1034 71 10000 1.5 310 12:21 11.01.2020
970 Clouds 4 1034 71 10000 1 0 11:47 11.01.2020
971 Clouds 4 1034 80 10000 0.5 0 11:26 11.01.2020
972 Clouds 4 1034 88 10000 1.5 320 10:50 11.01.2020
973 Clouds 4 1033 86 10000 0.5 0 10:30 11.01.2020
974 Clouds 3 1033 93 10000 0.5 0 09:55 11.01.2020
975 Clouds 3 1033 93 10000 0.5 0 09:37 11.01.2020
976 Clouds 3 1033 93 10000 0.5 0 09:18 11.01.2020
977 Clouds 3 1033 93 10000 1.5 300 08:41 11.01.2020
978 Clouds 3 1033 93 10000 1 260 08:21 11.01.2020
979 Clouds 3 1032 86 10000 1 0 07:44 11.01.2020
980 Clouds 3 1032 86 10000 1.5 310 07:25 11.01.2020
981 Clouds 3 1032 100 10000 2.1 310 06:45 11.01.2020
982 Clouds 3 1031 80 10000 3.6 340 05:33 11.01.2020
983 Clouds 4 1031 86 10000 2.1 320 04:45 11.01.2020
984 Clouds 4 1031 86 10000 2.1 320 04:27 11.01.2020
985 Clouds 5 1029 80 10000 5.1 300 02:48 11.01.2020
986 Drizzle 5 1029 87 10000 4.6 290 01:51 11.01.2020
987 Rain 5 1028 87 10000 5.1 280 01:32 11.01.2020
988 Clouds 6 1028 87 10000 5.7 270 00:58 11.01.2020
989 Clouds 6 1027 87 10000 5.1 270 00:32 11.01.2020
990 Clouds 6 1027 87 10000 5.7 270 23:59 10.01.2020
991 Clouds 6 1027 87 10000 5.7 270 23:59 10.01.2020
992 Clouds 6 1027 87 10000 5.1 280 23:39 10.01.2020
993 Clouds 6 1027 87 10000 5.1 280 23:39 10.01.2020
994 Clouds 6 1027 87 10000 5.1 280 23:20 10.01.2020
995 Clouds 6 1026 87 10000 4.6 270 22:54 10.01.2020
996 Drizzle 6 1027 100 10000 4.6 280 22:36 10.01.2020
997 Drizzle 6 1027 100 10000 4.6 280 22:18 10.01.2020
998 Clouds 6 1025 93 10000 4.1 270 21:41 10.01.2020
999 Clouds 6 1025 93 10000 4.1 270 21:22 10.01.2020
1000 Rain 6 1025 100 10000 4.1 270 21:00 10.01.2020
1001 Rain 6 1024 93 10000 4.6 280 20:41 10.01.2020
1002 Rain 6 1024 93 10000 4.6 280 20:23 10.01.2020
1003 Rain 7 1023 75 10000 4.1 230 19:42 10.01.2020
1004 Rain 7 1023 75 10000 4.1 230 19:21 10.01.2020
1005 Clouds 8 1022 70 10000 5.1 240 18:58 10.01.2020
1006 Clouds 8 1022 70 10000 5.1 230 18:40 10.01.2020
1007 Clouds 8 1022 70 10000 5.1 230 18:18 10.01.2020
1008 Clouds 8 1022 100 10000 6.7 240 17:56 10.01.2020
1009 Clouds 8 1021 70 10000 4.1 240 17:38 10.01.2020
1010 Clouds 8 1021 70 10000 4.1 240 17:19 10.01.2020
1011 Clouds 9 1020 66 10000 5.7 230 16:43 10.01.2020
1012 Clouds 9 1020 66 10000 5.7 230 16:22 10.01.2020
1013 Clouds 9 1020 66 10000 3.6 210 15:58 10.01.2020
1014 Clouds 9 1020 66 10000 3.6 230 15:39 10.01.2020
1015 Clouds 9 1020 66 10000 3.6 230 15:21 10.01.2020
1016 Clouds 9 1020 71 10000 2.1 200 14:59 10.01.2020
1017 Clouds 9 1019 66 10000 3.6 220 14:41 10.01.2020
1018 Clouds 9 1019 66 10000 3.6 220 14:20 10.01.2020
1019 Clouds 9 1019 66 10000 4.1 200 13:58 10.01.2020
1020 Clouds 9 1019 66 10000 3.6 200 13:39 10.01.2020
1021 Clouds 9 1019 66 10000 4.1 200 13:21 10.01.2020
1022 Clouds 9 1019 66 10000 4.1 200 12:57 10.01.2020
1023 Clouds 9 1019 76 10000 3.6 210 12:38 10.01.2020
1024 Clouds 9 1019 76 10000 3.1 200 12:18 10.01.2020
1025 Clouds 8 1019 76 10000 3.1 200 11:54 10.01.2020
1026 Clouds 8 1019 70 10000 2.6 200 11:36 10.01.2020
1027 Clouds 8 1019 70 10000 2.6 200 11:18 10.01.2020
1028 Clouds 7 1019 75 10000 2.6 180 10:39 10.01.2020
1029 Clouds 7 1019 75 10000 2.6 180 10:21 10.01.2020
1030 Clouds 7 1019 81 10000 2.1 180 09:56 10.01.2020
1031 Clouds 6 1018 87 10000 2.1 140 09:37 10.01.2020
1032 Clouds 6 1018 87 10000 2.1 140 09:19 10.01.2020
1033 Clouds 6 1018 87 10000 2.1 140 09:19 10.01.2020
1034 Clouds 6 1018 81 10000 1.5 190 08:40 10.01.2020
1035 Clouds 6 1018 81 10000 1.5 230 08:22 10.01.2020
1036 Clouds 6 1018 81 10000 2.6 230 07:44 10.01.2020
1037 Clouds 6 1017 81 10000 3.1 200 07:23 10.01.2020
1038 Clouds 6 1017 81 10000 2.6 190 06:45 10.01.2020
1039 Rain 6 1017 81 10000 2.6 190 06:25 10.01.2020
1040 Rain 6 1017 87 10000 2.1 160 05:46 10.01.2020
1041 Rain 6 1016 87 10000 2.1 120 03:35 10.01.2020
1042 Clouds 6 1016 87 10000 2.1 260 02:59 10.01.2020
1043 Rain 6 1016 81 10000 2.6 130 02:38 10.01.2020
1044 Rain 6 1015 81 10000 4.1 120 01:38 10.01.2020
1045 Rain 6 1015 87 10000 4.1 110 00:58 10.01.2020
1046 Rain 6 1015 81 10000 3.1 120 00:38 10.01.2020
1047 Drizzle 7 1015 75 10000 3.6 170 23:58 09.01.2020
1048 Rain 7 1016 70 10000 2.6 140 23:38 09.01.2020
1049 Rain 7 1016 70 10000 2.6 140 23:20 09.01.2020
1050 Clouds 7 1016 66 10000 4.1 140 22:57 09.01.2020
1051 Clouds 7 1016 66 10000 3.1 150 22:37 09.01.2020
1052 Clouds 7 1016 66 10000 3.1 150 22:18 09.01.2020
1053 Clouds 7 1016 70 10000 3.6 130 21:56 09.01.2020
1054 Clouds 7 1016 70 10000 3.6 130 21:37 09.01.2020
1055 Clouds 7 1016 70 10000 3.6 130 21:37 09.01.2020
1056 Clouds 7 1016 70 10000 3.6 130 21:37 09.01.2020
1057 Clouds 7 1016 70 10000 3.1 140 21:18 09.01.2020
1058 Clouds 7 1016 70 10000 3.1 140 20:56 09.01.2020
1059 Clouds 7 1016 70 10000 3.1 140 20:38 09.01.2020
1060 Clouds 8 1016 76 10000 3.6 130 20:19 09.01.2020
1061 Clouds 8 1017 76 10000 3.6 140 19:55 09.01.2020
1062 Clouds 8 1017 76 10000 3.6 140 19:36 09.01.2020
1063 Clouds 8 1017 81 10000 2.6 140 19:18 09.01.2020
1064 Clouds 8 1017 81 10000 2.6 140 18:54 09.01.2020
1065 Clouds 8 1017 81 10000 3.6 140 18:36 09.01.2020
1066 Clouds 8 1017 81 10000 3.6 130 18:18 09.01.2020
1067 Clouds 8 1017 81 10000 3.6 130 18:18 09.01.2020
1068 Clouds 7 1017 81 10000 3.1 120 17:40 09.01.2020
1069 Clouds 8 1018 81 10000 3.1 120 17:18 09.01.2020
1070 Clouds 8 1018 81 10000 3.1 120 17:18 09.01.2020
1071 Clouds 8 1018 81 10000 3.1 130 16:47 09.01.2020
1072 Clouds 8 1018 81 10000 3.1 130 16:22 09.01.2020
1073 Clouds 8 1018 81 10000 3.1 140 15:44 09.01.2020
1074 Clouds 8 1018 76 10000 3.6 140 15:25 09.01.2020
1075 Clouds 8 1018 76 10000 3.6 140 14:59 09.01.2020
1076 Clouds 8 1018 81 10000 4.1 130 14:41 09.01.2020
1077 Clouds 8 1019 81 10000 4.1 140 14:21 09.01.2020
1078 Clouds 8 1019 81 10000 4.1 140 13:57 09.01.2020
1079 Clouds 8 1019 81 10000 3.6 140 13:39 09.01.2020
1080 Clouds 8 1020 87 10000 3.1 140 13:20 09.01.2020
1081 Clouds 7 1020 87 10000 3.1 140 12:58 09.01.2020
1082 Clouds 7 1020 81 10000 4.1 140 12:38 09.01.2020
1083 Clouds 7 1021 87 10000 3.6 150 12:19 09.01.2020
1084 Clouds 6 1021 87 8000 5.1 140 11:43 09.01.2020
1085 Clouds 6 1021 87 8000 5.1 140 11:25 09.01.2020
1086 Clouds 6 1021 87 8000 4.6 140 10:59 09.01.2020
1087 Clouds 6 1022 87 7000 5.1 150 10:41 09.01.2020
1088 Clouds 5 1022 93 7000 5.1 150 10:22 09.01.2020
1089 Clouds 5 1022 93 6000 2.6 130 09:49 09.01.2020
1090 Clouds 5 1022 93 6000 2.6 130 09:25 09.01.2020
1091 Clouds 5 1022 100 6000 2.6 120 08:59 09.01.2020
1092 Mist 5 1022 100 5000 3.6 120 08:40 09.01.2020
1093 Drizzle 5 1022 100 4000 3.6 130 08:21 09.01.2020
1094 Drizzle 5 1023 100 3500 3.1 130 07:53 09.01.2020
1095 Drizzle 5 1023 100 3500 3.1 130 07:33 09.01.2020
1096 Drizzle 5 1023 100 3000 2.6 140 06:52 09.01.2020
1097 Drizzle 5 1024 100 8000 2.1 140 06:32 09.01.2020
1098 Clouds 5 1024 100 6000 2.6 140 05:52 09.01.2020
1099 Clouds 5 1024 100 6000 2.6 140 05:26 09.01.2020
1100 Drizzle 4 1024 100 2200 3.1 140 04:40 09.01.2020
1101 Drizzle 4 1025 100 1600 2.1 140 03:28 09.01.2020
1102 Drizzle 4 1025 93 2900 2.6 140 02:47 09.01.2020
1103 Rain 4 1026 93 2500 2.6 140 01:42 09.01.2020
1104 Rain 4 1026 93 2500 2.6 130 01:18 09.01.2020
1105 Rain 4 1026 93 2500 2.6 130 01:18 09.01.2020
1106 Drizzle 4 1026 100 3200 2.6 120 00:38 09.01.2020
1107 Drizzle 4 1027 100 3100 3.1 120 00:19 09.01.2020
1108 Drizzle 4 1027 100 3100 3.1 120 00:19 09.01.2020
1109 Drizzle 4 1027 100 3100 2.6 120 23:40 08.01.2020
1110 Drizzle 4 1027 100 3100 3.1 120 23:22 08.01.2020
1111 Drizzle 4 1027 100 3100 3.1 120 22:56 08.01.2020
1112 Drizzle 4 1027 100 1900 3.6 120 22:56 08.01.2020
1113 Drizzle 4 1027 100 1900 3.6 120 22:37 08.01.2020
1114 Clouds 4 1027 93 6000 2.1 100 22:18 08.01.2020
1115 Clouds 4 1027 93 6000 2.6 110 21:55 08.01.2020
1116 Clouds 4 1027 93 6000 2.6 110 21:37 08.01.2020
1117 Clouds 4 1027 93 8000 2.6 130 21:18 08.01.2020
1118 Clouds 4 1027 93 8000 2.1 140 20:41 08.01.2020
1119 Clouds 4 1027 93 8000 2.1 140 20:21 08.01.2020
1120 Clouds 4 1027 93 8000 2.1 140 19:58 08.01.2020
1121 Clouds 3 1027 93 6000 4.1 150 19:38 08.01.2020
1122 Drizzle 3 1028 100 4500 3.1 140 19:19 08.01.2020
1123 Mist 3 1028 100 4000 3.6 130 18:58 08.01.2020
1124 Mist 3 1028 100 4000 3.6 130 18:39 08.01.2020
1125 Drizzle 3 1028 100 3000 2.6 140 18:19 08.01.2020
1126 Drizzle 3 1028 100 2700 3.1 140 17:57 08.01.2020
1127 Drizzle 3 1028 100 2700 3.1 140 17:38 08.01.2020
1128 Drizzle 3 1028 100 2500 3.1 150 17:19 08.01.2020
1129 Drizzle 3 1028 100 2500 3.1 150 17:19 08.01.2020
1130 Drizzle 3 1028 100 2500 3.1 150 16:55 08.01.2020
1131 Drizzle 3 1028 100 1700 2.6 140 16:37 08.01.2020
1132 Drizzle 3 1028 100 2200 2.6 130 16:18 08.01.2020
1133 Drizzle 3 1028 93 3000 3.1 150 15:44 08.01.2020
1134 Drizzle 3 1028 93 3000 3.1 150 15:44 08.01.2020
1135 Rain 3 1028 86 8000 2.1 140 15:21 08.01.2020
1136 Rain 3 1028 86 4700 3.1 150 14:58 08.01.2020
1137 Rain 3 1028 86 8000 2.1 140 14:58 08.01.2020
1138 Rain 3 1028 86 4700 3.1 150 14:40 08.01.2020
1139 Rain 3 1028 86 10000 3.6 160 14:20 08.01.2020
1140 Drizzle 3 1028 86 10000 2.1 160 13:41 08.01.2020
1141 Rain 3 1028 86 10000 3.1 150 13:21 08.01.2020
1142 Rain 3 1028 86 10000 3.1 150 13:21 08.01.2020
1143 Clouds 3 1028 86 10000 3.1 150 12:54 08.01.2020
1144 Clouds 3 1028 86 10000 4.1 150 12:36 08.01.2020
1145 Clouds 3 1029 86 10000 2.6 140 12:18 08.01.2020
1146 Clouds 2 1029 86 10000 3.6 140 11:47 08.01.2020
1147 Clouds 2 1029 86 10000 3.6 140 11:19 08.01.2020
1148 Clouds 2 1029 86 10000 3.6 140 10:57 08.01.2020
1149 Clouds 2 1029 93 10000 3.6 130 10:39 08.01.2020
1150 Clouds 2 1029 93 10000 3.1 130 10:19 08.01.2020
1151 Clouds 2 1029 93 10000 2.1 140 09:42 08.01.2020
1152 Clouds 1 1029 83 10000 1.5 170 09:20 08.01.2020
1153 Clouds 1 1029 83 10000 1.5 170 08:57 08.01.2020
1154 Clouds 1 1029 83 10000 1.5 170 08:37 08.01.2020
1155 Clouds 1 1028 89 10000 3.1 140 08:19 08.01.2020
1156 Clouds 1 1028 89 10000 3.1 130 07:50 08.01.2020
1157 Clouds 1 1028 89 10000 3.1 130 07:32 08.01.2020
1158 Clouds 1 1028 89 10000 2.6 150 06:49 08.01.2020
1159 Clouds 1 1028 89 10000 3.1 130 06:25 08.01.2020
1160 Clouds 1 1028 89 10000 3.1 130 05:53 08.01.2020
1161 Clouds 1 1029 89 10000 2.6 140 05:53 08.01.2020
1162 Clouds 0 1029 92 10000 3.6 120 04:59 08.01.2020
1163 Clouds 1 1029 92 10000 2.1 110 04:26 08.01.2020
1164 Clouds 0 1029 92 10000 1.5 100 02:45 08.01.2020
1165 Clouds 0 1029 92 10000 1.5 100 02:45 08.01.2020
1166 Clouds 0 1029 92 10000 1.5 100 02:23 08.01.2020
1167 Clouds 1 1029 90 10000 3.1 100 01:50 08.01.2020
1168 Clouds 0 1029 90 10000 3.6 110 01:25 08.01.2020
1169 Clouds 1 1030 100 10000 2.6 100 00:40 08.01.2020
1170 Clouds 1 1030 100 10000 2.6 120 00:20 08.01.2020
1171 Clouds 1 1030 93 10000 3.1 110 23:44 07.01.2020
1172 Clouds 2 1030 100 10000 2.1 120 23:20 07.01.2020
1173 Clouds 2 1030 100 10000 2.6 130 22:40 07.01.2020
1174 Clouds 2 1030 100 10000 1.5 120 22:20 07.01.2020
1175 Clouds 3 1030 100 10000 2.1 130 21:57 07.01.2020
1176 Clouds 3 1030 100 10000 2.1 130 21:38 07.01.2020
1177 Clouds 3 1030 100 10000 2.1 130 21:38 07.01.2020
1178 Clouds 3 1030 93 10000 1.5 140 21:20 07.01.2020
1179 Clouds 3 1031 93 10000 2.1 140 20:56 07.01.2020
1180 Clouds 3 1031 93 10000 2.1 140 20:38 07.01.2020
1181 Clouds 3 1031 93 10000 2.1 170 20:19 07.01.2020
1182 Clouds 2 1031 93 10000 1.5 160 19:38 07.01.2020
1183 Clouds 2 1031 93 9000 1 0 19:20 07.01.2020
1184 Clouds 3 1031 93 9000 1 0 18:58 07.01.2020
1185 Clouds 3 1031 100 9000 1 0 18:40 07.01.2020
1186 Clouds 3 1031 100 9000 1.5 140 18:19 07.01.2020
1187 Mist 3 1030 100 5000 2.1 180 18:00 07.01.2020
1188 Mist 3 1030 100 5000 2.1 180 17:39 07.01.2020
1189 Mist 3 1030 100 4800 2.1 210 17:21 07.01.2020
1190 Mist 3 1030 100 4800 2.1 210 16:57 07.01.2020
1191 Mist 3 1030 100 4500 1.5 210 16:38 07.01.2020
1192 Mist 3 1030 100 4500 0.5 240 16:19 07.01.2020
1193 Mist 3 1030 100 5000 0.5 170 15:58 07.01.2020
1194 Mist 3 1030 100 5000 0.5 170 15:39 07.01.2020
1195 Drizzle 3 1029 100 6000 1.52 232 15:21 07.01.2020
1196 Drizzle 3 1029 100 7000 0.5 240 14:55 07.01.2020
1197 Drizzle 3 1029 100 7000 0.5 240 14:36 07.01.2020
1198 Drizzle 3 1029 100 7000 1 240 14:18 07.01.2020
1199 Drizzle 3 1029 93 7000 1 260 13:39 07.01.2020
1200 Drizzle 3 1029 93 2900 0.5 0 13:19 07.01.2020
1201 Drizzle 2 1029 93 2500 0.5 0 12:41 07.01.2020
1202 Drizzle 2 1029 93 4200 0.5 0 12:20 07.01.2020
1203 Drizzle 2 1029 100 5000 0.5 0 11:55 07.01.2020
1204 Drizzle 2 1029 100 5000 0.5 0 11:36 07.01.2020
1205 Drizzle 2 1028 93 6000 1 0 11:18 07.01.2020
1206 Drizzle 1 1028 100 8000 1 0 10:41 07.01.2020
1207 Drizzle 1 1028 100 8000 1 0 10:23 07.01.2020
1208 Snow 1 1028 93 7000 0.5 0 09:57 07.01.2020
1209 Drizzle 1 1027 93 8000 1 0 09:38 07.01.2020
1210 Clouds 1 1027 86 10000 0.5 0 09:20 07.01.2020
1211 Clouds 1 1026 86 10000 1 0 08:42 07.01.2020
1212 Clouds 0 1026 86 10000 1 0 08:23 07.01.2020
1213 Clouds 0 1026 86 10000 1.5 210 07:54 07.01.2020
1214 Clouds 0 1025 93 10000 2.6 220 07:28 07.01.2020
1215 Clouds 0 1025 93 10000 2.6 220 07:28 07.01.2020
1216 Clouds 0 1025 93 10000 2.6 220 07:28 07.01.2020
1217 Clouds -1 1025 92 10000 2.1 170 06:53 07.01.2020
1218 Clouds -1 1025 92 10000 2.1 170 06:34 07.01.2020
1219 Clouds -1 1025 92 10000 2.6 130 05:54 07.01.2020
1220 Clouds -2 1025 92 10000 3.6 110 04:39 07.01.2020
1221 Clouds -2 1024 92 10000 3.1 130 03:26 07.01.2020
1222 Clear -2 1024 92 10000 2.6 120 02:22 07.01.2020
1223 Clear -3 1024 92 10000 3.1 110 01:52 07.01.2020
1224 Clear -2 1024 92 10000 3.1 110 01:28 07.01.2020
1225 Clear -2 1024 92 10000 2.1 100 00:37 07.01.2020
1226 Clear -2 1024 92 10000 2.6 120 00:18 07.01.2020
1227 Clear -2 1024 92 10000 2.6 120 23:39 06.01.2020
1228 Clear -2 1024 92 10000 2.6 120 23:39 06.01.2020
1229 Clear -2 1025 92 10000 3.1 120 23:21 06.01.2020
1230 Clear -2 1025 92 10000 3.1 120 22:58 06.01.2020
1231 Clear -2 1025 92 10000 2.1 130 22:38 06.01.2020
1232 Clear -2 1025 92 10000 1.5 150 22:20 06.01.2020
1233 Clear -2 1025 92 10000 1.5 150 21:56 06.01.2020
1234 Clear -2 1025 92 10000 1.5 150 21:56 06.01.2020
1235 Clear -2 1025 92 10000 4.1 110 21:37 06.01.2020
1236 Clear -2 1025 92 10000 2.6 110 21:19 06.01.2020
1237 Clear -1 1025 92 10000 2.6 110 20:56 06.01.2020
1238 Clear -2 1025 92 10000 2.6 110 20:37 06.01.2020
1239 Clear -1 1025 86 10000 3.1 110 20:19 06.01.2020
1240 Clear -1 1025 81 10000 3.1 100 19:55 06.01.2020
1241 Clear -1 1025 81 10000 3.1 100 19:37 06.01.2020
1242 Clear -1 1025 81 10000 3.1 100 19:18 06.01.2020
1243 Clear -1 1026 81 10000 3.1 100 18:44 06.01.2020
1244 Clear 0 1026 80 10000 3.1 100 18:20 06.01.2020
1245 Clear 1 1026 80 10000 3.1 100 17:40 06.01.2020
1246 Clear 1 1026 80 10000 3.1 120 17:20 06.01.2020
1247 Clear 2 1026 80 10000 3.1 120 16:57 06.01.2020
1248 Clear 3 1026 74 10000 3.6 130 16:39 06.01.2020
1249 Clear 3 1026 69 10000 2.6 140 16:21 06.01.2020
1250 Clear 3 1026 69 10000 2.6 140 15:59 06.01.2020
1251 Clear 4 1026 65 10000 3.6 140 15:36 06.01.2020
1252 Clear 4 1027 65 10000 4.1 150 15:18 06.01.2020
1253 Clear 4 1027 65 10000 4.6 140 14:41 06.01.2020
1254 Clear 4 1027 65 10000 4.6 140 14:41 06.01.2020
1255 Clear 4 1027 71 10000 4.6 150 14:22 06.01.2020
1256 Clear 4 1027 71 10000 4.6 150 13:59 06.01.2020
1257 Clear 4 1027 71 10000 4.6 150 13:59 06.01.2020
1258 Clear 4 1028 71 10000 3.6 140 13:39 06.01.2020
1259 Clear 4 1028 71 10000 3.6 130 13:20 06.01.2020
1260 Clear 3 1028 71 10000 3.6 130 12:55 06.01.2020
1261 Clouds 3 1029 71 10000 4.1 140 12:37 06.01.2020
1262 Clouds 3 1029 71 10000 4.1 140 12:37 06.01.2020
1263 Clouds 3 1029 71 10000 3.6 140 12:18 06.01.2020
1264 Clear 2 1030 74 10000 4.1 140 11:41 06.01.2020
1265 Clear 1 1030 80 10000 3.6 140 11:23 06.01.2020
1266 Clear 0 1030 86 10000 3.1 130 10:59 06.01.2020
1267 Clear 0 1030 86 10000 3.1 130 10:40 06.01.2020
1268 Clear -1 1031 79 10000 2.6 110 10:20 06.01.2020
1269 Clouds -1 1031 92 10000 2.6 110 09:39 06.01.2020
1270 Clouds -1 1031 92 10000 3.1 110 09:20 06.01.2020
1271 Clouds -2 1031 92 10000 1 0 08:51 06.01.2020
1272 Clouds -1 1031 92 10000 1 0 08:33 06.01.2020
1273 Clouds -1 1031 100 10000 1.5 110 07:57 06.01.2020
1274 Clouds -1 1031 100 10000 1 100 07:36 06.01.2020
1275 Clouds -1 1031 100 10000 1 0 06:46 06.01.2020
1276 Clouds -1 1031 100 10000 1 0 06:23 06.01.2020
1277 Clouds -1 1031 92 10000 1.5 130 05:45 06.01.2020
1278 Clouds 0 1031 100 10000 1.5 130 04:52 06.01.2020
1279 Clouds 0 1032 86 10000 1 0 04:19 06.01.2020
1280 Clouds 0 1032 84 10000 2.6 110 02:56 06.01.2020
1281 Clouds 0 1032 84 10000 2.6 120 02:24 06.01.2020
1282 Clouds 0 1033 85 10000 2.6 110 01:45 06.01.2020
1283 Clouds 0 1033 86 10000 2.6 110 01:26 06.01.2020
1284 Clouds 0 1033 86 10000 3.1 120 00:42 06.01.2020
1285 Clouds 1 1034 86 10000 2.6 110 00:23 06.01.2020
1286 Clouds 1 1034 86 10000 3.1 110 23:43 05.01.2020
1287 Clouds 1 1034 86 10000 3.1 100 23:23 05.01.2020
1288 Clouds 2 1034 86 10000 3.1 100 22:57 05.01.2020
1289 Clouds 2 1034 86 10000 2.1 100 22:38 05.01.2020
1290 Clouds 1 1034 93 10000 2.6 110 22:20 05.01.2020
1291 Clouds 1 1034 93 10000 2.6 110 21:55 05.01.2020
1292 Clouds 1 1035 86 10000 2.6 110 21:37 05.01.2020
1293 Clouds 1 1035 86 10000 2.1 120 21:19 05.01.2020
1294 Clouds 1 1035 86 10000 2.1 120 21:19 05.01.2020
1295 Clouds 2 1035 86 10000 2.1 120 20:55 05.01.2020
1296 Rain 2 1035 93 10000 2.1 120 20:36 05.01.2020
1297 Clouds 2 1035 86 10000 2.6 100 20:18 05.01.2020
1298 Drizzle 2 1035 81 10000 2.1 100 19:56 05.01.2020
1299 Drizzle 2 1035 81 10000 2.1 100 19:37 05.01.2020
1300 Clouds 2 1035 86 10000 1 70 19:18 05.01.2020
1301 Clouds 3 1035 81 10000 1 120 18:54 05.01.2020
1302 Clouds 3 1035 81 10000 1 120 18:36 05.01.2020
1303 Clouds 3 1035 81 10000 1 0 18:18 05.01.2020
1304 Clouds 3 1035 81 10000 0.5 0 17:40 05.01.2020
1305 Clouds 3 1035 80 10000 1 0 17:21 05.01.2020
1306 Clouds 3 1035 80 10000 1 0 16:58 05.01.2020
1307 Clouds 3 1035 80 10000 1 240 16:40 05.01.2020
1308 Clouds 3 1035 80 10000 1 0 16:21 05.01.2020
1309 Clouds 4 1035 80 10000 1.5 270 15:41 05.01.2020
1310 Clouds 4 1035 80 10000 2.1 270 15:23 05.01.2020
1311 Clouds 4 1035 80 10000 2.1 270 14:58 05.01.2020
1312 Clouds 4 1035 80 10000 1.5 260 14:40 05.01.2020
1313 Clouds 4 1034 76 10000 1 0 14:22 05.01.2020
1314 Clouds 4 1034 76 10000 1 0 13:59 05.01.2020
1315 Clouds 4 1034 76 10000 0.5 0 13:39 05.01.2020
1316 Clouds 4 1035 76 10000 0.5 0 13:20 05.01.2020
1317 Clouds 4 1035 76 10000 0.5 0 12:57 05.01.2020
1318 Clouds 4 1035 76 10000 1 0 12:38 05.01.2020
1319 Clouds 3 1036 76 10000 1 0 12:20 05.01.2020
1320 Clouds 3 1035 76 10000 1 0 11:55 05.01.2020
1321 Clouds 3 1035 76 10000 1 0 11:37 05.01.2020
1322 Clouds 3 1035 76 10000 1 0 11:37 05.01.2020
1323 Clouds 3 1036 91 10000 1 0 11:19 05.01.2020
1324 Clouds 3 1036 91 10000 1 0 11:19 05.01.2020
1325 Clouds 3 1036 91 10000 1 0 11:19 05.01.2020
1326 Clouds 2 1036 74 10000 0.5 0 10:41 05.01.2020
1327 Rain 2 1036 93 10000 1 0 10:20 05.01.2020
1328 Clouds 2 1036 93 10000 1 0 09:57 05.01.2020
1329 Clouds 1 1035 93 10000 1 0 09:39 05.01.2020
1330 Clouds 1 1035 93 10000 0.5 0 09:21 05.01.2020
1331 Clouds 1 1035 91 10000 2.1 260 08:45 05.01.2020
1332 Clouds 1 1035 90 10000 0.5 0 08:25 05.01.2020
1333 Clouds 1 1034 93 10000 1 0 07:50 05.01.2020
1334 Clouds 2 1034 93 10000 1 0 07:29 05.01.2020
1335 Clouds 2 1034 86 10000 0.5 0 06:56 05.01.2020
1336 Drizzle 3 1034 93 10000 1.5 330 05:52 05.01.2020
1337 Drizzle 3 1033 86 10000 4.1 300 04:56 05.01.2020
1338 Drizzle 3 1033 93 9000 3.1 290 04:19 05.01.2020
1339 Drizzle 3 1033 93 9000 4.1 280 03:40 05.01.2020
1340 Drizzle 3 1032 86 10000 3.1 300 02:36 05.01.2020
1341 Drizzle 3 1032 86 10000 3.1 300 02:36 05.01.2020
1342 Clouds 3 1032 93 10000 2.6 310 02:18 05.01.2020
1343 Drizzle 4 1031 86 10000 5.7 300 01:20 05.01.2020
1344 Drizzle 4 1031 86 10000 5.7 300 00:58 05.01.2020
1345 Clouds 3 1031 80 10000 6.7 300 00:39 05.01.2020
1346 Rain 3 1030 80 10000 6.2 280 00:20 05.01.2020
1347 Clouds 3 1030 80 10000 6.2 280 23:57 04.01.2020
1348 Clouds 3 1030 80 10000 6.7 280 23:38 04.01.2020
1349 Rain 4 1030 80 10000 6.2 280 23:18 04.01.2020
1350 Clouds 4 1030 80 10000 6.7 280 22:39 04.01.2020
1351 Rain 3 1029 80 10000 5.7 270 22:20 04.01.2020
1352 Rain 3 1029 80 10000 5.7 270 22:20 04.01.2020
1353 Rain 4 1029 80 10000 5.7 270 21:56 04.01.2020
1354 Clouds 4 1029 80 10000 5.7 270 21:37 04.01.2020
1355 Clouds 4 1029 80 10000 6.2 260 21:19 04.01.2020
1356 Clouds 4 1029 80 10000 7.2 260 20:55 04.01.2020
1357 Clouds 4 1029 80 10000 7.2 260 20:36 04.01.2020
1358 Clouds 4 1029 80 10000 7.2 260 20:36 04.01.2020
1359 Rain 4 1028 80 10000 6.7 260 20:18 04.01.2020
1360 Clouds 4 1028 80 10000 6.2 260 19:41 04.01.2020
1361 Clouds 4 1028 80 10000 6.2 260 19:41 04.01.2020
1362 Clouds 4 1028 80 10000 6.2 250 19:23 04.01.2020
1363 Clouds 4 1028 80 10000 6.2 250 18:57 04.01.2020
1364 Clouds 4 1028 80 10000 6.2 260 18:38 04.01.2020
1365 Clouds 4 1028 80 10000 6.2 270 18:20 04.01.2020
1366 Clouds 4 1028 80 10000 6.2 270 17:55 04.01.2020
1367 Clouds 4 1028 80 10000 6.7 270 17:37 04.01.2020
1368 Clouds 4 1028 80 10000 6.2 270 17:18 04.01.2020
1369 Clouds 4 1027 81 10000 7.2 260 16:41 04.01.2020
1370 Clouds 4 1027 81 10000 7.2 260 16:23 04.01.2020
1371 Clouds 4 1027 81 10000 6.2 260 15:57 04.01.2020
1372 Clouds 4 1027 81 10000 6.2 260 15:38 04.01.2020
1373 Clouds 4 1027 81 10000 6.2 260 15:38 04.01.2020
1374 Clouds 4 1027 81 10000 6.2 260 15:19 04.01.2020
1375 Clouds 4 1027 81 10000 6.2 260 14:56 04.01.2020
1376 Clouds 4 1026 81 10000 6.7 260 14:37 04.01.2020
1377 Clouds 4 1027 75 10000 8.2 260 14:19 04.01.2020
1378 Clouds 4 1027 75 10000 7.2 260 13:54 04.01.2020
1379 Clouds 4 1027 75 10000 7.2 260 13:36 04.01.2020
1380 Clouds 4 1028 75 10000 7.2 260 13:18 04.01.2020
1381 Clouds 4 1028 79 10000 7.2 260 12:41 04.01.2020
1382 Clouds 3 1028 79 10000 6.7 270 12:19 04.01.2020
1383 Clouds 3 1028 80 10000 6.2 270 11:57 04.01.2020
1384 Clouds 3 1028 80 10000 6.2 270 11:38 04.01.2020
1385 Clouds 3 1029 80 10000 3.6 280 11:19 04.01.2020
1386 Clouds 3 1029 86 10000 4.1 270 10:42 04.01.2020
1387 Clouds 3 1028 86 10000 5.1 270 10:23 04.01.2020
1388 Clouds 2 1028 86 10000 5.1 270 09:58 04.01.2020
1389 Clouds 2 1028 86 10000 4.6 270 09:39 04.01.2020
1390 Clouds 2 1028 83 10000 4.6 270 09:21 04.01.2020
1391 Clouds 2 1028 93 10000 2.6 270 08:41 04.01.2020
1392 Clouds 2 1028 93 10000 3.1 260 08:21 04.01.2020
1393 Clouds 2 1027 93 10000 3.6 250 07:42 04.01.2020
1394 Clouds 2 1027 86 10000 3.6 280 07:20 04.01.2020
1395 Clouds 3 1027 86 10000 4.6 280 06:33 04.01.2020
1396 Clouds 4 1026 86 10000 4.1 310 05:20 04.01.2020
1397 Clouds 5 1026 87 10000 5.1 340 04:34 04.01.2020
1398 Rain 5 1025 93 10000 5.7 300 03:52 04.01.2020
1399 Rain 6 1025 93 10000 5.1 260 03:18 04.01.2020
1400 Rain 6 1024 93 7000 4.6 250 02:21 04.01.2020
1401 Rain 6 1024 93 7000 4.6 250 01:55 04.01.2020
1402 Rain 6 1024 93 8000 4.6 250 01:31 04.01.2020
1403 Rain 6 1024 87 10000 6.2 250 00:44 04.01.2020
1404 Rain 6 1024 87 10000 6.2 250 00:23 04.01.2020
1405 Rain 7 1024 87 10000 6.7 240 23:46 03.01.2020
1406 Rain 6 1023 87 10000 6.2 240 23:25 03.01.2020
1407 Clouds 7 1023 87 10000 5.7 240 22:41 03.01.2020
1408 Clouds 7 1023 87 10000 5.7 240 22:20 03.01.2020
1409 Clouds 7 1023 87 10000 5.7 240 21:59 03.01.2020
1410 Clouds 7 1023 87 10000 5.7 240 21:39 03.01.2020
1411 Rain 7 1023 75 10000 5.7 240 21:19 03.01.2020
1412 Rain 7 1023 75 10000 5.7 240 21:19 03.01.2020
1413 Rain 7 1023 75 10000 5.7 240 20:59 03.01.2020
1414 Clouds 6 1023 81 10000 6.7 250 20:41 03.01.2020
1415 Clouds 6 1023 87 10000 2.6 220 20:18 03.01.2020
1416 Clouds 6 1023 81 10000 3.1 190 19:57 03.01.2020
1417 Clouds 6 1023 81 10000 3.1 190 19:38 03.01.2020
1418 Clouds 6 1023 81 10000 3.1 200 19:19 03.01.2020
1419 Clouds 6 1023 81 10000 3.6 190 18:44 03.01.2020
1420 Clouds 5 1023 80 10000 3.1 190 18:25 03.01.2020
1421 Clouds 6 1023 80 10000 3.1 190 17:56 03.01.2020
1422 Clouds 5 1023 80 10000 4.1 180 17:37 03.01.2020
1423 Clouds 5 1023 80 10000 4.1 180 17:37 03.01.2020
1424 Clouds 5 1023 80 10000 2.6 170 17:19 03.01.2020
1425 Clouds 5 1022 75 10000 3.1 180 16:42 03.01.2020
1426 Clouds 5 1022 75 10000 3.1 180 16:24 03.01.2020
1427 Clouds 5 1022 75 10000 4.1 200 15:57 03.01.2020
1428 Clouds 5 1022 75 10000 4.6 210 15:38 03.01.2020
1429 Clouds 4 1022 75 10000 3.6 180 15:18 03.01.2020
1430 Clouds 4 1022 75 10000 3.6 200 14:38 03.01.2020
1431 Clouds 4 1022 75 10000 3.6 200 14:38 03.01.2020
1432 Clouds 4 1022 75 10000 2.6 190 14:19 03.01.2020
1433 Clouds 4 1022 75 10000 3.1 170 13:44 03.01.2020
1434 Clouds 4 1022 75 10000 3.1 170 13:44 03.01.2020
1435 Clouds 4 1022 75 10000 3.1 170 13:44 03.01.2020
1436 Clouds 4 1022 80 10000 4.1 140 13:24 03.01.2020
1437 Clouds 3 1022 80 10000 4.1 140 12:59 03.01.2020
1438 Clouds 3 1023 73 10000 4.1 150 12:39 03.01.2020
1439 Clouds 3 1023 73 10000 4.1 160 12:21 03.01.2020
1440 Clouds 2 1024 73 10000 3.6 150 11:45 03.01.2020
1441 Clouds 2 1024 79 10000 2.6 150 11:21 03.01.2020
1442 Clouds 2 1024 79 10000 3.6 150 10:46 03.01.2020
1443 Clouds 1 1024 79 10000 3.6 140 10:27 03.01.2020
1444 Clouds 1 1024 79 10000 3.6 140 09:58 03.01.2020
1445 Clouds 1 1024 80 10000 3.6 140 09:39 03.01.2020
1446 Clouds 0 1024 86 10000 3.1 140 09:21 03.01.2020
1447 Clouds 0 1024 86 10000 3.1 140 08:57 03.01.2020
1448 Clouds 0 1024 86 0 3.1 150 08:38 03.01.2020
1449 Clouds 0 1024 86 10000 2.6 130 08:19 03.01.2020
1450 Clouds 0 1025 76 10000 3.1 150 07:40 03.01.2020
1451 Clouds 0 1025 76 10000 3.1 150 07:40 03.01.2020
1452 Clouds 0 1025 76 10000 3.6 140 07:18 03.01.2020
1453 Clouds 0 1025 76 10000 4.1 140 06:49 03.01.2020
1454 Clouds 0 1025 76 10000 4.1 140 06:49 03.01.2020
1455 Clouds 0 1025 76 10000 4.1 140 06:30 03.01.2020
1456 Clouds 0 1025 92 10000 3.6 140 05:45 03.01.2020
1457 Clouds -1 1026 92 10000 4.6 150 04:22 03.01.2020
1458 Mist -1 1026 92 4000 4.1 150 02:56 03.01.2020
1459 Mist -1 1026 92 4000 4.1 150 02:56 03.01.2020
1460 Mist -1 1026 92 4000 4.1 150 02:33 03.01.2020
1461 Mist -1 1026 100 4000 4.6 140 01:44 03.01.2020
1462 Mist 0 1027 79 4000 4.6 180 00:50 03.01.2020
1463 Mist 0 1027 79 4000 4.6 180 00:30 03.01.2020
1464 Mist 0 1027 79 4000 5.7 160 23:56 02.01.2020
1465 Mist 0 1027 79 4000 3.1 150 23:38 02.01.2020
1466 Mist 0 1027 81 5000 4.1 150 23:19 02.01.2020
1467 Mist 0 1027 81 5000 3.6 150 22:45 02.01.2020
1468 Clouds 0 1028 81 6000 2.6 170 22:22 02.01.2020
1469 Clouds 0 1028 81 8000 2.1 180 22:00 02.01.2020
1470 Clouds 0 1028 81 8000 2.1 180 21:41 02.01.2020
1471 Clouds 0 1028 81 8000 3.1 170 21:23 02.01.2020
1472 Clouds 0 1028 81 8000 3.1 170 20:59 02.01.2020
1473 Clouds 0 1028 81 8000 2.6 180 20:39 02.01.2020
1474 Clouds 0 1028 85 8000 2.1 110 20:21 02.01.2020
1475 Clouds 0 1028 87 8000 2.1 110 19:55 02.01.2020
1476 Clouds 0 1028 87 7000 2.1 110 19:37 02.01.2020
1477 Clouds 0 1028 87 5000 2.6 100 19:19 02.01.2020
1478 Mist 0 1028 87 4000 2.1 120 18:57 02.01.2020
1479 Mist -1 1028 87 4000 2.1 120 18:38 02.01.2020
1480 Mist 0 1028 87 3500 2.6 110 18:20 02.01.2020
1481 Mist 0 1028 87 3500 2.6 110 17:56 02.01.2020
1482 Mist 0 1028 87 3300 2.6 110 17:36 02.01.2020
1483 Mist 0 1028 80 3000 2.1 120 17:18 02.01.2020
1484 Mist -1 1028 80 3000 2.1 120 16:56 02.01.2020
1485 Mist 0 1028 80 3500 2.6 110 16:38 02.01.2020
1486 Mist -1 1028 80 4500 2.1 100 16:19 02.01.2020
1487 Mist -1 1028 80 5000 1.5 110 15:42 02.01.2020
1488 Mist -1 1029 80 4500 0.5 0 15:24 02.01.2020
1489 Mist -1 1029 80 4000 1.47 179 14:58 02.01.2020
1490 Mist 0 1029 80 4000 1.47 179 14:37 02.01.2020
1491 Mist 0 1029 68 3200 1.5 260 14:19 02.01.2020
1492 Mist -1 1029 68 3200 1.5 260 13:58 02.01.2020
1493 Mist -1 1029 100 2700 1.5 190 13:38 02.01.2020
1494 Mist -1 1029 92 2400 2.1 170 12:59 02.01.2020
1495 Mist -1 1030 92 1500 2.1 190 12:40 02.01.2020
1496 Mist -2 1030 100 1000 2.6 180 12:20 02.01.2020
1497 Mist -2 1030 100 1000 2.6 180 11:41 02.01.2020
1498 Fog -2 1031 92 800 1.5 110 11:21 02.01.2020
1499 Fog -4 1031 92 900 2.1 170 10:46 02.01.2020
1500 Fog -4 1030 100 700 2.1 140 10:27 02.01.2020
1501 Fog -4 1030 100 700 2.1 140 09:56 02.01.2020
1502 Fog -5 1030 92 450 2.6 170 09:35 02.01.2020
1503 Mist -5 1030 92 2500 2.1 160 08:58 02.01.2020
1504 Mist -6 1030 92 4400 1.5 170 08:39 02.01.2020
1505 Clear -6 1030 92 10000 1 0 08:19 02.01.2020
1506 Clear -7 1030 92 10000 2.6 110 07:47 02.01.2020
1507 Clear -7 1030 92 10000 2.6 110 07:26 02.01.2020
1508 Clear -6 1029 92 10000 1 160 06:41 02.01.2020
1509 Clear -6 1029 92 10000 1 160 06:41 02.01.2020
1510 Clear -7 1029 92 10000 2.1 120 05:40 02.01.2020
1511 Clear -6 1029 92 10000 1.5 120 04:34 02.01.2020
1512 Clear -6 1030 92 10000 1 0 03:29 02.01.2020
1513 Clear -5 1030 100 10000 1 0 02:21 02.01.2020
1514 Clear -6 1030 92 10000 1 70 01:49 02.01.2020
1515 Clear -5 1031 92 10000 0.5 80 01:25 02.01.2020
1516 Clear -5 1031 85 9000 1 90 00:38 02.01.2020
1517 Clear -5 1031 100 9000 1 0 00:20 02.01.2020
1518 Clear -5 1031 92 9000 1 140 23:42 01.01.2020
1519 Clear -5 1032 85 9000 0.5 0 23:21 01.01.2020
1520 Clear -5 1032 92 10000 1 50 22:39 01.01.2020
1521 Clear -4 1032 92 10000 1.2 116 22:20 01.01.2020
1522 Clear -4 1032 92 10000 1.2 116 21:58 01.01.2020
1523 Clear -4 1032 92 10000 0.5 0 21:39 01.01.2020
1524 Clear -4 1032 92 10000 2.6 100 21:20 01.01.2020
1525 Clear -3 1032 92 10000 2.6 100 20:56 01.01.2020
1526 Clear -3 1032 86 9000 3.1 100 20:38 01.01.2020
1527 Clear -3 1033 92 9000 2.6 110 20:19 01.01.2020
1528 Clear -3 1033 92 9000 2.6 110 19:55 01.01.2020
1529 Clear -3 1033 92 9000 2.6 110 19:37 01.01.2020
1530 Clear -3 1033 86 10000 3.6 100 19:19 01.01.2020
1531 Clear -2 1033 86 10000 3.6 100 18:56 01.01.2020
1532 Clear -2 1033 80 10000 2.6 90 18:36 01.01.2020
1533 Clear -2 1032 80 10000 3.1 100 18:18 01.01.2020
1534 Clear -1 1032 80 10000 3.1 100 17:56 01.01.2020
1535 Clear -1 1032 80 10000 2.1 100 17:38 01.01.2020
1536 Clear 0 1032 74 10000 2.1 70 17:19 01.01.2020
1537 Clear 1 1032 74 10000 2.1 60 16:42 01.01.2020
1538 Clear 1 1032 74 10000 2.1 60 16:24 01.01.2020
1539 Clear 2 1032 65 10000 1.5 60 15:58 01.01.2020
1540 Clear 2 1032 65 10000 2.6 100 15:40 01.01.2020
1541 Clear 2 1032 65 10000 2.6 110 15:22 01.01.2020
1542 Clear 2 1032 65 10000 2.6 110 14:59 01.01.2020
1543 Clear 2 1032 65 10000 2.1 110 14:40 01.01.2020
1544 Clear 2 1033 65 10000 1.5 120 14:22 01.01.2020
1545 Clear 2 1033 69 10000 0.5 0 13:56 01.01.2020
1546 Clear 2 1033 69 10000 0.5 0 13:37 01.01.2020
1547 Clear 1 1033 69 10000 1 0 13:19 01.01.2020
1548 Clear 0 1033 69 10000 1 0 12:57 01.01.2020
1549 Clear 0 1034 74 10000 1 0 12:39 01.01.2020
1550 Clear 0 1034 74 10000 0.5 0 12:19 01.01.2020
1551 Clear -1 1034 65 10000 0.5 0 11:43 01.01.2020
1552 Clear -2 1034 65 10000 0.5 0 11:23 01.01.2020
1553 Clear -3 1035 80 10000 1 0 10:59 01.01.2020
1554 Clear -3 1035 86 10000 1 0 10:41 01.01.2020
1555 Clear -4 1035 92 8000 1 130 10:21 01.01.2020
1556 Clear -5 1035 92 7000 0.5 0 09:58 01.01.2020
1557 Clear -5 1035 92 7000 0.5 0 09:37 01.01.2020
1558 Clear -5 1035 85 6000 1 20 09:18 01.01.2020
1559 Clear -5 1035 85 6000 1 20 09:18 01.01.2020
1560 Clear -5 1035 85 6000 1 20 08:55 01.01.2020
1561 Clear -5 1035 85 6000 1 20 08:55 01.01.2020
1562 Clear -5 1034 92 6000 1 0 08:36 01.01.2020
1563 Clear -5 1034 100 6000 1.5 130 08:18 01.01.2020
1564 Clear -5 1034 92 6000 1 0 07:54 01.01.2020
1565 Clear -5 1034 92 6000 1 0 07:35 01.01.2020
1566 Clear -5 1034 92 5000 1 80 06:44 01.01.2020
1567 Clear -5 1034 100 6000 0.5 150 06:21 01.01.2020
1568 Clear -4 1034 100 7000 1 50 05:22 01.01.2020
1569 Clear -4 1034 92 7000 1.5 100 03:45 01.01.2020
1570 Clear -4 1035 92 7000 1 0 03:23 01.01.2020
1571 Clear -3 1035 92 7000 1 0 02:57 01.01.2020
1572 Clouds -3 1035 92 7000 1 0 02:35 01.01.2020
1573 Clouds -3 1035 86 7000 1 0 01:56 01.01.2020
1574 Clouds -3 1035 86 7000 1 0 01:38 01.01.2020
1575 Clouds -2 1035 92 9000 0.5 0 01:19 01.01.2020
1576 Clouds -2 1035 92 10000 1.5 80 00:44 01.01.2020
1577 Clouds -2 1035 86 10000 1 90 00:25 01.01.2020
1578 Clouds -2 1035 82 10000 1 0 23:41 31.12.2019
1579 Clouds -2 1035 81 10000 1 0 23:21 31.12.2019
1580 Clouds -2 1035 81 10000 1 0 22:57 31.12.2019
1581 Clouds -1 1035 81 10000 1 0 22:39 31.12.2019
1582 Clouds -1 1035 81 10000 1 0 22:20 31.12.2019
1583 Clouds -1 1035 81 10000 1 0 21:57 31.12.2019
1584 Clouds -1 1035 80 10000 1.5 340 21:38 31.12.2019
1585 Clouds -1 1035 80 10000 0.5 0 21:19 31.12.2019
1586 Clouds -1 1035 80 10000 0.5 0 21:19 31.12.2019
1587 Clouds 0 1035 80 10000 1 220 20:54 31.12.2019
1588 Clouds 0 1035 80 10000 1 220 20:36 31.12.2019
1589 Clouds 0 1035 80 10000 0.5 0 20:18 31.12.2019
1590 Clouds 1 1035 80 10000 1.5 330 19:41 31.12.2019
1591 Clouds 1 1035 80 10000 1.5 340 19:22 31.12.2019
1592 Clouds 1 1035 80 10000 1.5 340 18:58 31.12.2019
1593 Clouds 1 1034 80 10000 0.5 0 18:40 31.12.2019
1594 Clouds 1 1034 80 10000 0.5 0 18:20 31.12.2019
1595 Clouds 1 1034 80 10000 0.5 0 17:56 31.12.2019
1596 Clouds 2 1034 80 10000 0.5 0 17:38 31.12.2019
1597 Clouds 2 1034 80 10000 0.5 0 17:38 31.12.2019
1598 Clouds 2 1033 74 10000 0.5 0 17:19 31.12.2019
1599 Clouds 2 1033 74 10000 0.5 350 16:57 31.12.2019
1600 Clouds 2 1033 74 10000 0.5 350 16:38 31.12.2019
1601 Clouds 2 1033 80 10000 0.5 0 16:19 31.12.2019
1602 Clouds 2 1033 80 10000 0.5 0 15:56 31.12.2019
1603 Clouds 3 1033 69 10000 0.5 340 15:38 31.12.2019
1604 Clouds 3 1033 69 10000 0.5 340 15:38 31.12.2019
1605 Clouds 3 1033 69 10000 0.5 0 15:20 31.12.2019
1606 Clouds 3 1033 69 10000 0.5 0 14:57 31.12.2019
1607 Clouds 3 1032 69 10000 0.5 0 14:38 31.12.2019
1608 Clouds 3 1032 69 10000 0.5 0 14:19 31.12.2019
1609 Clouds 3 1032 69 10000 0.5 0 13:57 31.12.2019
1610 Clouds 3 1032 69 10000 1 0 13:39 31.12.2019
1611 Clouds 2 1032 69 10000 1 0 13:20 31.12.2019
1612 Clouds 2 1032 69 10000 1 0 12:56 31.12.2019
1613 Clouds 2 1032 69 10000 1 0 12:56 31.12.2019
1614 Clouds 2 1032 69 10000 1 0 12:38 31.12.2019
1615 Clouds 2 1032 74 10000 0.5 0 12:19 31.12.2019
1616 Clouds 2 1032 74 10000 0.5 0 12:19 31.12.2019
1617 Clouds 1 1032 74 10000 0.5 0 11:56 31.12.2019
1618 Clouds 1 1032 80 10000 1 0 11:37 31.12.2019
1619 Clouds 0 1032 58 10000 2.1 100 11:19 31.12.2019
1620 Clouds 0 1032 58 10000 2.1 100 10:57 31.12.2019
1621 Clouds 0 1032 58 10000 2.1 100 10:57 31.12.2019
1622 Clouds -1 1032 58 10000 2.1 100 10:37 31.12.2019
1623 Clouds -1 1032 86 10000 1.5 130 10:19 31.12.2019
1624 Clouds -2 1032 86 10000 1.5 130 09:58 31.12.2019
1625 Clouds -3 1031 86 10000 2.1 150 09:38 31.12.2019
1626 Clouds -3 1031 86 10000 0.5 0 09:19 31.12.2019
1627 Clouds -3 1031 92 10000 1 0 08:43 31.12.2019
1628 Clear -4 1030 92 10000 1 0 08:24 31.12.2019
1629 Clear -4 1030 92 10000 1 0 07:59 31.12.2019
1630 Clear -4 1030 86 10000 1.5 70 07:41 31.12.2019
1631 Clear -4 1029 86 10000 3.6 110 07:19 31.12.2019
1632 Clear -4 1029 86 10000 3.6 110 06:42 31.12.2019
1633 Clear -4 1029 92 10000 3.6 120 05:45 31.12.2019
1634 Clear -4 1029 86 10000 2.6 100 04:27 31.12.2019
1635 Clear -3 1030 86 10000 3.6 110 03:27 31.12.2019
1636 Clear -3 1030 86 10000 2.6 110 02:39 31.12.2019
1637 Clouds -3 1029 86 10000 3.6 100 01:53 31.12.2019
1638 Clouds -2 1030 80 10000 2.6 110 01:34 31.12.2019
1639 Clouds -2 1030 86 10000 2.1 120 00:56 31.12.2019
1640 Clouds -2 1030 80 10000 0.5 0 00:37 31.12.2019
1641 Clouds -1 1030 52 10000 1 360 00:18 31.12.2019
1642 Clouds -1 1030 52 10000 3.6 130 23:55 30.12.2019
1643 Clouds -1 1030 52 10000 3.6 130 23:37 30.12.2019
1644 Clouds -1 1030 48 10000 2.6 110 23:18 30.12.2019
1645 Clouds -1 1030 48 10000 2.6 110 22:55 30.12.2019
1646 Clouds 0 1030 48 10000 3.1 110 22:37 30.12.2019
1647 Clouds -1 1031 48 10000 3.1 120 22:18 30.12.2019
1648 Clouds -1 1031 48 10000 2.6 120 21:55 30.12.2019
1649 Clouds -1 1031 48 10000 2.6 120 21:37 30.12.2019
1650 Clouds -1 1031 48 10000 4.1 110 21:18 30.12.2019
1651 Clouds -1 1031 48 10000 4.1 110 20:54 30.12.2019
1652 Clouds -1 1031 80 10000 3.6 120 20:36 30.12.2019
1653 Clear -1 1032 53 10000 3.6 110 20:18 30.12.2019
1654 Clear -1 1032 53 10000 3.6 110 19:55 30.12.2019
1655 Clear -1 1032 80 10000 2.6 110 19:36 30.12.2019
1656 Clear -1 1032 74 10000 1 0 19:18 30.12.2019
1657 Clear -1 1032 69 10000 1.5 90 18:41 30.12.2019
1658 Clear -1 1032 59 10000 2.1 120 18:21 30.12.2019
1659 Clear 0 1032 59 10000 2.1 120 17:59 30.12.2019
1660 Clear 0 1032 59 10000 2.1 130 17:41 30.12.2019
1661 Clear 1 1032 55 10000 2.1 110 17:19 30.12.2019
1662 Clear 2 1032 55 10000 2.1 110 16:59 30.12.2019
1663 Clear 2 1032 55 10000 2.1 110 16:40 30.12.2019
1664 Clear 3 1032 60 10000 2.6 130 16:20 30.12.2019
1665 Clear 3 1032 60 10000 2.6 130 15:57 30.12.2019
1666 Clear 3 1032 48 10000 2.1 140 15:38 30.12.2019
1667 Clear 4 1032 56 10000 1.88 153 15:19 30.12.2019
1668 Clear 4 1032 56 10000 1.88 153 15:19 30.12.2019
1669 Clear 4 1033 48 10000 2.1 120 14:54 30.12.2019
1670 Clear 4 1033 48 10000 2.1 120 14:36 30.12.2019
1671 Clear 4 1033 52 10000 2.6 130 14:18 30.12.2019
1672 Clear 3 1033 55 10000 2.6 140 13:41 30.12.2019
1673 Clear 3 1034 55 10000 3.1 150 13:23 30.12.2019
1674 Clear 2 1034 74 10000 1.5 150 12:58 30.12.2019
1675 Clear 2 1034 59 10000 2.6 140 12:39 30.12.2019
1676 Clear 1 1035 64 10000 3.1 130 12:19 30.12.2019
1677 Clear 0 1035 69 10000 2.1 140 11:56 30.12.2019
1678 Clear 0 1035 69 10000 2.1 140 11:37 30.12.2019
1679 Clear 0 1035 49 10000 3.1 130 11:18 30.12.2019
1680 Clear -2 1036 80 10000 3.6 130 10:42 30.12.2019
1681 Clear -2 1036 86 10000 2.6 120 10:20 30.12.2019
1682 Clear -4 1036 86 10000 2.1 120 09:44 30.12.2019
1683 Clear -4 1036 85 10000 1.5 130 09:21 30.12.2019
1684 Clear -4 1036 85 10000 1.5 130 08:57 30.12.2019
1685 Clear -5 1036 85 10000 1.5 130 08:39 30.12.2019
1686 Clear -5 1036 92 10000 2.6 130 08:20 30.12.2019
1687 Clear -5 1036 85 10000 3.1 110 07:48 30.12.2019
1688 Clear -5 1036 85 10000 3.6 100 07:23 30.12.2019
1689 Clear -6 1036 92 10000 3.1 110 06:32 30.12.2019
1690 Clear -5 1037 85 10000 1.5 350 04:31 30.12.2019
1691 Clear -5 1036 92 10000 2.1 120 03:50 30.12.2019
1692 Clear -5 1037 85 10000 2.1 110 02:47 30.12.2019
1693 Clear -5 1037 85 10000 2.1 110 02:26 30.12.2019
1694 Clouds -5 1037 92 10000 2.6 120 01:29 30.12.2019
1695 Clouds -5 1037 85 10000 1.5 120 00:59 30.12.2019
1696 Clouds -5 1037 85 10000 2.1 90 00:39 30.12.2019
1697 Clouds -5 1038 85 10000 2.1 100 23:55 29.12.2019
1698 Clouds -5 1037 92 10000 2.1 120 23:36 29.12.2019
1699 Clear -5 1038 85 10000 1.5 120 23:18 29.12.2019
1700 Clear -5 1038 85 10000 1 80 22:40 29.12.2019
1701 Clear -4 1038 79 10000 1.5 80 22:21 29.12.2019
1702 Clear -4 1038 79 10000 1.5 80 21:56 29.12.2019
1703 Clear -4 1038 79 10000 2.1 110 21:38 29.12.2019
1704 Clear -4 1038 79 10000 2.1 100 21:19 29.12.2019
1705 Clear -4 1038 79 10000 2.1 100 20:55 29.12.2019
1706 Clear -4 1038 79 10000 2.1 90 20:37 29.12.2019
1707 Clouds -3 1038 86 10000 0.5 0 20:18 29.12.2019
1708 Clouds -3 1038 79 10000 2.6 90 19:55 29.12.2019
1709 Clouds -3 1038 79 10000 2.6 90 19:37 29.12.2019
1710 Clouds -3 1037 74 10000 3.1 100 19:19 29.12.2019
1711 Clouds -3 1038 86 10000 1 80 18:54 29.12.2019
1712 Clouds -2 1038 86 10000 1 80 18:36 29.12.2019
1713 Clouds -2 1038 74 10000 2.1 90 18:18 29.12.2019
1714 Clouds -2 1038 68 10000 1.5 110 17:55 29.12.2019
1715 Clouds -2 1038 68 10000 1.5 110 17:36 29.12.2019
1716 Clouds -2 1038 74 10000 1 30 17:18 29.12.2019
1717 Clouds -1 1038 74 10000 1 30 16:55 29.12.2019
1718 Clouds 0 1038 69 10000 0.5 0 16:36 29.12.2019
1719 Clear 0 1037 58 10000 2.1 100 16:18 29.12.2019
1720 Clouds 1 1038 64 10000 2.1 320 15:55 29.12.2019
1721 Clouds 1 1038 59 10000 1 290 15:37 29.12.2019
1722 Clouds 1 1038 59 10000 1 0 15:18 29.12.2019
1723 Clouds 1 1038 55 10000 1 0 14:47 29.12.2019
1724 Clear 1 1037 69 10000 2.1 120 14:19 29.12.2019
1725 Clouds 1 1038 55 10000 1 0 14:00 29.12.2019
1726 Clouds 1 1038 55 10000 1 0 13:40 29.12.2019
1727 Clouds 1 1038 55 10000 1 0 13:40 29.12.2019
1728 Clouds 0 1038 64 10000 1.5 120 13:22 29.12.2019
1729 Clear 0 1038 64 10000 1.5 120 12:58 29.12.2019
1730 Clear 0 1039 64 10000 1 0 12:40 29.12.2019
1731 Clear -1 1039 52 10000 2.6 120 12:22 29.12.2019
1732 Clear -1 1039 52 10000 2.6 120 12:22 29.12.2019
1733 Clear 0 1039 74 10000 2.1 120 11:43 29.12.2019
1734 Clear -3 1040 74 10000 1 0 11:23 29.12.2019
1735 Clear -3 1040 74 10000 1 0 11:00 29.12.2019
1736 Clear -3 1040 79 10000 1 0 10:41 29.12.2019
1737 Clear -4 1040 85 10000 1 0 10:19 29.12.2019
1738 Clear -5 1040 85 10000 1 130 09:47 29.12.2019
1739 Clear -6 1040 85 10000 1 130 09:28 29.12.2019
1740 Clear -6 1039 85 10000 1.5 120 08:59 29.12.2019
1741 Clear -7 1039 92 10000 1.5 120 08:41 29.12.2019
1742 Clouds -7 1039 92 10000 0.5 0 08:23 29.12.2019
1743 Clouds -7 1039 85 10000 1.5 90 07:49 29.12.2019
1744 Clouds -7 1039 85 10000 1.5 90 07:27 29.12.2019
1745 Clouds -7 1039 92 10000 1 120 06:52 29.12.2019
1746 Clouds -7 1040 92 10000 0.5 0 06:22 29.12.2019
1747 Clouds -6 1040 92 10000 1.5 350 05:45 29.12.2019
1748 Clouds -6 1040 92 10000 1 340 04:33 29.12.2019
1749 Clouds -5 1039 85 10000 2.1 110 03:39 29.12.2019
1750 Clouds -5 1039 92 10000 3.1 100 02:36 29.12.2019
1751 Clouds -5 1039 92 10000 3.1 110 02:18 29.12.2019
1752 Clouds -5 1040 92 10000 0.5 110 01:29 29.12.2019
1753 Clouds -4 1040 85 10000 0.5 0 00:47 29.12.2019
1754 Clouds -4 1041 92 10000 1 10 00:25 29.12.2019
1755 Clouds -4 1040 92 10000 0.5 0 23:56 28.12.2019
1756 Clouds -4 1040 92 10000 0.5 0 23:37 28.12.2019
1757 Clouds -4 1040 92 10000 0.5 350 23:18 28.12.2019
1758 Clouds -4 1040 92 10000 0.5 350 23:18 28.12.2019
1759 Clouds -4 1040 92 10000 0.5 350 23:18 28.12.2019
1760 Clouds -4 1040 92 10000 0.5 350 23:18 28.12.2019
1761 Clouds -4 1040 92 10000 0.5 350 23:18 28.12.2019
1762 Clouds -4 1040 92 10000 1 0 22:38 28.12.2019
1763 Clouds -4 1041 92 10000 0.5 0 22:19 28.12.2019
1764 Clouds -3 1041 92 10000 0.5 0 21:57 28.12.2019
1765 Clouds -4 1041 85 10000 0.5 210 21:38 28.12.2019
1766 Clouds -3 1041 86 10000 1 80 21:19 28.12.2019
1767 Clouds -3 1041 92 10000 0.5 20 20:54 28.12.2019
1768 Clouds -3 1041 86 10000 1 80 20:54 28.12.2019
1769 Clouds -3 1041 92 10000 0.5 20 20:36 28.12.2019
1770 Clouds -3 1041 86 10000 1 90 20:18 28.12.2019
1771 Clouds -2 1041 79 10000 1.5 90 19:43 28.12.2019
1772 Clouds -2 1041 79 10000 1.5 90 19:24 28.12.2019
1773 Clouds -2 1040 79 10000 2.1 110 18:59 28.12.2019
1774 Clouds -1 1040 92 10000 1 90 18:41 28.12.2019
1775 Clouds -1 1040 86 10000 1 20 18:20 28.12.2019
1776 Clouds -1 1040 86 10000 1 20 17:59 28.12.2019
1777 Clouds -1 1040 80 10000 1.5 50 17:39 28.12.2019
1778 Clouds -1 1040 80 10000 1.5 40 17:20 28.12.2019
1779 Clouds 0 1040 76 10000 1 360 16:48 28.12.2019
1780 Clouds 1 1040 69 10000 2.1 360 16:26 28.12.2019
1781 Clouds 1 1040 64 10000 2.6 360 15:57 28.12.2019
1782 Clouds 1 1040 64 10000 2.6 360 15:39 28.12.2019
1783 Clouds 1 1039 64 10000 3.1 10 15:21 28.12.2019
1784 Clouds 2 1039 64 10000 2.1 340 14:46 28.12.2019
1785 Clouds 2 1039 59 10000 1.5 40 14:24 28.12.2019
1786 Clouds 2 1039 59 10000 1.5 40 13:58 28.12.2019
1787 Clouds 2 1039 59 10000 1.5 40 13:58 28.12.2019
1788 Clouds 2 1039 59 10000 1.5 70 13:39 28.12.2019
1789 Clouds 2 1039 59 10000 1.5 90 13:19 28.12.2019
1790 Clouds 2 1039 59 10000 2.1 120 12:44 28.12.2019
1791 Clouds 2 1039 64 10000 0.5 70 12:25 28.12.2019
1792 Clouds 2 1039 64 10000 0.5 70 11:59 28.12.2019
1793 Clouds 2 1039 59 10000 2.6 50 11:39 28.12.2019
1794 Clouds 2 1039 64 10000 3.1 30 11:20 28.12.2019
1795 Clouds 1 1039 69 10000 2.6 360 10:46 28.12.2019
1796 Clouds 1 1039 74 10000 1.5 20 10:23 28.12.2019
1797 Clouds 0 1039 74 10000 1.5 20 09:58 28.12.2019
1798 Clouds 0 1039 79 10000 1.5 40 09:40 28.12.2019
1799 Clouds 0 1039 79 10000 1 0 09:21 28.12.2019
1800 Clouds 0 1038 86 10000 1.5 360 08:45 28.12.2019
1801 Clouds 0 1038 86 10000 1.5 360 08:27 28.12.2019
1802 Clouds 0 1038 92 10000 0.5 0 07:57 28.12.2019
1803 Clouds 0 1038 86 10000 1 0 07:39 28.12.2019
1804 Clouds 0 1038 92 10000 1.5 350 06:42 28.12.2019
1805 Clouds -1 1037 100 10000 0.5 0 05:19 28.12.2019
1806 Clouds -1 1037 92 10000 0.5 0 03:47 28.12.2019
1807 Clouds -1 1036 92 10000 0.5 0 02:49 28.12.2019
1808 Clouds -1 1036 92 10000 1 320 02:19 28.12.2019
1809 Clouds -1 1036 92 10000 1 0 01:42 28.12.2019
1810 Clouds -1 1036 92 10000 1 340 01:18 28.12.2019
1811 Clouds -1 1036 92 10000 1 350 00:40 28.12.2019
1812 Clouds -1 1036 92 10000 1 0 00:21 28.12.2019
1813 Clouds -1 1035 86 10000 0.5 10 23:44 27.12.2019
1814 Clouds -1 1035 86 10000 1 40 23:20 27.12.2019
1815 Clouds -1 1035 89 10000 1.5 350 22:58 27.12.2019
1816 Clouds 0 1035 89 10000 1.5 350 22:39 27.12.2019
1817 Clouds 0 1035 89 10000 1.5 350 22:20 27.12.2019
1818 Clouds 0 1035 89 10000 1.5 350 21:56 27.12.2019
1819 Clouds 0 1034 89 10000 2.1 350 21:37 27.12.2019
1820 Clouds 0 1034 89 10000 1.5 320 21:19 27.12.2019
1821 Clouds 0 1033 92 10000 1.5 350 20:42 27.12.2019
1822 Clouds 0 1033 92 10000 1.5 350 20:23 27.12.2019
1823 Clouds 0 1032 83 10000 1 340 19:43 27.12.2019
1824 Clouds 1 1031 80 10000 1 0 19:21 27.12.2019
1825 Clouds 1 1031 80 10000 1 0 18:59 27.12.2019
1826 Clouds 1 1031 80 10000 1.5 10 18:40 27.12.2019
1827 Clouds 2 1030 83 10000 1.5 340 18:21 27.12.2019
1828 Clouds 2 1030 83 10000 2.1 360 17:58 27.12.2019
1829 Clouds 2 1030 83 10000 2.1 360 17:40 27.12.2019
1830 Clouds 3 1029 93 10000 1.5 10 17:19 27.12.2019
1831 Clouds 3 1029 93 10000 1.5 10 16:59 27.12.2019
1832 Clouds 4 1029 80 10000 0.5 0 16:39 27.12.2019
1833 Clouds 4 1029 75 10000 0.5 260 16:19 27.12.2019
1834 Clouds 4 1028 75 10000 0.5 0 15:45 27.12.2019
1835 Clouds 4 1028 75 10000 1.5 90 15:23 27.12.2019
1836 Clouds 4 1027 75 10000 2.1 90 14:58 27.12.2019
1837 Clouds 5 1027 75 10000 2.1 90 14:39 27.12.2019
1838 Clouds 5 1027 75 10000 2.6 50 14:20 27.12.2019
1839 Clouds 4 1026 75 10000 3.1 30 13:55 27.12.2019
1840 Clouds 4 1026 75 10000 3.1 30 13:37 27.12.2019
1841 Clouds 4 1026 75 10000 3.6 40 13:18 27.12.2019
1842 Clouds 4 1026 80 10000 1.5 30 12:40 27.12.2019
1843 Clouds 4 1025 93 10000 2.1 50 12:22 27.12.2019
1844 Clouds 4 1025 93 10000 2.1 40 11:46 27.12.2019
1845 Clouds 4 1025 93 10000 1 0 11:26 27.12.2019
1846 Clouds 4 1025 93 10000 1 0 11:26 27.12.2019
1847 Rain 4 1025 93 10000 1 0 10:58 27.12.2019
1848 Rain 3 1024 93 9000 1 0 10:39 27.12.2019
1849 Rain 3 1024 93 6000 1.5 60 10:21 27.12.2019
1850 Clouds 3 1024 93 7000 1 40 09:44 27.12.2019
1851 Drizzle 3 1023 93 6000 1 0 09:22 27.12.2019
1852 Drizzle 3 1023 93 6000 1 0 09:22 27.12.2019
1853 Drizzle 2 1023 93 6000 1 0 08:59 27.12.2019
1854 Drizzle 2 1023 93 5000 1.5 110 08:36 27.12.2019
1855 Clouds 3 1022 93 10000 2.1 90 07:52 27.12.2019
1856 Rain 2 1022 93 10000 2.1 90 07:33 27.12.2019
1857 Clouds 2 1022 93 10000 2.6 100 06:38 27.12.2019
1858 Mist 2 1021 100 4000 1.5 170 05:52 27.12.2019
1859 Clouds 2 1022 93 10000 2.6 120 03:47 27.12.2019
1860 Clouds 2 1022 93 10000 2.6 120 03:47 27.12.2019
1861 Clouds 2 1022 86 10000 1.5 110 02:23 27.12.2019
1862 Clouds 2 1022 86 10000 2.1 180 01:42 27.12.2019
1863 Clouds 2 1023 86 10000 2.1 180 01:20 27.12.2019
1864 Clouds 2 1023 86 10000 2.1 170 00:44 27.12.2019
1865 Clouds 3 1023 93 10000 1.5 120 00:24 27.12.2019
1866 Clouds 2 1023 93 10000 1.5 120 00:24 27.12.2019
1867 Clouds 3 1023 93 10000 2.6 130 23:42 26.12.2019
1868 Clouds 2 1024 93 10000 2.6 130 23:23 26.12.2019
1869 Clouds 2 1024 93 10000 2.6 120 22:57 26.12.2019
1870 Clouds 2 1024 93 10000 2.6 120 22:37 26.12.2019
1871 Clouds 3 1024 93 10000 3.1 110 22:18 26.12.2019
1872 Clouds 2 1024 93 10000 2.1 90 21:39 26.12.2019
1873 Clouds 2 1024 93 10000 2.1 90 21:39 26.12.2019
1874 Clouds 2 1024 93 10000 2.6 90 21:21 26.12.2019
1875 Clouds 2 1024 93 10000 2.6 90 21:21 26.12.2019
1876 Clouds 2 1024 93 10000 1.5 120 20:47 26.12.2019
1877 Clouds 2 1024 93 10000 3.1 100 20:24 26.12.2019
1878 Clouds 3 1024 93 10000 3.1 100 19:59 26.12.2019
1879 Clouds 2 1024 93 10000 2.1 100 19:40 26.12.2019
1880 Clouds 2 1024 93 10000 2.1 100 19:40 26.12.2019
1881 Clouds 3 1024 86 10000 1.5 100 19:22 26.12.2019
1882 Clouds 3 1024 86 10000 1.5 100 18:59 26.12.2019
1883 Clouds 3 1023 93 10000 1.5 90 18:40 26.12.2019
1884 Clouds 3 1023 93 10000 1.5 100 18:20 26.12.2019
1885 Clouds 3 1023 93 10000 1.5 100 17:57 26.12.2019
1886 Clouds 3 1023 86 10000 2.1 100 17:38 26.12.2019
1887 Clouds 3 1023 86 10000 2.1 100 17:38 26.12.2019
1888 Clouds 3 1023 86 10000 2.1 100 17:38 26.12.2019
1889 Clouds 4 1023 86 10000 1.5 100 17:18 26.12.2019
1890 Clouds 4 1023 86 10000 1.5 100 16:43 26.12.2019
1891 Clouds 4 1023 75 10000 1.5 70 16:23 26.12.2019
1892 Clouds 5 1023 75 10000 1.5 70 15:56 26.12.2019
1893 Clouds 5 1023 75 10000 1.5 70 15:56 26.12.2019
1894 Clouds 5 1023 70 10000 0.5 0 15:38 26.12.2019
1895 Clouds 5 1024 84 10000 1 0 15:18 26.12.2019
1896 Clouds 5 1024 60 10000 0.5 0 14:40 26.12.2019
1897 Clouds 5 1024 80 10000 1 0 14:22 26.12.2019
1898 Clouds 5 1024 70 10000 1 0 13:44 26.12.2019
1899 Clouds 5 1024 70 10000 1 0 13:44 26.12.2019
1900 Clouds 5 1024 100 10000 2.6 150 13:22 26.12.2019
1901 Clouds 5 1024 100 10000 2.6 140 12:58 26.12.2019
1902 Clouds 5 1024 100 10000 2.6 140 12:58 26.12.2019
1903 Clouds 5 1024 75 10000 0.5 0 12:39 26.12.2019
1904 Clouds 5 1024 75 10000 0.5 0 12:39 26.12.2019
1905 Clouds 5 1025 86 10000 1 0 12:20 26.12.2019
1906 Clouds 5 1025 86 10000 1 0 11:57 26.12.2019
1907 Clouds 5 1025 86 10000 0.5 0 11:39 26.12.2019
1908 Clouds 4 1025 86 10000 1 0 11:20 26.12.2019
1909 Clouds 4 1025 93 10000 1 0 10:49 26.12.2019
1910 Clouds 4 1025 93 10000 0.5 0 10:19 26.12.2019
1911 Clouds 4 1025 93 10000 0.5 0 10:19 26.12.2019
1912 Clouds 4 1025 93 10000 0.5 0 10:19 26.12.2019
1913 Clouds 4 1025 93 10000 0.5 0 09:50 26.12.2019
1914 Clouds 4 1025 93 10000 0.5 0 09:32 26.12.2019
1915 Clouds 3 1025 100 10000 0.5 0 08:55 26.12.2019
1916 Clouds 3 1025 100 10000 1 180 08:36 26.12.2019
1917 Clouds 3 1025 100 10000 0.5 0 08:18 26.12.2019
1918 Clouds 3 1025 100 10000 0.5 0 07:30 26.12.2019
1919 Clouds 3 1025 100 10000 0.5 0 07:30 26.12.2019
1920 Clouds 3 1025 93 10000 1 0 06:54 26.12.2019
1921 Clouds 3 1025 93 10000 1 200 06:54 26.12.2019
1922 Clouds 3 1025 93 10000 1 0 06:32 26.12.2019
1923 Clouds 4 1024 93 10000 0.5 0 05:46 26.12.2019
1924 Clouds 4 1024 93 10000 0.5 290 04:59 26.12.2019
1925 Clouds 4 1024 93 10000 0.5 290 04:30 26.12.2019
1926 Clouds 4 1025 93 10000 2.1 260 03:18 26.12.2019
1927 Clouds 4 1025 93 10000 2.1 270 02:38 26.12.2019
1928 Clouds 4 1024 93 10000 2.6 270 02:19 26.12.2019
1929 Clouds 4 1024 93 10000 3.1 270 01:41 26.12.2019
1930 Rain 4 1024 93 10000 3.1 270 01:22 26.12.2019
1931 Clouds 4 1024 93 10000 3.6 270 00:41 26.12.2019
1932 Clouds 4 1024 93 10000 2.6 250 00:22 26.12.2019
1933 Rain 4 1024 93 10000 2.6 250 23:42 25.12.2019
1934 Rain 4 1024 93 10000 2.6 250 23:21 25.12.2019
1935 Rain 4 1024 93 10000 2.6 250 22:59 25.12.2019
1936 Clouds 4 1024 93 10000 2.1 240 22:40 25.12.2019
1937 Clouds 4 1024 93 10000 2.6 290 22:22 25.12.2019
1938 Clouds 4 1024 93 10000 2.6 290 21:59 25.12.2019
1939 Clouds 4 1023 93 10000 3.1 300 21:40 25.12.2019
1940 Clouds 4 1023 86 10000 3.6 300 21:21 25.12.2019
1941 Clouds 4 1023 86 10000 4.1 280 20:57 25.12.2019
1942 Clouds 4 1023 86 10000 4.1 280 20:39 25.12.2019
1943 Clouds 4 1023 86 10000 3.6 270 20:18 25.12.2019
1944 Clouds 4 1022 86 10000 4.1 280 19:43 25.12.2019
1945 Clouds 4 1022 86 10000 4.1 280 19:43 25.12.2019
1946 Clouds 4 1022 86 10000 3.1 290 19:25 25.12.2019
1947 Clouds 5 1021 86 10000 2.1 300 18:58 25.12.2019
1948 Clouds 5 1021 86 10000 2.1 300 18:37 25.12.2019
1949 Clouds 5 1021 86 10000 2.6 310 18:19 25.12.2019
1950 Rain 5 1021 87 10000 3.6 320 17:42 25.12.2019
1951 Rain 5 1020 87 10000 4.6 310 17:20 25.12.2019
1952 Rain 5 1020 87 10000 4.6 310 16:58 25.12.2019
1953 Rain 6 1019 93 10000 4.1 320 16:37 25.12.2019
1954 Rain 6 1018 87 10000 7.2 290 16:19 25.12.2019
1955 Rain 6 1018 87 10000 7.2 290 15:57 25.12.2019
1956 Rain 6 1018 81 10000 8.2 280 15:39 25.12.2019
1957 Rain 6 1018 81 10000 8.2 280 15:39 25.12.2019
1958 Clouds 7 1017 81 10000 7.7 280 15:20 25.12.2019
1959 Clouds 7 1017 81 10000 7.7 280 14:57 25.12.2019
1960 Clouds 7 1017 81 10000 7.7 280 14:39 25.12.2019
1961 Rain 7 1016 81 10000 8.2 290 14:20 25.12.2019
1962 Rain 7 1015 75 10000 6.7 300 13:44 25.12.2019
1963 Rain 7 1015 87 10000 7.7 290 13:21 25.12.2019
1964 Rain 7 1015 87 10000 7.7 290 12:57 25.12.2019
1965 Rain 7 1015 81 10000 8.2 290 12:38 25.12.2019
1966 Rain 7 1015 81 10000 8.2 290 12:38 25.12.2019
1967 Rain 7 1015 87 10000 6.7 290 12:19 25.12.2019
1968 Rain 7 1015 93 10000 4.6 290 11:43 25.12.2019
1969 Rain 6 1014 93 10000 2.1 280 11:22 25.12.2019
1970 Rain 7 1014 87 10000 3.1 310 10:59 25.12.2019
1971 Rain 7 1014 93 10000 2.1 280 10:59 25.12.2019
1972 Rain 7 1014 87 10000 3.1 310 10:36 25.12.2019
1973 Rain 6 1014 87 8000 6.2 320 10:18 25.12.2019
1974 Clouds 6 1013 87 10000 4.6 250 09:43 25.12.2019
1975 Rain 7 1013 93 10000 3.1 230 09:25 25.12.2019
1976 Rain 7 1013 93 10000 2.1 240 08:46 25.12.2019
1977 Rain 7 1013 93 10000 2.1 240 08:25 25.12.2019
1978 Clouds 7 1013 81 10000 5.1 260 07:45 25.12.2019
1979 Rain 7 1013 87 10000 3.6 260 07:23 25.12.2019
1980 Clouds 7 1013 87 10000 3.1 240 06:47 25.12.2019
1981 Rain 7 1013 87 10000 3.6 240 06:22 25.12.2019
1982 Clouds 7 1013 81 10000 5.1 260 04:50 25.12.2019
1983 Rain 7 1013 81 10000 5.1 260 04:26 25.12.2019
1984 Clouds 7 1013 81 10000 5.7 250 03:58 25.12.2019
1985 Clouds 7 1013 81 10000 5.7 250 03:39 25.12.2019
1986 Clouds 7 1013 81 10000 7.2 260 02:39 25.12.2019
1987 Rain 7 1013 81 10000 7.2 260 01:58 25.12.2019
1988 Rain 7 1013 81 10000 5.7 260 01:25 25.12.2019
1989 Clouds 7 1013 81 10000 6.2 260 00:48 25.12.2019
1990 Rain 7 1013 81 10000 6.2 260 00:28 25.12.2019
1991 Clouds 7 1012 81 10000 6.7 250 23:55 24.12.2019
1992 Clouds 6 1012 81 10000 6.7 250 23:37 24.12.2019
1993 Rain 7 1012 87 10000 5.7 250 23:19 24.12.2019
1994 Rain 7 1012 81 10000 6.2 260 22:39 24.12.2019
1995 Rain 7 1012 75 10000 4.1 240 22:20 24.12.2019
1996 Rain 7 1012 81 10000 4.1 230 21:42 24.12.2019
1997 Clouds 7 1012 81 10000 4.1 230 21:22 24.12.2019
1998 Clouds 7 1012 81 10000 4.1 230 21:22 24.12.2019
1999 Rain 7 1012 81 10000 3.6 240 20:45 24.12.2019
2000 Rain 6 1012 81 10000 4.1 240 20:24 24.12.2019
2001 Rain 6 1012 81 10000 4.1 240 19:57 24.12.2019
2002 Rain 6 1012 81 10000 3.6 240 19:39 24.12.2019
2003 Rain 6 1011 87 10000 3.6 240 19:18 24.12.2019
2004 Clouds 6 1011 81 10000 4.6 250 18:42 24.12.2019
2005 Clouds 6 1011 81 10000 4.6 240 18:20 24.12.2019
2006 Clouds 6 1011 87 10000 4.1 240 17:50 24.12.2019
2007 Rain 5 1011 87 10000 4.1 250 17:24 24.12.2019
2008 Rain 6 1011 87 10000 5.1 260 16:59 24.12.2019
2009 Rain 6 1011 87 10000 5.1 260 16:41 24.12.2019
2010 Drizzle 5 1011 93 10000 3.1 220 16:23 24.12.2019
2011 Drizzle 5 1011 93 10000 3.1 220 16:23 24.12.2019
2012 -273 0 0 0 0 0 16:22 24.12.2019
2013 Drizzle 5 1011 93 10000 3.1 220 15:58 24.12.2019
2014 Drizzle 5 1010 93 4500 4.6 160 15:39 24.12.2019
2015 Rain 5 1010 93 10000 2.6 140 15:20 24.12.2019
2016 Rain 5 1011 93 8000 2.6 180 14:59 24.12.2019
2017 Rain 5 1010 93 10000 2.6 140 14:59 24.12.2019
2018 Rain 5 1011 93 8000 2.6 180 14:41 24.12.2019
2019 Rain 5 1010 86 10000 5.1 160 14:22 24.12.2019
2020 Rain 5 1010 86 10000 5.1 160 13:57 24.12.2019
2021 Rain 6 1010 81 10000 4.6 170 13:39 24.12.2019
2022 Rain 6 1012 75 10000 5.1 170 13:20 24.12.2019
2023 Rain 6 1012 75 10000 5.1 170 12:58 24.12.2019
2024 Rain 6 1012 75 10000 5.1 170 12:58 24.12.2019
2025 Clouds 6 1012 75 10000 5.1 170 12:38 24.12.2019
2026 Clouds 6 1013 75 10000 5.1 180 12:19 24.12.2019
2027 Clouds 6 1013 75 10000 5.1 180 11:58 24.12.2019
2028 Clouds 6 1013 81 10000 4.1 160 11:38 24.12.2019
2029 Clouds 6 1014 81 10000 4.6 160 11:20 24.12.2019
2030 Clouds 6 1014 81 10000 4.6 160 10:57 24.12.2019
2031 Clouds 5 1015 81 10000 4.1 170 10:38 24.12.2019
2032 Clouds 5 1016 86 10000 4.1 170 10:20 24.12.2019
2033 Clouds 5 1016 86 10000 4.1 170 09:59 24.12.2019
2034 Clouds 5 1016 86 10000 3.1 170 09:41 24.12.2019
2035 Clouds 4 1016 86 10000 3.1 180 09:22 24.12.2019
2036 Clouds 4 1016 86 10000 3.1 180 08:56 24.12.2019
2037 Clouds 4 1017 86 10000 3.1 170 08:37 24.12.2019
2038 Clouds 4 1017 86 10000 3.1 180 08:18 24.12.2019
2039 Clouds 4 1017 86 10000 2.6 190 07:43 24.12.2019
2040 Clouds 5 1017 86 10000 2.1 200 07:21 24.12.2019
2041 Clouds 5 1017 86 10000 1.5 210 06:41 24.12.2019
2042 Clouds 5 1017 86 10000 2.6 170 06:22 24.12.2019
2043 Rain 5 1017 86 10000 2.1 230 05:55 24.12.2019
2044 Clouds 5 1018 80 10000 4.1 310 05:19 24.12.2019
2045 Rain 5 1018 86 10000 3.1 250 04:21 24.12.2019
2046 Rain 5 1016 100 10000 4.1 260 03:48 24.12.2019
2047 Clouds 5 1017 81 10000 5.1 250 02:29 24.12.2019
2048 Rain 6 1016 81 10000 6.2 260 01:57 24.12.2019
2049 Rain 6 1016 81 10000 6.2 260 01:26 24.12.2019
2050 Clouds 6 1016 81 10000 5.1 260 00:58 24.12.2019
2051 Clouds 6 1016 81 10000 4.1 260 00:39 24.12.2019
2052 Clouds 6 1016 81 10000 4.6 260 00:20 24.12.2019
2053 Clouds 6 1015 81 10000 5.1 260 23:43 23.12.2019
2054 Clouds 6 1015 87 10000 5.7 260 23:24 23.12.2019
2055 Clouds 6 1015 87 10000 5.7 260 23:24 23.12.2019
2056 Clouds 6 1015 87 10000 5.7 260 22:57 23.12.2019
2057 Clouds 6 1015 75 10000 5.7 270 22:38 23.12.2019
2058 Rain 6 1014 81 10000 6.7 270 22:20 23.12.2019
2059 Clouds 6 1014 81 10000 6.7 270 21:56 23.12.2019
2060 Clouds 6 1014 81 10000 5.7 260 21:37 23.12.2019
2061 Clouds 6 1013 81 10000 5.7 270 21:19 23.12.2019
2062 Clouds 6 1013 81 10000 5.7 270 20:59 23.12.2019
2063 Clouds 6 1013 87 10000 4.1 260 20:40 23.12.2019
2064 Rain 6 1013 87 10000 4.1 260 20:19 23.12.2019
2065 Rain 5 1013 87 10000 4.1 260 19:58 23.12.2019
2066 Rain 6 1013 87 10000 4.1 260 19:39 23.12.2019
2067 Rain 5 1012 81 10000 5.1 250 19:21 23.12.2019
2068 Clouds 6 1012 81 10000 5.1 250 18:58 23.12.2019
2069 Clouds 6 1012 81 10000 4.1 250 18:39 23.12.2019
2070 Rain 5 1012 100 10000 3.6 250 18:20 23.12.2019
2071 Clouds 5 1011 81 10000 3.1 270 17:58 23.12.2019
2072 Clouds 5 1011 81 10000 3.1 270 17:40 23.12.2019
2073 Clouds 5 1011 81 10000 4.6 260 17:19 23.12.2019
2074 Clouds 6 1011 81 10000 4.6 260 16:57 23.12.2019
2075 Clouds 6 1010 81 10000 4.1 260 16:39 23.12.2019
2076 Rain 6 1010 81 10000 4.6 260 16:18 23.12.2019
2077 Clouds 6 1010 81 10000 4.6 260 15:57 23.12.2019
2078 Drizzle 6 1009 87 10000 4.6 280 15:37 23.12.2019
2079 Drizzle 7 1009 81 10000 3.6 280 15:18 23.12.2019
2080 Drizzle 7 1008 81 10000 5.7 280 14:56 23.12.2019
2081 Drizzle 7 1008 81 10000 5.7 280 14:37 23.12.2019
2082 Clouds 7 1008 81 10000 6.2 270 14:18 23.12.2019
2083 Clouds 7 1007 81 10000 6.2 280 13:55 23.12.2019
2084 Clouds 7 1007 81 10000 6.2 280 13:37 23.12.2019
2085 Drizzle 6 1007 87 10000 6.2 270 13:19 23.12.2019
2086 Drizzle 7 1007 93 10000 4.6 270 12:41 23.12.2019
2087 Drizzle 6 1006 87 10000 5.7 260 12:21 23.12.2019
2088 Drizzle 6 1006 87 10000 5.7 260 11:59 23.12.2019
2089 Clouds 6 1006 81 10000 5.7 260 11:59 23.12.2019
2090 Rain 6 1006 81 10000 5.7 260 11:41 23.12.2019
2091 Rain 6 1006 87 10000 4.1 250 11:22 23.12.2019
2092 Clouds 6 1006 81 10000 5.1 250 10:55 23.12.2019
2093 Clouds 6 1006 81 10000 5.1 250 10:37 23.12.2019
2094 Clouds 6 1006 81 10000 5.1 250 10:37 23.12.2019
2095 Clouds 6 1005 87 10000 2.6 220 10:18 23.12.2019
2096 Drizzle 6 1005 87 10000 3.6 250 09:54 23.12.2019
2097 Drizzle 6 1005 87 10000 3.6 250 09:36 23.12.2019
2098 Clouds 6 1004 87 10000 4.1 250 09:18 23.12.2019
2099 Drizzle 6 1004 87 10000 4.6 250 08:41 23.12.2019
2100 Rain 6 1003 81 10000 4.6 250 08:22 23.12.2019
2101 Clouds 5 1003 81 10000 4.1 250 07:56 23.12.2019
2102 Clouds 5 1003 81 10000 4.1 250 07:37 23.12.2019
2103 Rain 6 1003 81 10000 4.1 260 07:18 23.12.2019
2104 Drizzle 5 1002 87 10000 4.6 260 06:39 23.12.2019
2105 Clouds 5 1002 86 10000 3.6 260 06:21 23.12.2019
2106 Clouds 5 1001 81 10000 3.6 260 05:44 23.12.2019
2107 Clouds 5 1000 81 10000 5.7 260 04:40 23.12.2019
2108 Clouds 6 999 81 10000 5.1 260 03:58 23.12.2019
2109 Clouds 6 998 75 10000 6.7 260 02:46 23.12.2019
2110 Rain 6 997 81 10000 6.7 260 02:19 23.12.2019
2111 Clouds 6 997 75 10000 7.7 260 01:46 23.12.2019
2112 Clouds 6 997 75 10000 7.7 260 01:27 23.12.2019
2113 Rain 6 996 75 10000 6.7 250 00:46 23.12.2019
2114 Rain 6 995 75 10000 8.2 250 00:25 23.12.2019
2115 Rain 6 995 75 10000 6.2 250 23:56 22.12.2019
2116 Rain 6 995 75 10000 6.2 250 23:37 22.12.2019
2117 Rain 6 995 81 10000 6.7 260 23:19 22.12.2019
2118 Rain 6 994 81 10000 6.2 250 22:42 22.12.2019
2119 Rain 6 994 81 10000 6.2 250 22:42 22.12.2019
2120 Rain 6 994 81 10000 7.2 250 22:23 22.12.2019
2121 Rain 7 994 81 10000 7.2 250 21:59 22.12.2019
2122 Clouds 7 994 75 10000 5.7 240 21:41 22.12.2019
2123 Clouds 7 993 81 10000 5.1 230 21:22 22.12.2019
2124 Clouds 7 993 81 10000 5.1 230 20:59 22.12.2019
2125 Clouds 7 993 75 10000 6.2 240 20:40 22.12.2019
2126 Rain 7 993 75 10000 7.7 250 20:19 22.12.2019
2127 Rain 7 993 75 10000 7.7 250 19:57 22.12.2019
2128 Rain 7 992 75 10000 5.7 250 19:39 22.12.2019
2129 Clouds 7 992 87 10000 5.1 240 19:20 22.12.2019
2130 Drizzle 7 991 93 10000 5.1 230 18:43 22.12.2019
2131 Drizzle 7 991 93 8000 3.1 200 18:25 22.12.2019
2132 Drizzle 6 991 93 10000 2.6 120 17:57 22.12.2019
2133 Drizzle 6 991 93 10000 2.6 120 17:57 22.12.2019
2134 Drizzle 6 991 93 10000 2.6 120 17:39 22.12.2019
2135 Drizzle 6 990 93 10000 3.1 110 17:19 22.12.2019
2136 Drizzle 6 990 93 10000 3.1 110 16:59 22.12.2019
2137 Clouds 6 990 93 10000 2.6 120 16:41 22.12.2019
2138 Clouds 6 989 93 10000 2.6 110 16:22 22.12.2019
2139 Clouds 6 989 93 10000 2.6 110 15:57 22.12.2019
2140 Drizzle 6 989 87 10000 2.1 120 15:39 22.12.2019
2141 Drizzle 6 989 87 10000 3.1 140 15:20 22.12.2019
2142 Drizzle 6 989 87 10000 3.1 140 14:56 22.12.2019
2143 Rain 6 989 81 10000 2.6 120 14:38 22.12.2019
2144 Clouds 6 989 81 10000 3.6 140 14:18 22.12.2019
2145 Clouds 6 989 87 10000 4.1 130 13:55 22.12.2019
2146 Clouds 6 989 87 10000 4.1 130 13:37 22.12.2019
2147 Clouds 6 989 87 10000 3.6 130 13:19 22.12.2019
2148 Clouds 6 989 87 10000 3.6 130 12:56 22.12.2019
2149 Clouds 6 989 81 10000 4.1 130 12:37 22.12.2019
2150 Clouds 5 989 81 10000 4.1 140 12:19 22.12.2019
2151 Clouds 5 989 86 10000 4.6 120 11:56 22.12.2019
2152 Clouds 5 989 86 10000 4.6 120 11:38 22.12.2019
2153 Clouds 5 989 86 10000 4.6 120 11:19 22.12.2019
2154 Clouds 5 989 86 10000 4.1 120 10:55 22.12.2019
2155 Clouds 5 989 86 10000 4.1 120 10:37 22.12.2019
2156 Clouds 4 989 93 10000 4.1 120 10:18 22.12.2019
2157 Clouds 4 989 93 10000 4.1 120 09:57 22.12.2019
2158 Clouds 4 989 93 10000 4.1 120 09:38 22.12.2019
2159 Clouds 4 988 93 10000 4.1 120 09:20 22.12.2019
2160 Clouds 4 988 86 10000 4.1 130 08:42 22.12.2019
2161 Rain 4 988 93 10000 4.1 110 08:21 22.12.2019
2162 Clouds 4 988 93 10000 4.1 120 07:42 22.12.2019
2163 Clouds 4 988 93 10000 4.1 120 07:21 22.12.2019
2164 Clouds 4 988 93 10000 4.1 120 06:52 22.12.2019
2165 Clouds 4 988 93 10000 4.1 120 06:22 22.12.2019
2166 Rain 4 988 93 10000 3.6 120 05:29 22.12.2019
2167 Clouds 3 988 100 8000 4.1 130 04:46 22.12.2019
2168 Rain 4 988 93 7000 2.6 120 04:24 22.12.2019
2169 Mist 4 990 93 4500 2.6 150 02:43 22.12.2019
2170 Mist 4 990 93 4500 2.6 150 02:43 22.12.2019
2171 Mist 4 990 93 4500 2.6 150 02:43 22.12.2019
2172 Mist 3 990 93 4300 3.1 140 01:59 22.12.2019
2173 Mist 3 989 100 4000 3.1 130 01:31 22.12.2019
2174 Fog 3 990 93 1000 3.6 120 00:48 22.12.2019
2175 Fog 3 990 93 1000 3.6 120 00:29 22.12.2019
2176 Rain 3 990 100 1800 4.6 130 23:59 21.12.2019
2177 Rain 3 990 100 6000 1.5 120 23:40 21.12.2019
2178 Clear 3 991 92 7000 3.6 110 23:20 21.12.2019
2179 Clear 3 990 92 7000 4.1 100 22:47 21.12.2019
2180 Clear 3 991 93 8000 4.1 100 22:20 21.12.2019
2181 Mist 3 992 93 1400 2.69 141 21:58 21.12.2019
2182 Mist 3 992 93 1400 2.69 141 21:40 21.12.2019
2183 Clouds 3 991 93 8000 3.6 90 21:21 21.12.2019
2184 Clouds 3 991 93 8000 3.6 90 20:59 21.12.2019
2185 Clouds 3 992 93 9000 2.6 160 20:41 21.12.2019
2186 Clouds 3 993 100 10000 3.6 120 20:22 21.12.2019
2187 Clouds 3 993 100 10000 3.6 120 20:22 21.12.2019
2188 Clouds 2 993 100 10000 3.6 120 19:58 21.12.2019
2189 Clouds 2 993 100 10000 3.1 120 19:40 21.12.2019
2190 Clouds 2 993 93 10000 3.6 110 19:20 21.12.2019
2191 Clouds 3 993 100 10000 2.6 110 18:56 21.12.2019
2192 Clouds 3 993 100 10000 2.6 110 18:37 21.12.2019
2193 Clouds 3 993 93 10000 3.6 110 18:19 21.12.2019
2194 Clouds 4 993 93 10000 2.6 120 17:55 21.12.2019
2195 Clouds 4 993 93 10000 2.6 120 17:55 21.12.2019
2196 Clouds 4 993 93 10000 2.6 120 17:55 21.12.2019
2197 Clouds 4 993 93 10000 2.6 120 17:37 21.12.2019
2198 Clouds 4 994 86 10000 1.5 130 17:18 21.12.2019
2199 Clouds 4 994 86 10000 1.5 130 17:18 21.12.2019
2200 Clouds 5 994 86 10000 2.6 130 16:41 21.12.2019
2201 Clouds 5 994 100 10000 3.1 170 16:19 21.12.2019
2202 Clouds 6 994 81 10000 3.1 150 15:58 21.12.2019
2203 Clouds 6 994 81 10000 3.1 150 15:39 21.12.2019
2204 Clouds 6 994 87 10000 3.1 140 15:20 21.12.2019
2205 Clouds 6 994 87 10000 3.1 140 14:57 21.12.2019
2206 Clouds 6 995 87 10000 3.6 130 14:39 21.12.2019
2207 Clouds 6 995 87 10000 3.6 130 14:39 21.12.2019
2208 Clouds 6 995 81 10000 3.6 130 14:20 21.12.2019
2209 Clouds 6 995 81 10000 3.6 130 13:56 21.12.2019
2210 Clouds 5 995 87 10000 2.6 140 13:38 21.12.2019
2211 Clouds 5 995 93 10000 3.1 130 13:18 21.12.2019
2212 Clouds 5 995 93 10000 3.1 130 12:55 21.12.2019
2213 Clouds 5 996 87 10000 3.6 120 12:37 21.12.2019
2214 Clouds 5 996 93 10000 2.6 140 12:18 21.12.2019
2215 Clouds 5 996 93 10000 1 0 11:44 21.12.2019
2216 Clouds 4 996 93 10000 1 0 11:26 21.12.2019
2217 Clouds 4 996 100 10000 1.5 100 10:57 21.12.2019
2218 Clouds 4 996 100 10000 1.5 100 10:57 21.12.2019
2219 Clouds 4 996 93 9000 2.6 100 10:38 21.12.2019
2220 Clouds 4 997 100 9000 3.1 120 10:20 21.12.2019
2221 Clouds 3 997 100 10000 3.1 120 09:44 21.12.2019
2222 Fog 3 997 100 7000 2.6 110 09:22 21.12.2019
2223 Fog 3 997 100 7000 2.6 110 08:59 21.12.2019
2224 Fog 3 997 100 6000 2.1 120 08:39 21.12.2019
2225 Mist 2 996 100 3000 3.6 110 08:21 21.12.2019
2226 Clouds 3 996 93 8000 2.6 100 07:44 21.12.2019
2227 Clouds 3 996 93 6000 4.1 110 07:22 21.12.2019
2228 Clouds 3 996 100 10000 3.6 100 06:45 21.12.2019
2229 Clouds 4 996 93 10000 2.6 90 06:26 21.12.2019
2230 Clouds 4 997 93 10000 2.6 160 05:51 21.12.2019
2231 Clouds 5 997 93 10000 2.6 170 04:58 21.12.2019
2232 Clouds 6 997 93 10000 3.1 170 03:57 21.12.2019
2233 Clouds 6 997 87 10000 2.6 190 02:53 21.12.2019
2234 Clouds 7 997 87 10000 2.6 200 01:59 21.12.2019
2235 Rain 7 996 93 10000 2.6 180 01:28 21.12.2019
2236 Rain 7 995 93 10000 2.6 170 00:55 21.12.2019
2237 Rain 7 995 93 10000 2.6 170 00:37 21.12.2019
2238 Rain 7 995 93 10000 2.6 180 00:18 21.12.2019
2239 Rain 7 995 93 10000 1.5 220 23:38 20.12.2019
2240 Rain 7 994 87 10000 1 0 23:19 20.12.2019
2241 Rain 8 994 81 10000 1.5 240 22:41 20.12.2019
2242 Clouds 7 994 81 10000 1.5 170 22:21 20.12.2019
2243 Clouds 7 994 81 10000 1.5 170 21:59 20.12.2019
2244 Rain 7 993 81 10000 1 0 21:40 20.12.2019
2245 Rain 7 993 81 10000 1.5 250 21:20 20.12.2019
2246 Rain 7 993 81 10000 1.5 250 21:20 20.12.2019
2247 Rain 7 993 87 10000 2.1 260 20:41 20.12.2019
2248 Clouds 7 993 87 10000 3.1 260 20:21 20.12.2019
2249 Clouds 7 993 87 10000 3.1 260 19:59 20.12.2019
2250 Clouds 7 992 81 10000 3.6 260 19:40 20.12.2019
2251 Clouds 7 991 81 10000 2.6 0 19:20 20.12.2019
2252 Clouds 7 991 81 10000 2.6 0 18:54 20.12.2019
2253 Clouds 7 991 81 10000 2.6 0 18:54 20.12.2019
2254 Clouds 7 991 81 10000 2.6 0 18:54 20.12.2019
2255 Rain 7 991 87 10000 2.6 0 18:36 20.12.2019
2256 Rain 7 991 87 10000 2.6 0 18:36 20.12.2019
2257 Rain 7 991 87 10000 1.5 0 18:18 20.12.2019
2258 Rain 7 991 93 10000 1.5 70 17:42 20.12.2019
2259 Rain 7 991 93 10000 1.5 70 17:42 20.12.2019
2260 Rain 7 992 87 10000 1.5 100 17:21 20.12.2019
2261 Rain 7 992 87 10000 1.5 100 16:59 20.12.2019
2262 Rain 7 992 81 10000 0.5 0 16:40 20.12.2019
2263 Rain 7 992 81 10000 0.5 0 16:20 20.12.2019
2264 Rain 7 992 81 10000 0.5 0 16:20 20.12.2019
2265 Clouds 7 992 81 10000 0.5 0 15:57 20.12.2019
2266 Clouds 7 992 87 10000 1 0 15:38 20.12.2019
2267 Clouds 7 992 87 10000 1 0 15:19 20.12.2019
2268 Clouds 8 993 81 10000 1 0 14:57 20.12.2019
2269 Clouds 8 993 81 10000 0.5 0 14:39 20.12.2019
2270 Clouds 8 993 81 10000 0.5 0 14:20 20.12.2019
2271 Clouds 8 994 76 10000 1 0 13:41 20.12.2019
2272 Clouds 8 994 76 10000 1 0 13:21 20.12.2019
2273 Clouds 7 994 81 10000 0.5 0 12:59 20.12.2019
2274 Clouds 8 994 81 10000 0.5 0 12:40 20.12.2019
2275 Clouds 8 994 75 10000 2.6 170 12:19 20.12.2019
2276 Clouds 7 994 76 10000 3.1 130 11:59 20.12.2019
2277 Clouds 7 994 76 10000 3.1 130 11:39 20.12.2019
2278 Clouds 5 995 75 10000 2.6 150 11:20 20.12.2019
2279 Clouds 4 995 87 10000 5.1 100 10:58 20.12.2019
2280 Clouds 4 997 93 10000 1.5 120 10:40 20.12.2019
2281 Clouds 4 997 93 10000 1.5 120 10:20 20.12.2019
2282 Clouds 3 997 88 10000 1 0 09:55 20.12.2019
2283 Fog 3 997 88 10000 1 70 09:37 20.12.2019
2284 Fog 3 997 88 10000 1 70 09:19 20.12.2019
2285 Clouds 3 998 88 10000 1 0 08:42 20.12.2019
2286 Clear 2 998 93 10000 1 0 08:22 20.12.2019
2287 Clear 2 998 100 10000 1.5 150 07:58 20.12.2019
2288 Clear 2 998 100 10000 4.1 100 07:40 20.12.2019
2289 Clear 2 999 86 10000 3.6 110 07:19 20.12.2019
2290 Clear 1 999 86 10000 3.6 110 06:50 20.12.2019
2291 Clear 1 1000 93 10000 1.5 130 06:31 20.12.2019
2292 Clear 2 1001 93 10000 1.5 100 05:52 20.12.2019
2293 Fog 2 1001 93 10000 1.5 120 05:34 20.12.2019
2294 Fog 1 1003 91 10000 2.1 100 03:57 20.12.2019
2295 Fog 1 1004 100 10000 1.5 130 03:29 20.12.2019
2296 Fog 1 1005 100 10000 1 0 02:41 20.12.2019
2297 Fog 1 1005 90 10000 1.5 320 01:44 20.12.2019
2298 Fog 1 1005 90 10000 1.5 320 01:44 20.12.2019
2299 Fog 1 1005 89 10000 0.5 0 01:18 20.12.2019
2300 Fog 2 1005 89 10000 1.5 150 00:41 20.12.2019
2301 Fog 2 1006 93 10000 2.1 100 00:19 20.12.2019
2302 Clouds 1 1006 89 10000 0.5 0 23:42 19.12.2019
2303 Fog 1 1007 100 10000 3.1 100 23:23 19.12.2019
2304 Fog 1 1008 88 10000 2.1 110 22:56 19.12.2019
2305 Clear 2 1008 93 10000 1.5 100 22:36 19.12.2019
2306 Clear 2 1008 93 10000 1.5 100 22:18 19.12.2019
2307 Clear 2 1010 100 10000 1 0 21:42 19.12.2019
2308 Clear 2 1009 93 10000 1 100 21:42 19.12.2019
2309 Clear 2 1010 100 10000 1 0 21:20 19.12.2019
2310 Clear 3 1010 86 10000 2.6 100 20:59 19.12.2019
2311 Clear 3 1010 93 10000 2.1 110 20:39 19.12.2019
2312 Clouds 3 1010 93 10000 2.1 110 20:21 19.12.2019
2313 Clouds 3 1011 93 10000 3.1 110 19:59 19.12.2019
2314 Clouds 3 1011 86 10000 3.6 100 19:40 19.12.2019
2315 Clouds 4 1011 86 10000 3.6 100 19:20 19.12.2019
2316 Clouds 4 1011 86 10000 2.6 100 19:00 19.12.2019
2317 Clouds 4 1011 86 10000 2.6 100 18:41 19.12.2019
2318 Clouds 4 1011 86 10000 2.6 100 18:20 19.12.2019
2319 Clouds 5 1011 86 10000 3.6 110 17:57 19.12.2019
2320 Clouds 5 1011 81 10000 5.1 90 17:38 19.12.2019
2321 Clouds 5 1011 81 10000 5.1 90 17:38 19.12.2019
2322 Clouds 5 1011 81 10000 5.1 90 17:38 19.12.2019
2323 Clouds 5 1011 81 10000 5.1 90 17:18 19.12.2019
2324 Clouds 6 1012 81 10000 3.6 90 16:57 19.12.2019
2325 Clouds 6 1012 75 10000 3.6 100 16:38 19.12.2019
2326 Clouds 7 1012 75 10000 3.6 100 16:20 19.12.2019
2327 Clouds 6 1012 75 10000 3.6 100 16:20 19.12.2019
2328 Clouds 6 1012 75 10000 3.6 100 16:20 19.12.2019
2329 Rain 7 1012 70 10000 3.6 90 15:58 19.12.2019
2330 Rain 8 1012 70 10000 3.6 90 15:38 19.12.2019
2331 Rain 8 1012 71 10000 3.6 90 15:19 19.12.2019
2332 Clouds 8 1012 76 10000 2.6 100 14:57 19.12.2019
2333 Clouds 8 1013 71 10000 2.6 120 14:39 19.12.2019
2334 Clouds 8 1013 71 10000 2.6 120 14:18 19.12.2019
2335 Clouds 7 1014 81 10000 5.1 100 13:39 19.12.2019
2336 Clouds 7 1014 81 10000 5.1 100 13:20 19.12.2019
2337 Clouds 7 1014 87 10000 1.5 20 12:59 19.12.2019
2338 Clouds 6 1014 87 10000 1.5 20 12:40 19.12.2019
2339 Clouds 6 1015 93 10000 0.5 0 12:19 19.12.2019
2340 Clouds 6 1015 93 10000 0.5 0 12:19 19.12.2019
2341 Clouds 5 1015 86 10000 1 0 11:59 19.12.2019
2342 Clouds 5 1015 93 10000 0.5 0 11:41 19.12.2019
2343 Clouds 3 1016 93 10000 0.5 0 11:19 19.12.2019
2344 Clouds 3 1016 93 10000 0.5 0 10:59 19.12.2019
2345 Fog 3 1016 88 10000 1 360 10:38 19.12.2019
2346 Fog 3 1016 88 10000 1 360 10:38 19.12.2019
2347 Fog 3 1016 88 10000 1 360 10:20 19.12.2019
2348 Fog 3 1016 88 10000 1 360 10:20 19.12.2019
2349 Fog 1 1017 88 10000 0.5 0 09:56 19.12.2019
2350 Fog 1 1017 88 8000 0.5 0 09:37 19.12.2019
2351 Fog 1 1017 88 8000 0.5 0 09:19 19.12.2019
2352 Fog 1 1017 88 8000 0.5 310 08:55 19.12.2019
2353 Fog 1 1017 88 8000 1 360 08:37 19.12.2019
2354 Fog 1 1017 91 8000 1 360 08:18 19.12.2019
2355 Mist 1 1017 91 5000 0.5 0 07:43 19.12.2019
2356 Mist 1 1017 91 5000 0.5 0 07:24 19.12.2019
2357 Fog 1 1017 91 2500 1.5 120 06:59 19.12.2019
2358 Fog 0 1017 91 2500 1 120 06:41 19.12.2019
2359 Fog 1 1017 91 2500 1 120 06:21 19.12.2019
2360 Fog 0 1018 91 8000 0.5 360 05:42 19.12.2019
2361 Fog 1 1018 91 8000 0.5 360 05:19 19.12.2019
2362 Fog 1 1018 91 5000 1.36 91 03:53 19.12.2019
2363 Fog 2 1019 100 2500 0.5 70 02:28 19.12.2019
2364 Fog 2 1019 93 9000 1.5 350 01:25 19.12.2019
2365 Fog 3 1019 93 10000 0.5 0 00:57 19.12.2019
2366 Clouds 3 1019 100 10000 0.5 90 00:38 19.12.2019
2367 Clouds 3 1019 100 10000 0.5 90 00:19 19.12.2019
2368 Clouds 4 1019 93 10000 2.1 140 23:44 18.12.2019
2369 Fog 4 1020 100 10000 2.6 120 23:19 18.12.2019
2370 Clouds 4 1020 100 10000 2.1 140 22:56 18.12.2019
2371 Clouds 4 1020 100 10000 3.6 120 22:38 18.12.2019
2372 Clouds 4 1020 100 10000 3.6 120 22:20 18.12.2019
2373 Clouds 4 1020 93 10000 3.1 100 21:58 18.12.2019
2374 Clouds 4 1020 93 10000 3.1 100 21:39 18.12.2019
2375 Clouds 4 1021 100 10000 2.1 100 21:39 18.12.2019
2376 Clouds 4 1021 100 10000 2.1 100 21:39 18.12.2019
2377 Clouds 4 1021 100 10000 2.1 100 21:20 18.12.2019
2378 Fog 4 1021 100 10000 1.5 110 20:56 18.12.2019
2379 Fog 4 1020 100 10000 2.1 110 20:38 18.12.2019
2380 Fog 5 1020 100 10000 2.1 110 20:19 18.12.2019
2381 Fog 5 1020 100 10000 2.1 100 19:56 18.12.2019
2382 Fog 4 1020 87 10000 3.1 90 19:37 18.12.2019
2383 Fog 5 1020 87 10000 3.1 90 19:18 18.12.2019
2384 Fog 5 1020 93 10000 3.1 100 18:45 18.12.2019
2385 Fog 5 1020 93 10000 3.1 100 18:45 18.12.2019
2386 Fog 5 1020 100 10000 3.1 120 18:26 18.12.2019
2387 Fog 7 1020 93 10000 1 0 17:58 18.12.2019
2388 Clouds 7 1020 93 10000 1.5 20 17:40 18.12.2019
2389 Clouds 7 1020 93 10000 1.5 20 17:20 18.12.2019
2390 Clouds 7 1020 93 10000 1.5 20 17:20 18.12.2019
2391 Clouds 9 1019 81 10000 1 40 16:58 18.12.2019
2392 Clouds 9 1019 81 10000 1 40 16:40 18.12.2019
2393 Clear 9 1019 100 10000 1.5 130 16:22 18.12.2019
2394 Clouds 10 1019 76 10000 0.5 70 15:57 18.12.2019
2395 Clouds 10 1019 76 10000 1 0 15:38 18.12.2019
2396 Clouds 10 1019 76 10000 1.5 120 15:20 18.12.2019
2397 Clouds 10 1019 76 10000 1.5 110 14:43 18.12.2019
2398 Clouds 10 1019 76 10000 1 110 14:22 18.12.2019
2399 Clouds 10 1019 87 10000 1 0 13:58 18.12.2019
2400 Clouds 9 1019 87 10000 1 0 13:40 18.12.2019
2401 Rain 9 1019 81 10000 1 0 13:21 18.12.2019
2402 Rain 9 1019 81 10000 1 0 12:59 18.12.2019
2403 Clouds 9 1019 81 10000 1 0 12:40 18.12.2019
2404 Clouds 9 1019 81 10000 1 0 12:40 18.12.2019
2405 Rain 9 1019 76 10000 1 0 12:21 18.12.2019
2406 Rain 8 1019 76 10000 1 0 11:57 18.12.2019
2407 Rain 8 1018 81 10000 2.1 120 11:39 18.12.2019
2408 Rain 8 1018 81 10000 0.5 0 11:20 18.12.2019
2409 Rain 7 1018 81 10000 2.1 140 10:57 18.12.2019
2410 Rain 7 1018 81 10000 2.1 140 10:39 18.12.2019
2411 Rain 7 1018 81 10000 3.1 110 10:20 18.12.2019
2412 Rain 7 1018 81 10000 2.6 130 09:57 18.12.2019
2413 Rain 7 1017 81 10000 2.1 140 09:19 18.12.2019
2414 Rain 6 1017 87 10000 3.1 120 08:42 18.12.2019
2415 Clouds 5 1016 87 10000 3.1 120 08:24 18.12.2019
2416 Clouds 5 1016 81 10000 1.5 130 07:55 18.12.2019
2417 Clouds 5 1016 81 10000 1.5 130 07:37 18.12.2019
2418 Clouds 5 1015 81 10000 2.1 120 07:19 18.12.2019
2419 Clouds 4 1015 81 10000 2.6 130 06:50 18.12.2019
2420 Clouds 4 1015 86 10000 3.1 120 06:22 18.12.2019
2421 Clouds 4 1014 86 10000 3.6 110 05:27 18.12.2019
2422 Clouds 3 1013 86 10000 4.1 110 03:31 18.12.2019
2423 Clouds 3 1013 86 10000 2.6 120 02:41 18.12.2019
2424 Clouds 4 1012 80 10000 1 0 02:23 18.12.2019
2425 Clouds 4 1011 93 10000 2.6 110 01:42 18.12.2019
2426 Clouds 4 1011 86 10000 1.5 120 01:24 18.12.2019
2427 Clouds 4 1010 86 10000 3.1 120 00:42 18.12.2019
2428 Clouds 4 1010 86 10000 1.5 140 00:24 18.12.2019
2429 Clouds 4 1010 86 10000 1.5 140 00:24 18.12.2019
2430 Clouds 4 1010 86 10000 1.5 140 23:58 17.12.2019
2431 Clouds 4 1010 86 10000 3.1 120 23:39 17.12.2019
2432 Clouds 4 1010 93 10000 2.6 130 23:20 17.12.2019
2433 Clouds 4 1010 86 10000 1.5 130 22:56 17.12.2019
2434 Clouds 5 1010 86 10000 1.5 130 22:38 17.12.2019
2435 Clouds 4 1010 93 10000 3.1 110 22:19 17.12.2019
2436 Clouds 4 1010 93 10000 3.1 110 21:56 17.12.2019
2437 Clouds 4 1010 93 10000 3.1 110 21:56 17.12.2019
2438 Clouds 4 1009 93 10000 2.6 110 21:38 17.12.2019
2439 Clouds 4 1010 93 10000 1.5 120 21:19 17.12.2019
2440 Clouds 4 1010 93 10000 1.5 120 20:57 17.12.2019
2441 Clouds 4 1010 93 10000 0.5 0 20:38 17.12.2019
2442 Clouds 4 1009 86 10000 0.5 0 20:18 17.12.2019
2443 Clouds 5 1010 93 10000 1 0 19:56 17.12.2019
2444 Clouds 5 1010 93 10000 1 0 19:38 17.12.2019
2445 Clouds 5 1009 93 10000 0.5 0 19:18 17.12.2019
2446 Clouds 5 1009 93 10000 0.5 0 18:54 17.12.2019
2447 Clouds 5 1010 87 10000 2.1 100 18:36 17.12.2019
2448 Clouds 5 1010 81 10000 2.6 110 18:18 17.12.2019
2449 Clouds 6 1009 81 10000 1 100 17:42 17.12.2019
2450 Clouds 7 1009 81 10000 0.5 0 17:20 17.12.2019
2451 Clouds 7 1009 76 10000 1.5 80 16:56 17.12.2019
2452 Clouds 7 1009 76 10000 1.5 80 16:38 17.12.2019
2453 Clouds 8 1009 71 10000 2.1 90 16:19 17.12.2019
2454 Clouds 8 1009 71 10000 2.1 90 15:58 17.12.2019
2455 Clouds 9 1009 71 10000 2.6 110 15:37 17.12.2019
2456 Clouds 9 1009 71 10000 3.1 120 15:19 17.12.2019
2457 Clear 9 1008 81 10000 3.6 130 14:55 17.12.2019
2458 Clear 9 1008 81 10000 3.6 130 14:55 17.12.2019
2459 Clear 9 1008 81 10000 3.6 130 14:37 17.12.2019
2460 Clouds 9 1009 66 10000 2.1 130 14:18 17.12.2019
2461 Clouds 9 1009 66 10000 2.1 130 14:18 17.12.2019
2462 Clouds 10 1009 62 10000 2.6 130 13:55 17.12.2019
2463 Clouds 10 1009 62 10000 2.6 130 13:37 17.12.2019
2464 Clouds 10 1009 62 10000 3.1 120 13:18 17.12.2019
2465 Clouds 9 1009 66 10000 3.6 130 12:41 17.12.2019
2466 Clouds 8 1009 70 10000 4.1 120 12:19 17.12.2019
2467 Clouds 7 1009 70 10000 4.1 120 11:59 17.12.2019
2468 Clouds 6 1009 75 10000 3.1 130 11:38 17.12.2019
2469 Clouds 5 1009 86 10000 3.1 110 11:19 17.12.2019
2470 Clouds 5 1009 86 10000 3.1 110 11:19 17.12.2019
2471 Clouds 4 1009 86 10000 3.1 110 10:59 17.12.2019
2472 Clouds 3 1010 86 10000 1.5 100 10:59 17.12.2019
2473 Clouds 2 1010 86 10000 1.5 100 10:41 17.12.2019
2474 Clouds 2 1009 93 10000 3.6 110 10:23 17.12.2019
2475 Clouds 2 1009 93 10000 3.6 110 09:59 17.12.2019
2476 Clouds 2 1009 93 10000 2.6 110 09:41 17.12.2019
2477 Clouds 1 1008 84 10000 2.6 110 09:20 17.12.2019
2478 Clouds 1 1008 84 10000 2.6 110 08:56 17.12.2019
2479 Clouds 2 1008 84 10000 0.5 0 08:38 17.12.2019
2480 Clouds 2 1008 84 10000 0.5 0 08:38 17.12.2019
2481 Clouds 2 1008 86 10000 1 360 08:20 17.12.2019
2482 Clouds 2 1007 93 10000 1 0 07:54 17.12.2019
2483 Clouds 2 1007 93 10000 1 0 07:36 17.12.2019
2484 Clouds 2 1007 93 10000 0.5 0 07:18 17.12.2019
2485 Clouds 2 1007 93 10000 0.5 20 06:35 17.12.2019
2486 Clouds 3 1006 86 10000 1 0 05:56 17.12.2019
2487 Clouds 4 1006 86 10000 1 0 05:36 17.12.2019
2488 Clouds 4 1006 86 10000 2.6 160 04:33 17.12.2019
2489 Clouds 3 1007 86 10000 3.6 100 02:45 17.12.2019
2490 Clouds 3 1006 93 10000 5.1 110 01:56 17.12.2019
2491 Clouds 3 1007 93 10000 1.5 130 01:18 17.12.2019
2492 Clouds 3 1007 87 10000 2.1 90 00:38 17.12.2019
2493 Clouds 3 1007 87 10000 2.1 90 00:38 17.12.2019
2494 Clouds 3 1007 87 10000 2.1 90 00:38 17.12.2019
2495 Clouds 3 1007 87 10000 2.1 90 00:38 17.12.2019
2496 Clouds 3 1008 86 10000 1.5 120 00:20 17.12.2019
2497 Clouds 3 1008 86 10000 2.1 110 23:42 16.12.2019
2498 Clouds 3 1008 86 10000 1.5 90 23:19 16.12.2019
2499 Clouds 3 1008 86 10000 2.6 100 22:58 16.12.2019
2500 Clouds 3 1008 86 10000 2.6 100 22:37 16.12.2019
2501 Clouds 3 1008 86 10000 2.6 120 22:19 16.12.2019
2502 Clouds 3 1008 86 10000 2.6 120 22:19 16.12.2019
2503 Clouds 3 1008 86 10000 2.6 120 22:19 16.12.2019
2504 Clouds 3 1008 93 10000 2.6 110 21:55 16.12.2019
2505 Clouds 4 1008 93 10000 2.6 110 21:37 16.12.2019
2506 Clouds 4 1009 86 10000 3.1 120 21:19 16.12.2019
2507 Clouds 4 1009 93 10000 3.6 130 20:57 16.12.2019
2508 Clouds 5 1009 93 10000 3.6 130 20:37 16.12.2019
2509 Clouds 5 1009 93 10000 3.1 120 20:19 16.12.2019
2510 Clouds 5 1009 93 10000 3.6 120 19:56 16.12.2019
2511 Clouds 5 1009 93 10000 3.6 120 19:56 16.12.2019
2512 Clouds 5 1009 93 10000 3.6 120 19:37 16.12.2019
2513 Clouds 5 1009 86 10000 3.1 120 19:18 16.12.2019
2514 Clouds 6 1009 86 10000 3.1 130 18:56 16.12.2019
2515 Clouds 6 1009 86 10000 3.1 130 18:38 16.12.2019
2516 Clouds 6 1009 81 10000 3.6 130 18:19 16.12.2019
2517 Clouds 6 1009 81 10000 3.6 130 17:57 16.12.2019
2518 Clouds 6 1009 81 10000 3.6 130 17:38 16.12.2019
2519 Clouds 7 1009 81 10000 3.1 130 17:19 16.12.2019
2520 Clouds 7 1009 81 10000 3.6 140 16:55 16.12.2019
2521 Clouds 8 1009 81 10000 3.6 140 16:37 16.12.2019
2522 Clouds 8 1009 75 10000 3.6 140 16:19 16.12.2019
2523 Clouds 8 1009 75 10000 3.6 140 15:57 16.12.2019
2524 Clouds 9 1009 70 10000 4.1 140 15:38 16.12.2019
2525 Clouds 10 1009 66 10000 4.6 120 15:20 16.12.2019
2526 Clouds 11 1009 62 10000 4.1 130 14:55 16.12.2019
2527 Clouds 11 1009 62 10000 4.1 130 14:36 16.12.2019
2528 Clouds 11 1009 62 10000 3.6 130 14:18 16.12.2019
2529 Clouds 11 1009 62 10000 3.6 130 13:55 16.12.2019
2530 Clouds 11 1009 62 10000 4.1 120 13:37 16.12.2019
2531 Clouds 10 1010 62 10000 4.6 120 13:19 16.12.2019
2532 Clouds 10 1010 66 10000 4.1 120 12:54 16.12.2019
2533 Clouds 10 1010 66 10000 4.1 120 12:54 16.12.2019
2534 Clouds 10 1010 66 10000 4.1 120 12:36 16.12.2019
2535 Clouds 10 1011 70 10000 3.6 140 12:18 16.12.2019
2536 Clouds 10 1011 70 10000 3.6 140 12:18 16.12.2019
2537 Clouds 9 1011 70 10000 3.1 130 11:55 16.12.2019
2538 Clouds 9 1011 70 10000 3.1 130 11:37 16.12.2019
2539 Clouds 8 1011 75 10000 3.6 140 11:19 16.12.2019
2540 Clouds 7 1012 75 10000 2.6 140 10:40 16.12.2019
2541 Clouds 7 1011 81 10000 2.6 120 10:21 16.12.2019
2542 Clouds 6 1011 87 10000 3.1 110 09:56 16.12.2019
2543 Clouds 6 1011 87 10000 3.1 110 09:38 16.12.2019
2544 Clouds 5 1011 93 10000 4.1 120 09:20 16.12.2019
2545 Clouds 6 1011 87 10000 4.1 120 08:40 16.12.2019
2546 Clouds 6 1011 87 10000 3.1 120 08:19 16.12.2019
2547 Clouds 6 1011 93 10000 4.1 130 07:51 16.12.2019
2548 Clouds 6 1011 93 10000 4.1 130 07:31 16.12.2019
2549 Clouds 6 1011 87 10000 3.6 130 06:49 16.12.2019
2550 Clouds 6 1011 87 10000 4.6 130 06:27 16.12.2019
2551 Clouds 7 1011 87 10000 3.6 120 05:58 16.12.2019
2552 Clouds 7 1011 87 10000 3.6 120 05:39 16.12.2019
2553 Clouds 6 1011 93 10000 3.6 120 05:21 16.12.2019
2554 Rain 6 1012 93 10000 3.1 130 02:59 16.12.2019
2555 Rain 6 1012 93 10000 3.1 100 01:45 16.12.2019
2556 Clouds 6 1012 93 10000 3.1 100 00:56 16.12.2019
2557 Clouds 6 1012 93 10000 3.1 100 00:38 16.12.2019
2558 Rain 6 1012 87 10000 2.1 140 00:18 16.12.2019
2559 Clouds 6 1012 87 10000 2.6 170 23:41 15.12.2019
2560 Rain 6 1012 87 10000 3.1 170 23:22 15.12.2019
2561 Rain 6 1012 87 10000 3.1 170 22:57 15.12.2019
2562 Rain 6 1012 87 10000 3.1 170 22:38 15.12.2019
2563 Rain 6 1012 87 10000 3.1 170 22:19 15.12.2019
2564 Rain 6 1012 87 10000 3.1 180 21:57 15.12.2019
2565 Rain 6 1012 87 10000 3.1 180 21:38 15.12.2019
2566 Rain 6 1011 87 10000 3.1 200 21:20 15.12.2019
2567 Rain 7 1011 87 10000 3.1 200 20:58 15.12.2019
2568 Rain 7 1011 87 10000 3.1 200 20:39 15.12.2019
2569 Rain 7 1011 87 10000 3.1 200 20:39 15.12.2019
2570 Rain 7 1011 87 10000 3.6 210 20:20 15.12.2019
2571 Clouds 7 1011 87 10000 3.6 210 19:58 15.12.2019
2572 Rain 7 1010 87 10000 3.1 190 19:39 15.12.2019
2573 Rain 7 1011 100 10000 3.6 230 19:19 15.12.2019
2574 Rain 7 1010 87 10000 3.6 180 18:57 15.12.2019
2575 Rain 7 1010 87 10000 3.6 180 18:38 15.12.2019
2576 Rain 7 1010 87 10000 3.6 180 18:38 15.12.2019
2577 Rain 7 1009 87 10000 3.1 180 18:18 15.12.2019
2578 Rain 7 1009 87 10000 2.6 200 17:56 15.12.2019
2579 Rain 7 1009 87 10000 2.6 200 17:37 15.12.2019
2580 Rain 7 1009 81 10000 3.6 220 17:19 15.12.2019
2581 Rain 7 1008 81 10000 4.6 230 16:57 15.12.2019
2582 Rain 7 1008 81 10000 4.6 230 16:39 15.12.2019
2583 Rain 7 1008 81 10000 4.6 250 16:20 15.12.2019
2584 Rain 8 1007 87 10000 2.6 270 15:55 15.12.2019
2585 Rain 8 1007 87 10000 2.6 270 15:37 15.12.2019
2586 Rain 8 1007 87 10000 6.2 280 15:18 15.12.2019
2587 Rain 8 1006 87 10000 5.7 270 14:55 15.12.2019
2588 Rain 9 1006 87 10000 5.7 270 14:36 15.12.2019
2589 Rain 9 1005 81 10000 9.3 270 14:18 15.12.2019
2590 Rain 9 1005 81 10000 9.3 270 14:18 15.12.2019
2591 Rain 10 1005 81 10000 9.3 270 13:55 15.12.2019
2592 Rain 11 1004 62 10000 8.7 230 13:36 15.12.2019
2593 Clouds 12 1004 66 10000 7.2 230 13:18 15.12.2019
2594 Clouds 11 1004 66 10000 5.1 220 12:55 15.12.2019
2595 Clouds 11 1004 66 10000 5.1 220 12:37 15.12.2019
2596 Clouds 11 1004 66 10000 5.1 220 12:37 15.12.2019
2597 Clouds 11 1003 71 10000 5.7 210 12:19 15.12.2019
2598 Clouds 10 1003 71 10000 5.1 210 11:38 15.12.2019
2599 Clouds 10 1003 81 10000 4.1 180 11:19 15.12.2019
2600 Clouds 9 1003 81 10000 4.1 180 10:58 15.12.2019
2601 Clouds 9 1003 81 10000 4.6 190 10:40 15.12.2019
2602 Clouds 9 1003 81 10000 4.1 180 10:19 15.12.2019
2603 Clouds 8 1003 81 10000 4.1 180 09:58 15.12.2019
2604 Clouds 8 1002 81 10000 4.1 180 09:37 15.12.2019
2605 Clouds 8 1002 81 10000 5.1 180 09:19 15.12.2019
2606 Clouds 8 1002 81 10000 5.1 180 08:55 15.12.2019
2607 Clouds 7 1002 87 10000 5.1 170 08:36 15.12.2019
2608 Clouds 7 1001 87 10000 5.1 160 08:18 15.12.2019
2609 Clouds 6 1001 93 10000 4.6 150 07:47 15.12.2019
2610 Clouds 6 1001 87 10000 5.1 150 07:28 15.12.2019
2611 Rain 6 1001 93 10000 5.1 140 06:26 15.12.2019
2612 Rain 5 1002 87 10000 5.1 150 05:42 15.12.2019
2613 Rain 5 1003 87 10000 5.1 140 05:21 15.12.2019
2614 Rain 5 1003 93 10000 4.1 120 04:21 15.12.2019
2615 Clouds 5 1005 75 10000 3.6 150 02:55 15.12.2019
2616 Clouds 5 1005 75 10000 3.6 150 02:32 15.12.2019
2617 Clouds 5 1004 80 10000 2.6 160 01:41 15.12.2019
2618 Clouds 5 1005 75 10000 2.6 180 01:19 15.12.2019
2619 Clouds 6 1005 75 10000 2.1 230 00:50 15.12.2019
2620 Clouds 6 1005 75 10000 2.1 230 00:31 15.12.2019
2621 Clouds 6 1005 70 10000 4.6 250 23:54 14.12.2019
2622 Clouds 6 1005 70 10000 4.6 250 23:36 14.12.2019
2623 Clouds 7 1005 70 10000 5.7 250 23:18 14.12.2019
2624 Clouds 7 1004 65 10000 7.7 250 22:41 14.12.2019
2625 Clouds 7 1004 61 10000 7.7 250 22:22 14.12.2019
2626 Clouds 7 1003 61 10000 6.7 240 21:58 14.12.2019
2627 Clouds 7 1003 61 10000 6.7 240 21:39 14.12.2019
2628 Clouds 7 1002 83 10000 8.2 240 21:19 14.12.2019
2629 Clouds 7 1002 83 10000 8.2 240 20:59 14.12.2019
2630 Clouds 7 1002 83 10000 5.7 230 20:41 14.12.2019
2631 Clouds 6 1002 74 10000 6.2 210 20:20 14.12.2019
2632 Clouds 6 1002 74 10000 6.2 210 20:20 14.12.2019
2633 Clouds 6 1002 74 10000 6.2 210 19:57 14.12.2019
2634 Clouds 6 1001 74 10000 5.7 200 19:39 14.12.2019
2635 Clouds 6 1001 74 10000 6.2 200 19:20 14.12.2019
2636 Clouds 6 1001 70 10000 5.1 190 18:56 14.12.2019
2637 Clouds 6 1001 70 10000 5.1 190 18:38 14.12.2019
2638 Clouds 6 1001 70 10000 5.1 190 18:38 14.12.2019
2639 Clouds 6 1001 70 10000 4.6 190 18:19 14.12.2019
2640 Clouds 6 1001 70 10000 4.6 200 17:44 14.12.2019
2641 Clouds 6 1001 65 10000 5.1 220 17:24 14.12.2019
2642 Rain 6 1001 65 10000 6.2 240 16:59 14.12.2019
2643 Rain 6 1001 65 10000 6.2 240 16:40 14.12.2019
2644 Rain 6 1000 70 10000 6.7 250 16:19 14.12.2019
2645 Rain 6 1000 65 10000 9.3 250 15:43 14.12.2019
2646 Rain 6 999 75 10000 9.8 270 15:24 14.12.2019
2647 Rain 6 999 75 10000 9.8 270 14:59 14.12.2019
2648 Rain 6 998 75 10000 9.3 250 14:39 14.12.2019
2649 Rain 5 997 87 10000 5.1 260 14:20 14.12.2019
2650 Rain 6 997 87 10000 5.1 260 13:57 14.12.2019
2651 Rain 6 996 81 10000 7.7 250 13:39 14.12.2019
2652 Rain 6 996 81 10000 8.2 260 13:19 14.12.2019
2653 Rain 6 996 81 10000 8.2 260 13:19 14.12.2019
2654 Rain 7 995 65 10000 10.3 270 12:55 14.12.2019
2655 Rain 7 995 65 10000 10.3 270 12:37 14.12.2019
2656 Rain 7 994 65 10000 11.3 270 12:18 14.12.2019
2657 Clouds 7 993 70 10000 11.8 260 11:55 14.12.2019
2658 Clouds 7 993 70 10000 11.8 260 11:37 14.12.2019
2659 Clouds 7 992 75 10000 9.3 250 11:18 14.12.2019
2660 Drizzle 6 991 93 10000 7.2 230 10:55 14.12.2019
2661 Drizzle 6 991 93 10000 7.2 230 10:37 14.12.2019
2662 Drizzle 5 989 93 10000 6.2 210 10:18 14.12.2019
2663 Drizzle 3 989 93 10000 5.7 190 09:41 14.12.2019
2664 Rain 3 989 86 10000 5.1 190 09:21 14.12.2019
2665 Rain 2 989 93 10000 6.2 190 08:45 14.12.2019
2666 Rain 2 988 93 10000 4.6 180 08:20 14.12.2019
2667 Rain 2 988 93 10000 4.6 180 07:57 14.12.2019
2668 Rain 2 988 93 10000 4.1 140 07:38 14.12.2019
2669 Rain 2 988 93 10000 5.1 140 07:19 14.12.2019
2670 Rain 2 989 93 10000 5.1 170 06:41 14.12.2019
2671 Rain 2 989 93 10000 4.6 170 06:22 14.12.2019
2672 Clouds 3 990 86 10000 5.1 160 05:22 14.12.2019
2673 Clouds 3 992 86 10000 4.1 220 02:49 14.12.2019
2674 Clouds 3 991 86 10000 4.1 230 02:22 14.12.2019
2675 Clouds 3 991 86 10000 5.7 240 01:43 14.12.2019
2676 Rain 3 990 86 10000 5.1 230 00:54 14.12.2019
2677 Rain 3 990 86 10000 5.1 230 00:54 14.12.2019
2678 Rain 3 990 86 10000 5.1 230 00:36 14.12.2019
2679 Rain 3 990 86 10000 6.2 230 00:18 14.12.2019
2680 Rain 3 990 86 10000 6.7 240 23:39 13.12.2019
2681 Rain 3 989 93 10000 5.1 220 23:19 13.12.2019
2682 Rain 3 989 86 10000 4.6 230 22:55 13.12.2019
2683 Rain 3 989 86 10000 4.6 230 22:36 13.12.2019
2684 Rain 3 988 86 10000 6.2 230 22:18 13.12.2019
2685 Rain 3 987 93 10000 5.7 230 21:40 13.12.2019
2686 Rain 3 987 93 10000 5.7 220 21:21 13.12.2019
2687 Rain 3 987 93 10000 5.7 220 20:57 13.12.2019
2688 Rain 3 986 86 10000 5.1 220 20:38 13.12.2019
2689 Clouds 3 985 86 10000 5.1 190 20:19 13.12.2019
2690 Clouds 3 985 86 10000 5.1 190 19:56 13.12.2019
2691 Clouds 3 985 86 10000 4.6 190 19:36 13.12.2019
2692 Clouds 3 985 86 10000 4.6 190 19:18 13.12.2019
2693 Rain 3 985 86 10000 4.6 190 18:41 13.12.2019
2694 Rain 3 984 86 10000 3.6 210 18:19 13.12.2019
2695 Rain 3 984 86 10000 3.6 210 17:58 13.12.2019
2696 Rain 3 983 93 10000 3.6 190 17:39 13.12.2019
2697 Rain 3 983 93 10000 3.6 190 17:18 13.12.2019
2698 Rain 3 983 93 10000 3.6 190 17:18 13.12.2019
2699 Drizzle 3 983 93 10000 4.1 190 16:55 13.12.2019
2700 Rain 3 982 93 10000 3.6 210 16:36 13.12.2019
2701 Rain 3 982 93 10000 3.6 210 16:18 13.12.2019
2702 Rain 2 981 86 10000 4.6 190 15:41 13.12.2019
2703 Rain 2 981 86 10000 4.6 190 15:21 13.12.2019
2704 Rain 2 981 93 10000 4.6 180 14:56 13.12.2019
2705 Rain 2 980 85 10000 6.7 160 14:36 13.12.2019
2706 Rain 1 980 95 10000 6.7 160 14:18 13.12.2019
2707 Rain 1 980 95 4500 7.2 150 13:43 13.12.2019
2708 Snow 1 980 96 2600 6.7 140 13:23 13.12.2019
2709 Snow 0 980 96 1400 6.7 140 12:54 13.12.2019
2710 Snow 1 979 96 1200 8.7 170 12:36 13.12.2019
2711 Snow 1 979 96 1200 8.7 170 12:18 13.12.2019
2712 Snow 1 979 86 2200 6.7 130 11:42 13.12.2019
2713 Rain 1 980 86 10000 5.7 130 11:24 13.12.2019
2714 Rain 1 980 80 10000 5.7 140 10:56 13.12.2019
2715 Rain 1 979 74 2800 5.1 150 10:38 13.12.2019
2716 Clouds 1 980 86 10000 5.7 140 10:19 13.12.2019
2717 Clouds 1 981 86 10000 6.7 120 09:41 13.12.2019
2718 Clouds 1 981 86 10000 6.7 120 09:20 13.12.2019
2719 Clouds 1 982 86 10000 7.2 130 08:44 13.12.2019
2720 Clouds 1 982 86 10000 7.2 130 08:26 13.12.2019
2721 Snow 0 983 82 4000 6.7 120 07:48 13.12.2019
2722 Snow 0 984 86 8000 7.2 130 07:24 13.12.2019
2723 Clouds 0 984 86 10000 6.2 130 06:55 13.12.2019
2724 Clouds 0 985 86 10000 6.2 140 06:29 13.12.2019
2725 Clouds 0 986 86 10000 5.7 130 05:51 13.12.2019
2726 Clouds 0 986 82 10000 6.2 130 05:30 13.12.2019
2727 Clouds 0 987 86 10000 6.7 130 04:48 13.12.2019
2728 Clouds 0 989 83 10000 6.2 130 03:49 13.12.2019
2729 Clouds 0 991 86 10000 6.2 130 02:35 13.12.2019
2730 Clouds 0 992 86 10000 5.7 130 01:49 13.12.2019
2731 Clouds 0 994 87 10000 3.6 130 01:19 13.12.2019
2732 Clouds 0 994 87 10000 3.6 130 00:45 13.12.2019
2733 Clouds 0 995 87 9000 5.1 140 00:22 13.12.2019
2734 Clouds 0 996 100 8000 3.6 130 23:41 12.12.2019
2735 Clouds 0 996 100 8000 3.6 130 23:22 12.12.2019
2736 Clouds 0 996 100 10000 3.6 100 22:56 12.12.2019
2737 Clouds 0 997 90 10000 4.1 130 22:37 12.12.2019
2738 Clouds 1 997 90 10000 4.1 130 22:19 12.12.2019
2739 Clouds 1 998 90 10000 4.1 120 21:55 12.12.2019
2740 Clouds 1 998 90 10000 4.1 120 21:55 12.12.2019
2741 Clouds 1 998 90 10000 4.1 120 21:55 12.12.2019
2742 Clouds 1 999 90 10000 4.1 120 21:37 12.12.2019
2743 Clouds 1 999 90 10000 4.1 120 21:19 12.12.2019
2744 Clouds 1 999 90 10000 3.6 110 20:56 12.12.2019
2745 Clouds 1 1000 90 10000 2.6 160 20:38 12.12.2019
2746 Clouds 1 1000 92 10000 2.6 160 20:20 12.12.2019
2747 Clouds 2 1001 86 10000 2.6 160 19:43 12.12.2019
2748 Clouds 2 1000 86 10000 2.1 160 19:43 12.12.2019
2749 Clouds 2 1001 86 10000 2.6 160 19:23 12.12.2019
2750 Clouds 2 1000 100 10000 2.6 170 18:58 12.12.2019
2751 Clouds 2 1001 100 10000 3.1 180 18:40 12.12.2019
2752 Clouds 2 1002 86 10000 2.6 170 18:21 12.12.2019
2753 Clouds 2 1001 100 10000 3.1 180 18:21 12.12.2019
2754 Clouds 2 1002 86 10000 1.5 170 17:59 12.12.2019
2755 Clouds 2 1002 86 10000 2.6 180 17:40 12.12.2019
2756 Clouds 2 1002 86 10000 2.6 180 17:21 12.12.2019
2757 Clouds 2 1002 86 10000 2.6 180 16:59 12.12.2019
2758 Clouds 2 1002 100 10000 3.1 230 16:41 12.12.2019
2759 Clouds 2 1002 100 10000 3.1 230 16:21 12.12.2019
2760 Clouds 2 1002 100 10000 4.1 220 15:58 12.12.2019
2761 Clouds 2 1002 100 10000 2.6 220 15:40 12.12.2019
2762 Clouds 2 1002 100 10000 2.6 220 15:19 12.12.2019
2763 Clouds 2 1003 86 10000 3.6 200 14:56 12.12.2019
2764 Clouds 2 1003 86 10000 3.6 200 14:56 12.12.2019
2765 Drizzle 3 1003 93 10000 3.1 190 14:36 12.12.2019
2766 Drizzle 3 1003 93 10000 3.1 190 14:18 12.12.2019
2767 Rain 3 1004 93 10000 2.1 180 13:54 12.12.2019
2768 Rain 3 1004 86 8000 2.6 170 13:36 12.12.2019
2769 Rain 3 1004 86 8000 2.6 170 13:18 12.12.2019
2770 Rain 2 1005 86 10000 2.6 160 12:41 12.12.2019
2771 Rain 2 1005 86 10000 2.6 160 12:41 12.12.2019
2772 Rain 2 1005 86 10000 2.6 160 12:22 12.12.2019
2773 Clouds 2 1005 93 10000 3.1 160 11:59 12.12.2019
2774 Clouds 2 1005 93 10000 2.6 170 11:39 12.12.2019
2775 Clouds 2 1005 93 10000 2.6 170 11:39 12.12.2019
2776 Clouds 2 1005 93 10000 2.6 170 11:21 12.12.2019
2777 Mist 2 1005 100 8000 2.6 180 10:58 12.12.2019
2778 Clouds 1 1006 100 10000 2.6 120 10:40 12.12.2019
2779 Mist 2 1005 100 6000 2.6 160 10:21 12.12.2019
2780 Mist 1 1005 100 8000 2.1 170 09:56 12.12.2019
2781 Rain 1 1006 94 10000 3.6 100 09:38 12.12.2019
2782 Rain 1 1006 94 10000 3.6 100 09:19 12.12.2019
2783 Rain 1 1005 100 9000 2.6 180 08:46 12.12.2019
2784 Rain 1 1005 100 8000 3.6 190 08:28 12.12.2019
2785 Clouds 1 1005 93 10000 2.1 120 07:50 12.12.2019
2786 Clouds 1 1005 100 10000 3.6 190 07:28 12.12.2019
2787 Clouds 1 1005 100 10000 1 110 06:57 12.12.2019
2788 Clouds 1 1005 100 10000 2.1 180 06:36 12.12.2019
2789 Rain 1 1005 100 8000 1.5 190 05:49 12.12.2019
2790 Rain 1 1005 100 10000 2.6 210 05:25 12.12.2019
2791 Rain 1 1005 100 10000 3.6 240 04:28 12.12.2019
2792 Rain 0 1006 96 3500 1.5 160 02:41 12.12.2019
2793 Rain 1 1006 97 4500 1.5 150 02:22 12.12.2019
2794 Rain 1 1006 97 3500 2.1 160 01:54 12.12.2019
2795 Rain 0 1006 96 4500 2.6 170 01:32 12.12.2019
2796 Snow 0 1007 96 7000 3.1 170 00:47 12.12.2019
2797 Rain 0 1007 96 7000 3.6 170 00:21 12.12.2019
2798 Rain 0 1006 96 4000 3.1 210 23:45 11.12.2019
2799 Rain 0 1006 90 3000 3.1 210 23:21 11.12.2019
2800 Snow 0 1007 90 6000 4.1 200 22:59 11.12.2019
2801 Snow 0 1007 90 8000 2.6 190 22:39 11.12.2019
2802 Rain 0 1008 90 4300 3.1 140 22:21 11.12.2019
2803 Snow 0 1007 90 8000 2.6 190 22:21 11.12.2019
2804 Rain 0 1008 90 4300 3.1 140 21:59 11.12.2019
2805 Rain 0 1008 90 5000 3.1 140 21:39 11.12.2019
2806 Rain 0 1008 90 5000 3.1 140 21:20 11.12.2019
2807 Rain 0 1008 90 8000 3.1 140 20:58 11.12.2019
2808 Rain 0 1008 90 8000 2.6 120 20:39 11.12.2019
2809 Rain 0 1008 68 8000 2.6 120 20:19 11.12.2019
2810 Snow 0 1008 68 9000 1.5 150 19:58 11.12.2019
2811 Rain 0 1008 68 8000 2.1 140 19:40 11.12.2019
2812 Snow 0 1008 68 8000 2.1 140 19:20 11.12.2019
2813 Rain 1 1008 68 5000 2.1 190 18:55 11.12.2019
2814 Rain 1 1008 68 10000 2.6 180 18:37 11.12.2019
2815 Rain 1 1008 68 10000 2.6 180 18:37 11.12.2019
2816 Rain 1 1008 68 10000 2.6 180 18:18 11.12.2019
2817 Rain 1 1008 68 6000 2.6 190 17:54 11.12.2019
2818 Rain 1 1008 80 10000 5.7 120 17:36 11.12.2019
2819 Rain 1 1008 80 10000 5.7 120 17:18 11.12.2019
2820 Clouds 1 1009 80 10000 5.7 130 16:55 11.12.2019
2821 Clouds 1 1009 69 10000 4.1 130 16:36 11.12.2019
2822 Clouds 1 1009 69 10000 4.1 130 16:18 11.12.2019
2823 Clouds 2 1010 69 10000 4.1 140 15:41 11.12.2019
2824 Clouds 2 1010 69 10000 4.6 140 15:23 11.12.2019
2825 Clouds 2 1010 69 10000 4.6 140 14:57 11.12.2019
2826 Clouds 2 1011 69 10000 4.1 150 14:39 11.12.2019
2827 Clouds 2 1011 69 10000 4.1 150 14:20 11.12.2019
2828 Clouds 2 1011 64 10000 5.1 130 13:56 11.12.2019
2829 Clouds 1 1012 74 10000 5.1 130 13:38 11.12.2019
2830 Clouds 1 1012 74 10000 5.1 130 13:19 11.12.2019
2831 Clouds 1 1012 69 10000 5.7 140 12:57 11.12.2019
2832 Clouds 1 1013 74 10000 5.7 140 12:38 11.12.2019
2833 Clouds 1 1013 74 10000 5.7 140 12:19 11.12.2019
2834 Clouds 1 1013 69 10000 5.1 130 12:19 11.12.2019
2835 Clouds 1 1013 69 10000 5.1 130 11:57 11.12.2019
2836 Clouds 0 1014 53 10000 5.7 130 11:38 11.12.2019
2837 Clouds 0 1014 59 10000 5.7 130 11:18 11.12.2019
2838 Clouds 0 1014 59 10000 5.7 130 11:18 11.12.2019
2839 Clouds 0 1014 59 10000 5.7 130 10:56 11.12.2019
2840 Clouds 0 1015 59 10000 4.6 130 10:38 11.12.2019
2841 Clouds 0 1015 59 10000 4.6 130 10:19 11.12.2019
2842 Clouds -1 1016 80 10000 3.1 130 09:41 11.12.2019
2843 Clouds -1 1016 80 10000 3.1 130 09:21 11.12.2019
2844 Clouds -1 1016 80 10000 4.6 130 08:58 11.12.2019
2845 Clouds -1 1016 80 10000 4.6 130 08:38 11.12.2019
2846 Clouds -1 1016 80 10000 4.6 130 08:19 11.12.2019
2847 Clouds -2 1016 86 10000 4.6 120 07:56 11.12.2019
2848 Clouds -1 1016 86 10000 5.1 110 07:38 11.12.2019
2849 Clouds -2 1016 86 10000 5.1 110 07:19 11.12.2019
2850 Clouds -2 1017 86 10000 4.1 120 06:44 11.12.2019
2851 Clouds -2 1017 80 10000 4.1 120 06:22 11.12.2019
2852 Clouds -1 1017 86 10000 3.6 130 05:41 11.12.2019
2853 Clouds -1 1018 86 10000 4.6 120 05:21 11.12.2019
2854 Clouds -1 1019 86 10000 3.1 120 04:38 11.12.2019
2855 Clouds -2 1020 86 10000 3.6 120 02:49 11.12.2019
2856 Clear -2 1022 86 10000 4.1 110 01:26 11.12.2019
2857 Clear -2 1022 86 10000 3.1 110 00:49 11.12.2019
2858 Clear -2 1023 92 10000 3.6 110 00:22 11.12.2019
2859 Clear -2 1023 92 10000 3.6 110 23:58 10.12.2019
2860 Clear -2 1023 86 10000 3.1 110 23:39 10.12.2019
2861 Clear -2 1023 86 10000 3.1 110 23:21 10.12.2019
2862 Clear -2 1024 92 10000 3.6 100 22:40 10.12.2019
2863 Clear -2 1024 92 10000 3.6 100 22:40 10.12.2019
2864 Clear -2 1024 92 10000 3.6 100 22:40 10.12.2019
2865 Clear -2 1024 92 10000 3.6 100 22:22 10.12.2019
2866 Clear -2 1024 92 10000 2.6 100 21:57 10.12.2019
2867 Clear -2 1024 92 10000 3.1 100 21:39 10.12.2019
2868 Clear -2 1024 92 10000 3.1 100 21:21 10.12.2019
2869 Clear -2 1024 92 10000 3.1 100 21:21 10.12.2019
2870 Clear -1 1025 92 10000 3.6 100 20:57 10.12.2019
2871 Clear -1 1025 86 10000 3.6 100 20:38 10.12.2019
2872 Clouds -1 1025 86 10000 3.6 100 20:19 10.12.2019
2873 Clouds -1 1025 79 10000 2.6 100 19:55 10.12.2019
2874 Clouds -1 1025 79 10000 2.1 110 19:37 10.12.2019
2875 Clouds -1 1025 79 10000 2.1 110 19:19 10.12.2019
2876 Clouds 0 1025 80 10000 1.5 170 18:41 10.12.2019
2877 Clouds 0 1025 80 10000 2.6 180 18:21 10.12.2019
2878 Clouds 1 1025 74 10000 2.6 180 17:58 10.12.2019
2879 Clouds 1 1026 74 10000 2.1 180 17:40 10.12.2019
2880 Clouds 1 1025 74 10000 2.6 180 17:40 10.12.2019
2881 Clouds 1 1026 74 10000 2.1 180 17:20 10.12.2019
2882 Clouds 2 1026 69 10000 2.6 210 16:54 10.12.2019
2883 Clouds 2 1026 69 10000 1.5 240 16:36 10.12.2019
2884 Clouds 3 1026 69 10000 1.5 240 16:18 10.12.2019
2885 Clouds 4 1026 69 10000 3.1 250 15:38 10.12.2019
2886 Clouds 4 1026 69 10000 3.1 250 15:18 10.12.2019
2887 Clouds 4 1027 69 10000 3.6 260 14:56 10.12.2019
2888 Clouds 4 1027 73 10000 2.6 270 14:37 10.12.2019
2889 Clouds 4 1027 72 10000 2.6 270 14:19 10.12.2019
2890 Clouds 4 1027 72 10000 4.6 270 13:57 10.12.2019
2891 Clouds 4 1027 93 10000 4.6 240 13:38 10.12.2019
2892 Clouds 4 1027 70 10000 4.1 270 13:19 10.12.2019
2893 Clouds 4 1027 70 10000 3.1 250 12:47 10.12.2019
2894 Clouds 4 1027 70 10000 3.6 280 12:27 10.12.2019
2895 Clouds 3 1027 70 10000 3.1 280 11:55 10.12.2019
2896 Clouds 3 1026 70 10000 3.6 290 11:36 10.12.2019
2897 Clouds 3 1026 83 10000 3.6 290 11:18 10.12.2019
2898 Clouds 3 1026 83 10000 3.6 290 10:42 10.12.2019
2899 Clouds 2 1026 83 10000 4.1 290 10:23 10.12.2019
2900 Clouds 2 1026 83 10000 4.1 290 09:57 10.12.2019
2901 Clouds 2 1025 83 10000 4.1 290 09:38 10.12.2019
2902 Clouds 2 1025 83 10000 4.1 290 09:38 10.12.2019
2903 Clouds 2 1025 83 10000 4.1 290 09:20 10.12.2019
2904 Clouds 2 1025 83 10000 4.6 290 08:57 10.12.2019
2905 Clouds 2 1024 83 10000 4.6 280 08:39 10.12.2019
2906 Clouds 2 1024 83 10000 4.6 280 08:39 10.12.2019
2907 Clouds 2 1024 86 10000 4.6 280 08:19 10.12.2019
2908 Clouds 2 1023 100 10000 4.6 270 07:44 10.12.2019
2909 Clouds 2 1023 86 10000 4.6 280 07:26 10.12.2019
2910 Clouds 2 1023 86 10000 4.6 280 07:26 10.12.2019
2911 Clouds 2 1022 86 10000 5.7 280 06:49 10.12.2019
2912 Clouds 2 1022 86 10000 5.1 290 06:24 10.12.2019
2913 Clouds 2 1021 86 10000 5.1 290 05:55 10.12.2019
2914 Clouds 2 1021 80 10000 4.6 300 05:19 10.12.2019
2915 Rain 3 1019 86 10000 5.1 300 03:54 10.12.2019
2916 Rain 3 1017 86 10000 6.2 300 02:48 10.12.2019
2917 Rain 4 1016 93 10000 6.2 320 01:54 10.12.2019
2918 Rain 4 1015 80 10000 8.2 310 01:26 10.12.2019
2919 Rain 4 1014 86 10000 6.7 300 00:51 10.12.2019
2920 Rain 5 1013 86 10000 5.7 290 00:24 10.12.2019
2921 Clouds 5 1013 100 10000 3.6 270 23:45 09.12.2019
2922 Clouds 5 1011 86 10000 5.7 280 23:24 09.12.2019
2923 Clouds 5 1011 86 10000 5.7 290 22:59 09.12.2019
2924 Rain 5 1011 100 10000 4.6 270 22:40 09.12.2019
2925 Rain 5 1011 100 10000 4.6 270 22:21 09.12.2019
2926 Clouds 5 1009 86 10000 3.6 270 21:58 09.12.2019
2927 Rain 5 1009 86 10000 4.1 270 21:39 09.12.2019
2928 Rain 5 1009 86 10000 4.1 270 21:19 09.12.2019
2929 Rain 5 1008 86 10000 3.6 260 20:57 09.12.2019
2930 Rain 5 1007 86 10000 2.6 260 20:39 09.12.2019
2931 Rain 5 1007 86 10000 2.6 260 20:20 09.12.2019
2932 Rain 5 1007 86 10000 3.1 270 19:56 09.12.2019
2933 Rain 5 1006 81 10000 5.7 270 19:38 09.12.2019
2934 Rain 5 1006 81 10000 5.7 270 19:19 09.12.2019
2935 Rain 5 1006 81 10000 5.7 270 19:19 09.12.2019
2936 Rain 5 1005 81 10000 3.6 240 18:58 09.12.2019
2937 Rain 5 1005 75 10000 3.6 240 18:39 09.12.2019
2938 Rain 6 1005 75 10000 3.6 240 18:20 09.12.2019
2939 Rain 6 1005 75 10000 4.6 240 17:59 09.12.2019
2940 Rain 6 1004 75 10000 4.1 240 17:40 09.12.2019
2941 Rain 6 1004 75 10000 4.1 240 17:21 09.12.2019
2942 Rain 6 1004 70 10000 5.1 250 16:56 09.12.2019
2943 Rain 7 1003 70 10000 5.7 230 16:38 09.12.2019
2944 Rain 7 1003 70 10000 5.7 230 16:20 09.12.2019
2945 Clouds 7 1003 70 10000 3.6 230 15:56 09.12.2019
2946 Clouds 7 1003 81 10000 4.6 240 15:37 09.12.2019
2947 Clouds 7 1003 81 10000 4.6 240 15:19 09.12.2019
2948 Rain 7 1003 66 10000 3.6 230 14:58 09.12.2019
2949 Rain 8 1003 66 10000 3.6 230 14:39 09.12.2019
2950 Clouds 8 1002 75 10000 8.2 220 14:18 09.12.2019
2951 Clouds 8 1002 75 10000 7.2 240 13:55 09.12.2019
2952 Clouds 8 1003 61 10000 6.7 230 13:36 09.12.2019
2953 Clouds 8 1003 87 10000 9.3 240 13:18 09.12.2019
2954 Clouds 8 1003 61 10000 6.2 220 12:54 09.12.2019
2955 Clouds 8 1003 65 10000 4.6 210 12:36 09.12.2019
2956 Clouds 8 1003 65 10000 4.6 210 12:18 09.12.2019
2957 Clouds 8 1004 70 10000 4.6 200 11:40 09.12.2019
2958 Clouds 8 1004 70 10000 4.6 200 11:21 09.12.2019
2959 Clouds 7 1004 70 10000 4.1 180 10:57 09.12.2019
2960 Clouds 7 1004 81 10000 3.1 180 10:38 09.12.2019
2961 Clouds 6 1004 81 10000 4.6 190 10:19 09.12.2019
2962 Clouds 6 1004 81 10000 3.1 180 10:19 09.12.2019
2963 Clouds 5 1004 81 10000 4.6 190 09:43 09.12.2019
2964 Clouds 5 1004 86 10000 3.1 160 09:23 09.12.2019
2965 Clouds 5 1003 93 10000 5.1 210 08:56 09.12.2019
2966 Clouds 5 1004 86 10000 4.1 170 08:37 09.12.2019
2967 Clouds 5 1004 86 10000 4.1 170 08:19 09.12.2019
2968 Clouds 5 1004 81 10000 2.6 210 07:48 09.12.2019
2969 Clouds 6 1004 81 10000 3.1 200 07:30 09.12.2019
2970 Clouds 6 1004 100 10000 4.6 220 06:55 09.12.2019
2971 Clouds 6 1004 81 10000 4.6 190 06:28 09.12.2019
2972 Clouds 6 1004 81 10000 2.6 180 05:30 09.12.2019
2973 Clouds 6 1004 75 10000 3.6 210 04:54 09.12.2019
2974 Clouds 6 1005 75 10000 4.6 210 04:23 09.12.2019
2975 Rain 7 1004 81 10000 3.1 210 02:27 09.12.2019
2976 Clouds 7 1004 81 10000 3.6 230 01:45 09.12.2019
2977 Rain 7 1004 81 10000 5.7 250 00:55 09.12.2019
2978 Rain 8 1005 81 9000 8.7 280 00:32 09.12.2019
2979 Rain 8 1005 100 10000 11.8 270 23:54 08.12.2019
2980 Rain 8 1004 100 10000 5.1 230 23:36 08.12.2019
2981 Rain 8 1004 100 10000 5.1 230 23:18 08.12.2019
2982 Clouds 9 1004 81 10000 5.1 190 22:56 08.12.2019
2983 Clouds 9 1004 76 10000 5.7 200 22:37 08.12.2019
2984 Clouds 9 1004 76 10000 5.7 200 22:18 08.12.2019
2985 Rain 9 1004 81 10000 5.7 190 21:54 08.12.2019
2986 Rain 9 1004 100 10000 6.7 210 21:36 08.12.2019
2987 Rain 9 1004 100 10000 6.7 210 21:18 08.12.2019
2988 Clouds 9 1005 76 10000 4.1 180 20:54 08.12.2019
2989 Clouds 9 1005 76 10000 4.1 180 20:54 08.12.2019
2990 Rain 9 1005 87 10000 3.6 170 20:36 08.12.2019
2991 Rain 9 1005 87 10000 3.6 170 20:18 08.12.2019
2992 Clouds 8 1005 76 10000 4.6 170 19:42 08.12.2019
2993 Clouds 8 1005 76 10000 4.6 170 19:24 08.12.2019
2994 Clouds 8 1005 81 10000 5.1 170 18:56 08.12.2019
2995 Clouds 8 1006 81 10000 5.1 170 18:38 08.12.2019
2996 Clouds 8 1006 81 10000 5.1 170 18:37 08.12.2019
2997 Clouds 8 1006 81 10000 5.1 170 18:19 08.12.2019
2998 Rain 9 1006 76 10000 4.6 160 17:57 08.12.2019
2999 Rain 8 1006 76 10000 4.1 170 17:39 08.12.2019
3000 Rain 9 1006 76 10000 4.1 170 17:20 08.12.2019
3001 Rain 9 1007 71 10000 4.1 170 16:58 08.12.2019
3002 Rain 9 1007 71 10000 4.1 170 16:40 08.12.2019
3003 Clouds 9 1007 71 10000 4.1 190 16:22 08.12.2019
3004 Clouds 9 1007 71 10000 4.6 200 15:58 08.12.2019
3005 Clouds 9 1008 66 10000 4.6 200 15:37 08.12.2019
3006 Clouds 9 1008 66 10000 4.6 200 15:18 08.12.2019
3007 Clouds 9 1008 66 10000 4.6 180 14:45 08.12.2019
3008 Clouds 9 1008 70 10000 5.1 180 14:25 08.12.2019
3009 Clouds 9 1009 70 10000 4.6 190 13:59 08.12.2019
3010 Clouds 9 1010 70 10000 4.6 170 13:40 08.12.2019
3011 Clouds 9 1010 70 10000 4.6 170 13:22 08.12.2019
3012 Clouds 9 1010 70 10000 4.6 180 12:59 08.12.2019
3013 Clouds 9 1010 70 10000 5.7 170 12:39 08.12.2019
3014 Clouds 8 1010 70 10000 5.7 170 12:19 08.12.2019
3015 Clouds 8 1011 75 10000 5.1 170 11:57 08.12.2019
3016 Clouds 8 1012 75 10000 5.7 170 11:37 08.12.2019
3017 Clouds 8 1012 75 10000 5.7 170 11:19 08.12.2019
3018 Clouds 8 1012 93 10000 5.1 210 10:55 08.12.2019
3019 Clouds 7 1012 81 10000 4.1 170 10:36 08.12.2019
3020 Clouds 7 1012 81 10000 4.1 170 10:36 08.12.2019
3021 Clouds 7 1012 81 10000 4.1 170 10:18 08.12.2019
3022 Clouds 7 1013 75 10000 4.1 170 09:54 08.12.2019
3023 Clouds 7 1013 81 10000 3.6 180 09:36 08.12.2019
3024 Clouds 7 1013 81 10000 3.6 180 09:18 08.12.2019
3025 Clouds 7 1013 87 10000 3.6 170 08:41 08.12.2019
3026 Clouds 7 1013 87 10000 3.6 170 08:22 08.12.2019
3027 Clouds 6 1013 87 10000 3.1 170 07:49 08.12.2019
3028 Clouds 6 1014 81 10000 3.1 170 07:21 08.12.2019
3029 Clouds 6 1014 81 10000 3.6 180 06:58 08.12.2019
3030 Clouds 6 1014 87 10000 4.1 160 06:38 08.12.2019
3031 Clouds 6 1014 87 10000 4.1 160 06:18 08.12.2019
3032 Clouds 6 1014 87 10000 4.1 170 05:22 08.12.2019
3033 Clouds 6 1015 100 10000 3.6 190 04:20 08.12.2019
3034 Clouds 6 1016 87 10000 3.1 180 03:38 08.12.2019
3035 Clouds 6 1017 100 10000 2.1 190 02:41 08.12.2019
3036 Clouds 6 1017 100 10000 2.1 190 02:19 08.12.2019
3037 Clouds 6 1017 93 10000 2.6 190 01:34 08.12.2019
3038 Clouds 6 1017 93 10000 2.1 180 00:45 08.12.2019
3039 Clouds 6 1017 100 10000 3.6 210 00:21 08.12.2019
3040 Clouds 6 1018 100 10000 3.6 210 23:57 07.12.2019
3041 Clouds 6 1018 93 10000 3.1 210 23:36 07.12.2019
3042 Clouds 6 1018 93 10000 3.1 210 23:18 07.12.2019
3043 Clouds 6 1017 93 10000 2.1 210 22:54 07.12.2019
3044 Clouds 6 1018 87 10000 2.6 200 22:36 07.12.2019
3045 Clouds 6 1018 87 10000 2.6 200 22:18 07.12.2019
3046 Clouds 6 1018 87 10000 2.6 200 21:55 07.12.2019
3047 Clouds 6 1018 87 10000 2.6 210 21:36 07.12.2019
3048 Clouds 6 1018 87 10000 2.6 210 21:18 07.12.2019
3049 Clouds 6 1018 100 10000 2.6 210 20:38 07.12.2019
3050 Clouds 6 1018 100 10000 2.6 210 20:20 07.12.2019
3051 Clouds 6 1017 93 10000 2.6 200 19:57 07.12.2019
3052 Clouds 6 1017 93 10000 2.6 200 19:57 07.12.2019
3053 Rain 6 1018 100 10000 2.6 240 19:39 07.12.2019
3054 Rain 6 1018 100 10000 2.6 240 19:21 07.12.2019
3055 Rain 6 1017 87 10000 3.1 240 18:57 07.12.2019
3056 Rain 6 1017 87 10000 3.1 230 18:38 07.12.2019
3057 Rain 6 1017 87 10000 3.1 230 18:18 07.12.2019
3058 Clouds 6 1017 93 10000 3.1 220 17:55 07.12.2019
3059 Rain 6 1017 100 10000 3.6 250 17:36 07.12.2019
3060 Rain 6 1017 100 10000 3.6 250 17:18 07.12.2019
3061 Rain 7 1016 87 10000 4.6 250 16:54 07.12.2019
3062 Rain 7 1017 100 10000 3.1 240 16:36 07.12.2019
3063 Rain 7 1017 100 10000 3.1 240 16:18 07.12.2019
3064 Rain 7 1016 100 10000 5.1 250 15:40 07.12.2019
3065 Rain 7 1016 100 10000 5.1 250 15:22 07.12.2019
3066 Clouds 8 1015 81 10000 4.1 240 14:43 07.12.2019
3067 Rain 8 1015 87 10000 3.6 260 14:19 07.12.2019
3068 Drizzle 8 1015 81 10000 7.2 250 13:59 07.12.2019
3069 Clouds 8 1015 76 10000 6.2 250 13:39 07.12.2019
3070 Drizzle 8 1015 81 10000 7.2 250 13:39 07.12.2019
3071 Clouds 8 1015 76 10000 6.2 250 13:19 07.12.2019
3072 Clouds 8 1015 76 10000 7.2 250 12:54 07.12.2019
3073 Clouds 8 1015 76 10000 7.2 250 12:36 07.12.2019
3074 Clouds 8 1015 76 10000 7.2 250 12:36 07.12.2019
3075 Clouds 8 1015 76 10000 7.2 250 12:18 07.12.2019
3076 Rain 8 1015 81 10000 4.1 250 11:41 07.12.2019
3077 Rain 8 1015 81 10000 5.1 240 11:23 07.12.2019
3078 Clouds 7 1015 81 10000 4.6 240 10:54 07.12.2019
3079 Clouds 8 1014 81 10000 3.1 230 10:36 07.12.2019
3080 Clouds 7 1014 81 10000 3.1 230 10:18 07.12.2019
3081 Rain 7 1014 93 10000 3.6 220 09:39 07.12.2019
3082 Rain 7 1014 93 10000 3.6 220 09:20 07.12.2019
3083 Rain 7 1013 87 10000 4.1 240 08:45 07.12.2019
3084 Rain 6 1013 87 10000 4.1 240 08:24 07.12.2019
3085 Clouds 6 1013 87 10000 4.1 250 07:49 07.12.2019
3086 Clouds 6 1012 87 10000 7.2 250 07:28 07.12.2019
3087 Clouds 7 1013 100 10000 5.1 240 06:52 07.12.2019
3088 Rain 6 1012 93 10000 4.1 230 06:26 07.12.2019
3089 Rain 6 1012 93 10000 3.1 230 05:47 07.12.2019
3090 Clouds 6 1011 93 10000 2.6 220 04:41 07.12.2019
3091 Rain 5 1011 93 10000 2.6 180 03:49 07.12.2019
3092 Clouds 3 1011 93 10000 3.1 180 02:22 07.12.2019
3093 Rain 3 1011 86 10000 5.7 160 01:37 07.12.2019
3094 Rain 3 1011 86 10000 5.7 160 01:18 07.12.2019
3095 Rain 2 1012 93 10000 3.6 150 00:21 07.12.2019
3096 Rain 2 1013 86 10000 3.1 130 23:57 06.12.2019
3097 Rain 2 1013 86 10000 3.1 130 23:57 06.12.2019
3098 Rain 2 1013 86 10000 3.6 120 23:39 06.12.2019
3099 Rain 2 1013 86 10000 3.6 120 23:39 06.12.2019
3100 Rain 2 1013 86 10000 3.6 120 23:19 06.12.2019
3101 Clouds 1 1013 72 10000 3.6 110 22:39 06.12.2019
3102 Clouds 1 1013 72 10000 3.6 110 22:21 06.12.2019
3103 Clouds 1 1014 72 10000 4.1 120 21:58 06.12.2019
3104 Clouds 1 1014 86 10000 3.6 130 21:40 06.12.2019
3105 Clouds 1 1014 86 10000 3.6 130 21:40 06.12.2019
3106 Clouds 1 1014 86 10000 3.6 130 21:20 06.12.2019
3107 Clouds 1 1014 86 10000 3.1 130 20:46 06.12.2019
3108 Clouds 0 1014 86 10000 3.6 120 20:26 06.12.2019
3109 Clouds 1 1014 70 10000 3.6 130 19:59 06.12.2019
3110 Clouds 1 1014 70 10000 4.1 130 19:40 06.12.2019
3111 Clouds 1 1014 70 10000 4.1 130 19:22 06.12.2019
3112 Clouds 0 1014 70 10000 3.6 130 18:58 06.12.2019
3113 Clouds 0 1015 70 10000 4.6 130 18:40 06.12.2019
3114 Clouds 1 1015 70 10000 4.6 130 18:20 06.12.2019
3115 Clouds 1 1015 80 10000 4.1 130 17:56 06.12.2019
3116 Clouds 1 1015 74 10000 4.1 130 17:38 06.12.2019
3117 Clouds 1 1015 74 10000 4.1 130 17:19 06.12.2019
3118 Clouds 2 1015 74 10000 4.1 130 17:19 06.12.2019
3119 Clouds 2 1015 74 10000 4.1 130 16:43 06.12.2019
3120 Clouds 2 1016 69 10000 4.1 130 16:25 06.12.2019
3121 Clouds 3 1016 65 10000 3.1 160 15:59 06.12.2019
3122 Clouds 3 1016 65 10000 3.1 160 15:41 06.12.2019
3123 Clouds 3 1016 56 10000 3.1 180 15:19 06.12.2019
3124 Clouds 4 1016 65 10000 2.1 170 14:57 06.12.2019
3125 Clouds 4 1017 60 10000 3.1 170 14:38 06.12.2019
3126 Clouds 4 1017 60 10000 3.1 170 14:38 06.12.2019
3127 Clouds 4 1017 60 10000 3.1 170 14:19 06.12.2019
3128 Clouds 4 1018 64 10000 3.6 160 13:43 06.12.2019
3129 Clouds 4 1018 64 10000 3.6 160 13:25 06.12.2019
3130 Clouds 3 1018 69 10000 3.6 160 12:43 06.12.2019
3131 Clouds 3 1018 74 10000 4.1 140 12:23 06.12.2019
3132 Clouds 2 1019 80 10000 4.1 150 11:58 06.12.2019
3133 Clouds 2 1020 74 9000 3.1 150 11:39 06.12.2019
3134 Clouds 1 1020 74 9000 3.1 150 11:20 06.12.2019
3135 Clouds 0 1020 44 9000 4.1 140 10:43 06.12.2019
3136 Clouds 0 1020 86 7000 4.6 140 10:21 06.12.2019
3137 Clouds -2 1020 86 7000 5.1 160 09:58 06.12.2019
3138 Mist -2 1019 100 5000 3.1 170 09:37 06.12.2019
3139 Mist -2 1019 100 5000 3.1 170 09:37 06.12.2019
3140 Mist -2 1019 100 5000 3.1 170 09:19 06.12.2019
3141 Clouds -3 1020 86 7000 5.1 160 08:45 06.12.2019
3142 Mist -3 1020 92 4000 4.6 150 08:27 06.12.2019
3143 Mist -3 1019 100 5000 2.6 170 07:56 06.12.2019
3144 Mist -2 1019 100 4000 3.6 170 07:36 06.12.2019
3145 Mist -2 1019 100 4000 3.6 170 07:18 06.12.2019
3146 Mist -3 1020 92 5000 5.1 150 07:18 06.12.2019
3147 Mist -3 1020 92 5000 4.6 150 06:29 06.12.2019
3148 Mist -2 1020 100 5000 5.1 150 05:53 06.12.2019
3149 Mist -2 1020 92 4500 3.6 160 05:33 06.12.2019
3150 Mist -2 1021 92 5000 4.1 150 02:19 06.12.2019
3151 Mist -2 1021 92 5000 4.1 150 01:29 06.12.2019
3152 Mist -2 1022 92 5000 4.1 150 00:40 06.12.2019
3153 Mist -3 1022 92 5000 3.6 160 00:20 06.12.2019
3154 Mist -3 1022 92 5000 3.6 150 23:41 05.12.2019
3155 Mist -2 1022 92 5000 4.1 140 23:18 05.12.2019
3156 Mist -2 1022 92 5000 4.1 140 22:56 05.12.2019
3157 Mist -2 1022 86 5000 3.1 160 22:37 05.12.2019
3158 Mist -2 1022 86 5000 3.1 160 22:18 05.12.2019
3159 Mist -2 1022 86 5000 3.1 160 22:18 05.12.2019
3160 Mist -2 1022 86 5000 3.1 170 21:43 05.12.2019
3161 Mist -1 1023 92 5000 3.1 180 21:24 05.12.2019
3162 Mist -2 1023 92 5000 4.1 140 20:59 05.12.2019
3163 Mist -2 1023 92 5000 4.1 140 20:40 05.12.2019
3164 Clouds -2 1023 92 6000 3.1 150 20:20 05.12.2019
3165 Clouds -2 1023 92 6000 3.1 150 19:55 05.12.2019
3166 Clouds -2 1023 92 6000 4.1 150 19:36 05.12.2019
3167 Clouds -2 1023 92 6000 4.1 150 19:36 05.12.2019
3168 Clouds -1 1022 92 6000 5.1 150 19:18 05.12.2019
3169 Clouds -1 1022 92 7000 2.6 150 18:40 05.12.2019
3170 Clouds -1 1022 92 7000 3.1 140 18:21 05.12.2019
3171 Clouds -1 1022 92 7000 3.1 140 17:59 05.12.2019
3172 Clouds -1 1022 92 7000 2.6 140 17:39 05.12.2019
3173 Clouds -1 1022 92 7000 3.1 130 17:19 05.12.2019
3174 Clouds -1 1022 92 7000 3.1 130 16:55 05.12.2019
3175 Clouds -1 1022 86 7000 2.6 140 16:37 05.12.2019
3176 Clouds -1 1022 92 8000 2.6 130 16:18 05.12.2019
3177 Clouds -1 1022 92 8000 2.6 130 15:55 05.12.2019
3178 Clouds -1 1022 86 8000 3.6 120 15:37 05.12.2019
3179 Clouds -1 1022 86 7000 3.1 130 15:18 05.12.2019
3180 Clouds -1 1022 86 7000 3.1 140 14:54 05.12.2019
3181 Clouds -1 1022 86 7000 3.1 140 14:36 05.12.2019
3182 Clouds -1 1022 86 6000 3.1 120 14:18 05.12.2019
3183 Clouds -1 1022 86 6000 3.1 120 13:55 05.12.2019
3184 Clouds -1 1022 86 6000 3.1 140 13:36 05.12.2019
3185 Mist -1 1023 92 5000 3.6 130 13:18 05.12.2019
3186 Mist -1 1023 92 5000 3.1 130 12:42 05.12.2019
3187 Mist -1 1023 92 5000 3.1 130 12:23 05.12.2019
3188 Mist -2 1023 92 3300 3.1 130 11:56 05.12.2019
3189 Mist -2 1023 92 3300 3.1 130 11:38 05.12.2019
3190 Mist -2 1023 92 3200 2.6 140 11:19 05.12.2019
3191 Mist -2 1023 92 3200 3.1 140 10:55 05.12.2019
3192 Mist -2 1023 92 3200 3.1 140 10:37 05.12.2019
3193 Mist -2 1023 86 4200 3.6 180 10:18 05.12.2019
3194 Mist -2 1023 86 4200 3.6 180 10:18 05.12.2019
3195 Clouds -3 1022 92 7000 2.1 160 09:43 05.12.2019
3196 Clear -3 1022 92 10000 1.5 140 09:21 05.12.2019
3197 Clear -4 1022 92 10000 1.5 140 08:58 05.12.2019
3198 Clear -4 1022 85 10000 2.6 120 08:38 05.12.2019
3199 Clear -4 1022 92 10000 3.1 110 08:19 05.12.2019
3200 Clear -4 1022 92 10000 3.1 110 08:19 05.12.2019
3201 Clear -4 1021 92 10000 3.1 110 07:49 05.12.2019
3202 Clear -4 1021 92 10000 3.1 110 07:49 05.12.2019
3203 Clear -4 1021 92 10000 3.1 110 07:31 05.12.2019
3204 Clear -4 1021 92 10000 2.1 100 06:57 05.12.2019
3205 Clear -5 1021 92 10000 2.1 100 06:38 05.12.2019
3206 Clear -5 1021 92 10000 1 0 06:18 05.12.2019
3207 Clear -4 1021 92 10000 1 140 05:47 05.12.2019
3208 Clear -4 1021 92 10000 2.6 100 05:21 05.12.2019
3209 Clear -4 1021 100 10000 1 180 03:52 05.12.2019
3210 Clear -4 1021 86 10000 1.5 100 02:43 05.12.2019
3211 Clear -3 1021 86 10000 1.5 100 02:23 05.12.2019
3212 Clear -3 1020 92 10000 1 110 01:52 05.12.2019
3213 Clear -3 1020 92 8000 1 0 01:24 05.12.2019
3214 Clear -3 1021 92 10000 0.5 0 00:50 05.12.2019
3215 Clear -3 1021 92 10000 0.5 0 00:29 05.12.2019
3216 Clear -3 1021 92 9000 0.5 0 23:57 04.12.2019
3217 Clear -3 1021 92 10000 2.1 80 23:38 04.12.2019
3218 Clear -3 1021 92 10000 1 100 23:19 04.12.2019
3219 Clear -2 1021 86 10000 1.5 110 22:39 04.12.2019
3220 Clear -2 1021 92 10000 1.5 120 22:20 04.12.2019
3221 Clear -2 1021 92 10000 1.5 120 21:58 04.12.2019
3222 Clear -2 1021 92 10000 1 100 21:40 04.12.2019
3223 Clear -2 1021 86 10000 1 100 21:21 04.12.2019
3224 Clear -2 1021 86 10000 1 100 20:59 04.12.2019
3225 Clear -2 1020 86 10000 1.5 100 20:41 04.12.2019
3226 Clear -1 1020 75 10000 1.5 120 20:22 04.12.2019
3227 Clear -1 1020 72 10000 1.5 120 19:59 04.12.2019
3228 Clear -1 1020 72 10000 1 0 19:39 04.12.2019
3229 Clear -1 1020 80 10000 2.1 90 19:20 04.12.2019
3230 Clear 0 1020 80 10000 2.1 90 18:57 04.12.2019
3231 Clear 0 1021 80 10000 2.6 80 18:39 04.12.2019
3232 Clear 0 1021 72 10000 1 40 18:20 04.12.2019
3233 Clear 0 1021 80 10000 1 0 17:40 04.12.2019
3234 Clear 1 1021 69 10000 1.5 50 17:21 04.12.2019
3235 Clear 2 1021 69 10000 1.5 50 16:59 04.12.2019
3236 Clear 2 1021 69 10000 1.5 60 16:40 04.12.2019
3237 Clear 3 1021 56 10000 2.1 80 16:20 04.12.2019
3238 Clear 4 1021 60 10000 2.1 60 15:55 04.12.2019
3239 Clear 4 1021 60 10000 2.1 60 15:37 04.12.2019
3240 Clear 4 1021 60 10000 2.6 70 15:19 04.12.2019
3241 Clear 4 1021 56 10000 2.6 80 14:44 04.12.2019
3242 Clear 4 1021 56 10000 2.6 80 14:23 04.12.2019
3243 Clear 4 1021 56 10000 2.6 100 13:59 04.12.2019
3244 Clear 3 1022 60 10000 3.1 100 13:38 04.12.2019
3245 Clear 3 1022 60 10000 3.1 100 13:20 04.12.2019
3246 Clear 3 1023 60 10000 3.1 100 12:45 04.12.2019
3247 Clear 3 1023 64 10000 2.6 120 12:25 04.12.2019
3248 Clear 3 1023 69 10000 2.1 110 11:56 04.12.2019
3249 Clear 3 1023 69 10000 2.1 110 11:38 04.12.2019
3250 Clear 1 1024 80 10000 2.6 110 11:20 04.12.2019
3251 Clouds 0 1024 80 9000 1.5 110 10:44 04.12.2019
3252 Clouds 0 1024 86 8000 1.5 80 10:23 04.12.2019
3253 Clouds 0 1024 73 7000 1 0 09:57 04.12.2019
3254 Clouds -1 1024 73 7000 1 0 09:38 04.12.2019
3255 Clouds -1 1024 92 7000 0.5 0 09:19 04.12.2019
3256 Clouds -2 1024 92 7000 1 0 08:40 04.12.2019
3257 Clouds -2 1024 92 7000 0.5 0 08:22 04.12.2019
3258 Clouds -2 1024 92 6000 1 150 07:48 04.12.2019
3259 Clouds -2 1024 92 6000 1 150 07:30 04.12.2019
3260 Mist -2 1024 92 5000 2.6 120 06:43 04.12.2019
3261 Clouds -2 1024 92 10000 2.1 110 06:24 04.12.2019
3262 Clear -2 1024 92 10000 1.5 120 05:42 04.12.2019
3263 Clear -2 1024 92 10000 1 0 04:30 04.12.2019
3264 Clear -2 1025 100 10000 0.5 40 02:59 04.12.2019
3265 Clear -1 1026 89 10000 2.6 100 00:53 04.12.2019
3266 Clear -1 1026 89 10000 2.6 100 00:28 04.12.2019
3267 Clear -1 1027 89 10000 1.5 90 23:59 03.12.2019
3268 Clouds -1 1026 89 10000 1.5 110 23:41 03.12.2019
3269 Clouds -1 1027 91 10000 1.5 100 23:19 03.12.2019
3270 Clouds 0 1027 91 10000 1 110 22:41 03.12.2019
3271 Clouds 0 1027 86 10000 0.59 179 22:19 03.12.2019
3272 Clouds 0 1027 86 10000 0.59 179 21:59 03.12.2019
3273 Clouds 0 1027 86 10000 1 0 21:39 03.12.2019
3274 Clouds 0 1027 86 10000 1.5 80 21:19 03.12.2019
3275 Clouds 1 1027 86 10000 1.5 80 20:58 03.12.2019
3276 Clouds 1 1027 86 10000 1.5 100 20:40 03.12.2019
3277 Clouds 1 1027 86 10000 1.5 100 20:19 03.12.2019
3278 Clouds 1 1027 86 10000 1.5 100 19:55 03.12.2019
3279 Clouds 1 1027 86 10000 1.5 100 19:55 03.12.2019
3280 Clouds 1 1027 86 10000 1.5 100 19:55 03.12.2019
3281 Clouds 1 1028 86 10000 1.5 100 19:37 03.12.2019
3282 Clouds 1 1028 86 10000 1 0 19:18 03.12.2019
3283 Clouds 1 1028 86 10000 1 0 19:18 03.12.2019
3284 Clouds 1 1028 86 10000 1 0 18:56 03.12.2019
3285 Clouds 1 1028 86 10000 1 0 18:38 03.12.2019
3286 Clouds 2 1028 86 10000 1 0 18:19 03.12.2019
3287 Clouds 3 1028 86 10000 1 0 17:56 03.12.2019
3288 Clouds 3 1028 86 10000 1 30 17:36 03.12.2019
3289 Clouds 3 1028 86 10000 1.5 30 17:18 03.12.2019
3290 Clouds 3 1027 86 10000 1.5 30 16:56 03.12.2019
3291 Clouds 3 1027 86 10000 1.5 30 16:37 03.12.2019
3292 Clouds 3 1027 86 10000 3.1 10 16:19 03.12.2019
3293 Clouds 4 1027 80 10000 2.6 350 15:41 03.12.2019
3294 Clouds 4 1027 80 10000 1.5 360 15:20 03.12.2019
3295 Clouds 4 1027 80 10000 0.5 0 14:59 03.12.2019
3296 Clouds 4 1027 80 10000 0.5 0 14:41 03.12.2019
3297 Clouds 4 1027 80 10000 0.5 0 14:19 03.12.2019
3298 Clouds 3 1028 80 9000 1 0 13:39 03.12.2019
3299 Clouds 3 1028 71 9000 1 0 13:21 03.12.2019
3300 -273 0 0 0 0 0 12:59 03.12.2019
3301 Clouds 3 1028 86 8000 0.5 0 12:38 03.12.2019
3302 Clouds 3 1028 71 8000 1 0 12:18 03.12.2019
3303 Clouds 3 1028 71 8000 1 0 11:58 03.12.2019
3304 Clouds 3 1029 71 8000 1.5 220 11:38 03.12.2019
3305 Clouds 2 1029 85 8000 1.5 220 11:20 03.12.2019
3306 Clouds 2 1029 85 8000 1.5 220 11:20 03.12.2019
3307 Clouds 2 1029 85 8000 1.5 220 10:57 03.12.2019
3308 Clouds 2 1029 85 8000 2.1 210 10:38 03.12.2019
3309 Clouds 2 1029 85 8000 2.1 200 10:19 03.12.2019
3310 Clouds 1 1029 85 8000 2.1 210 09:45 03.12.2019
3311 Clouds 1 1029 85 7000 2.1 200 09:25 03.12.2019
3312 Clouds 1 1029 85 7000 2.1 200 08:58 03.12.2019
3313 Clouds 1 1029 85 7000 1.5 220 08:39 03.12.2019
3314 Clouds 1 1028 93 7000 2.1 200 08:21 03.12.2019
3315 Clouds 0 1028 93 7000 1 210 07:52 03.12.2019
3316 Clouds 0 1028 93 7000 1 210 07:29 03.12.2019
3317 Clouds 0 1028 93 7000 1 210 07:29 03.12.2019
3318 Clouds 0 1027 93 6000 1.5 160 06:45 03.12.2019
3319 Clouds 0 1027 93 6000 1.5 160 06:45 03.12.2019
3320 Clouds 0 1028 93 9000 1 0 06:20 03.12.2019
3321 Clouds 0 1027 93 9000 1 0 05:54 03.12.2019
3322 Clouds 1 1028 94 10000 0.5 0 03:44 03.12.2019
3323 Clouds 1 1027 86 10000 0.5 0 03:22 03.12.2019
3324 Clouds 1 1027 86 10000 1.5 230 02:53 03.12.2019
3325 Clouds 1 1027 92 10000 1 260 02:32 03.12.2019
3326 Clouds 1 1027 92 10000 1 260 01:59 03.12.2019
3327 Clouds 1 1027 92 10000 1 0 01:39 03.12.2019
3328 Clouds 1 1027 92 10000 2.1 0 01:19 03.12.2019
3329 Clouds 1 1027 86 10000 1.5 220 00:41 03.12.2019
3330 Clouds 1 1027 86 10000 2.6 250 00:23 03.12.2019
3331 Clouds 1 1027 92 10000 2.1 270 23:44 02.12.2019
3332 Clouds 1 1027 90 10000 2.6 270 23:22 02.12.2019
3333 Clouds 1 1027 90 10000 2.1 260 22:57 02.12.2019
3334 Clouds 1 1027 90 10000 2.1 260 22:38 02.12.2019
3335 Clouds 1 1027 90 10000 2.6 270 22:20 02.12.2019
3336 Clouds 2 1026 80 10000 2.1 260 21:39 02.12.2019
3337 Rain 2 1026 80 10000 2.6 260 21:20 02.12.2019
3338 Rain 2 1026 80 10000 2.6 260 21:20 02.12.2019
3339 Rain 2 1026 80 10000 2.6 260 20:58 02.12.2019
3340 Clouds 2 1026 80 10000 3.6 270 20:39 02.12.2019
3341 Clouds 2 1026 86 10000 2.6 250 20:20 02.12.2019
3342 Clouds 2 1026 74 10000 3.1 270 19:57 02.12.2019
3343 Clouds 2 1026 74 10000 3.6 260 19:39 02.12.2019
3344 Clouds 2 1025 80 10000 3.6 260 19:20 02.12.2019
3345 Clouds 2 1025 69 10000 3.6 270 18:48 02.12.2019
3346 Clouds 2 1025 69 10000 3.6 270 18:24 02.12.2019
3347 Clouds 2 1025 69 10000 3.6 270 17:59 02.12.2019
3348 Clouds 2 1025 69 10000 3.6 270 17:59 02.12.2019
3349 Clouds 2 1025 69 10000 3.6 270 17:59 02.12.2019
3350 Clouds 2 1025 74 10000 2.6 260 17:41 02.12.2019
3351 Clouds 3 1025 69 10000 2.6 270 17:21 02.12.2019
3352 Clouds 3 1025 69 10000 2.6 270 17:21 02.12.2019
3353 Clouds 3 1025 69 10000 2.6 270 16:57 02.12.2019
3354 Clouds 3 1025 69 10000 3.6 260 16:39 02.12.2019
3355 Clouds 3 1025 69 10000 3.1 260 16:18 02.12.2019
3356 Clouds 3 1024 64 10000 4.1 270 15:56 02.12.2019
3357 Clouds 3 1024 64 10000 4.1 270 15:38 02.12.2019
3358 Clouds 3 1024 64 10000 4.1 280 15:20 02.12.2019
3359 Clouds 3 1024 64 10000 5.1 280 14:41 02.12.2019
3360 Clouds 3 1024 64 10000 4.1 290 14:20 02.12.2019
3361 Clouds 4 1024 64 10000 4.1 290 14:00 02.12.2019
3362 Clouds 4 1024 56 10000 3.6 270 13:41 02.12.2019
3363 Clouds 4 1024 56 10000 3.1 280 13:20 02.12.2019
3364 Clouds 4 1024 56 10000 3.1 280 12:59 02.12.2019
3365 Clouds 3 1024 60 10000 3.6 320 12:41 02.12.2019
3366 Clouds 3 1024 64 10000 1.5 250 12:20 02.12.2019
3367 Clouds 3 1024 69 10000 1.5 270 11:56 02.12.2019
3368 Clouds 3 1024 69 10000 1.5 270 11:37 02.12.2019
3369 Clouds 2 1024 74 10000 2.1 280 11:18 02.12.2019
3370 Clouds 2 1024 74 10000 2.1 280 10:56 02.12.2019
3371 Clouds 1 1024 80 10000 2.1 270 10:37 02.12.2019
3372 Clouds 1 1023 80 10000 1.5 290 10:19 02.12.2019
3373 Clouds 0 1023 78 10000 1 0 09:41 02.12.2019
3374 Clouds 0 1023 92 10000 2.6 320 09:19 02.12.2019
3375 Clouds 0 1023 92 10000 2.6 320 08:57 02.12.2019
3376 Clouds 0 1023 92 10000 2.6 320 08:57 02.12.2019
3377 Clouds 0 1022 78 10000 2.6 330 08:39 02.12.2019
3378 Clouds 0 1021 86 10000 2.6 330 08:21 02.12.2019
3379 Clouds 0 1021 86 10000 2.6 320 07:44 02.12.2019
3380 Clouds 0 1020 86 10000 2.1 310 07:21 02.12.2019
3381 Clouds 0 1020 86 10000 2.1 310 07:21 02.12.2019
3382 Clouds 0 1020 86 10000 2.1 310 06:56 02.12.2019
3383 Clouds 0 1020 86 10000 3.1 310 06:38 02.12.2019
3384 Clouds 0 1019 86 10000 2.1 320 05:35 02.12.2019
3385 Clouds 0 1018 86 10000 2.6 340 04:27 02.12.2019
3386 Clouds 0 1018 86 10000 1.5 330 02:54 02.12.2019
3387 Clouds 0 1018 86 10000 1.5 330 02:31 02.12.2019
3388 Clouds 0 1017 80 10000 1.5 360 01:26 02.12.2019
3389 Clouds 1 1017 80 10000 1.5 20 00:58 02.12.2019
3390 Clouds 0 1017 80 10000 1.5 350 00:25 02.12.2019
3391 Clouds 0 1017 80 10000 1.5 350 23:56 01.12.2019
3392 Clouds 0 1017 80 10000 1.5 340 23:37 01.12.2019
3393 Clouds 0 1017 80 10000 1.5 10 23:19 01.12.2019
3394 Clouds 0 1017 80 10000 1.5 10 22:55 01.12.2019
3395 Clouds 0 1017 80 10000 1.5 10 22:37 01.12.2019
3396 Clouds 0 1017 80 10000 1 0 22:18 01.12.2019
3397 Clouds 1 1017 80 10000 1 0 21:54 01.12.2019
3398 Clouds 1 1017 80 10000 1 0 21:36 01.12.2019
3399 Clouds 1 1017 80 10000 1.5 310 21:18 01.12.2019
3400 Clouds 1 1017 80 10000 1.5 310 20:55 01.12.2019
3401 Clouds 1 1016 80 10000 0.5 360 20:37 01.12.2019
3402 Clouds 1 1016 74 10000 1.5 90 20:19 01.12.2019
3403 Clouds 1 1017 74 10000 1.5 70 19:54 01.12.2019
3404 Clouds 1 1017 74 10000 1.5 70 19:36 01.12.2019
3405 Clouds 1 1017 74 10000 1 0 19:18 01.12.2019
3406 Clouds 1 1016 80 10000 2.1 100 18:54 01.12.2019
3407 Clouds 1 1016 80 10000 2.1 100 18:36 01.12.2019
3408 Clouds 1 1016 69 10000 1.5 80 18:18 01.12.2019
3409 Clouds 1 1016 74 10000 1.5 60 17:42 01.12.2019
3410 Clouds 1 1016 69 10000 1 0 17:23 01.12.2019
3411 Clouds 1 1016 69 10000 1 0 16:59 01.12.2019
3412 Clouds 1 1017 69 10000 1 0 16:41 01.12.2019
3413 Clouds 2 1017 69 10000 1.5 60 16:22 01.12.2019
3414 Clouds 2 1017 69 10000 1 0 15:51 01.12.2019
3415 Clouds 2 1017 69 10000 1 0 15:32 01.12.2019
3416 Clouds 2 1017 69 10000 1 0 15:32 01.12.2019
3417 Clouds 2 1017 69 10000 1.5 20 14:54 01.12.2019
3418 Clouds 2 1017 69 10000 1.5 20 14:36 01.12.2019
3419 Clouds 2 1017 74 10000 1 0 14:18 01.12.2019
3420 Clouds 2 1017 69 10000 1 0 13:40 01.12.2019
3421 Clouds 2 1017 69 10000 1.5 30 13:20 01.12.2019
3422 Clouds 1 1017 69 10000 1.5 50 12:44 01.12.2019
3423 Clouds 1 1017 69 10000 2.1 70 11:59 01.12.2019
3424 Clouds 1 1018 74 10000 3.6 80 11:40 01.12.2019
3425 Clouds 1 1018 74 10000 3.1 70 11:22 01.12.2019
3426 Clouds 0 1018 74 10000 2.6 80 10:44 01.12.2019
3427 Clouds -1 1018 68 10000 2.6 70 10:22 01.12.2019
3428 Clouds -1 1018 68 10000 2.6 70 09:58 01.12.2019
3429 Clouds -1 1018 68 10000 2.6 70 09:39 01.12.2019
3430 Clouds -2 1018 80 10000 2.1 50 09:20 01.12.2019
3431 Clouds -2 1018 80 10000 2.1 70 08:47 01.12.2019
3432 Clear -3 1017 100 10000 3.6 70 08:20 01.12.2019
3433 Clouds -3 1019 80 10000 3.6 70 07:51 01.12.2019
3434 Clouds -2 1019 80 10000 3.6 70 07:31 01.12.2019
3435 Clouds -3 1019 86 10000 3.1 80 06:57 01.12.2019
3436 Clouds -3 1019 86 10000 2.6 80 06:34 01.12.2019
3437 Clouds -3 1020 92 10000 1.5 50 05:48 01.12.2019
3438 Clouds -3 1020 92 10000 1 0 04:51 01.12.2019
3439 Clouds -3 1021 92 10000 1.5 80 03:23 01.12.2019
3440 Clouds -3 1021 92 10000 1 110 02:36 01.12.2019
3441 Clear -3 1021 92 10000 0.5 0 02:18 01.12.2019
3442 Clear -2 1021 100 10000 0.5 0 01:51 01.12.2019
3443 Clear -3 1021 100 10000 0.5 0 01:24 01.12.2019
3444 Clear -3 1022 92 10000 0.5 0 00:41 01.12.2019
3445 Clear -3 1022 100 10000 0.5 0 00:23 01.12.2019
3446 Clear -2 1023 100 10000 0.5 0 23:42 30.11.2019
3447 Clear -2 1023 92 10000 0.5 0 23:23 30.11.2019
3448 Clear -2 1023 92 10000 0.5 20 22:50 30.11.2019
3449 Clear -2 1023 92 10000 0.5 20 22:30 30.11.2019
3450 Clear -1 1023 92 10000 0.5 0 21:59 30.11.2019
3451 Clear -1 1023 92 10000 1 0 21:41 30.11.2019
3452 Clear -2 1023 92 10000 0.5 0 21:23 30.11.2019
3453 Clear -1 1023 92 10000 0.5 0 20:55 30.11.2019
3454 Clear -1 1023 86 10000 2.1 100 20:37 30.11.2019
3455 Clouds 0 1023 86 10000 3.1 100 20:19 30.11.2019
3456 Clouds 0 1023 86 10000 3.1 100 19:55 30.11.2019
3457 Clouds 0 1023 92 10000 2.6 100 19:37 30.11.2019
3458 Clouds 0 1023 92 10000 3.1 110 19:18 30.11.2019
3459 Clouds 1 1023 81 10000 3.6 100 18:56 30.11.2019
3460 Clouds 1 1023 81 10000 3.6 100 18:37 30.11.2019
3461 Clouds 1 1023 81 10000 3.6 100 18:37 30.11.2019
3462 Clouds 1 1023 81 10000 0.5 0 18:18 30.11.2019
3463 Clouds 2 1023 86 10000 2.1 100 17:56 30.11.2019
3464 Clouds 2 1023 86 10000 2.1 100 17:37 30.11.2019
3465 Clouds 2 1023 73 10000 2.1 100 17:19 30.11.2019
3466 Clouds 3 1023 73 10000 2.1 60 16:55 30.11.2019
3467 Clouds 3 1023 73 10000 2.1 60 16:37 30.11.2019
3468 Clouds 4 1023 80 10000 1 50 16:18 30.11.2019
3469 Clouds 5 1023 73 10000 0.5 100 15:41 30.11.2019
3470 Clouds 5 1023 75 10000 1 0 15:19 30.11.2019
3471 Clouds 5 1023 75 10000 1 0 14:56 30.11.2019
3472 Clouds 5 1023 73 10000 0.5 0 14:38 30.11.2019
3473 Clouds 5 1023 66 10000 1 0 14:18 30.11.2019
3474 Clouds 5 1023 66 10000 1 0 13:56 30.11.2019
3475 Clouds 5 1023 66 10000 2.6 350 13:36 30.11.2019
3476 Clouds 5 1023 66 10000 1 0 13:18 30.11.2019
3477 Clouds 5 1023 66 10000 1.5 250 12:43 30.11.2019
3478 Clouds 5 1023 66 10000 1.5 280 12:25 30.11.2019
3479 Clouds 4 1023 75 10000 2.1 280 11:45 30.11.2019
3480 Clouds 4 1023 80 10000 2.1 270 11:20 30.11.2019
3481 Clouds 4 1023 80 10000 1.5 300 10:57 30.11.2019
3482 Clouds 4 1023 80 10000 1.5 300 10:57 30.11.2019
3483 Clouds 4 1023 80 10000 1.5 300 10:39 30.11.2019
3484 Clouds 3 1023 86 10000 1 0 10:20 30.11.2019
3485 Clouds 3 1023 86 10000 1 0 09:46 30.11.2019
3486 Clouds 3 1022 86 10000 1 240 09:28 30.11.2019
3487 Clouds 3 1022 86 10000 1 0 08:44 30.11.2019
3488 Clouds 2 1022 86 10000 1.5 290 08:23 30.11.2019
3489 Clouds 2 1022 86 10000 1.5 290 07:59 30.11.2019
3490 Clouds 2 1021 89 10000 2.1 280 07:40 30.11.2019
3491 Clouds 2 1021 86 10000 1.5 300 07:21 30.11.2019
3492 Clouds 3 1021 86 10000 2.1 280 06:30 30.11.2019
3493 Clouds 3 1021 86 10000 1.5 300 05:55 30.11.2019
3494 Clouds 3 1020 88 10000 2.6 290 03:54 30.11.2019
3495 Clouds 3 1019 88 10000 2.1 290 02:53 30.11.2019
3496 Clouds 3 1019 86 10000 2.1 310 02:22 30.11.2019
3497 Clouds 3 1018 86 10000 3.1 260 01:46 30.11.2019
3498 Clouds 3 1018 85 10000 3.1 260 01:24 30.11.2019
3499 Clouds 3 1018 85 10000 3.1 270 00:38 30.11.2019
3500 Clouds 3 1017 85 10000 4.1 280 00:18 30.11.2019
3501 Clouds 3 1017 80 10000 4.1 280 23:43 29.11.2019
3502 Clouds 3 1017 80 10000 4.6 280 23:23 29.11.2019
3503 Clouds 3 1016 80 10000 4.1 280 22:47 29.11.2019
3504 Clouds 3 1016 80 10000 4.1 280 22:26 29.11.2019
3505 Clouds 3 1016 86 10000 4.1 270 21:45 29.11.2019
3506 Clouds 3 1016 86 10000 4.1 270 21:26 29.11.2019
3507 Clouds 3 1015 80 10000 4.6 270 20:59 29.11.2019
3508 Clouds 3 1015 80 10000 4.1 270 20:39 29.11.2019
3509 Clouds 3 1014 73 10000 4.1 270 20:21 29.11.2019
3510 Clouds 3 1014 80 10000 4.1 270 19:58 29.11.2019
3511 Clouds 3 1014 80 10000 4.1 270 19:40 29.11.2019
3512 Clouds 4 1014 73 10000 4.1 270 19:20 29.11.2019
3513 Clouds 4 1014 73 10000 4.1 270 18:58 29.11.2019
3514 Clouds 4 1013 80 10000 4.1 270 18:40 29.11.2019
3515 Clouds 3 1013 86 10000 3.6 270 18:21 29.11.2019
3516 Clouds 4 1013 86 10000 3.1 280 17:44 29.11.2019
3517 Clouds 4 1012 80 10000 3.6 280 17:26 29.11.2019
3518 Clouds 4 1012 80 10000 3.6 280 16:58 29.11.2019
3519 Clouds 4 1012 80 10000 3.6 280 16:58 29.11.2019
3520 Clouds 4 1011 80 10000 4.1 280 16:39 29.11.2019
3521 Clouds 4 1011 80 10000 4.1 280 16:39 29.11.2019
3522 Clouds 5 1011 75 10000 4.6 280 16:19 29.11.2019
3523 Clouds 5 1010 80 10000 5.1 280 15:41 29.11.2019
3524 Clouds 5 1010 80 10000 5.1 280 15:23 29.11.2019
3525 Clouds 5 1009 80 10000 5.1 280 14:57 29.11.2019
3526 Clouds 5 1009 80 10000 5.1 280 14:38 29.11.2019
3527 Clouds 5 1009 75 10000 3.6 290 14:20 29.11.2019
3528 Rain 5 1008 86 10000 3.1 330 13:42 29.11.2019
3529 Rain 5 1008 86 10000 5.1 340 13:21 29.11.2019
3530 Rain 5 1008 86 10000 5.1 340 12:58 29.11.2019
3531 Rain 5 1008 86 10000 5.1 340 12:58 29.11.2019
3532 Rain 5 1008 93 10000 4.6 340 12:39 29.11.2019
3533 Rain 6 1007 93 10000 5.7 320 12:21 29.11.2019
3534 Rain 6 1007 93 7000 5.1 290 11:55 29.11.2019
3535 Rain 6 1007 93 7000 5.1 290 11:36 29.11.2019
3536 Rain 7 1006 93 10000 3.1 270 11:18 29.11.2019
3537 Rain 7 1006 93 10000 3.1 270 10:56 29.11.2019
3538 Rain 7 1006 93 10000 3.1 270 10:37 29.11.2019
3539 Rain 7 1005 93 10000 3.6 270 10:18 29.11.2019
3540 Rain 7 1005 93 7000 3.6 280 09:55 29.11.2019
3541 Rain 7 1005 93 10000 3.6 270 09:55 29.11.2019
3542 Rain 7 1005 93 7000 3.6 280 09:36 29.11.2019
3543 Rain 7 1004 87 10000 4.1 250 09:18 29.11.2019
3544 Rain 7 1004 87 10000 3.6 240 08:39 29.11.2019
3545 Rain 7 1003 87 10000 4.1 240 08:21 29.11.2019
3546 Rain 7 1003 87 10000 4.1 240 07:58 29.11.2019
3547 Rain 7 1003 87 10000 4.1 230 07:39 29.11.2019
3548 Clouds 7 1003 87 10000 4.6 220 07:21 29.11.2019
3549 Rain 7 1002 93 10000 4.1 220 06:42 29.11.2019
3550 Rain 8 1002 87 10000 5.1 230 05:48 29.11.2019
3551 Rain 8 1002 87 10000 5.1 230 05:24 29.11.2019
3552 Rain 8 1001 81 10000 6.7 220 04:31 29.11.2019
3553 Clouds 8 1001 81 10000 5.1 220 03:22 29.11.2019
3554 Rain 8 1001 81 10000 5.1 220 02:30 29.11.2019
3555 Rain 8 1001 81 10000 5.7 230 01:52 29.11.2019
3556 Rain 8 1001 81 10000 5.7 230 01:26 29.11.2019
3557 Rain 8 1001 81 10000 4.6 230 00:43 29.11.2019
3558 Rain 8 1001 81 10000 4.6 220 00:21 29.11.2019
3559 Rain 8 1000 81 10000 5.7 230 23:56 28.11.2019
3560 Rain 8 1000 81 10000 5.7 230 23:36 28.11.2019
3561 Clouds 8 1000 76 10000 6.2 220 23:18 28.11.2019
3562 Clouds 8 1000 76 10000 5.7 210 22:38 28.11.2019
3563 Clouds 8 1000 76 10000 5.7 210 22:20 28.11.2019
3564 Clouds 8 1000 76 10000 5.7 220 21:59 28.11.2019
3565 Clouds 8 1000 76 10000 5.7 220 21:40 28.11.2019
3566 Clouds 8 1000 76 10000 4.6 210 21:20 28.11.2019
3567 Clouds 8 1000 76 10000 4.6 210 20:56 28.11.2019
3568 Clouds 8 999 76 10000 6.2 220 20:38 28.11.2019
3569 Clouds 8 999 76 10000 6.2 220 20:18 28.11.2019
3570 Clouds 8 999 76 10000 6.7 230 19:55 28.11.2019
3571 Clouds 8 999 76 10000 6.7 230 19:36 28.11.2019
3572 Clouds 8 999 76 10000 5.7 220 19:18 28.11.2019
3573 Clouds 8 999 81 10000 5.7 220 18:55 28.11.2019
3574 Clouds 8 999 81 10000 5.7 220 18:37 28.11.2019
3575 Rain 8 999 76 10000 5.7 240 18:18 28.11.2019
3576 Rain 8 999 76 10000 5.7 240 18:18 28.11.2019
3577 Clouds 9 999 76 10000 5.7 230 17:41 28.11.2019
3578 Rain 9 999 76 10000 5.7 230 17:23 28.11.2019
3579 Rain 9 999 76 10000 5.7 230 16:58 28.11.2019
3580 Clouds 9 998 71 10000 5.7 230 16:38 28.11.2019
3581 Clouds 9 998 71 10000 6.7 240 16:19 28.11.2019
3582 Rain 9 998 71 10000 6.7 240 15:56 28.11.2019
3583 Rain 9 998 87 10000 2.6 250 15:37 28.11.2019
3584 Rain 10 998 81 10000 5.1 260 15:19 28.11.2019
3585 Clouds 10 998 71 10000 4.1 220 14:41 28.11.2019
3586 Clouds 10 998 71 10000 4.1 220 14:22 28.11.2019
3587 Clouds 10 998 66 10000 4.6 220 13:59 28.11.2019
3588 Clouds 10 998 71 10000 4.1 220 13:59 28.11.2019
3589 Clouds 10 998 66 10000 4.6 220 13:41 28.11.2019
3590 Clouds 10 998 66 10000 5.1 220 13:22 28.11.2019
3591 Clouds 10 998 66 10000 5.1 220 13:22 28.11.2019
3592 Clouds 10 998 76 10000 5.1 210 12:49 28.11.2019
3593 Clouds 10 998 76 10000 5.1 210 12:29 28.11.2019
3594 Clouds 9 998 76 10000 5.1 200 11:59 28.11.2019
3595 Clouds 9 998 76 10000 5.1 200 11:59 28.11.2019
3596 Clouds 10 998 76 10000 5.1 200 11:41 28.11.2019
3597 Clouds 10 999 76 10000 5.7 200 11:21 28.11.2019
3598 Clouds 9 999 76 10000 5.7 200 10:59 28.11.2019
3599 Clouds 9 999 76 10000 7.2 200 10:40 28.11.2019
3600 Clouds 9 998 76 10000 4.6 200 10:20 28.11.2019
3601 Clouds 9 998 76 10000 4.1 190 09:41 28.11.2019
3602 Rain 9 998 76 10000 4.1 190 09:23 28.11.2019
3603 Clouds 9 998 81 10000 4.1 190 08:59 28.11.2019
3604 Clouds 9 998 81 10000 4.1 190 08:59 28.11.2019
3605 Clouds 8 998 81 10000 2.6 180 08:39 28.11.2019
3606 Rain 8 998 76 10000 2.6 180 08:21 28.11.2019
3607 Clouds 9 998 76 10000 3.1 190 07:42 28.11.2019
3608 Clouds 9 998 76 10000 4.1 190 07:24 28.11.2019
3609 Clouds 8 998 76 10000 4.1 180 06:51 28.11.2019
3610 Clouds 8 998 76 10000 4.1 180 06:31 28.11.2019
3611 Clouds 8 997 76 10000 4.1 180 05:51 28.11.2019
3612 Clouds 8 997 81 10000 3.6 170 05:18 28.11.2019
3613 Clouds 7 998 75 10000 3.6 170 02:50 28.11.2019
3614 Clouds 7 997 70 10000 5.1 200 01:50 28.11.2019
3615 Clouds 7 998 75 10000 4.1 180 00:48 28.11.2019
3616 Clouds 7 998 75 10000 4.1 180 00:24 28.11.2019
3617 Clouds 8 998 76 10000 3.6 170 23:55 27.11.2019
3618 Clouds 8 998 76 10000 3.6 170 23:37 27.11.2019
3619 Clouds 8 998 76 10000 3.6 170 23:37 27.11.2019
3620 Clouds 8 998 76 10000 3.1 170 23:19 27.11.2019
3621 Clouds 8 998 76 10000 3.6 170 22:39 27.11.2019
3622 Clouds 8 998 76 10000 4.1 170 22:20 27.11.2019
3623 Clouds 7 998 76 10000 4.1 170 21:56 27.11.2019
3624 Clouds 7 998 81 10000 3.6 140 21:38 27.11.2019
3625 Clouds 7 998 81 10000 3.6 140 21:38 27.11.2019
3626 Clouds 7 998 87 10000 4.1 130 21:19 27.11.2019
3627 Clouds 7 998 87 10000 4.1 130 21:19 27.11.2019
3628 Clouds 7 998 87 10000 4.6 140 20:59 27.11.2019
3629 Clouds 7 998 87 10000 4.6 140 20:39 27.11.2019
3630 Clouds 7 997 87 10000 4.6 120 20:21 27.11.2019
3631 Clouds 7 998 87 10000 5.1 140 19:58 27.11.2019
3632 Clouds 7 998 87 10000 5.1 140 19:40 27.11.2019
3633 Clouds 7 998 93 10000 5.1 140 19:21 27.11.2019
3634 Clouds 7 998 87 10000 5.1 130 18:59 27.11.2019
3635 Clouds 7 998 87 10000 5.1 130 18:37 27.11.2019
3636 Clouds 7 998 93 10000 6.2 140 18:19 27.11.2019
3637 Clouds 7 998 93 10000 5.1 130 17:57 27.11.2019
3638 Clouds 7 998 93 10000 5.1 130 17:39 27.11.2019
3639 Clouds 7 998 93 10000 4.1 130 17:20 27.11.2019
3640 Clouds 7 998 93 10000 4.1 130 16:56 27.11.2019
3641 Clouds 7 998 93 10000 4.1 130 16:56 27.11.2019
3642 Clouds 7 998 87 10000 4.6 130 16:38 27.11.2019
3643 Clouds 7 998 87 10000 4.1 130 16:19 27.11.2019
3644 Clouds 8 998 87 10000 4.1 130 15:57 27.11.2019
3645 Clouds 8 998 81 10000 3.6 140 15:38 27.11.2019
3646 Clouds 8 998 81 10000 3.6 140 15:38 27.11.2019
3647 Clouds 8 998 81 10000 3.1 160 15:20 27.11.2019
3648 Rain 8 998 81 10000 3.1 160 14:57 27.11.2019
3649 Rain 8 998 81 10000 5.1 150 14:38 27.11.2019
3650 Rain 8 998 87 10000 5.1 150 14:20 27.11.2019
3651 Clouds 7 998 87 10000 5.1 150 13:56 27.11.2019
3652 Clouds 7 999 87 10000 4.6 140 13:38 27.11.2019
3653 Rain 6 998 93 10000 5.1 120 13:19 27.11.2019
3654 Rain 6 999 93 10000 4.1 130 12:42 27.11.2019
3655 Rain 6 999 93 10000 4.6 120 12:22 27.11.2019
3656 Rain 6 1000 93 10000 4.1 130 11:59 27.11.2019
3657 Rain 6 1000 93 10000 4.1 130 11:37 27.11.2019
3658 Rain 5 1000 93 10000 3.6 120 11:18 27.11.2019
3659 Rain 5 999 93 10000 2.6 130 10:46 27.11.2019
3660 Rain 5 999 93 10000 3.1 120 10:25 27.11.2019
3661 Rain 5 999 93 10000 3.1 130 09:58 27.11.2019
3662 Rain 5 999 93 10000 3.1 130 09:40 27.11.2019
3663 Rain 5 999 86 10000 3.6 110 09:22 27.11.2019
3664 Clouds 5 999 86 10000 3.1 130 08:42 27.11.2019
3665 Clouds 5 998 86 10000 4.1 180 08:23 27.11.2019
3666 Clouds 5 998 86 10000 3.1 170 07:51 27.11.2019
3667 Clouds 4 997 86 10000 4.6 130 07:31 27.11.2019
3668 Rain 4 997 93 10000 5.1 130 06:58 27.11.2019
3669 Rain 4 997 93 10000 5.1 130 06:39 27.11.2019
3670 Clouds 4 999 93 10000 3.1 130 05:55 27.11.2019
3671 Clouds 4 999 93 10000 2.6 130 05:26 27.11.2019
3672 Clouds 4 1000 93 10000 3.1 140 04:55 27.11.2019
3673 Clouds 4 1000 93 10000 3.1 140 04:36 27.11.2019
3674 Clouds 5 1000 93 10000 3.6 130 03:48 27.11.2019
3675 Clouds 5 1000 93 10000 4.6 110 03:21 27.11.2019
3676 Clouds 5 1001 93 9000 4.6 110 02:42 27.11.2019
3677 Clouds 5 1003 93 8000 4.1 140 01:22 27.11.2019
3678 Clouds 5 1004 93 7000 4.6 130 00:40 27.11.2019
3679 Clouds 5 1004 87 7000 5.1 140 00:22 27.11.2019
3680 Clouds 5 1005 93 6000 4.6 120 23:42 26.11.2019
3681 Clouds 5 1005 93 6000 5.1 120 23:24 26.11.2019
3682 Clouds 6 1006 93 6000 4.1 130 22:40 26.11.2019
3683 Clouds 6 1006 93 6000 5.1 140 22:20 26.11.2019
3684 Clouds 6 1006 93 6000 5.1 140 22:00 26.11.2019
3685 Clouds 6 1006 93 7000 4.6 140 21:39 26.11.2019
3686 Clouds 6 1007 93 7000 5.7 140 21:21 26.11.2019
3687 Clouds 6 1007 93 7000 5.7 140 21:21 26.11.2019
3688 Clouds 6 1007 93 7000 5.1 140 20:57 26.11.2019
3689 Clouds 6 1007 93 7000 5.1 140 20:38 26.11.2019
3690 Clouds 6 1007 93 9000 4.6 130 20:19 26.11.2019
3691 Clouds 6 1007 87 10000 3.6 140 19:56 26.11.2019
3692 Clouds 6 1007 87 10000 3.6 140 19:38 26.11.2019
3693 Clouds 6 1008 87 10000 3.6 150 19:19 26.11.2019
3694 Clouds 6 1007 87 10000 3.6 160 18:58 26.11.2019
3695 Clouds 7 1007 87 10000 3.6 160 18:39 26.11.2019
3696 Clouds 7 1007 87 10000 4.6 140 18:21 26.11.2019
3697 Clouds 7 1007 87 10000 5.1 150 17:58 26.11.2019
3698 Clouds 7 1007 87 10000 5.1 150 17:40 26.11.2019
3699 Clouds 7 1008 87 10000 4.6 150 17:21 26.11.2019
3700 Clouds 7 1008 87 10000 4.6 140 16:57 26.11.2019
3701 Clouds 7 1008 87 10000 4.6 140 16:37 26.11.2019
3702 Clouds 7 1008 81 10000 4.6 150 16:19 26.11.2019
3703 Clouds 7 1008 81 10000 4.6 150 15:58 26.11.2019
3704 Clouds 8 1007 81 10000 5.1 120 15:37 26.11.2019
3705 Clouds 8 1007 81 10000 5.1 120 15:37 26.11.2019
3706 Clouds 8 1007 81 10000 5.1 120 15:37 26.11.2019
3707 Clouds 8 1008 87 10000 4.1 120 15:19 26.11.2019
3708 Clouds 8 1008 81 10000 3.6 140 14:47 26.11.2019
3709 Clouds 8 1008 81 10000 3.6 140 14:26 26.11.2019
3710 Clouds 8 1008 81 10000 3.6 140 14:26 26.11.2019
3711 Clouds 8 1008 81 10000 3.6 140 13:57 26.11.2019
3712 Clouds 8 1008 81 10000 3.6 150 13:38 26.11.2019
3713 Clouds 8 1008 76 10000 3.6 160 13:19 26.11.2019
3714 Clouds 8 1009 81 10000 3.6 150 12:38 26.11.2019
3715 Clouds 8 1009 81 10000 3.6 150 12:38 26.11.2019
3716 Clouds 7 1009 81 10000 4.6 150 12:20 26.11.2019
3717 Clouds 7 1009 81 10000 4.1 140 11:58 26.11.2019
3718 Clouds 6 1009 81 10000 4.1 140 11:39 26.11.2019
3719 Clouds 6 1009 81 10000 4.1 140 11:39 26.11.2019
3720 Rain 6 1010 87 10000 4.6 130 11:20 26.11.2019
3721 Rain 5 1010 87 10000 3.1 120 10:58 26.11.2019
3722 Rain 5 1010 87 10000 3.1 120 10:39 26.11.2019
3723 Rain 5 1010 93 10000 3.6 140 10:20 26.11.2019
3724 Clouds 5 1010 86 10000 2.6 130 09:55 26.11.2019
3725 Clouds 4 1010 86 10000 2.6 130 09:37 26.11.2019
3726 Clouds 4 1011 93 10000 2.1 140 09:18 26.11.2019
3727 Clouds 4 1010 93 10000 3.6 130 08:43 26.11.2019
3728 Clouds 4 1010 93 10000 3.1 120 08:22 26.11.2019
3729 Clouds 4 1010 93 10000 2.1 130 07:44 26.11.2019
3730 Clouds 4 1010 93 10000 2.6 120 07:25 26.11.2019
3731 Mist 4 1010 100 3000 1.5 170 06:55 26.11.2019
3732 Clouds 4 1010 86 10000 3.1 130 06:23 26.11.2019
3733 Clouds 4 1010 93 10000 3.6 140 05:39 26.11.2019
3734 Clouds 4 1011 93 10000 2.6 150 03:59 26.11.2019
3735 Clouds 4 1011 93 6000 3.1 120 02:24 26.11.2019
3736 Clouds 3 1011 93 6000 2.6 140 01:32 26.11.2019
3737 Clouds 3 1011 93 10000 2.1 160 00:50 26.11.2019
3738 Clouds 3 1011 93 10000 2.6 130 00:25 26.11.2019
3739 Clouds 3 1011 93 10000 3.1 120 23:40 25.11.2019
3740 Clouds 3 1011 93 9000 2.6 120 23:20 25.11.2019
3741 Clouds 3 1011 93 9000 2.6 120 22:58 25.11.2019
3742 Clouds 3 1012 93 6000 1.5 170 22:37 25.11.2019
3743 Drizzle 3 1012 100 6000 2.1 210 22:18 25.11.2019
3744 Drizzle 3 1012 100 6000 2.1 210 21:58 25.11.2019
3745 Drizzle 3 1012 100 6000 2.1 210 21:39 25.11.2019
3746 Clouds 3 1011 100 6000 2.6 210 21:19 25.11.2019
3747 Drizzle 3 1011 93 6000 1.5 190 20:55 25.11.2019
3748 Drizzle 3 1011 93 6000 1.5 190 20:36 25.11.2019
3749 Clouds 3 1011 100 6000 2.1 180 20:18 25.11.2019
3750 Mist 3 1011 100 5000 2.6 130 19:54 25.11.2019
3751 Mist 3 1011 100 5000 2.6 130 19:54 25.11.2019
3752 Mist 3 1011 100 5000 2.6 130 19:36 25.11.2019
3753 Mist 3 1011 100 5000 1.5 160 19:18 25.11.2019
3754 Mist 3 1010 100 1400 2.1 160 18:55 25.11.2019
3755 Mist 3 1010 100 1400 1.5 140 18:36 25.11.2019
3756 Mist 4 1010 100 1400 1.5 140 18:18 25.11.2019
3757 Mist 4 1010 100 1400 1.05 162 17:55 25.11.2019
3758 Mist 4 1010 100 1400 1.05 162 17:55 25.11.2019
3759 Mist 4 1011 93 4000 2.6 200 17:36 25.11.2019
3760 Mist 4 1011 93 4200 2.1 230 17:36 25.11.2019
3761 Mist 4 1011 93 4200 2.1 230 17:18 25.11.2019
3762 Mist 4 1010 93 5000 2.1 210 16:41 25.11.2019
3763 Mist 4 1010 93 5000 2.1 210 16:41 25.11.2019
3764 Mist 4 1010 93 5000 1 0 16:23 25.11.2019
3765 Clouds 4 1010 93 6000 1 0 15:57 25.11.2019
3766 Clouds 4 1010 93 6000 1 0 15:38 25.11.2019
3767 Clouds 4 1010 93 6000 1.5 250 15:19 25.11.2019
3768 Clouds 4 1010 93 6000 0.5 0 14:56 25.11.2019
3769 Clouds 4 1010 93 6000 0.5 0 14:56 25.11.2019
3770 Clouds 4 1010 93 6000 0.5 0 14:37 25.11.2019
3771 Clouds 4 1010 93 6000 2.1 150 14:19 25.11.2019
3772 Clouds 4 1010 93 6000 2.1 140 13:39 25.11.2019
3773 Clouds 4 1010 93 6000 2.6 120 13:20 25.11.2019
3774 Clouds 4 1010 93 6000 2.6 120 12:59 25.11.2019
3775 Clouds 4 1010 93 6000 1.5 180 12:40 25.11.2019
3776 Mist 4 1011 93 3700 2.1 160 12:20 25.11.2019
3777 Mist 3 1011 93 2500 1 0 11:55 25.11.2019
3778 Mist 3 1011 93 2500 1 0 11:55 25.11.2019
3779 Mist 3 1011 93 2500 1 0 11:37 25.11.2019
3780 Fog 3 1011 93 2000 1 0 11:18 25.11.2019
3781 Fog 3 1011 93 1700 2.1 170 10:42 25.11.2019
3782 Fog 3 1011 93 1500 2.6 120 10:22 25.11.2019
3783 Fog 3 1011 100 2000 3.1 130 09:45 25.11.2019
3784 Fog 3 1011 100 2000 3.1 130 09:26 25.11.2019
3785 Fog 2 1011 93 900 2.6 140 08:59 25.11.2019
3786 Fog 2 1011 93 900 2.6 140 08:39 25.11.2019
3787 Fog 2 1010 93 800 2.6 140 08:20 25.11.2019
3788 Mist 2 1010 93 3800 2.1 140 07:41 25.11.2019
3789 Mist 2 1010 100 3500 2.1 170 07:20 25.11.2019
3790 Fog 3 1010 100 500 2.6 200 06:48 25.11.2019
3791 Fog 3 1010 100 1500 2.1 200 06:21 25.11.2019
3792 Fog 3 1010 100 1500 2.1 200 06:21 25.11.2019
3793 Mist 3 1010 93 3800 1.5 0 05:38 25.11.2019
3794 Mist 3 1009 100 3300 1 0 04:52 25.11.2019
3795 Fog 2 1010 100 800 0.5 0 02:51 25.11.2019
3796 Fog 2 1010 93 900 0.5 0 02:19 25.11.2019
3797 Mist 2 1009 93 2500 1 0 01:39 25.11.2019
3798 Mist 2 1010 100 2500 0.5 0 01:20 25.11.2019
3799 Fog 1 1009 93 6000 1 80 00:22 25.11.2019
3800 Fog 2 1009 100 7000 0.5 0 23:57 24.11.2019
3801 Fog 1 1009 100 7000 0.5 0 23:37 24.11.2019
3802 Clouds 2 1009 100 8000 0.5 0 23:18 24.11.2019
3803 Clouds 2 1009 93 10000 0.5 0 22:42 24.11.2019
3804 Clouds 2 1009 93 10000 1 0 22:21 24.11.2019
3805 Clouds 2 1009 93 10000 1 0 22:21 24.11.2019
3806 Clouds 3 1009 93 10000 1 0 21:59 24.11.2019
3807 Clouds 3 1009 100 10000 1.5 110 21:41 24.11.2019
3808 Clouds 3 1009 100 10000 2.1 110 21:21 24.11.2019
3809 Clouds 3 1009 100 10000 2.1 110 20:59 24.11.2019
3810 Clouds 3 1008 93 10000 1.5 90 20:39 24.11.2019
3811 Clouds 3 1008 86 10000 0.5 0 20:19 24.11.2019
3812 Clouds 3 1009 86 10000 1 0 19:57 24.11.2019
3813 Clouds 3 1009 86 10000 1 0 19:57 24.11.2019
3814 Clouds 4 1009 86 10000 1 0 19:38 24.11.2019
3815 Clouds 4 1008 86 10000 3.1 100 19:20 24.11.2019
3816 Clouds 4 1008 86 10000 3.1 100 18:59 24.11.2019
3817 Clouds 5 1008 87 10000 2.6 80 18:38 24.11.2019
3818 Clouds 5 1008 87 10000 2.6 80 18:38 24.11.2019
3819 Clouds 5 1008 87 10000 2.6 60 18:19 24.11.2019
3820 Clouds 5 1008 81 10000 2.6 80 17:56 24.11.2019
3821 Clouds 6 1008 81 10000 2.6 80 17:38 24.11.2019
3822 Clouds 6 1008 81 10000 2.1 80 17:20 24.11.2019
3823 Clouds 7 1007 81 10000 2.1 70 16:57 24.11.2019
3824 Clouds 7 1007 81 10000 2.1 70 16:39 24.11.2019
3825 Clouds 8 1007 76 10000 1.5 70 16:20 24.11.2019
3826 Clouds 8 1007 76 10000 2.1 70 15:45 24.11.2019
3827 Clouds 9 1007 76 10000 2.1 70 15:26 24.11.2019
3828 Clouds 9 1007 71 10000 2.6 90 14:58 24.11.2019
3829 Clouds 9 1007 71 10000 3.1 90 14:38 24.11.2019
3830 Clouds 9 1007 76 10000 2.1 70 14:19 24.11.2019
3831 Clouds 9 1006 76 10000 2.6 70 13:54 24.11.2019
3832 Clouds 9 1006 76 10000 2.6 70 13:54 24.11.2019
3833 Clouds 9 1006 76 10000 2.6 70 13:36 24.11.2019
3834 Clouds 9 1007 76 10000 3.1 100 13:18 24.11.2019
3835 Clouds 8 1006 71 10000 2.6 100 12:42 24.11.2019
3836 Clouds 8 1006 76 10000 2.6 80 12:19 24.11.2019
3837 Clouds 7 1006 76 10000 4.1 100 11:58 24.11.2019
3838 Clouds 7 1006 76 10000 4.1 100 11:37 24.11.2019
3839 Clouds 7 1006 76 10000 4.1 100 11:18 24.11.2019
3840 Clouds 6 1006 75 10000 3.6 90 10:47 24.11.2019
3841 Clouds 6 1006 75 10000 3.6 90 10:29 24.11.2019
3842 Clouds 5 1006 81 10000 2.6 110 09:58 24.11.2019
3843 Clouds 5 1006 87 10000 3.1 90 09:38 24.11.2019
3844 Clouds 4 1005 87 10000 4.1 90 09:19 24.11.2019
3845 Clouds 3 1005 87 10000 3.1 80 08:45 24.11.2019
3846 Clouds 3 1005 86 10000 2.1 80 08:23 24.11.2019
3847 Clouds 3 1005 86 10000 2.1 80 08:23 24.11.2019
3848 Clouds 3 1005 86 10000 2.6 110 07:58 24.11.2019
3849 Clouds 3 1005 86 10000 2.6 110 07:58 24.11.2019
3850 Clouds 3 1005 86 10000 2.6 110 07:38 24.11.2019
3851 Clouds 3 1004 81 10000 4.1 90 07:20 24.11.2019
3852 Clouds 3 1004 86 10000 3.6 100 06:20 24.11.2019
3853 Clouds 3 1004 86 10000 3.6 100 06:20 24.11.2019
3854 Clouds 3 1004 86 10000 3.6 100 06:20 24.11.2019
3855 Clear 4 1003 87 10000 4.1 90 04:49 24.11.2019
3856 Clear 4 1003 87 10000 3.1 90 03:38 24.11.2019
3857 Clear 4 1003 87 10000 4.1 100 02:31 24.11.2019
3858 Clouds 4 1003 87 10000 3.6 100 01:41 24.11.2019
3859 Clouds 5 1002 81 10000 3.6 100 01:22 24.11.2019
3860 Clouds 4 1002 87 10000 4.1 90 00:47 24.11.2019
3861 Clouds 5 1002 81 10000 4.6 100 00:24 24.11.2019
3862 Clouds 5 1002 87 10000 4.1 90 23:46 23.11.2019
3863 Clouds 5 1002 87 10000 5.1 90 23:24 23.11.2019
3864 Clouds 5 1002 87 10000 5.1 90 22:59 23.11.2019
3865 Clouds 5 1002 81 10000 5.1 100 22:40 23.11.2019
3866 Clouds 6 1002 81 10000 4.6 100 22:22 23.11.2019
3867 Clouds 6 1002 81 10000 4.6 100 21:59 23.11.2019
3868 Clouds 6 1001 75 10000 5.1 90 21:41 23.11.2019
3869 Clouds 6 1001 75 10000 5.1 90 21:22 23.11.2019
3870 Clouds 6 1001 75 10000 5.1 90 21:22 23.11.2019
3871 Clouds 6 1001 75 10000 5.1 90 20:58 23.11.2019
3872 Clouds 7 1001 81 10000 6.2 90 20:37 23.11.2019
3873 Clouds 7 1001 81 10000 5.1 90 20:18 23.11.2019
3874 Clouds 7 1001 81 10000 5.1 90 19:55 23.11.2019
3875 Clouds 7 1001 81 10000 5.1 100 19:37 23.11.2019
3876 Clouds 7 1000 81 10000 4.6 100 19:18 23.11.2019
3877 Clouds 8 1000 75 10000 5.1 100 18:40 23.11.2019
3878 Clouds 8 1000 70 10000 6.2 90 18:21 23.11.2019
3879 Clouds 8 999 70 10000 5.1 90 17:55 23.11.2019
3880 Clouds 8 999 70 10000 5.1 90 17:37 23.11.2019
3881 Clouds 9 999 76 10000 6.2 90 17:19 23.11.2019
3882 Clouds 9 999 76 10000 6.2 90 17:19 23.11.2019
3883 Clouds 9 999 76 10000 6.2 90 17:19 23.11.2019
3884 Clouds 9 999 71 10000 6.2 90 16:56 23.11.2019
3885 Clouds 9 999 71 10000 6.2 90 16:37 23.11.2019
3886 Clouds 9 999 71 10000 6.2 90 16:18 23.11.2019
3887 Clouds 10 999 71 10000 6.2 90 15:56 23.11.2019
3888 Clouds 10 999 71 10000 5.7 90 15:37 23.11.2019
3889 Clouds 10 999 66 10000 4.6 90 15:18 23.11.2019
3890 Clouds 11 999 62 10000 4.6 90 14:42 23.11.2019
3891 Clouds 11 999 62 10000 4.6 90 14:21 23.11.2019
3892 Clouds 11 999 62 10000 4.6 90 13:57 23.11.2019
3893 Clouds 11 999 58 10000 3.6 90 13:39 23.11.2019
3894 Clouds 11 999 58 10000 5.7 100 13:18 23.11.2019
3895 Clouds 11 1000 58 10000 5.7 100 12:44 23.11.2019
3896 Clouds 10 1000 62 10000 4.1 90 12:24 23.11.2019
3897 Clouds 10 1000 61 10000 5.7 90 11:45 23.11.2019
3898 Clouds 8 1001 66 10000 6.2 90 11:24 23.11.2019
3899 Clouds 7 1001 70 10000 6.7 100 10:57 23.11.2019
3900 Clouds 7 1001 70 10000 6.7 100 10:39 23.11.2019
3901 Clouds 6 1001 70 10000 6.2 100 10:18 23.11.2019
3902 Clouds 6 1001 70 10000 5.1 90 09:41 23.11.2019
3903 Clouds 4 1001 75 10000 5.1 90 09:19 23.11.2019
3904 Clouds 3 1001 80 10000 4.6 90 08:41 23.11.2019
3905 Clouds 3 1001 80 10000 4.6 90 08:41 23.11.2019
3906 Clouds 2 1001 93 10000 2.6 100 08:19 23.11.2019
3907 Clouds 3 1001 86 10000 4.6 100 07:42 23.11.2019
3908 Clouds 3 1001 93 10000 3.6 100 07:21 23.11.2019
3909 Clouds 3 1002 93 10000 3.6 110 06:42 23.11.2019
3910 Clouds 3 1002 93 10000 3.6 100 06:19 23.11.2019
3911 Clouds 2 1002 93 10000 1.5 160 05:45 23.11.2019
3912 Clouds 3 1002 100 10000 1.5 90 05:26 23.11.2019
3913 Clouds 2 1003 100 10000 1 0 04:39 23.11.2019
3914 Clouds 3 1003 86 10000 3.23 105 04:21 23.11.2019
3915 Fog 2 1004 86 10000 1.5 110 02:39 23.11.2019
3916 Fog 2 1004 86 10000 1.5 110 02:39 23.11.2019
3917 Fog 2 1004 92 8000 1.5 100 01:42 23.11.2019
3918 Clouds 3 1005 93 10000 2.1 110 00:50 23.11.2019
3919 Fog 3 1005 92 10000 0.5 0 00:24 23.11.2019
3920 Fog 3 1005 92 10000 0.5 0 00:23 23.11.2019
3921 Fog 3 1005 92 10000 0.5 0 00:22 23.11.2019
3922 Fog 3 1005 92 10000 0.5 0 00:22 23.11.2019
3923 Clouds 3 1005 100 10000 1 120 23:59 22.11.2019
3924 Clouds 3 1005 100 10000 1 120 23:37 22.11.2019
3925 Clouds 3 1005 100 10000 1.5 110 23:19 22.11.2019
3926 Clouds 3 1005 100 10000 1.5 90 22:57 22.11.2019
3927 Clouds 3 1005 100 10000 1.5 90 22:37 22.11.2019
3928 Clouds 3 1006 93 10000 1.5 110 22:19 22.11.2019
3929 Clouds 4 1006 93 10000 1.5 110 21:55 22.11.2019
3930 Clouds 3 1006 93 10000 1 0 21:36 22.11.2019
3931 Clouds 4 1007 86 10000 1 0 21:18 22.11.2019
3932 Clouds 4 1007 93 10000 1 0 20:40 22.11.2019
3933 Clouds 4 1007 86 10000 2.6 130 20:22 22.11.2019
3934 Clouds 4 1007 86 10000 2.6 130 19:54 22.11.2019
3935 Clouds 4 1007 86 10000 3.1 110 19:36 22.11.2019
3936 Clouds 4 1007 86 10000 2.1 100 19:18 22.11.2019
3937 Clouds 4 1007 86 10000 3.6 100 18:38 22.11.2019
3938 Clouds 4 1008 86 10000 4.1 110 18:20 22.11.2019
3939 Clouds 4 1008 86 10000 2.6 90 17:43 22.11.2019
3940 Clouds 5 1008 86 10000 3.1 80 17:23 22.11.2019
3941 Clouds 4 1008 86 10000 3.1 80 16:56 22.11.2019
3942 Clouds 4 1008 80 10000 2.6 100 16:37 22.11.2019
3943 Rain 4 1008 80 10000 4.6 90 16:19 22.11.2019
3944 Rain 4 1008 80 10000 3.6 100 15:39 22.11.2019
3945 Clouds 4 1008 86 10000 3.1 130 15:20 22.11.2019
3946 Clouds 4 1008 86 10000 3.1 130 14:55 22.11.2019
3947 Clouds 4 1008 86 10000 3.1 130 14:55 22.11.2019
3948 Clouds 4 1009 86 10000 3.1 130 14:37 22.11.2019
3949 Clouds 4 1009 86 10000 3.1 130 14:37 22.11.2019
3950 Clouds 4 1009 86 10000 3.6 150 14:18 22.11.2019
3951 Clouds 4 1009 86 10000 3.1 140 13:39 22.11.2019
3952 Clouds 4 1009 86 10000 3.1 110 13:20 22.11.2019
3953 Clouds 4 1009 86 10000 3.1 110 13:20 22.11.2019
3954 Clouds 4 1009 86 10000 3.1 110 13:20 22.11.2019
3955 Clouds 4 1009 86 10000 3.1 110 12:59 22.11.2019
3956 Clouds 4 1009 86 10000 3.1 90 12:40 22.11.2019
3957 Clouds 4 1009 86 10000 3.1 90 12:40 22.11.2019
3958 Clouds 4 1009 86 10000 3.1 90 12:40 22.11.2019
3959 Clouds 4 1010 86 10000 3.6 150 12:20 22.11.2019
3960 Clouds 4 1010 86 10000 3.6 150 12:20 22.11.2019
3961 Clouds 4 1010 86 10000 3.6 150 11:58 22.11.2019
3962 Clouds 4 1010 86 10000 3.6 150 11:58 22.11.2019
3963 Clouds 4 1010 86 10000 2.1 160 11:37 22.11.2019
3964 Clouds 4 1010 86 10000 3.6 120 11:19 22.11.2019
3965 Clouds 4 1010 86 10000 2.6 130 10:55 22.11.2019
3966 Clouds 4 1010 86 10000 2.6 130 10:37 22.11.2019
3967 Clouds 3 1010 86 10000 3.6 140 10:19 22.11.2019
3968 Clouds 3 1010 86 10000 3.6 150 09:41 22.11.2019
3969 Clouds 3 1010 93 9000 5.1 120 09:22 22.11.2019
3970 Clouds 3 1010 93 9000 5.1 120 08:59 22.11.2019
3971 Clouds 3 1010 93 9000 4.6 120 08:40 22.11.2019
3972 Clouds 3 1010 93 9000 4.6 120 08:40 22.11.2019
3973 Clouds 3 1010 93 9000 4.6 160 08:22 22.11.2019
3974 Drizzle 3 1010 93 8000 3.1 140 07:43 22.11.2019
3975 Drizzle 3 1010 93 8000 3.6 130 07:21 22.11.2019
3976 Clouds 3 1010 93 8000 3.1 140 06:48 22.11.2019
3977 Clouds 3 1010 93 8000 3.1 130 06:28 22.11.2019
3978 Clouds 3 1009 93 6000 3.1 130 05:37 22.11.2019
3979 Mist 3 1009 93 5000 3.6 140 03:34 22.11.2019
3980 Mist 3 1009 93 5000 3.1 120 02:46 22.11.2019
3981 Mist 3 1009 93 5000 3.1 120 02:26 22.11.2019
3982 Mist 4 1009 86 5000 3.6 120 01:43 22.11.2019
3983 Mist 4 1009 86 5000 4.6 120 01:18 22.11.2019
3984 Mist 4 1009 86 5000 3.6 120 00:45 22.11.2019
3985 Mist 4 1010 86 5000 4.1 130 00:22 22.11.2019
3986 Mist 4 1010 86 5000 3.6 170 23:44 21.11.2019
3987 Clouds 4 1010 93 6000 4.1 130 23:25 21.11.2019
3988 Clouds 4 1010 93 6000 4.1 130 22:57 21.11.2019
3989 Clouds 4 1010 93 6000 4.1 130 22:38 21.11.2019
3990 Clouds 4 1010 86 6000 3.1 140 22:20 21.11.2019
3991 Clouds 5 1010 86 6000 3.1 140 21:55 21.11.2019
3992 Clouds 4 1010 86 7000 4.1 140 21:37 21.11.2019
3993 Clouds 5 1009 86 7000 3.6 140 21:18 21.11.2019
3994 Clouds 5 1009 86 7000 3.6 140 20:57 21.11.2019
3995 Clouds 5 1009 93 7000 1 200 20:37 21.11.2019
3996 Clouds 5 1009 93 8000 1.5 200 20:18 21.11.2019
3997 Clouds 5 1009 81 9000 1.5 220 19:56 21.11.2019
3998 Clouds 5 1009 81 9000 1.5 220 19:37 21.11.2019
3999 Clouds 5 1009 81 9000 2.6 140 19:19 21.11.2019
4000 Clouds 5 1009 87 10000 2.1 190 18:42 21.11.2019
4001 Clouds 5 1009 87 10000 2.1 190 18:42 21.11.2019
4002 Clouds 5 1009 87 9000 1.5 200 18:21 21.11.2019
4003 Clouds 5 1009 87 9000 1.5 200 17:58 21.11.2019
4004 Clouds 5 1009 87 7000 0.5 40 17:39 21.11.2019
4005 Clouds 5 1009 87 7000 1 0 17:21 21.11.2019
4006 Clouds 6 1009 87 6000 1 220 16:57 21.11.2019
4007 Clouds 6 1009 87 6000 1 220 16:39 21.11.2019
4008 Clouds 6 1009 87 6000 1.5 230 16:20 21.11.2019
4009 Clouds 6 1009 87 6000 0.5 0 15:44 21.11.2019
4010 Clouds 6 1009 87 6000 0.5 0 15:22 21.11.2019
4011 Clouds 6 1009 87 6000 0.5 0 14:59 21.11.2019
4012 Clouds 6 1009 87 6000 1 0 14:38 21.11.2019
4013 Clouds 6 1009 87 7000 0.5 0 14:20 21.11.2019
4014 Clouds 6 1009 87 7000 0.5 0 13:59 21.11.2019
4015 Clouds 6 1009 87 6000 0.5 0 13:37 21.11.2019
4016 Clouds 6 1009 87 6000 1 0 13:19 21.11.2019
4017 Clouds 6 1009 87 6000 1 0 12:41 21.11.2019
4018 Clouds 6 1009 87 6000 0.5 0 12:23 21.11.2019
4019 Mist 5 1010 93 5000 1 0 11:56 21.11.2019
4020 Mist 5 1010 93 5000 1 0 11:37 21.11.2019
4021 Mist 5 1010 93 5000 1 0 11:37 21.11.2019
4022 Mist 5 1010 93 5000 1 0 11:37 21.11.2019
4023 Mist 5 1010 93 5000 0.5 0 11:19 21.11.2019
4024 Drizzle 5 1010 93 4800 0.5 0 10:43 21.11.2019
4025 Drizzle 5 1010 86 4500 1 0 10:24 21.11.2019
4026 Drizzle 4 1010 86 4500 1 0 09:59 21.11.2019
4027 Drizzle 4 1010 86 4500 1 0 09:59 21.11.2019
4028 Drizzle 4 1010 93 4000 0.5 0 09:40 21.11.2019
4029 Drizzle 4 1010 93 3500 0.5 0 09:22 21.11.2019
4030 Drizzle 4 1010 93 3400 1 0 08:46 21.11.2019
4031 Drizzle 4 1010 93 3400 1 0 08:24 21.11.2019
4032 Drizzle 4 1010 93 3500 1.5 250 07:46 21.11.2019
4033 Drizzle 4 1010 93 4000 1.5 250 07:20 21.11.2019
4034 Drizzle 4 1010 93 4000 1.5 250 06:58 21.11.2019
4035 Drizzle 4 1010 93 4000 1 0 06:37 21.11.2019
4036 Drizzle 4 1010 93 2800 0.5 0 06:19 21.11.2019
4037 Clouds 4 1011 93 8000 1 300 03:42 21.11.2019
4038 Clouds 4 1011 93 8000 0.5 260 02:42 21.11.2019
4039 Clouds 4 1011 93 8000 1 270 02:24 21.11.2019
4040 Clouds 4 1012 93 10000 1 0 01:49 21.11.2019
4041 Clouds 4 1012 86 10000 1 290 01:20 21.11.2019
4042 Clouds 4 1012 86 10000 1 310 00:38 21.11.2019
4043 Clouds 4 1012 86 10000 1 0 00:20 21.11.2019
4044 Clouds 4 1013 86 10000 1.5 270 23:46 20.11.2019
4045 Clouds 4 1013 86 10000 1.5 290 23:21 20.11.2019
4046 Clouds 4 1013 86 10000 1.5 270 22:58 20.11.2019
4047 Clouds 4 1013 86 10000 1.5 270 22:38 20.11.2019
4048 Clouds 4 1013 86 10000 1.5 310 22:19 20.11.2019
4049 Clouds 4 1013 86 10000 1.5 290 21:58 20.11.2019
4050 Clouds 4 1013 86 10000 1.5 290 21:39 20.11.2019
4051 Clouds 4 1013 86 10000 2.1 280 21:20 20.11.2019
4052 Clouds 4 1013 86 10000 2.1 280 20:57 20.11.2019
4053 Clouds 4 1013 86 10000 1.5 280 20:38 20.11.2019
4054 Clouds 4 1013 86 10000 1.5 290 20:20 20.11.2019
4055 Clouds 4 1013 86 10000 1.5 290 20:20 20.11.2019
4056 Clouds 4 1014 86 10000 1.5 290 19:56 20.11.2019
4057 Clouds 4 1014 86 10000 1.5 290 19:37 20.11.2019
4058 Clouds 4 1014 86 10000 1.5 290 19:37 20.11.2019
4059 Clouds 4 1013 86 10000 2.1 290 19:18 20.11.2019
4060 Clouds 4 1013 86 10000 2.1 290 19:18 20.11.2019
4061 Clouds 4 1013 86 10000 2.1 290 18:58 20.11.2019
4062 Clouds 4 1014 80 10000 0.5 0 18:38 20.11.2019
4063 Clouds 4 1014 80 10000 1 90 18:20 20.11.2019
4064 Clouds 4 1014 75 10000 1 100 17:56 20.11.2019
4065 Clouds 4 1014 75 10000 1 100 17:56 20.11.2019
4066 Clouds 4 1014 75 10000 1 100 17:38 20.11.2019
4067 Clouds 4 1014 75 10000 2.6 90 17:19 20.11.2019
4068 Clouds 5 1014 75 10000 2.1 80 16:43 20.11.2019
4069 Clouds 5 1014 70 10000 2.6 80 16:21 20.11.2019
4070 Clouds 5 1014 65 10000 1.5 350 15:59 20.11.2019
4071 Clouds 5 1014 65 10000 1.5 350 15:41 20.11.2019
4072 Clouds 5 1014 65 10000 1.5 20 15:20 20.11.2019
4073 Clouds 5 1014 65 10000 1.5 20 14:58 20.11.2019
4074 Clouds 6 1014 65 10000 2.1 20 14:39 20.11.2019
4075 Clouds 5 1015 65 10000 2.1 20 14:21 20.11.2019
4076 Clouds 5 1015 65 10000 2.1 20 13:57 20.11.2019
4077 Clouds 6 1015 65 10000 1.5 70 13:38 20.11.2019
4078 Clouds 5 1015 70 10000 2.1 50 13:19 20.11.2019
4079 Clouds 5 1016 75 10000 1.5 310 12:43 20.11.2019
4080 Clouds 4 1016 86 10000 1 0 12:24 20.11.2019
4081 Clouds 4 1016 86 10000 1 0 11:58 20.11.2019
4082 Clouds 3 1016 93 8000 1.5 330 11:38 20.11.2019
4083 Clouds 3 1017 93 7000 2.1 350 11:20 20.11.2019
4084 Clouds 3 1017 93 7000 2.1 350 10:55 20.11.2019
4085 Mist 3 1017 100 5000 1.5 60 10:36 20.11.2019
4086 Mist 2 1017 100 2500 1.5 330 10:18 20.11.2019
4087 Mist 2 1017 100 1300 1.5 20 09:42 20.11.2019
4088 Mist 2 1017 93 1200 1.5 20 09:21 20.11.2019
4089 Mist 2 1017 100 1300 2.6 340 08:54 20.11.2019
4090 Mist 2 1017 100 1300 2.6 340 08:36 20.11.2019
4091 Mist 2 1017 100 1700 2.6 320 08:18 20.11.2019
4092 Mist 2 1017 100 5000 2.1 320 07:40 20.11.2019
4093 Clouds 2 1017 100 8000 2.1 310 07:21 20.11.2019
4094 Clouds 2 1017 100 8000 1 290 06:46 20.11.2019
4095 Clouds 2 1017 100 8000 2.1 290 06:19 20.11.2019
4096 Clouds 2 1018 93 7000 2.1 280 04:51 20.11.2019
4097 Clouds 3 1018 100 6000 1 0 02:48 20.11.2019
4098 Mist 3 1018 100 5000 2.1 280 01:52 20.11.2019
4099 Mist 3 1018 100 5000 2.1 250 01:20 20.11.2019
4100 Clouds 3 1018 100 8000 3.1 270 00:35 20.11.2019
4101 Clouds 3 1018 100 10000 2.1 300 23:46 19.11.2019
4102 Clouds 4 1018 93 10000 1.5 300 23:25 19.11.2019
4103 Clouds 4 1018 93 10000 1.5 300 22:57 19.11.2019
4104 Clouds 4 1018 86 10000 2.1 310 22:38 19.11.2019
4105 Clouds 4 1018 86 10000 1.5 290 22:19 19.11.2019
4106 Clouds 4 1018 86 10000 1.5 290 21:55 19.11.2019
4107 Clouds 4 1018 86 10000 0.5 330 21:37 19.11.2019
4108 Rain 4 1018 86 10000 1.5 290 21:19 19.11.2019
4109 Clouds 4 1018 86 10000 1.5 290 20:55 19.11.2019
4110 Clouds 4 1017 93 10000 0.5 20 20:36 19.11.2019
4111 Clouds 4 1017 93 10000 0.5 20 20:36 19.11.2019
4112 Clouds 4 1017 93 10000 0.5 20 20:36 19.11.2019
4113 Clouds 4 1017 80 10000 0.5 120 20:18 19.11.2019
4114 Clouds 5 1017 80 10000 0.5 120 19:54 19.11.2019
4115 Clouds 5 1018 86 10000 0.5 30 19:36 19.11.2019
4116 Clouds 5 1017 86 10000 0.5 10 19:18 19.11.2019
4117 Clouds 5 1017 86 10000 1 30 18:41 19.11.2019
4118 Clouds 5 1017 86 10000 0.5 340 18:21 19.11.2019
4119 Clouds 5 1017 86 10000 0.5 340 17:59 19.11.2019
4120 Clouds 5 1017 86 10000 1 40 17:41 19.11.2019
4121 Clouds 5 1017 86 10000 1 0 17:21 19.11.2019
4122 Clouds 5 1017 86 10000 1 0 16:59 19.11.2019
4123 Clouds 5 1017 86 10000 1 350 16:40 19.11.2019
4124 Clouds 5 1016 81 10000 0.5 30 16:20 19.11.2019
4125 Clouds 6 1016 81 10000 1 0 15:47 19.11.2019
4126 Clouds 6 1016 81 10000 1 0 15:27 19.11.2019
4127 Clouds 6 1016 81 10000 1 0 14:58 19.11.2019
4128 Clouds 6 1016 75 10000 1 0 14:39 19.11.2019
4129 Clouds 6 1016 75 10000 1 0 14:21 19.11.2019
4130 Clouds 6 1016 75 10000 1 0 13:42 19.11.2019
4131 Clouds 6 1016 75 10000 1 0 13:42 19.11.2019
4132 Clouds 6 1016 75 10000 1 0 13:42 19.11.2019
4133 Clouds 6 1016 75 10000 1 0 13:42 19.11.2019
4134 Clouds 6 1016 75 10000 1.5 260 13:22 19.11.2019
4135 Clouds 6 1016 75 10000 1 0 12:58 19.11.2019
4136 Clouds 6 1016 75 10000 1 0 12:39 19.11.2019
4137 Clouds 6 1016 75 10000 1 0 12:21 19.11.2019
4138 Clouds 5 1017 75 10000 1.5 140 11:56 19.11.2019
4139 Clouds 5 1017 75 10000 1.5 140 11:56 19.11.2019
4140 Clouds 5 1017 75 10000 1.5 140 11:37 19.11.2019
4141 Clouds 5 1017 75 10000 1 0 11:18 19.11.2019
4142 Clouds 5 1017 75 10000 1.5 130 10:44 19.11.2019
4143 Clouds 4 1017 80 10000 1.5 120 10:21 19.11.2019
4144 Clouds 4 1017 80 10000 2.6 130 09:45 19.11.2019
4145 Clouds 4 1017 80 10000 2.6 130 09:21 19.11.2019
4146 Clouds 4 1017 80 10000 2.6 130 08:58 19.11.2019
4147 Clouds 3 1016 80 10000 2.6 120 08:40 19.11.2019
4148 Clouds 3 1016 80 10000 2.6 120 08:21 19.11.2019
4149 Clouds 3 1016 80 10000 1 120 07:56 19.11.2019
4150 Clouds 4 1016 80 10000 1 120 07:36 19.11.2019
4151 Clouds 4 1015 80 10000 2.1 150 07:18 19.11.2019
4152 Clouds 4 1016 80 10000 2.1 160 06:42 19.11.2019
4153 Clouds 4 1015 80 10000 2.6 150 06:18 19.11.2019
4154 Clouds 4 1015 80 10000 2.6 150 06:18 19.11.2019
4155 Clouds 3 1015 80 10000 3.1 170 05:19 19.11.2019
4156 Clouds 4 1015 83 10000 5.1 170 03:40 19.11.2019
4157 Clouds 4 1015 83 10000 4.1 160 03:19 19.11.2019
4158 Clouds 4 1015 83 10000 4.1 170 02:47 19.11.2019
4159 Clouds 4 1015 81 10000 4.1 160 01:48 19.11.2019
4160 Clouds 3 1014 81 10000 4.1 120 00:48 19.11.2019
4161 Clouds 3 1014 80 10000 3.6 140 00:19 19.11.2019
4162 Clouds 3 1014 80 10000 3.1 160 23:40 18.11.2019
4163 Clouds 3 1014 81 10000 2.6 160 23:19 18.11.2019
4164 Clouds 3 1013 81 10000 2.6 140 22:46 18.11.2019
4165 Clouds 3 1013 81 10000 2.1 130 22:24 18.11.2019
4166 Clouds 3 1013 81 10000 2.1 130 21:58 18.11.2019
4167 Clouds 3 1013 81 10000 2.6 170 21:40 18.11.2019
4168 Clouds 3 1013 81 10000 2.6 180 21:21 18.11.2019
4169 Clouds 3 1013 81 10000 2.6 180 20:59 18.11.2019
4170 Clouds 3 1013 81 10000 2.6 180 20:59 18.11.2019
4171 Clouds 3 1012 81 10000 3.1 170 20:40 18.11.2019
4172 Clouds 3 1012 73 10000 3.1 180 20:19 18.11.2019
4173 Clouds 4 1012 73 10000 3.1 180 19:57 18.11.2019
4174 Clouds 3 1012 73 10000 2.6 180 19:38 18.11.2019
4175 Clouds 4 1012 73 10000 3.6 190 19:19 18.11.2019
4176 Clouds 4 1011 73 10000 2.6 180 18:56 18.11.2019
4177 Clouds 4 1011 73 10000 2.6 180 18:38 18.11.2019
4178 Clouds 4 1011 73 10000 2.6 180 18:19 18.11.2019
4179 Clouds 4 1011 73 10000 2.1 170 17:55 18.11.2019
4180 Clouds 4 1011 73 10000 2.1 170 17:36 18.11.2019
4181 Clouds 5 1011 67 10000 3.1 190 17:18 18.11.2019
4182 Clouds 5 1010 67 10000 3.6 210 16:42 18.11.2019
4183 Clouds 6 1010 67 10000 4.1 210 16:23 18.11.2019
4184 Clouds 6 1010 67 10000 4.1 210 15:56 18.11.2019
4185 Clouds 7 1010 67 10000 5.1 210 15:38 18.11.2019
4186 Clouds 7 1009 67 10000 5.1 220 15:20 18.11.2019
4187 Clouds 7 1009 67 10000 4.1 220 14:43 18.11.2019
4188 Clouds 7 1009 67 10000 4.1 220 14:24 18.11.2019
4189 Clouds 7 1009 65 10000 4.6 220 13:57 18.11.2019
4190 Clouds 7 1008 65 10000 3.6 230 13:39 18.11.2019
4191 Clouds 7 1008 65 10000 4.1 220 13:21 18.11.2019
4192 Clouds 6 1008 68 10000 6.2 210 12:39 18.11.2019
4193 Clouds 6 1008 65 10000 5.7 200 12:20 18.11.2019
4194 Clouds 6 1008 65 10000 5.1 170 11:54 18.11.2019
4195 Clouds 6 1008 75 10000 4.1 180 11:36 18.11.2019
4196 Clouds 6 1008 75 10000 4.1 180 11:18 18.11.2019
4197 Clouds 5 1008 81 10000 3.6 190 10:42 18.11.2019
4198 Clouds 5 1008 81 10000 3.6 190 10:42 18.11.2019
4199 Clouds 5 1008 86 10000 3.1 180 10:23 18.11.2019
4200 Clouds 5 1007 86 10000 3.1 190 09:56 18.11.2019
4201 Clouds 5 1007 86 10000 3.1 190 09:38 18.11.2019
4202 Clouds 5 1007 86 10000 3.6 190 09:19 18.11.2019
4203 Clouds 4 1007 86 10000 4.1 190 08:45 18.11.2019
4204 Clouds 4 1006 86 10000 2.6 200 08:22 18.11.2019
4205 Clouds 4 1006 80 10000 3.6 200 07:49 18.11.2019
4206 Clouds 4 1006 80 10000 2.1 200 07:30 18.11.2019
4207 Clouds 5 1005 86 10000 1.5 190 06:56 18.11.2019
4208 Clouds 5 1005 86 10000 1.5 190 06:37 18.11.2019
4209 Clouds 5 1005 86 10000 1.5 170 06:19 18.11.2019
4210 Clouds 5 1005 86 10000 2.1 180 05:25 18.11.2019
4211 Clouds 5 1004 86 10000 3.6 210 03:28 18.11.2019
4212 Clouds 6 1003 100 7000 2.1 220 01:33 18.11.2019
4213 Mist 6 1003 93 5000 3.6 200 00:40 18.11.2019
4214 Clouds 6 1003 100 6000 2.1 180 23:56 17.11.2019
4215 Clouds 6 1003 100 6000 2.1 180 23:38 17.11.2019
4216 Clouds 5 1003 100 6000 2.1 170 23:18 17.11.2019
4217 Clouds 6 1002 100 6000 1.5 150 22:41 17.11.2019
4218 Clouds 5 1002 100 6000 2.1 190 22:23 17.11.2019
4219 Clouds 5 1002 100 6000 2.1 190 21:59 17.11.2019
4220 Mist 5 1002 100 5000 2.1 190 21:41 17.11.2019
4221 Mist 5 1002 100 3000 2.6 200 21:19 17.11.2019
4222 Fog 6 1001 100 1500 1 140 20:57 17.11.2019
4223 Fog 6 1001 100 1500 1 140 20:38 17.11.2019
4224 Fog 6 1002 100 5000 1.5 240 20:20 17.11.2019
4225 Fog 6 1002 100 5000 1.5 240 20:20 17.11.2019
4226 Fog 6 1002 100 5000 1.5 240 20:20 17.11.2019
4227 Clouds 6 1001 100 8000 1.5 290 19:56 17.11.2019
4228 Clouds 6 1001 100 8000 1.5 290 19:38 17.11.2019
4229 Clouds 6 1001 93 8000 2.1 250 19:20 17.11.2019
4230 Clouds 7 1000 93 8000 2.1 250 18:56 17.11.2019
4231 Clouds 7 1000 93 8000 2.1 250 18:38 17.11.2019
4232 Clouds 7 1001 93 10000 1 0 18:19 17.11.2019
4233 Clouds 7 1001 93 10000 1 0 17:57 17.11.2019
4234 Clouds 7 1001 100 10000 1.5 260 17:39 17.11.2019
4235 Clouds 7 1001 93 10000 1 0 17:20 17.11.2019
4236 Clouds 8 1001 93 10000 1 0 16:58 17.11.2019
4237 Clouds 8 1000 87 10000 1 0 16:40 17.11.2019
4238 Clouds 8 1001 87 10000 1.5 60 16:21 17.11.2019
4239 Clouds 9 1001 81 10000 1 0 15:55 17.11.2019
4240 Clouds 9 1001 81 10000 1 0 15:36 17.11.2019
4241 Clouds 9 1001 81 10000 1 0 15:36 17.11.2019
4242 Clouds 9 1002 81 10000 1.5 50 15:18 17.11.2019
4243 Clouds 9 1002 81 10000 1.5 50 14:55 17.11.2019
4244 Clouds 9 1001 81 10000 2.1 50 14:37 17.11.2019
4245 Clouds 9 1002 81 10000 2.1 80 14:18 17.11.2019
4246 Clouds 8 1002 81 10000 2.1 80 13:54 17.11.2019
4247 Clouds 7 1002 87 10000 1.5 20 13:36 17.11.2019
4248 Clouds 7 1004 93 10000 0.5 0 13:18 17.11.2019
4249 Clouds 7 1004 87 10000 2.1 20 12:39 17.11.2019
4250 Clouds 7 1005 93 9000 1.5 340 12:21 17.11.2019
4251 Clouds 7 1005 93 9000 1.5 340 12:21 17.11.2019
4252 Clouds 6 1006 93 9000 2.6 340 11:56 17.11.2019
4253 Clouds 6 1006 93 9000 2.6 340 11:38 17.11.2019
4254 Clouds 6 1006 100 8000 2.6 340 11:19 17.11.2019
4255 Clouds 5 1006 93 7000 3.6 330 10:43 17.11.2019
4256 Clouds 5 1006 93 7000 3.6 330 10:23 17.11.2019
4257 Clouds 4 1007 100 6000 3.1 320 09:43 17.11.2019
4258 Clouds 4 1007 93 6000 2.6 320 09:25 17.11.2019
4259 Clouds 3 1007 93 6000 2.6 320 08:58 17.11.2019
4260 Clouds 3 1008 100 7000 2.6 320 08:37 17.11.2019
4261 Rain 3 1008 100 7000 2.6 330 08:19 17.11.2019
4262 Rain 3 1008 100 7000 2.6 330 07:45 17.11.2019
4263 Rain 2 1008 100 8000 2.1 360 07:22 17.11.2019
4264 Rain 2 1009 100 10000 2.6 320 06:56 17.11.2019
4265 Rain 2 1009 100 10000 2.6 320 06:30 17.11.2019
4266 Clouds 2 1010 93 10000 1.5 340 05:39 17.11.2019
4267 Clouds 2 1011 100 10000 0.5 190 04:20 17.11.2019
4268 Clouds 1 1011 100 10000 1 120 03:42 17.11.2019
4269 Clouds 1 1011 93 10000 1.5 330 03:23 17.11.2019
4270 Clouds 1 1012 93 10000 1.5 120 02:19 17.11.2019
4271 Clouds 1 1012 93 10000 1.5 90 01:22 17.11.2019
4272 Clouds 2 1013 93 10000 1 90 00:43 17.11.2019
4273 Clouds 2 1013 93 10000 2.1 80 00:21 17.11.2019
4274 Clouds 2 1013 93 10000 2.6 80 23:42 16.11.2019
4275 Clouds 2 1013 93 10000 2.6 100 23:19 16.11.2019
4276 Clouds 2 1013 93 10000 2.6 100 22:56 16.11.2019
4277 Clouds 2 1013 93 10000 0.5 0 22:38 16.11.2019
4278 Clouds 2 1013 93 10000 1 0 22:18 16.11.2019
4279 Clouds 3 1013 93 10000 1 0 21:41 16.11.2019
4280 Clouds 2 1014 100 10000 1 0 21:23 16.11.2019
4281 Clouds 2 1014 100 10000 1 0 20:58 16.11.2019
4282 Clouds 2 1013 100 10000 3.6 110 20:39 16.11.2019
4283 Clouds 2 1013 93 10000 4.1 100 20:19 16.11.2019
4284 Clouds 3 1013 93 10000 4.1 100 19:56 16.11.2019
4285 Clouds 3 1013 93 10000 2.1 110 19:37 16.11.2019
4286 Clouds 3 1012 93 10000 1 0 19:19 16.11.2019
4287 Clouds 4 1012 86 10000 1.5 100 18:43 16.11.2019
4288 Clouds 4 1012 80 10000 1 100 18:25 16.11.2019
4289 Clouds 5 1012 75 10000 2.6 120 17:56 16.11.2019
4290 Clouds 5 1012 75 10000 2.6 120 17:56 16.11.2019
4291 Clouds 5 1012 75 10000 2.6 120 17:37 16.11.2019
4292 Clouds 6 1012 75 10000 3.1 120 17:18 16.11.2019
4293 Clouds 6 1012 75 10000 3.1 130 16:45 16.11.2019
4294 Clouds 6 1012 75 10000 3.1 130 16:27 16.11.2019
4295 Clouds 6 1011 75 10000 3.1 120 15:56 16.11.2019
4296 Clouds 6 1011 75 10000 1.5 160 15:37 16.11.2019
4297 Clouds 6 1010 70 10000 1 0 15:19 16.11.2019
4298 Clouds 7 1010 75 10000 1 0 14:41 16.11.2019
4299 Clouds 6 1010 75 10000 1 0 14:22 16.11.2019
4300 Clouds 6 1010 75 10000 1 0 14:22 16.11.2019
4301 Clouds 7 1010 70 10000 2.1 140 13:57 16.11.2019
4302 Clouds 6 1010 70 10000 2.1 140 13:39 16.11.2019
4303 Clouds 6 1010 70 10000 2.1 140 13:39 16.11.2019
4304 Clouds 6 1010 75 10000 1 0 13:19 16.11.2019
4305 Clouds 6 1010 75 10000 1 0 12:59 16.11.2019
4306 Clouds 6 1010 75 10000 1.5 240 12:40 16.11.2019
4307 Clouds 6 1009 81 10000 1.5 210 12:20 16.11.2019
4308 Clouds 5 1009 81 10000 1.5 210 11:45 16.11.2019
4309 Clouds 6 1009 81 10000 2.1 200 11:27 16.11.2019
4310 Clouds 5 1008 81 10000 2.1 210 10:58 16.11.2019
4311 Clouds 5 1008 81 10000 2.1 210 10:39 16.11.2019
4312 Clouds 5 1008 81 10000 2.1 190 10:21 16.11.2019
4313 Clouds 5 1008 86 10000 2.6 200 09:44 16.11.2019
4314 Clouds 4 1008 86 10000 1.5 170 09:21 16.11.2019
4315 Clouds 4 1008 86 10000 1.5 170 08:59 16.11.2019
4316 Clouds 4 1007 93 10000 0.5 0 08:39 16.11.2019
4317 Clouds 4 1007 93 10000 1.5 290 08:19 16.11.2019
4318 Clouds 4 1006 93 10000 1 230 07:43 16.11.2019
4319 Clouds 4 1006 93 10000 1.5 250 07:21 16.11.2019
4320 Clouds 4 1005 93 10000 2.6 270 06:54 16.11.2019
4321 Clouds 4 1005 93 10000 2.6 280 06:33 16.11.2019
4322 Clouds 4 1005 93 9000 2.6 280 05:40 16.11.2019
4323 Clouds 4 1004 93 8000 2.6 290 03:49 16.11.2019
4324 Rain 4 1004 93 6000 3.1 280 03:25 16.11.2019
4325 Rain 4 1004 93 6000 3.1 280 03:25 16.11.2019
4326 Rain 4 1004 93 6000 3.1 280 03:25 16.11.2019
4327 Clouds 5 1003 93 10000 4.1 260 01:52 16.11.2019
4328 Rain 5 1002 86 10000 3.6 260 01:20 16.11.2019
4329 Clouds 5 1002 93 10000 2.1 280 00:46 16.11.2019
4330 Clouds 5 1002 93 10000 2.1 290 00:26 16.11.2019
4331 Rain 5 1001 93 10000 3.1 280 23:40 15.11.2019
4332 Rain 5 1002 100 10000 1 0 23:21 15.11.2019
4333 Rain 5 1003 86 10000 1 0 22:55 15.11.2019
4334 Rain 5 1003 86 10000 1 0 22:37 15.11.2019
4335 Rain 5 1002 86 10000 2.6 20 22:18 15.11.2019
4336 Rain 5 1003 80 10000 1.5 360 21:42 15.11.2019
4337 Rain 5 1003 80 10000 3.1 20 21:21 15.11.2019
4338 Clouds 5 1003 80 10000 3.1 20 20:59 15.11.2019
4339 Clouds 5 1003 75 10000 3.6 340 20:40 15.11.2019
4340 Clouds 5 1003 86 10000 2.1 320 20:22 15.11.2019
4341 Clouds 5 1003 86 10000 2.1 320 19:59 15.11.2019
4342 Clouds 5 1003 86 10000 1 0 19:41 15.11.2019
4343 Clouds 5 1003 86 10000 1 0 19:21 15.11.2019
4344 Clouds 5 1003 86 10000 1 0 18:58 15.11.2019
4345 Clouds 6 1004 75 10000 0.5 0 18:40 15.11.2019
4346 Clouds 6 1002 81 10000 2.1 280 18:21 15.11.2019
4347 Clouds 6 1003 75 10000 2.6 250 17:43 15.11.2019
4348 Clouds 6 1002 75 10000 3.6 240 17:25 15.11.2019
4349 Clouds 7 1002 75 10000 3.6 240 16:58 15.11.2019
4350 Clouds 7 1002 75 10000 3.6 240 16:58 15.11.2019
4351 Clouds 7 1002 81 10000 2.1 220 16:39 15.11.2019
4352 Clouds 7 1001 75 10000 1 0 16:20 15.11.2019
4353 Clouds 7 1001 75 10000 0.5 0 15:39 15.11.2019
4354 Clouds 7 1001 75 10000 0.5 0 15:39 15.11.2019
4355 Clouds 7 1001 75 10000 0.5 0 15:21 15.11.2019
4356 Clouds 8 1001 75 10000 0.5 0 14:58 15.11.2019
4357 Clouds 8 1001 75 10000 1 0 14:40 15.11.2019
4358 Clouds 8 1001 75 10000 0.5 0 14:21 15.11.2019
4359 Clouds 8 1001 75 10000 0.5 0 13:59 15.11.2019
4360 Clouds 8 1001 70 10000 2.6 270 13:40 15.11.2019
4361 Clouds 8 1000 70 10000 2.1 240 13:21 15.11.2019
4362 Clouds 8 1000 70 10000 2.1 240 12:59 15.11.2019
4363 Clouds 9 1000 61 10000 4.6 240 12:41 15.11.2019
4364 Clouds 9 1000 61 10000 4.6 240 12:41 15.11.2019
4365 Clouds 9 1000 57 10000 4.1 200 12:21 15.11.2019
4366 Clouds 9 1000 57 10000 4.1 200 11:59 15.11.2019
4367 Clouds 9 998 62 10000 4.6 120 11:39 15.11.2019
4368 Clouds 8 998 66 10000 2.6 100 11:21 15.11.2019
4369 Clouds 8 998 66 10000 2.6 100 10:57 15.11.2019
4370 Clouds 8 997 70 10000 3.1 90 10:39 15.11.2019
4371 Clouds 7 997 70 10000 5.1 100 10:19 15.11.2019
4372 Clouds 7 997 75 10000 4.6 90 09:41 15.11.2019
4373 Clouds 6 997 75 10000 5.1 90 09:20 15.11.2019
4374 Clouds 6 997 75 10000 5.1 90 09:20 15.11.2019
4375 Clouds 5 997 75 0 6.2 90 08:45 15.11.2019
4376 Clouds 4 996 75 10000 5.1 90 08:25 15.11.2019
4377 Clouds 4 996 80 10000 5.1 90 07:54 15.11.2019
4378 Clouds 3 996 80 10000 5.1 90 07:36 15.11.2019
4379 Clouds 3 997 80 10000 3.6 80 07:18 15.11.2019
4380 Clouds 3 997 80 10000 4.6 80 06:34 15.11.2019
4381 Clouds 3 998 86 10000 4.1 90 05:50 15.11.2019
4382 Clouds 3 998 86 10000 4.1 90 05:28 15.11.2019
4383 Clouds 2 998 80 10000 3.1 80 04:40 15.11.2019
4384 Clouds 2 999 80 10000 5.1 80 03:32 15.11.2019
4385 Clouds 2 1000 80 10000 4.1 90 02:23 15.11.2019
4386 Clouds 2 1000 80 10000 5.7 90 01:36 15.11.2019
4387 Clouds 2 1000 80 10000 5.7 90 01:36 15.11.2019
4388 Clouds 2 1000 84 10000 5.7 90 01:18 15.11.2019
4389 Clouds 2 1001 84 10000 5.7 90 00:34 15.11.2019
4390 Clouds 2 1001 84 10000 4.6 80 23:57 14.11.2019
4391 Clouds 2 1001 84 10000 4.6 80 23:38 14.11.2019
4392 Clouds 2 1001 85 10000 5.7 80 23:18 14.11.2019
4393 Clouds 2 1001 85 10000 4.1 80 22:40 14.11.2019
4394 Clouds 2 1002 85 10000 4.6 90 22:21 14.11.2019
4395 Clouds 2 1002 85 10000 4.6 90 22:21 14.11.2019
4396 Clouds 2 1002 85 10000 4.6 90 21:57 14.11.2019
4397 Clouds 2 1002 85 10000 4.1 80 21:38 14.11.2019
4398 Clouds 2 1002 85 10000 4.1 80 21:38 14.11.2019
4399 Clouds 2 1002 85 10000 5.1 90 21:20 14.11.2019
4400 Clouds 2 1003 85 10000 4.6 80 20:42 14.11.2019
4401 Clear 2 1003 83 10000 4.1 90 20:24 14.11.2019
4402 Clouds 2 1003 83 10000 4.1 90 19:59 14.11.2019
4403 Clouds 2 1003 83 10000 4.6 90 19:41 14.11.2019
4404 Clouds 2 1003 83 10000 5.7 90 19:18 14.11.2019
4405 Clouds 3 1003 83 10000 5.1 80 18:56 14.11.2019
4406 Clouds 3 1003 83 10000 5.1 80 18:56 14.11.2019
4407 Clouds 3 1003 83 10000 5.1 80 18:38 14.11.2019
4408 Clouds 4 1003 75 10000 4.6 90 18:20 14.11.2019
4409 Clouds 4 1003 75 10000 4.6 90 17:56 14.11.2019
4410 Clouds 4 1003 75 10000 3.6 80 17:37 14.11.2019
4411 Clouds 5 1003 75 10000 3.6 80 17:18 14.11.2019
4412 Clouds 5 1003 70 10000 3.1 90 16:57 14.11.2019
4413 Clouds 5 1003 70 10000 3.1 90 16:36 14.11.2019
4414 Clouds 6 1003 65 10000 4.6 90 16:18 14.11.2019
4415 Clouds 7 1003 61 10000 5.7 100 15:54 14.11.2019
4416 Clouds 7 1003 61 10000 5.7 100 15:36 14.11.2019
4417 Clouds 7 1004 65 10000 4.6 90 15:18 14.11.2019
4418 Clouds 7 1004 61 10000 4.6 100 14:43 14.11.2019
4419 Clouds 8 1005 61 10000 5.7 110 14:22 14.11.2019
4420 Clouds 7 1005 62 10000 5.1 100 13:56 14.11.2019
4421 Clouds 8 1005 62 10000 5.1 100 13:37 14.11.2019
4422 Clouds 7 1005 61 10000 5.1 110 13:19 14.11.2019
4423 Clouds 6 1005 65 10000 5.1 110 12:46 14.11.2019
4424 Clouds 6 1005 65 10000 5.1 110 12:26 14.11.2019
4425 Clouds 6 1005 70 10000 4.6 110 11:58 14.11.2019
4426 Clouds 6 1005 70 10000 4.6 110 11:58 14.11.2019
4427 Clouds 6 1005 70 10000 5.7 110 11:38 14.11.2019
4428 Clouds 5 1006 75 10000 5.1 110 11:19 14.11.2019
4429 Clouds 4 1006 75 10000 5.1 110 10:57 14.11.2019
4430 Clouds 4 1006 80 10000 4.6 110 10:38 14.11.2019
4431 Clouds 3 1006 80 10000 4.1 100 10:19 14.11.2019
4432 Clouds 3 1006 80 10000 4.1 100 09:56 14.11.2019
4433 Clouds 3 1006 86 10000 4.6 110 09:37 14.11.2019
4434 Clouds 1 1006 71 10000 1.5 100 09:18 14.11.2019
4435 Clouds 1 1006 71 10000 1.5 100 08:46 14.11.2019
4436 Clouds 1 1006 71 10000 1.5 100 08:46 14.11.2019
4437 Clouds 1 1006 74 10000 1.5 100 08:24 14.11.2019
4438 Clouds 0 1005 92 10000 3.6 100 07:43 14.11.2019
4439 Clouds 0 1005 92 10000 4.1 110 07:25 14.11.2019
4440 Clear 0 1005 100 10000 4.1 100 06:55 14.11.2019
4441 Clear 0 1005 100 10000 4.1 100 06:36 14.11.2019
4442 Clear 0 1005 100 10000 4.1 100 06:18 14.11.2019
4443 Clear 1 1004 87 10000 4.1 100 04:39 14.11.2019
4444 Clear 1 1005 87 10000 3.1 100 03:50 14.11.2019
4445 Clouds 2 1005 93 10000 3.1 100 02:41 14.11.2019
4446 Clouds 3 1005 86 10000 3.6 120 01:41 14.11.2019
4447 Clouds 3 1005 86 10000 2.6 120 00:58 14.11.2019
4448 Clouds 3 1005 86 10000 2.6 120 00:40 14.11.2019
4449 Clouds 3 1005 86 10000 2.6 120 00:40 14.11.2019
4450 Clouds 3 1005 86 10000 2.6 120 00:40 14.11.2019
4451 Clouds 3 1005 86 10000 2.6 120 00:20 14.11.2019
4452 Clouds 3 1005 86 10000 2.1 150 23:39 13.11.2019
4453 Clouds 3 1005 86 10000 2.6 160 23:20 13.11.2019
4454 Clouds 3 1006 86 10000 1.5 150 22:55 13.11.2019
4455 Clouds 3 1006 86 10000 1.5 150 22:37 13.11.2019
4456 Clouds 4 1005 80 10000 1.5 200 22:19 13.11.2019
4457 Clouds 4 1005 80 10000 1.5 200 22:19 13.11.2019
4458 Clouds 4 1005 80 10000 1.5 200 21:55 13.11.2019
4459 Clouds 4 1005 80 10000 2.1 220 21:37 13.11.2019
4460 Clouds 4 1005 80 10000 1.5 220 21:18 13.11.2019
4461 Clouds 4 1005 80 10000 1.5 220 20:55 13.11.2019
4462 Clouds 4 1005 80 10000 1.5 260 20:37 13.11.2019
4463 Clouds 4 1005 80 10000 1.5 260 20:37 13.11.2019
4464 Clouds 4 1005 80 10000 1.5 230 20:18 13.11.2019
4465 Clouds 4 1005 80 10000 1.5 230 20:18 13.11.2019
4466 Clouds 4 1005 80 10000 0.5 260 19:42 13.11.2019
4467 Clouds 4 1005 80 10000 1 290 19:19 13.11.2019
4468 Clouds 5 1005 80 10000 2.6 290 18:56 13.11.2019
4469 Clouds 5 1005 80 10000 2.6 290 18:56 13.11.2019
4470 Clouds 5 1005 80 10000 2.6 290 18:38 13.11.2019
4471 Clouds 5 1004 70 10000 3.1 270 18:19 13.11.2019
4472 Clouds 5 1004 70 10000 1.5 220 17:57 13.11.2019
4473 Clouds 5 1004 70 10000 1.5 220 17:38 13.11.2019
4474 Clouds 5 1004 70 10000 1.5 220 17:19 13.11.2019
4475 Clouds 5 1004 73 10000 2.6 230 16:58 13.11.2019
4476 Clouds 5 1004 73 10000 2.6 230 16:39 13.11.2019
4477 Clouds 6 1004 73 10000 3.1 240 16:21 13.11.2019
4478 Clouds 6 1004 73 10000 3.1 240 15:57 13.11.2019
4479 Clouds 6 1004 73 10000 3.1 240 15:38 13.11.2019
4480 Clouds 6 1004 73 10000 4.6 230 15:19 13.11.2019
4481 Clouds 6 1003 65 10000 2.6 240 14:42 13.11.2019
4482 Clouds 6 1003 65 10000 3.1 230 14:21 13.11.2019
4483 Clouds 6 1003 70 10000 2.6 240 13:56 13.11.2019
4484 Clouds 6 1003 70 10000 2.6 240 13:36 13.11.2019
4485 Clouds 6 1003 70 10000 2.6 240 13:36 13.11.2019
4486 Clouds 6 1004 75 10000 2.1 260 13:18 13.11.2019
4487 Clouds 6 1003 75 10000 2.1 240 12:42 13.11.2019
4488 Clouds 6 1004 70 10000 1.5 250 12:24 13.11.2019
4489 Clouds 5 1004 70 10000 1.5 250 11:58 13.11.2019
4490 Clouds 5 1004 75 10000 2.1 220 11:38 13.11.2019
4491 Clouds 5 1004 75 10000 2.1 240 11:19 13.11.2019
4492 Clouds 5 1004 75 10000 2.1 240 10:56 13.11.2019
4493 Clouds 4 1004 80 10000 1.5 210 10:38 13.11.2019
4494 Clouds 4 1004 86 10000 1.5 180 10:19 13.11.2019
4495 Clouds 4 1004 86 10000 2.1 200 09:43 13.11.2019
4496 Clouds 3 1004 86 10000 2.1 160 09:21 13.11.2019
4497 Clouds 3 1004 86 10000 2.1 160 09:21 13.11.2019
4498 Clouds 3 1004 86 10000 2.1 160 09:21 13.11.2019
4499 Clouds 3 1004 86 10000 2.1 160 09:21 13.11.2019
4500 Clouds 3 1003 86 10000 2.6 170 08:44 13.11.2019
4501 Clouds 3 1003 86 10000 2.6 170 08:26 13.11.2019
4502 Rain 3 1003 86 10000 2.1 170 07:59 13.11.2019
4503 Rain 3 1003 86 10000 2.1 140 07:40 13.11.2019
4504 Rain 3 1003 93 10000 3.1 150 07:19 13.11.2019
4505 Clouds 3 1003 86 10000 2.6 130 06:42 13.11.2019
4506 Rain 3 1003 86 10000 3.1 140 06:19 13.11.2019
4507 Rain 3 1003 86 10000 3.1 140 06:19 13.11.2019
4508 Rain 3 1003 86 10000 3.1 140 06:19 13.11.2019
4509 Clouds 3 1003 86 10000 3.1 140 05:48 13.11.2019
4510 Clouds 3 1003 86 10000 3.1 150 05:22 13.11.2019
4511 Clouds 3 1003 86 10000 3.1 140 03:57 13.11.2019
4512 Clouds 3 1003 86 10000 3.1 130 01:52 13.11.2019
4513 Clouds 3 1003 86 10000 3.1 130 01:27 13.11.2019
4514 Clouds 3 1003 86 10000 3.1 130 01:27 13.11.2019
4515 Clouds 3 1003 86 10000 3.1 130 01:27 13.11.2019
4516 Clouds 3 1004 93 10000 3.6 100 00:43 13.11.2019
4517 Rain 3 1004 93 10000 3.1 120 23:57 12.11.2019
4518 Rain 3 1004 93 10000 2.6 120 23:39 12.11.2019
4519 Clouds 3 1003 93 10000 3.1 120 23:19 12.11.2019
4520 Clouds 3 1004 86 10000 2.1 120 22:42 12.11.2019
4521 Clouds 4 1004 80 10000 1.5 140 22:19 12.11.2019
4522 Clouds 4 1004 80 10000 1.5 140 21:56 12.11.2019
4523 Clouds 4 1005 86 10000 2.1 160 21:38 12.11.2019
4524 Clouds 4 1005 86 10000 2.1 160 21:38 12.11.2019
4525 Clouds 4 1005 86 10000 3.1 140 21:19 12.11.2019
4526 Clouds 4 1005 86 10000 3.1 140 20:55 12.11.2019
4527 Clouds 4 1005 86 10000 3.1 130 20:36 12.11.2019
4528 Clouds 4 1005 86 10000 4.1 120 20:18 12.11.2019
4529 Clouds 4 1005 86 10000 4.1 120 19:55 12.11.2019
4530 Clouds 4 1005 80 10000 2.6 130 19:37 12.11.2019
4531 Clouds 4 1005 80 10000 3.6 120 19:18 12.11.2019
4532 Clouds 4 1005 80 10000 3.1 140 18:55 12.11.2019
4533 Clouds 4 1005 80 10000 3.1 140 18:36 12.11.2019
4534 Clouds 4 1005 80 10000 2.6 160 18:18 12.11.2019
4535 Clouds 4 1005 80 10000 3.6 160 17:55 12.11.2019
4536 Clouds 4 1005 80 10000 3.6 160 17:36 12.11.2019
4537 Clouds 5 1006 75 10000 3.6 170 17:18 12.11.2019
4538 Clouds 6 1006 70 10000 3.6 190 16:41 12.11.2019
4539 Clouds 6 1005 70 10000 3.6 160 16:23 12.11.2019
4540 Clouds 6 1005 70 10000 3.6 170 15:42 12.11.2019
4541 Clouds 7 1006 65 10000 3.1 180 15:23 12.11.2019
4542 Clouds 7 1006 70 10000 4.6 180 14:58 12.11.2019
4543 Clouds 7 1006 70 10000 4.6 180 14:39 12.11.2019
4544 Clouds 7 1006 70 10000 3.6 180 14:20 12.11.2019
4545 Clouds 7 1006 70 10000 3.6 180 13:58 12.11.2019
4546 Clouds 7 1006 70 10000 3.6 170 13:39 12.11.2019
4547 Clouds 7 1006 70 10000 3.1 170 13:19 12.11.2019
4548 Clouds 6 1007 81 10000 3.6 170 12:55 12.11.2019
4549 Clouds 6 1007 81 10000 3.6 170 12:37 12.11.2019
4550 Clouds 6 1007 81 10000 3.6 180 12:18 12.11.2019
4551 Clouds 5 1008 81 10000 4.6 150 11:42 12.11.2019
4552 Clouds 5 1008 86 10000 4.1 160 11:22 12.11.2019
4553 Clouds 5 1008 86 10000 4.1 160 10:57 12.11.2019
4554 Clouds 4 1008 86 10000 4.1 160 10:39 12.11.2019
4555 Clouds 4 1008 86 10000 4.1 160 10:39 12.11.2019
4556 Clouds 4 1008 86 10000 4.1 160 10:39 12.11.2019
4557 Clouds 4 1008 86 10000 3.1 160 10:21 12.11.2019
4558 Clouds 4 1008 86 10000 3.6 150 09:57 12.11.2019
4559 Clouds 4 1008 86 10000 3.6 150 09:38 12.11.2019
4560 Clouds 4 1009 93 10000 3.6 150 09:18 12.11.2019
4561 Clouds 3 1009 93 10000 2.6 140 08:42 12.11.2019
4562 Clouds 3 1008 93 10000 3.1 170 08:24 12.11.2019
4563 Clouds 3 1008 93 10000 3.6 160 07:41 12.11.2019
4564 Clouds 3 1008 93 10000 3.1 170 07:23 12.11.2019
4565 Clouds 3 1008 93 10000 3.1 170 06:47 12.11.2019
4566 Clouds 3 1008 93 10000 2.6 170 06:23 12.11.2019
4567 Rain 3 1008 93 10000 3.1 180 05:52 12.11.2019
4568 Rain 3 1008 93 10000 3.1 160 04:50 12.11.2019
4569 Drizzle 3 1007 93 10000 2.6 140 03:53 12.11.2019
4570 Drizzle 3 1008 93 9000 3.1 160 03:53 12.11.2019
4571 Clouds 2 1007 86 10000 2.6 140 01:50 12.11.2019
4572 Rain 2 1007 93 10000 2.6 120 01:23 12.11.2019
4573 Clouds 2 1007 74 10000 2.6 140 00:52 12.11.2019
4574 Clouds 2 1007 74 10000 2.6 140 00:32 12.11.2019
4575 Clouds 2 1007 74 10000 2.1 130 23:49 11.11.2019
4576 Clouds 2 1007 69 10000 1.5 170 23:25 11.11.2019
4577 Clouds 2 1007 69 10000 1.5 170 23:25 11.11.2019
4578 Clouds 2 1007 69 10000 5.7 120 22:58 11.11.2019
4579 Clouds 2 1007 69 10000 5.7 120 22:38 11.11.2019
4580 Clouds 2 1007 69 10000 5.7 150 22:19 11.11.2019
4581 Clouds 2 1007 69 10000 5.7 150 21:57 11.11.2019
4582 Clouds 2 1007 69 10000 3.6 150 21:38 11.11.2019
4583 Clouds 2 1008 69 10000 4.1 150 21:19 11.11.2019
4584 Clouds 2 1008 69 10000 4.1 190 20:44 11.11.2019
4585 Clouds 2 1008 72 10000 3.6 160 20:21 11.11.2019
4586 Clouds 2 1008 72 10000 3.6 160 19:59 11.11.2019
4587 Clouds 2 1008 72 10000 5.1 170 19:41 11.11.2019
4588 Clouds 2 1008 72 10000 4.1 180 19:19 11.11.2019
4589 Clouds 2 1008 72 10000 4.1 180 18:56 11.11.2019
4590 Clouds 2 1008 72 10000 4.1 160 18:38 11.11.2019
4591 Clouds 2 1008 72 10000 3.6 140 18:19 11.11.2019
4592 Clouds 2 1008 72 10000 3.6 140 17:42 11.11.2019
4593 Clouds 2 1008 65 10000 5.1 130 17:24 11.11.2019
4594 Clouds 2 1008 65 10000 3.6 160 16:44 11.11.2019
4595 Clouds 3 1008 65 10000 3.1 150 16:24 11.11.2019
4596 Clouds 3 1008 65 10000 3.1 150 15:59 11.11.2019
4597 Clouds 3 1008 65 10000 4.1 140 15:40 11.11.2019
4598 Clouds 3 1009 65 10000 4.6 130 15:20 11.11.2019
4599 Clouds 3 1009 65 10000 3.6 150 14:45 11.11.2019
4600 Clouds 3 1009 56 10000 3.1 150 14:25 11.11.2019
4601 Clouds 3 1009 56 10000 3.1 150 13:59 11.11.2019
4602 Clouds 3 1010 56 10000 3.6 150 13:38 11.11.2019
4603 Clouds 3 1010 56 10000 4.1 170 13:20 11.11.2019
4604 Clouds 2 1010 56 10000 4.1 170 12:58 11.11.2019
4605 Clouds 2 1011 56 10000 4.6 160 12:39 11.11.2019
4606 Clouds 3 1011 56 10000 5.7 130 12:21 11.11.2019
4607 Clouds 2 1012 56 10000 5.1 140 11:43 11.11.2019
4608 Clouds 2 1012 68 10000 5.1 140 11:22 11.11.2019
4609 Clouds 2 1012 68 10000 5.1 140 10:59 11.11.2019
4610 Clouds 2 1013 68 10000 4.6 140 10:41 11.11.2019
4611 Clouds 2 1013 68 10000 4.1 150 10:18 11.11.2019
4612 Clouds 2 1014 68 10000 4.1 140 09:56 11.11.2019
4613 Clouds 2 1014 68 10000 4.1 140 09:36 11.11.2019
4614 Clouds 1 1014 68 10000 4.6 120 09:18 11.11.2019
4615 Clouds 1 1014 68 9000 3.1 140 08:39 11.11.2019
4616 Clouds 1 1014 84 9000 4.1 130 08:20 11.11.2019
4617 Clouds 1 1014 84 9000 4.1 130 07:56 11.11.2019
4618 Clouds 1 1014 84 9000 4.1 120 07:37 11.11.2019
4619 Clouds 1 1014 84 9000 4.1 120 07:37 11.11.2019
4620 Clouds 1 1014 84 9000 4.1 130 07:18 11.11.2019
4621 Clouds 1 1014 84 9000 5.1 140 06:44 11.11.2019
4622 Clouds 1 1015 84 10000 4.6 140 06:21 11.11.2019
4623 Clouds 1 1015 84 10000 3.6 130 05:50 11.11.2019
4624 Clouds 1 1015 84 10000 1.5 130 04:29 11.11.2019
4625 Clouds 1 1015 93 10000 1.5 90 03:22 11.11.2019
4626 Clouds 1 1015 100 9000 2.1 80 02:20 11.11.2019
4627 Clouds 1 1016 100 9000 1.5 80 01:53 11.11.2019
4628 Clouds 1 1016 100 9000 1.5 80 01:33 11.11.2019
4629 Mist 1 1016 100 4000 1 0 00:47 11.11.2019
4630 Mist 1 1016 100 4000 1 0 23:59 10.11.2019
4631 Mist 1 1016 100 3300 0.5 0 23:39 10.11.2019
4632 Mist 1 1016 100 1600 0.5 0 23:19 10.11.2019
4633 Mist 1 1016 100 1600 0.5 0 22:57 10.11.2019
4634 Mist 1 1016 100 1300 1 0 22:38 10.11.2019
4635 Fog 1 1016 100 500 1 0 22:20 10.11.2019
4636 Fog 1 1016 100 500 1 0 21:57 10.11.2019
4637 Fog 1 1016 100 400 2.1 330 21:38 10.11.2019
4638 Fog 1 1016 100 300 1.5 300 21:20 10.11.2019
4639 Fog 1 1016 100 250 2.6 230 20:43 10.11.2019
4640 Fog 1 1016 100 250 2.6 230 20:22 10.11.2019
4641 Fog 1 1016 100 250 1 0 20:22 10.11.2019
4642 Fog 1 1016 100 250 1 0 20:22 10.11.2019
4643 Fog 1 1016 100 250 1 0 19:57 10.11.2019
4644 Fog 1 1015 100 350 3.1 340 19:38 10.11.2019
4645 Fog 1 1015 100 350 3.1 340 19:38 10.11.2019
4646 Fog 1 1015 100 350 3.1 340 19:38 10.11.2019
4647 Clear 1 1015 93 10000 2.1 320 19:19 10.11.2019
4648 Clear 1 1015 93 10000 2.1 320 18:58 10.11.2019
4649 Clear 1 1015 93 10000 2.1 320 18:58 10.11.2019
4650 Clear 1 1015 93 10000 2.1 320 18:58 10.11.2019
4651 Clear 2 1015 100 10000 2.1 330 18:40 10.11.2019
4652 Clear 2 1015 93 10000 2.1 320 18:20 10.11.2019
4653 Clear 2 1015 93 10000 2.1 320 17:57 10.11.2019
4654 Clear 2 1014 93 10000 2.6 320 17:39 10.11.2019
4655 Clear 3 1014 86 10000 3.1 310 17:20 10.11.2019
4656 Clear 4 1014 86 10000 2.6 310 16:58 10.11.2019
4657 Clear 5 1014 86 10000 2.6 310 16:39 10.11.2019
4658 Clouds 5 1013 81 10000 2.6 310 16:21 10.11.2019
4659 Clouds 5 1013 81 10000 2.6 310 15:56 10.11.2019
4660 Clouds 5 1013 75 10000 2.6 300 15:36 10.11.2019
4661 Clouds 6 1013 75 10000 2.1 290 15:18 10.11.2019
4662 Clouds 6 1013 75 10000 2.1 290 14:55 10.11.2019
4663 Clouds 5 1013 75 10000 2.1 300 14:36 10.11.2019
4664 Clouds 5 1012 75 10000 1 0 14:18 10.11.2019
4665 Clouds 5 1012 70 10000 1 0 13:41 10.11.2019
4666 Clouds 5 1012 70 10000 1 0 13:20 10.11.2019
4667 Clouds 4 1013 80 10000 1.5 260 12:54 10.11.2019
4668 Clouds 4 1013 80 10000 1.5 260 12:36 10.11.2019
4669 Clouds 3 1013 86 10000 2.1 160 12:18 10.11.2019
4670 Clouds 3 1013 86 10000 2.1 140 11:54 10.11.2019
4671 Clouds 2 1013 93 10000 2.1 140 11:36 10.11.2019
4672 Clouds 3 1013 93 10000 2.1 140 11:18 10.11.2019
4673 Clouds 2 1012 93 6000 2.6 90 10:41 10.11.2019
4674 Clouds 2 1012 93 6000 2.1 80 10:20 10.11.2019
4675 Clouds 1 1012 100 6000 2.1 70 09:44 10.11.2019
4676 Clouds 1 1012 100 6000 2.1 70 09:26 10.11.2019
4677 Mist 1 1011 100 5000 2.1 90 08:59 10.11.2019
4678 Mist 1 1011 100 5000 1.5 100 08:37 10.11.2019
4679 Mist 0 1011 100 5000 1 0 08:18 10.11.2019
4680 Mist 0 1011 88 5000 1 0 07:42 10.11.2019
4681 Mist 0 1011 88 5000 1 0 07:24 10.11.2019
4682 Fog 0 1010 88 500 4.1 90 06:33 10.11.2019
4683 Fog -1 1010 100 6000 3.1 100 05:40 10.11.2019
4684 Fog -1 1009 100 4000 1 120 03:22 10.11.2019
4685 Fog 0 1009 100 4000 0.5 120 01:53 10.11.2019
4686 Fog 0 1009 100 6000 1 100 01:19 10.11.2019
4687 Fog 0 1009 100 6000 1 100 01:19 10.11.2019
4688 Clouds 0 1009 87 10000 0.5 0 00:41 10.11.2019
4689 Clouds 0 1009 87 10000 0.5 0 23:56 09.11.2019
4690 Clouds 0 1010 100 10000 2.6 110 23:37 09.11.2019
4691 Clouds 0 1010 82 10000 3.1 100 23:18 09.11.2019
4692 Clear 0 1010 82 10000 3.6 100 22:41 09.11.2019
4693 Clear 0 1010 82 10000 3.6 100 22:21 09.11.2019
4694 Clear 1 1010 100 10000 3.6 100 21:56 09.11.2019
4695 Clear 1 1010 100 10000 3.6 100 21:37 09.11.2019
4696 Clear 1 1010 93 10000 3.1 100 21:19 09.11.2019
4697 Clear 1 1010 93 10000 3.6 100 20:42 09.11.2019
4698 Clouds 2 1010 93 10000 2.6 110 20:22 09.11.2019
4699 Clouds 2 1010 93 10000 2.6 110 19:58 09.11.2019
4700 Clouds 2 1010 93 10000 2.6 120 19:39 09.11.2019
4701 Clouds 2 1010 86 10000 2.1 170 19:21 09.11.2019
4702 Clouds 2 1010 86 10000 2.1 170 19:21 09.11.2019
4703 Clouds 3 1010 86 10000 2.1 170 18:54 09.11.2019
4704 Clouds 3 1010 86 10000 2.1 160 18:36 09.11.2019
4705 Clouds 3 1010 86 10000 2.1 120 18:18 09.11.2019
4706 Clouds 4 1010 81 10000 1 230 17:41 09.11.2019
4707 Clouds 5 1010 81 10000 1.5 240 17:22 09.11.2019
4708 Clouds 6 1010 75 10000 2.1 250 16:43 09.11.2019
4709 Clouds 6 1010 75 10000 2.6 250 16:22 09.11.2019
4710 Clouds 7 1010 75 10000 2.6 250 15:59 09.11.2019
4711 Clouds 7 1010 70 10000 3.1 250 15:41 09.11.2019
4712 Clouds 7 1010 70 10000 3.1 250 15:23 09.11.2019
4713 Clouds 7 1010 70 10000 4.1 250 14:43 09.11.2019
4714 Clouds 7 1010 75 10000 3.6 250 14:22 09.11.2019
4715 Clouds 7 1010 75 10000 3.6 250 13:57 09.11.2019
4716 Clouds 7 1010 75 10000 4.1 240 13:38 09.11.2019
4717 Clouds 7 1010 81 10000 2.6 250 13:19 09.11.2019
4718 Clouds 6 1010 81 10000 3.1 260 12:55 09.11.2019
4719 Clouds 6 1010 81 10000 3.1 260 12:37 09.11.2019
4720 Clouds 6 1010 87 10000 3.6 240 12:18 09.11.2019
4721 Clouds 5 1010 87 10000 2.1 230 11:44 09.11.2019
4722 Drizzle 5 1010 93 10000 3.1 250 11:20 09.11.2019
4723 Drizzle 5 1010 93 10000 3.1 250 10:56 09.11.2019
4724 Drizzle 5 1010 93 10000 3.1 270 10:37 09.11.2019
4725 Drizzle 5 1010 93 10000 3.6 260 10:18 09.11.2019
4726 Drizzle 4 1009 86 10000 3.1 260 09:41 09.11.2019
4727 Clouds 4 1009 93 10000 3.6 280 09:20 09.11.2019
4728 Clouds 4 1009 93 10000 3.6 270 08:43 09.11.2019
4729 Clouds 4 1009 93 10000 4.1 260 08:25 09.11.2019
4730 Clouds 4 1009 93 10000 5.7 280 07:55 09.11.2019
4731 Clouds 4 1009 93 10000 5.7 280 07:37 09.11.2019
4732 Clouds 4 1008 93 10000 5.1 270 07:18 09.11.2019
4733 Clouds 4 1008 93 10000 4.1 260 06:42 09.11.2019
4734 Clouds 4 1008 93 10000 3.6 250 06:23 09.11.2019
4735 Clouds 4 1008 93 10000 4.1 260 05:39 09.11.2019
4736 Clouds 5 1007 93 10000 5.7 260 04:29 09.11.2019
4737 Rain 5 1006 100 9000 5.1 270 02:47 09.11.2019
4738 Rain 6 1006 93 7000 5.1 270 02:24 09.11.2019
4739 Rain 6 1006 100 7000 2.1 290 01:18 09.11.2019
4740 Clouds 6 1005 100 10000 1.5 290 00:40 09.11.2019
4741 Rain 6 1005 100 9000 2.1 240 00:21 09.11.2019
4742 Rain 6 1005 100 6000 1.5 280 23:40 08.11.2019
4743 Rain 6 1005 100 5000 2.1 280 23:22 08.11.2019
4744 Rain 6 1005 100 5000 2.1 280 23:22 08.11.2019
4745 Clouds 6 1005 100 5000 1 0 22:56 08.11.2019
4746 Clouds 6 1005 100 5000 1 0 22:56 08.11.2019
4747 Clouds 6 1005 100 5000 1 0 22:38 08.11.2019
4748 Clouds 6 1005 100 6000 1 320 22:19 08.11.2019
4749 Rain 6 1005 100 6000 0.5 0 21:41 08.11.2019
4750 Rain 6 1005 100 8000 0.5 0 21:23 08.11.2019
4751 Clouds 6 1005 100 8000 0.5 0 20:57 08.11.2019
4752 Clouds 6 1004 100 9000 1.5 10 20:38 08.11.2019
4753 Rain 6 1004 100 10000 2.1 360 20:19 08.11.2019
4754 Rain 6 1004 100 9000 1.5 10 19:40 08.11.2019
4755 Rain 6 1004 100 9000 2.1 10 19:19 08.11.2019
4756 Rain 6 1004 100 9000 2.1 10 18:57 08.11.2019
4757 Rain 6 1004 93 9000 1.5 360 18:39 08.11.2019
4758 Rain 6 1004 93 9000 1.5 360 18:39 08.11.2019
4759 Rain 6 1004 93 9000 1.5 360 18:39 08.11.2019
4760 Rain 6 1004 93 9000 0.5 0 18:21 08.11.2019
4761 Rain 6 1003 93 10000 1 0 17:56 08.11.2019
4762 Rain 6 1003 93 10000 1 0 17:38 08.11.2019
4763 Rain 7 1003 93 10000 1 330 17:20 08.11.2019
4764 Rain 7 1003 93 10000 1 330 16:59 08.11.2019
4765 Rain 7 1003 93 10000 1.5 280 16:40 08.11.2019
4766 Rain 7 1002 93 10000 1.5 30 16:21 08.11.2019
4767 Rain 7 1002 93 10000 1.5 20 15:59 08.11.2019
4768 Rain 7 1002 93 10000 1.5 20 15:40 08.11.2019
4769 Rain 7 1002 93 10000 1.5 30 15:22 08.11.2019
4770 Rain 7 1002 93 10000 1.5 30 15:22 08.11.2019
4771 Rain 7 1002 93 10000 1.5 30 14:57 08.11.2019
4772 Rain 7 1002 93 10000 1 0 14:38 08.11.2019
4773 Rain 7 1003 87 10000 2.1 80 14:20 08.11.2019
4774 Rain 7 1003 87 10000 2.1 80 13:58 08.11.2019
4775 Rain 7 1003 87 10000 2.1 80 13:58 08.11.2019
4776 Rain 7 1003 81 10000 2.6 80 13:39 08.11.2019
4777 Rain 7 1003 81 10000 3.6 90 13:20 08.11.2019
4778 Clouds 7 1003 75 10000 2.6 80 12:44 08.11.2019
4779 Clouds 7 1003 75 10000 2.6 80 12:26 08.11.2019
4780 Clouds 7 1003 75 10000 2.1 30 11:57 08.11.2019
4781 Clouds 7 1003 75 10000 2.1 30 11:39 08.11.2019
4782 Clouds 7 1003 81 10000 1.5 360 11:20 08.11.2019
4783 Clouds 7 1003 81 10000 1.5 360 10:57 08.11.2019
4784 Clouds 6 1003 87 10000 2.6 350 10:39 08.11.2019
4785 Clouds 6 1003 87 10000 2.6 340 10:21 08.11.2019
4786 Clouds 6 1004 81 10000 0.5 0 09:55 08.11.2019
4787 Clouds 6 1004 81 10000 0.5 0 09:36 08.11.2019
4788 Clouds 5 1004 93 10000 1 0 09:18 08.11.2019
4789 Clouds 4 1004 93 10000 1.5 10 08:38 08.11.2019
4790 Clouds 4 1004 93 10000 2.1 300 08:19 08.11.2019
4791 Clouds 5 1004 93 10000 2.1 340 07:41 08.11.2019
4792 Clouds 5 1004 93 10000 2.1 360 07:22 08.11.2019
4793 Clouds 5 1004 93 10000 2.1 360 07:22 08.11.2019
4794 Rain 5 1004 93 10000 2.6 350 06:43 08.11.2019
4795 Rain 5 1005 93 10000 0.5 0 06:24 08.11.2019
4796 Clouds 5 1005 100 10000 0.5 0 05:56 08.11.2019
4797 Rain 5 1005 93 10000 1 0 05:24 08.11.2019
4798 Clouds 5 1006 93 10000 0.5 0 03:58 08.11.2019
4799 Clouds 5 1006 93 10000 0.5 0 03:58 08.11.2019
4800 Clouds 5 1006 93 10000 1 340 03:36 08.11.2019
4801 Rain 5 1006 93 10000 2.6 90 02:52 08.11.2019
4802 Rain 5 1006 93 10000 2.6 90 01:49 08.11.2019
4803 Rain 5 1006 93 10000 3.1 110 01:30 08.11.2019
4804 Clouds 6 1007 93 10000 1.5 120 00:37 08.11.2019
4805 Clouds 6 1006 87 10000 1.5 140 00:18 08.11.2019
4806 Clouds 6 1005 87 10000 2.6 110 23:43 07.11.2019
4807 Clouds 6 1005 93 10000 1.32 243 23:24 07.11.2019
4808 Clouds 6 1006 81 10000 0.5 0 22:43 07.11.2019
4809 Clouds 6 1006 81 10000 1.5 110 22:22 07.11.2019
4810 Clouds 6 1006 81 10000 1.5 110 21:58 07.11.2019
4811 Clouds 6 1006 93 10000 1 0 21:38 07.11.2019
4812 Clouds 6 1005 81 10000 1 120 21:20 07.11.2019
4813 Clouds 7 1005 81 10000 1 120 20:58 07.11.2019
4814 Clouds 8 1005 75 10000 0.5 0 20:39 07.11.2019
4815 Clouds 8 1005 70 10000 2.6 200 20:21 07.11.2019
4816 Clouds 8 1005 70 10000 2.6 200 19:56 07.11.2019
4817 Clouds 8 1004 70 10000 2.1 180 19:37 07.11.2019
4818 Clouds 9 1004 66 10000 3.6 170 19:18 07.11.2019
4819 Clouds 9 1004 66 10000 3.6 170 18:56 07.11.2019
4820 Clouds 9 1004 66 10000 4.6 170 18:37 07.11.2019
4821 Clouds 9 1004 66 10000 5.1 170 18:19 07.11.2019
4822 Clouds 9 1003 66 10000 5.1 170 17:40 07.11.2019
4823 Clouds 9 1003 66 10000 5.1 170 17:22 07.11.2019
4824 Clouds 9 1003 70 10000 4.1 170 16:59 07.11.2019
4825 Clouds 10 1003 71 10000 4.6 170 16:40 07.11.2019
4826 Clouds 10 1003 71 10000 4.6 170 16:40 07.11.2019
4827 Clouds 10 1003 71 10000 4.6 170 16:21 07.11.2019
4828 Clouds 10 1003 66 10000 4.6 170 15:59 07.11.2019
4829 Clouds 10 1003 62 10000 5.1 170 15:39 07.11.2019
4830 Clouds 10 1003 62 10000 5.1 170 15:19 07.11.2019
4831 Clouds 10 1003 62 10000 6.7 170 14:46 07.11.2019
4832 Clouds 10 1002 62 10000 6.2 150 14:27 07.11.2019
4833 Clouds 10 1002 62 10000 6.2 150 14:27 07.11.2019
4834 Clouds 10 1002 62 10000 5.7 150 13:58 07.11.2019
4835 Clouds 10 1002 71 10000 5.7 150 13:40 07.11.2019
4836 Clouds 10 1002 71 10000 5.7 150 13:21 07.11.2019
4837 Clouds 10 1003 66 10000 4.6 160 12:59 07.11.2019
4838 Clouds 10 1003 66 10000 4.6 160 12:41 07.11.2019
4839 Clouds 9 1003 71 10000 6.2 150 12:22 07.11.2019
4840 Clouds 9 1003 76 10000 4.6 130 11:59 07.11.2019
4841 Clouds 9 1003 76 10000 5.1 130 11:40 07.11.2019
4842 Clouds 9 1003 76 10000 5.1 130 11:21 07.11.2019
4843 Clouds 8 1003 81 10000 5.1 120 10:41 07.11.2019
4844 Clouds 7 1003 81 10000 5.1 120 10:19 07.11.2019
4845 Clouds 7 1003 81 10000 5.1 120 10:19 07.11.2019
4846 Clouds 7 1004 93 10000 3.1 100 09:44 07.11.2019
4847 Clouds 6 1004 93 10000 3.1 100 09:23 07.11.2019
4848 -273 0 0 0 0 0 08:58 07.11.2019
4849 Mist 5 1003 100 10000 4.1 100 08:56 07.11.2019
4850 Mist 5 1003 100 10000 4.1 100 08:56 07.11.2019
4851 Mist 5 1003 100 10000 4.1 100 08:55 07.11.2019
4852 Mist 5 1004 100 10000 3.6 100 08:37 07.11.2019
4853 Mist 5 1004 100 10000 3.6 100 08:19 07.11.2019
4854 Fog 5 1003 100 10000 3.1 110 07:41 07.11.2019
4855 -273 0 0 0 0 0 07:21 07.11.2019
4856 Fog 5 1003 93 10000 2.6 110 07:21 07.11.2019
4857 Fog 5 1003 93 10000 2.6 110 06:48 07.11.2019
4858 Clouds 5 1003 93 10000 1.5 140 06:28 07.11.2019
4859 Clouds 6 1003 93 10000 3.6 120 05:57 07.11.2019
4860 Clouds 6 1004 93 10000 2.6 140 05:38 07.11.2019
4861 Clouds 6 1004 93 10000 2.6 140 05:19 07.11.2019
4862 Clouds 6 1004 93 10000 2.6 140 05:19 07.11.2019
4863 Clouds 6 1004 93 10000 2.6 150 04:41 07.11.2019
4864 Clouds 7 1004 93 10000 2.1 130 02:58 07.11.2019
4865 Clouds 7 1005 87 10000 2.6 160 00:57 07.11.2019
4866 Clouds 7 1005 93 10000 2.6 130 00:22 07.11.2019
4867 Clouds 7 1005 93 10000 2.6 140 23:48 06.11.2019
4868 Rain 7 1005 93 10000 1.5 160 23:22 06.11.2019
4869 Clouds 7 1005 81 10000 2.1 200 22:58 06.11.2019
4870 Rain 7 1005 81 10000 2.1 210 22:39 06.11.2019
4871 Rain 7 1005 81 10000 2.1 210 22:19 06.11.2019
4872 Clouds 7 1005 81 10000 2.1 180 21:56 06.11.2019
4873 Clouds 7 1005 81 10000 1.5 190 21:38 06.11.2019
4874 Clouds 7 1005 81 10000 1.5 190 21:18 06.11.2019
4875 Clouds 7 1005 75 10000 2.1 210 20:41 06.11.2019
4876 Clouds 7 1005 75 10000 2.1 210 20:23 06.11.2019
4877 Clouds 7 1005 75 10000 2.6 210 19:59 06.11.2019
4878 Clouds 7 1005 81 10000 2.6 220 19:40 06.11.2019
4879 Clouds 7 1005 81 10000 2.6 220 19:21 06.11.2019
4880 Clouds 7 1005 81 10000 2.6 220 19:21 06.11.2019
4881 Clouds 7 1005 81 10000 2.6 220 18:59 06.11.2019
4882 Clouds 7 1005 75 10000 3.1 240 18:39 06.11.2019
4883 Clouds 8 1004 70 10000 2.6 240 18:19 06.11.2019
4884 Clouds 7 1004 81 10000 6.2 240 17:58 06.11.2019
4885 Clouds 8 1004 76 10000 2.6 220 17:40 06.11.2019
4886 Rain 8 1004 76 10000 2.1 220 17:21 06.11.2019
4887 Rain 8 1004 76 10000 2.1 220 16:55 06.11.2019
4888 Rain 8 1004 76 10000 2.1 220 16:55 06.11.2019
4889 Rain 8 1004 76 10000 3.1 220 16:37 06.11.2019
4890 Rain 9 1004 76 10000 3.1 230 16:18 06.11.2019
4891 Clouds 9 1004 66 10000 3.6 250 15:55 06.11.2019
4892 Clouds 9 1004 66 10000 3.6 250 15:36 06.11.2019
4893 Rain 9 1004 81 10000 3.6 230 15:18 06.11.2019
4894 Rain 9 1003 81 10000 2.6 280 14:55 06.11.2019
4895 Rain 9 1003 81 10000 2.6 280 14:55 06.11.2019
4896 Rain 9 1003 81 10000 2.6 280 14:37 06.11.2019
4897 Rain 9 1003 81 10000 4.6 300 14:19 06.11.2019
4898 Rain 9 1003 76 10000 5.1 240 13:40 06.11.2019
4899 Rain 9 1003 76 10000 5.1 240 13:40 06.11.2019
4900 Rain 9 1003 81 10000 3.6 220 13:22 06.11.2019
4901 Rain 9 1003 81 10000 3.6 220 12:58 06.11.2019
4902 Rain 9 1003 81 10000 4.6 220 12:39 06.11.2019
4903 Rain 9 1003 81 10000 4.6 220 12:39 06.11.2019
4904 Rain 9 1003 81 10000 3.1 200 12:21 06.11.2019
4905 Clouds 9 1003 81 10000 3.1 200 11:58 06.11.2019
4906 Clouds 9 1003 87 10000 3.6 220 11:37 06.11.2019
4907 Clouds 8 1003 87 10000 2.6 200 11:18 06.11.2019
4908 Clouds 8 1003 87 10000 2.6 200 11:18 06.11.2019
4909 Rain 8 1003 87 10000 3.1 190 10:56 06.11.2019
4910 Rain 8 1003 87 10000 3.1 190 10:38 06.11.2019
4911 Rain 7 1003 87 10000 3.1 190 10:19 06.11.2019
4912 Clouds 7 1003 87 10000 1.5 180 09:44 06.11.2019
4913 Clouds 6 1003 93 10000 1.5 170 09:23 06.11.2019
4914 Clouds 6 1003 93 10000 1.5 170 08:59 06.11.2019
4915 Clouds 6 1002 100 10000 1.5 130 08:39 06.11.2019
4916 Clouds 5 1002 100 10000 2.6 110 08:20 06.11.2019
4917 Rain 5 1002 100 10000 2.6 110 07:57 06.11.2019
4918 Clouds 5 1002 100 10000 1.5 130 07:39 06.11.2019
4919 Rain 5 1001 100 10000 2.1 150 07:19 06.11.2019
4920 Rain 5 1001 93 10000 2.1 110 06:44 06.11.2019
4921 Rain 5 1001 100 10000 2.1 110 06:23 06.11.2019
4922 Clouds 4 1001 93 10000 1.5 100 04:18 06.11.2019
4923 Rain 4 1000 93 10000 3.1 110 02:20 06.11.2019
4924 Rain 5 1000 93 10000 3.6 100 01:31 06.11.2019
4925 Rain 4 1000 100 10000 2.1 90 00:35 06.11.2019
4926 Clouds 4 1000 100 10000 3.1 100 23:57 05.11.2019
4927 Clouds 4 1000 100 10000 2.6 110 23:38 05.11.2019
4928 Clouds 4 1000 100 10000 2.1 120 23:19 05.11.2019
4929 Clouds 4 1000 93 10000 2.1 110 22:43 05.11.2019
4930 Clouds 4 1000 93 10000 3.1 100 22:19 05.11.2019
4931 Clouds 4 1000 100 10000 4.1 110 21:58 05.11.2019
4932 Clouds 4 1000 100 10000 4.1 110 21:40 05.11.2019
4933 Clouds 4 999 100 10000 2.6 100 21:20 05.11.2019
4934 Clouds 4 999 93 10000 2.1 90 20:57 05.11.2019
4935 Clouds 4 999 93 10000 2.1 90 20:38 05.11.2019
4936 Clouds 4 999 93 10000 3.1 100 20:20 05.11.2019
4937 Clouds 5 999 93 10000 3.1 100 19:55 05.11.2019
4938 Clouds 5 999 93 10000 2.1 110 19:37 05.11.2019
4939 Clouds 5 999 87 10000 3.1 90 19:19 05.11.2019
4940 Clouds 6 999 87 10000 3.1 90 18:56 05.11.2019
4941 Clouds 6 999 93 10000 1 80 18:38 05.11.2019
4942 Clouds 6 999 87 10000 0.5 0 18:19 05.11.2019
4943 Rain 8 999 81 10000 0.5 0 17:55 05.11.2019
4944 Rain 8 999 81 10000 0.5 0 17:37 05.11.2019
4945 Rain 8 999 81 10000 1 0 17:18 05.11.2019
4946 Clouds 9 999 71 10000 1 260 16:41 05.11.2019
4947 Clouds 10 999 66 10000 1.5 290 16:20 05.11.2019
4948 Clouds 10 999 62 10000 3.1 270 15:57 05.11.2019
4949 Clouds 10 999 62 10000 3.1 270 15:36 05.11.2019
4950 Clouds 11 999 62 10000 1.5 220 15:18 05.11.2019
4951 Rain 10 998 66 10000 2.6 190 14:54 05.11.2019
4952 Rain 10 998 66 10000 2.6 190 14:36 05.11.2019
4953 Rain 11 999 71 10000 1 0 14:18 05.11.2019
4954 Clouds 10 999 81 10000 4.6 280 13:42 05.11.2019
4955 Clouds 11 998 66 10000 3.1 270 13:24 05.11.2019
4956 Clouds 10 999 66 10000 2.6 220 12:41 05.11.2019
4957 Clouds 10 999 71 10000 3.1 200 12:22 05.11.2019
4958 Clouds 10 999 71 10000 3.1 200 11:58 05.11.2019
4959 Clouds 10 999 76 10000 3.1 220 11:39 05.11.2019
4960 Rain 9 999 81 10000 3.1 230 11:20 05.11.2019
4961 Rain 9 999 81 10000 3.1 230 10:56 05.11.2019
4962 Rain 9 999 81 10000 3.1 230 10:56 05.11.2019
4963 Clouds 9 999 76 10000 2.1 220 10:38 05.11.2019
4964 Clouds 9 999 81 10000 2.6 210 10:19 05.11.2019
4965 Clouds 8 999 81 10000 2.6 210 09:55 05.11.2019
4966 Clouds 8 999 81 10000 2.1 190 09:36 05.11.2019
4967 Clouds 8 999 87 10000 2.1 190 09:18 05.11.2019
4968 Clouds 7 999 87 10000 1 0 08:38 05.11.2019
4969 Clouds 7 998 81 10000 2.1 190 08:19 05.11.2019
4970 Clouds 7 998 81 10000 3.1 190 07:55 05.11.2019
4971 Clouds 7 998 81 10000 3.1 190 07:37 05.11.2019
4972 Clouds 7 998 81 10000 3.1 190 07:19 05.11.2019
4973 Clouds 7 998 81 10000 3.1 160 06:43 05.11.2019
4974 Clouds 7 998 81 10000 3.1 160 06:43 05.11.2019
4975 Clouds 7 998 87 10000 1.5 140 05:51 05.11.2019
4976 Clouds 7 998 81 10000 2.6 150 05:22 05.11.2019
4977 Clouds 8 998 81 10000 1.5 200 04:24 05.11.2019
4978 Clouds 8 997 76 10000 2.6 210 03:33 05.11.2019
4979 Clouds 9 998 81 10000 3.1 250 02:43 05.11.2019
4980 Rain 9 998 81 10000 4.6 240 01:57 05.11.2019
4981 Rain 9 998 81 10000 4.6 240 01:57 05.11.2019
4982 Clouds 9 996 87 10000 4.1 160 00:49 05.11.2019
4983 Rain 9 996 93 10000 3.1 150 00:27 05.11.2019
4984 Rain 9 996 93 10000 3.1 160 23:43 04.11.2019
4985 Rain 9 996 93 10000 1.5 170 23:20 04.11.2019
4986 Rain 9 996 87 10000 4.1 170 22:59 04.11.2019
4987 Rain 9 996 87 10000 4.1 170 22:40 04.11.2019
4988 Rain 9 996 87 10000 3.6 170 22:21 04.11.2019
4989 Rain 9 996 87 10000 3.6 170 21:55 04.11.2019
4990 Clouds 9 996 87 10000 3.6 170 21:37 04.11.2019
4991 Rain 9 996 87 10000 3.1 180 21:18 04.11.2019
4992 Rain 9 996 87 10000 3.1 180 21:18 04.11.2019
4993 Rain 9 995 87 10000 3.6 150 20:56 04.11.2019
4994 Rain 9 995 87 10000 3.6 150 20:37 04.11.2019
4995 Clouds 9 995 81 10000 2.6 170 20:19 04.11.2019
4996 Rain 9 995 81 10000 3.1 170 19:57 04.11.2019
4997 Rain 9 995 81 10000 3.1 170 19:38 04.11.2019
4998 Rain 9 995 81 10000 2.6 170 19:20 04.11.2019
4999 Clouds 9 995 81 10000 2.6 170 18:54 04.11.2019
5000 Clouds 10 995 81 10000 2.6 210 18:36 04.11.2019
5001 Clouds 9 994 81 10000 2.6 210 18:18 04.11.2019
5002 Clouds 10 994 87 10000 3.1 220 17:38 04.11.2019
5003 Clouds 10 994 87 10000 2.6 250 17:19 04.11.2019
5004 Rain 11 993 81 10000 4.6 200 16:55 04.11.2019
5005 Rain 10 993 81 10000 4.6 200 16:55 04.11.2019
5006 Rain 11 993 81 10000 4.6 200 16:36 04.11.2019
5007 Rain 11 993 81 10000 4.6 200 16:36 04.11.2019
5008 Rain 11 993 81 10000 4.1 180 16:18 04.11.2019
5009 Rain 11 993 81 10000 3.6 170 15:41 04.11.2019
5010 Rain 11 993 81 10000 3.1 150 15:21 04.11.2019
5011 Rain 10 993 81 10000 3.1 150 14:58 04.11.2019
5012 Rain 10 993 81 10000 3.1 150 14:58 04.11.2019
5013 Rain 10 993 81 10000 3.6 150 14:40 04.11.2019
5014 Rain 11 993 87 10000 2.6 170 14:20 04.11.2019
5015 Rain 11 993 87 10000 2.6 170 14:20 04.11.2019
5016 Rain 11 993 81 10000 3.1 170 13:58 04.11.2019
5017 Rain 11 993 81 10000 3.1 170 13:40 04.11.2019
5018 Rain 11 993 81 10000 3.1 170 13:21 04.11.2019
5019 Rain 11 993 76 10000 3.1 190 12:56 04.11.2019
5020 Rain 11 993 76 10000 3.1 190 12:38 04.11.2019
5021 Clouds 11 993 71 10000 4.1 220 12:18 04.11.2019
5022 Clouds 12 994 71 10000 4.1 220 11:42 04.11.2019
5023 Clouds 11 994 71 10000 5.7 220 11:23 04.11.2019
5024 Clouds 11 994 71 10000 5.7 220 10:58 04.11.2019
5025 Clouds 11 994 71 10000 5.7 220 10:58 04.11.2019
5026 Clouds 11 994 76 10000 4.6 200 10:39 04.11.2019
5027 Clouds 11 994 81 10000 4.6 180 10:20 04.11.2019
5028 Clouds 10 994 87 10000 4.1 190 09:45 04.11.2019
5029 Clouds 10 994 87 10000 4.1 190 09:45 04.11.2019
5030 Clouds 9 994 87 10000 5.7 170 09:27 04.11.2019
5031 Clouds 9 994 93 10000 4.1 170 08:57 04.11.2019
5032 Clouds 9 994 93 10000 4.1 170 08:37 04.11.2019
5033 Clouds 9 994 93 10000 3.1 180 08:18 04.11.2019
5034 Rain 9 994 93 10000 3.6 180 07:42 04.11.2019
5035 Clouds 9 994 93 10000 2.6 190 07:21 04.11.2019
5036 Clouds 9 994 93 10000 2.1 190 06:49 04.11.2019
5037 Clouds 9 994 93 10000 3.6 190 06:18 04.11.2019
5038 Clouds 9 994 93 10000 3.6 190 05:42 04.11.2019
5039 Clouds 9 993 87 10000 2.6 200 04:43 04.11.2019
5040 Rain 9 993 87 10000 3.1 230 04:21 04.11.2019
5041 Rain 10 992 93 10000 3.6 200 01:46 04.11.2019
5042 Rain 10 991 93 10000 3.6 190 01:20 04.11.2019
5043 Rain 10 991 93 10000 2.6 170 00:39 04.11.2019
5044 Rain 10 991 93 10000 2.1 170 00:19 04.11.2019
5045 Rain 10 991 93 10000 2.1 210 23:40 03.11.2019
5046 Rain 10 991 100 10000 2.1 200 23:21 03.11.2019
5047 Rain 10 990 87 10000 3.6 240 22:57 03.11.2019
5048 Rain 10 990 87 10000 3.6 240 22:39 03.11.2019
5049 Rain 10 990 93 9000 2.1 190 22:19 03.11.2019
5050 Rain 10 990 93 6000 1.5 190 21:44 03.11.2019
5051 Rain 10 990 93 6000 2.1 220 21:22 03.11.2019
5052 Rain 10 990 93 6000 2.1 220 21:22 03.11.2019
5053 Rain 10 990 93 6000 2.1 220 20:59 03.11.2019
5054 Rain 10 989 100 10000 1 0 20:38 03.11.2019
5055 Rain 10 989 100 10000 1 0 20:20 03.11.2019
5056 Rain 10 989 100 10000 1 0 19:58 03.11.2019
5057 Rain 10 988 100 10000 0.5 0 19:58 03.11.2019
5058 Rain 10 988 100 10000 0.5 0 19:39 03.11.2019
5059 Rain 10 988 100 10000 1 100 19:21 03.11.2019
5060 Rain 10 988 100 10000 1 100 18:58 03.11.2019
5061 Rain 10 988 93 10000 1.5 100 18:38 03.11.2019
5062 Rain 11 988 93 10000 1 80 18:18 03.11.2019
5063 Clouds 11 988 93 10000 2.1 80 17:55 03.11.2019
5064 Clouds 11 988 93 10000 2.1 80 17:37 03.11.2019
5065 Clouds 11 989 93 10000 2.1 90 17:18 03.11.2019
5066 Clouds 12 988 87 10000 3.6 90 16:42 03.11.2019
5067 Clouds 12 989 87 10000 3.6 110 16:22 03.11.2019
5068 Clouds 12 989 87 10000 3.6 110 15:59 03.11.2019
5069 Clouds 12 989 87 10000 4.1 120 15:41 03.11.2019
5070 Clouds 12 989 87 10000 3.1 110 15:23 03.11.2019
5071 Clouds 12 989 87 10000 3.1 110 14:56 03.11.2019
5072 Clouds 12 989 87 10000 3.1 110 14:37 03.11.2019
5073 Clouds 12 989 87 10000 3.1 120 14:18 03.11.2019
5074 Clouds 12 989 87 10000 3.1 120 14:18 03.11.2019
5075 Rain 12 989 87 10000 4.1 130 13:43 03.11.2019
5076 Clouds 12 990 93 10000 4.6 120 13:20 03.11.2019
5077 Rain 12 990 93 10000 4.6 120 12:58 03.11.2019
5078 Rain 12 990 93 10000 4.6 120 12:37 03.11.2019
5079 Rain 12 990 93 10000 4.6 120 12:37 03.11.2019
5080 Rain 12 991 93 10000 3.6 120 12:18 03.11.2019
5081 Rain 12 991 93 10000 3.1 130 11:42 03.11.2019
5082 Rain 12 991 93 10000 3.6 130 11:22 03.11.2019
5083 Rain 11 991 93 10000 3.6 130 10:58 03.11.2019
5084 Rain 11 991 93 10000 3.6 130 10:39 03.11.2019
5085 Rain 11 991 93 10000 3.6 130 10:21 03.11.2019
5086 Rain 11 991 100 10000 4.1 120 09:44 03.11.2019
5087 Rain 11 991 100 10000 2.6 130 09:25 03.11.2019
5088 Rain 11 991 100 10000 2.6 130 08:57 03.11.2019
5089 Rain 10 991 100 10000 3.6 110 08:38 03.11.2019
5090 Rain 11 991 100 10000 4.1 110 08:19 03.11.2019
5091 Rain 10 991 93 10000 4.1 110 07:45 03.11.2019
5092 Rain 10 992 93 10000 4.1 110 07:22 03.11.2019
5093 Rain 10 992 93 10000 3.6 130 06:39 03.11.2019
5094 Rain 11 992 93 10000 3.1 130 05:57 03.11.2019
5095 Rain 11 992 93 10000 3.1 130 05:38 03.11.2019
5096 Rain 11 992 93 10000 3.1 130 05:38 03.11.2019
5097 Rain 11 993 87 10000 2.6 160 04:55 03.11.2019
5098 Rain 11 993 87 10000 4.6 180 04:26 03.11.2019
5099 Rain 11 993 93 10000 3.6 150 03:27 03.11.2019
5100 Rain 12 994 93 10000 1.5 130 02:29 03.11.2019
5101 Rain 12 994 87 10000 3.1 160 01:57 03.11.2019
5102 Rain 12 994 87 10000 3.6 150 01:36 03.11.2019
5103 Clouds 12 994 87 10000 4.1 140 01:18 03.11.2019
5104 Rain 11 994 87 10000 3.6 140 00:40 03.11.2019
5105 Rain 12 995 82 10000 4.1 160 00:21 03.11.2019
5106 Rain 12 995 82 10000 4.1 150 23:56 02.11.2019
5107 Rain 12 995 82 10000 4.1 150 23:36 02.11.2019
5108 Clouds 12 995 87 10000 4.1 160 23:18 02.11.2019
5109 Clouds 12 996 82 10000 4.1 170 22:54 02.11.2019
5110 Clouds 12 996 82 10000 4.1 170 22:36 02.11.2019
5111 Rain 12 996 100 10000 3.6 170 22:18 02.11.2019
5112 Clouds 12 996 82 10000 3.6 170 21:55 02.11.2019
5113 Clouds 12 996 82 10000 3.6 170 21:36 02.11.2019
5114 Clouds 12 996 87 10000 3.1 150 21:18 02.11.2019
5115 Clouds 12 996 82 10000 2.6 170 20:42 02.11.2019
5116 Clouds 12 996 82 10000 2.6 180 20:22 02.11.2019
5117 Clouds 13 996 82 10000 2.6 180 19:59 02.11.2019
5118 Rain 13 996 82 10000 2.6 160 19:38 02.11.2019
5119 Rain 13 997 82 10000 2.1 170 19:19 02.11.2019
5120 Clouds 13 997 82 10000 2.1 170 18:55 02.11.2019
5121 Clouds 13 997 82 10000 1.5 200 18:36 02.11.2019
5122 Clouds 13 997 82 10000 2.6 170 18:18 02.11.2019
5123 Clouds 13 996 82 10000 2.6 150 17:55 02.11.2019
5124 Clouds 14 996 82 10000 2.6 150 17:36 02.11.2019
5125 Clouds 14 996 82 10000 1.5 150 17:18 02.11.2019
5126 Clouds 15 996 82 10000 1.5 160 16:40 02.11.2019
5127 Clouds 15 996 77 10000 1.5 200 16:20 02.11.2019
5128 Clouds 15 997 77 10000 2.1 190 15:44 02.11.2019
5129 Clouds 16 997 82 10000 3.1 200 15:22 02.11.2019
5130 Clouds 16 997 82 10000 3.1 200 14:58 02.11.2019
5131 Clouds 16 997 72 10000 4.1 190 14:40 02.11.2019
5132 Clouds 16 997 82 10000 4.6 200 14:21 02.11.2019
5133 Clouds 15 997 77 10000 5.1 180 13:54 02.11.2019
5134 Clouds 15 997 77 10000 5.1 180 13:36 02.11.2019
5135 Clouds 15 997 77 10000 4.6 180 13:18 02.11.2019
5136 Clouds 15 998 82 10000 4.6 200 12:40 02.11.2019
5137 Clouds 14 998 82 10000 4.1 190 12:22 02.11.2019
5138 Clouds 13 998 87 10000 4.1 180 11:55 02.11.2019
5139 Clouds 13 998 87 10000 4.1 180 11:37 02.11.2019
5140 Clouds 13 998 87 10000 4.1 180 11:37 02.11.2019
5141 Clouds 13 998 87 10000 4.1 180 11:19 02.11.2019
5142 Clouds 12 998 87 10000 4.6 170 10:43 02.11.2019
5143 Clouds 12 998 93 10000 4.1 160 10:24 02.11.2019
5144 Clouds 11 998 87 10000 3.6 160 09:43 02.11.2019
5145 Clouds 11 998 87 10000 3.6 160 09:43 02.11.2019
5146 Rain 11 998 93 10000 4.1 160 09:22 02.11.2019
5147 Rain 11 998 93 10000 4.1 160 08:57 02.11.2019
5148 Rain 11 998 93 10000 3.6 160 08:38 02.11.2019
5149 Rain 11 998 93 10000 4.1 150 08:18 02.11.2019
5150 Rain 10 998 100 9000 3.1 160 07:45 02.11.2019
5151 Rain 10 998 100 10000 4.1 160 07:26 02.11.2019
5152 Rain 10 998 100 9000 3.1 160 07:26 02.11.2019
5153 Rain 10 999 100 10000 4.1 150 06:52 02.11.2019
5154 Rain 10 999 100 10000 4.1 150 06:25 02.11.2019
5155 Rain 10 999 100 10000 3.6 140 05:50 02.11.2019
5156 Rain 9 999 100 10000 3.6 130 04:26 02.11.2019
5157 Rain 9 1000 100 10000 3.1 140 03:59 02.11.2019
5158 Rain 9 1000 100 9000 3.6 150 03:32 02.11.2019
5159 Rain 9 1001 100 10000 3.6 140 02:32 02.11.2019
5160 Clouds 9 1002 93 10000 4.1 140 01:36 02.11.2019
5161 Rain 8 1002 93 7000 4.1 140 01:18 02.11.2019
5162 Rain 8 1002 100 5000 5.1 130 00:42 02.11.2019
5163 Rain 8 1003 93 7000 3.1 140 00:22 02.11.2019
5164 Rain 7 1003 100 10000 3.6 130 23:42 01.11.2019
5165 Rain 7 1004 100 10000 4.1 120 23:20 01.11.2019
5166 Clouds 7 1004 100 10000 3.6 120 22:42 01.11.2019
5167 Clouds 7 1005 100 9000 3.6 130 22:21 01.11.2019
5168 Clouds 7 1005 100 9000 3.6 130 22:21 01.11.2019
5169 Clouds 7 1005 100 9000 4.1 130 21:56 01.11.2019
5170 Clouds 7 1005 100 9000 4.1 130 21:37 01.11.2019
5171 Rain 6 1005 100 8000 4.1 130 21:18 01.11.2019
5172 Rain 6 1006 93 8000 4.1 130 20:42 01.11.2019
5173 Rain 6 1006 93 9000 3.6 130 20:24 01.11.2019
5174 Rain 6 1006 93 9000 3.6 130 19:59 01.11.2019
5175 Rain 6 1007 100 7000 3.6 130 19:41 01.11.2019
5176 Rain 6 1008 100 7000 3.6 130 19:21 01.11.2019
5177 Rain 6 1008 100 7000 4.6 120 18:41 01.11.2019
5178 Rain 6 1008 100 7000 4.6 120 18:21 01.11.2019
5179 Drizzle 6 1009 93 8000 4.6 120 17:59 01.11.2019
5180 Drizzle 6 1009 93 8000 4.6 120 17:41 01.11.2019
5181 Drizzle 6 1009 93 9000 4.6 130 17:23 01.11.2019
5182 Clouds 6 1009 93 10000 4.6 130 16:41 01.11.2019
5183 Clouds 6 1009 93 10000 4.6 130 16:41 01.11.2019
5184 Clouds 6 1010 93 10000 4.1 130 16:21 01.11.2019
5185 Clouds 6 1010 93 10000 4.1 130 15:59 01.11.2019
5186 Clouds 6 1010 93 10000 4.6 130 15:40 01.11.2019
5187 Clouds 6 1010 87 10000 5.1 130 15:22 01.11.2019
5188 Clouds 6 1010 87 10000 5.1 130 15:22 01.11.2019
5189 Clouds 5 1011 87 10000 5.7 140 14:44 01.11.2019
5190 Clouds 5 1012 87 10000 5.1 130 14:26 01.11.2019
5191 Clouds 5 1012 87 10000 5.1 130 13:59 01.11.2019
5192 Clouds 5 1012 87 9000 5.1 130 13:40 01.11.2019
5193 Clouds 5 1013 93 8000 4.6 140 13:22 01.11.2019
5194 Clouds 5 1014 87 10000 4.1 140 12:56 01.11.2019
5195 Clouds 5 1014 87 10000 4.1 140 12:37 01.11.2019
5196 Clouds 5 1014 87 10000 4.1 140 12:37 01.11.2019
5197 Clouds 5 1014 93 10000 5.7 140 12:19 01.11.2019
5198 Clouds 4 1015 86 10000 5.7 140 11:42 01.11.2019
5199 Clouds 4 1015 86 10000 5.1 140 11:23 01.11.2019
5200 Clouds 4 1015 86 10000 4.6 130 10:44 01.11.2019
5201 Clouds 4 1016 93 8000 3.6 130 10:25 01.11.2019
5202 Clouds 3 1016 93 8000 3.6 130 09:59 01.11.2019
5203 Clouds 3 1016 93 7000 4.1 130 09:41 01.11.2019
5204 Clouds 3 1016 93 6000 5.1 120 09:21 01.11.2019
5205 Mist 3 1017 93 5000 4.6 120 08:54 01.11.2019
5206 Mist 3 1017 93 5000 4.6 120 08:54 01.11.2019
5207 Mist 3 1017 93 5000 4.6 120 08:36 01.11.2019
5208 Mist 3 1017 93 4500 4.6 130 08:18 01.11.2019
5209 Mist 2 1017 93 4000 4.1 130 07:44 01.11.2019
5210 Mist 2 1017 93 4300 4.6 120 07:21 01.11.2019
5211 Mist 2 1017 93 4500 4.6 120 06:53 01.11.2019
5212 Mist 2 1018 93 5000 5.1 120 06:22 01.11.2019
5213 Clouds 2 1018 86 10000 4.6 120 05:44 01.11.2019
5214 Clouds 2 1019 83 10000 5.7 120 04:39 01.11.2019
5215 Clouds 2 1020 83 10000 5.1 130 03:26 01.11.2019
5216 Clouds 2 1021 79 8000 3.6 110 01:43 01.11.2019
5217 Clouds 1 1021 86 8000 3.1 90 00:43 01.11.2019
5218 Clouds 1 1022 79 8000 1.5 90 00:19 01.11.2019
5219 Clouds 0 1022 79 8000 1 100 23:44 31.10.2019
5220 Clouds 0 1022 79 8000 1 100 23:44 31.10.2019
5221 Clouds 1 1021 73 8000 3.6 100 23:23 31.10.2019
5222 Clouds 1 1021 73 8000 3.6 100 22:57 31.10.2019
5223 Clouds 0 1022 73 10000 3.6 100 22:39 31.10.2019
5224 Clouds 1 1022 80 10000 5.1 90 22:21 31.10.2019
5225 Clouds 1 1022 80 10000 4.1 90 21:44 31.10.2019
5226 Clear 1 1022 80 10000 4.1 90 21:21 31.10.2019
5227 Clear 1 1022 80 10000 4.1 90 20:57 31.10.2019
5228 Clear 1 1022 80 10000 4.1 90 20:39 31.10.2019
5229 Clear 1 1022 80 10000 4.1 90 20:21 31.10.2019
5230 Clear 2 1022 74 10000 4.1 80 19:42 31.10.2019
5231 Clear 2 1022 74 10000 4.6 90 19:23 31.10.2019
5232 Clear 3 1022 69 10000 3.6 90 18:58 31.10.2019
5233 Clear 3 1022 69 10000 3.6 90 18:39 31.10.2019
5234 Clear 4 1021 65 10000 3.6 80 18:20 31.10.2019
5235 Clear 5 1021 66 10000 3.1 70 17:42 31.10.2019
5236 Clear 5 1021 55 10000 2.6 70 17:22 31.10.2019
5237 Clear 6 1021 55 10000 2.6 70 16:59 31.10.2019
5238 Clear 7 1021 55 10000 2.6 80 16:40 31.10.2019
5239 Clear 7 1021 55 10000 3.1 70 16:20 31.10.2019
5240 Clear 8 1021 55 10000 3.1 70 15:56 31.10.2019
5241 Clear 8 1021 52 10000 3.6 70 15:38 31.10.2019
5242 Clear 9 1022 49 10000 3.1 80 15:19 31.10.2019
5243 Clear 8 1022 49 10000 3.1 80 14:56 31.10.2019
5244 Clear 9 1022 49 10000 3.1 100 14:38 31.10.2019
5245 Clear 9 1022 49 10000 3.1 90 14:19 31.10.2019
5246 Clear 8 1022 49 10000 3.6 80 13:54 31.10.2019
5247 Clear 8 1022 49 10000 3.6 80 13:36 31.10.2019
5248 Clear 8 1022 49 10000 3.6 80 13:18 31.10.2019
5249 Clear 8 1023 49 10000 3.1 90 12:43 31.10.2019
5250 Clear 8 1023 56 10000 3.6 90 12:23 31.10.2019
5251 Clear 7 1023 56 10000 3.6 90 11:57 31.10.2019
5252 Clear 7 1023 52 10000 4.6 110 11:38 31.10.2019
5253 Clear 6 1023 52 10000 4.6 90 11:18 31.10.2019
5254 Clear 5 1024 60 10000 4.1 90 10:40 31.10.2019
5255 Clear 4 1024 69 10000 3.6 100 10:22 31.10.2019
5256 Clear 2 1024 69 10000 3.6 100 09:59 31.10.2019
5257 Clear 0 1024 69 10000 3.6 100 09:41 31.10.2019
5258 Clear 0 1024 80 10000 2.1 120 09:18 31.10.2019
5259 Clear -1 1024 58 10000 1 0 08:49 31.10.2019
5260 Clear -2 1024 92 0 1.5 350 08:30 31.10.2019
5261 Clear -2 1024 92 0 1.5 350 07:56 31.10.2019
5262 Clear -2 1023 92 10000 0.5 0 07:38 31.10.2019
5263 Clear -2 1023 92 10000 0.5 0 07:19 31.10.2019
5264 Clear -2 1023 92 10000 1 360 06:38 31.10.2019
5265 Clear -2 1023 86 10000 1 60 06:19 31.10.2019
5266 Clear 0 1024 80 10000 2.6 80 03:43 31.10.2019
5267 Clear 0 1024 74 10000 3.1 90 02:44 31.10.2019
5268 Clouds 1 1025 80 10000 3.1 90 01:53 31.10.2019
5269 Clouds 2 1025 74 10000 3.6 80 00:39 31.10.2019
5270 Clouds 2 1025 74 10000 3.1 80 00:20 31.10.2019
5271 Clouds 3 1025 69 10000 3.6 80 23:30 30.10.2019
5272 Clouds 4 1025 67 10000 3.6 80 22:44 30.10.2019
5273 Clouds 4 1025 67 10000 3.6 80 22:23 30.10.2019
5274 Clouds 4 1025 67 10000 4.6 90 21:56 30.10.2019
5275 Clouds 4 1025 67 10000 4.6 90 21:38 30.10.2019
5276 Clouds 4 1025 67 10000 3.1 80 21:19 30.10.2019
5277 Clouds 5 1025 67 10000 3.1 80 20:59 30.10.2019
5278 Clouds 5 1025 67 10000 3.1 70 20:41 30.10.2019
5279 Clouds 5 1025 67 10000 3.1 70 20:41 30.10.2019
5280 Clouds 5 1025 68 10000 2.6 80 20:22 30.10.2019
5281 Clouds 5 1025 68 10000 2.6 80 19:58 30.10.2019
5282 Clouds 5 1025 68 10000 3.1 70 19:38 30.10.2019
5283 Clouds 5 1025 68 10000 3.1 80 19:20 30.10.2019
5284 Clouds 6 1025 68 10000 3.6 90 18:57 30.10.2019
5285 Clouds 6 1025 68 10000 3.6 90 18:37 30.10.2019
5286 Clouds 6 1025 68 10000 3.6 70 18:18 30.10.2019
5287 Clouds 6 1025 65 10000 2.6 60 17:41 30.10.2019
5288 Clouds 6 1025 65 10000 2.6 60 17:41 30.10.2019
5289 Clouds 7 1025 65 10000 3.1 80 17:19 30.10.2019
5290 Clouds 8 1025 61 10000 3.1 70 16:56 30.10.2019
5291 Clouds 8 1025 61 10000 3.1 70 16:37 30.10.2019
5292 Clouds 8 1025 65 10000 3.1 70 16:19 30.10.2019
5293 Clouds 8 1025 65 10000 3.1 70 15:56 30.10.2019
5294 Clouds 8 1025 61 10000 2.6 80 15:37 30.10.2019
5295 Clouds 8 1025 61 10000 4.1 100 15:19 30.10.2019
5296 Clouds 9 1025 61 10000 3.6 110 14:42 30.10.2019
5297 Clouds 9 1025 61 10000 4.1 100 14:23 30.10.2019
5298 Clouds 9 1025 61 10000 4.1 100 13:59 30.10.2019
5299 Clouds 8 1026 61 10000 3.6 100 13:41 30.10.2019
5300 Clouds 8 1026 65 10000 3.6 80 13:20 30.10.2019
5301 Clouds 8 1026 65 10000 3.6 80 12:57 30.10.2019
5302 Clouds 8 1026 61 10000 4.6 80 12:39 30.10.2019
5303 Clouds 8 1027 61 10000 5.1 100 12:21 30.10.2019
5304 Clouds 7 1027 65 10000 4.6 100 11:42 30.10.2019
5305 Clear 7 1027 65 10000 4.6 110 11:24 30.10.2019
5306 Clear 6 1027 70 10000 3.6 90 10:46 30.10.2019
5307 Clear 5 1027 70 10000 3.6 90 10:27 30.10.2019
5308 Clear 4 1027 75 10000 4.6 100 09:59 30.10.2019
5309 Clear 4 1027 75 10000 4.6 100 09:59 30.10.2019
5310 Clear 4 1027 75 10000 3.1 80 09:40 30.10.2019
5311 Clear 3 1027 69 10000 1.5 60 09:22 30.10.2019
5312 Clear 1 1027 69 10000 1.5 330 08:54 30.10.2019
5313 Clear 1 1027 70 10000 1.5 330 08:36 30.10.2019
5314 Clouds 1 1026 86 10000 1 0 08:18 30.10.2019
5315 Clouds 0 1026 100 10000 1.5 40 07:42 30.10.2019
5316 Clouds 1 1026 82 10000 1.5 10 06:48 30.10.2019
5317 Clouds 1 1026 82 10000 2.1 10 06:29 30.10.2019
5318 Clouds 1 1026 82 10000 1.5 360 05:55 30.10.2019
5319 Clouds 1 1026 82 10000 1.5 360 05:37 30.10.2019
5320 Clouds 3 1026 79 10000 1.5 50 03:51 30.10.2019
5321 Clouds 3 1026 75 10000 2.6 50 03:21 30.10.2019
5322 Clouds 4 1026 79 10000 2.6 50 02:48 30.10.2019
5323 Clouds 4 1026 75 10000 1.5 30 01:43 30.10.2019
5324 Clouds 4 1026 75 10000 1.5 20 00:37 30.10.2019
5325 Clouds 4 1026 75 10000 1 0 00:18 30.10.2019
5326 Clouds 4 1026 75 10000 2.6 40 23:39 29.10.2019
5327 Clouds 5 1026 75 10000 1.5 40 23:18 29.10.2019
5328 Clouds 5 1025 70 10000 1.5 50 22:41 29.10.2019
5329 Clouds 5 1025 75 10000 2.6 50 22:19 29.10.2019
5330 Clouds 5 1025 75 10000 2.6 50 21:55 29.10.2019
5331 Clouds 6 1025 75 10000 2.6 50 21:36 29.10.2019
5332 Clouds 6 1025 75 10000 2.6 50 21:18 29.10.2019
5333 Clouds 6 1025 75 10000 2.6 60 20:42 29.10.2019
5334 Clouds 6 1024 75 10000 2.6 40 20:23 29.10.2019
5335 Clouds 7 1024 75 10000 2.6 40 19:58 29.10.2019
5336 Clouds 7 1024 75 10000 2.1 30 19:39 29.10.2019
5337 Clouds 7 1024 75 10000 2.6 30 19:20 29.10.2019
5338 Clouds 7 1024 75 10000 2.6 20 18:58 29.10.2019
5339 Clouds 7 1024 75 10000 2.6 20 18:39 29.10.2019
5340 Clouds 7 1024 81 10000 2.1 30 18:20 29.10.2019
5341 Clouds 7 1024 81 10000 2.1 30 17:56 29.10.2019
5342 Clouds 8 1024 75 10000 2.6 20 17:38 29.10.2019
5343 Clouds 8 1023 70 10000 2.6 20 17:19 29.10.2019
5344 Clouds 8 1023 75 10000 2.6 20 16:41 29.10.2019
5345 Clouds 8 1023 70 10000 2.6 10 16:22 29.10.2019
5346 Clouds 8 1023 70 10000 2.6 10 15:59 29.10.2019
5347 Clouds 8 1022 70 10000 3.1 10 15:41 29.10.2019
5348 Clouds 8 1022 70 10000 2.6 40 15:20 29.10.2019
5349 Clouds 9 1022 70 10000 2.6 40 14:56 29.10.2019
5350 Clouds 9 1022 70 10000 3.1 30 14:38 29.10.2019
5351 Clouds 9 1022 70 10000 2.1 50 14:20 29.10.2019
5352 Clouds 9 1022 70 10000 2.6 30 13:40 29.10.2019
5353 Clouds 9 1022 70 10000 2.6 30 13:40 29.10.2019
5354 Clouds 9 1022 70 10000 3.1 30 13:22 29.10.2019
5355 Clouds 9 1022 70 10000 3.1 40 12:56 29.10.2019
5356 Clouds 9 1022 70 10000 3.1 40 12:37 29.10.2019
5357 Clouds 9 1022 70 10000 2.6 40 12:19 29.10.2019
5358 Clouds 8 1022 66 10000 3.1 50 11:43 29.10.2019
5359 Clouds 8 1022 81 10000 1.5 350 11:23 29.10.2019
5360 Clouds 7 1022 81 10000 1.5 350 10:59 29.10.2019
5361 Rain 6 1022 81 10000 1 0 10:40 29.10.2019
5362 Rain 6 1022 87 10000 1 0 10:20 29.10.2019
5363 Rain 5 1021 93 10000 1.5 340 09:59 29.10.2019
5364 Rain 5 1021 93 10000 1.5 340 09:41 29.10.2019
5365 Rain 5 1021 93 10000 1.5 340 09:22 29.10.2019
5366 Rain 4 1021 100 10000 1 0 08:45 29.10.2019
5367 Clouds 3 1020 100 10000 0.5 0 08:26 29.10.2019
5368 Clouds 3 1020 93 10000 1.5 340 07:55 29.10.2019
5369 Clouds 3 1020 93 10000 1.5 340 07:37 29.10.2019
5370 Clouds 3 1020 93 10000 1.5 310 07:18 29.10.2019
5371 Clouds 3 1020 100 10000 0.5 0 06:45 29.10.2019
5372 Clouds 3 1020 100 10000 2.6 350 06:25 29.10.2019
5373 Clouds 3 1020 100 10000 1 350 05:50 29.10.2019
5374 Clouds 3 1019 100 10000 0.5 0 05:26 29.10.2019
5375 Clouds 3 1019 100 10000 0.5 0 04:31 29.10.2019
5376 Clouds 3 1020 93 10000 0.5 0 02:33 29.10.2019
5377 Clouds 3 1020 93 10000 1 0 01:47 29.10.2019
5378 Clouds 3 1020 100 10000 0.5 0 01:21 29.10.2019
5379 Clouds 3 1020 100 10000 1 0 00:43 29.10.2019
5380 Clouds 3 1020 93 10000 1 100 23:43 28.10.2019
5381 Clouds 3 1021 100 10000 0.5 0 23:21 28.10.2019
5382 Fog 3 1021 100 10000 0.5 350 22:58 28.10.2019
5383 Fog 3 1021 100 10000 0.5 350 22:37 28.10.2019
5384 Fog 3 1021 93 10000 0.5 0 22:18 28.10.2019
5385 Clouds 3 1021 100 10000 0.5 310 21:56 28.10.2019
5386 Clouds 3 1021 100 10000 0.5 310 21:38 28.10.2019
5387 Clouds 4 1021 93 10000 0.5 0 21:20 28.10.2019
5388 Clouds 4 1021 100 10000 1.5 350 20:46 28.10.2019
5389 Clouds 5 1021 93 10000 1.5 360 20:25 28.10.2019
5390 Clouds 5 1021 93 10000 1.5 360 19:59 28.10.2019
5391 Clouds 5 1021 93 10000 2.6 360 19:39 28.10.2019
5392 Clouds 5 1021 93 10000 2.6 350 19:21 28.10.2019
5393 Clouds 6 1021 93 10000 2.6 350 18:59 28.10.2019
5394 Clouds 6 1021 87 10000 3.1 350 18:59 28.10.2019
5395 Clouds 6 1021 87 10000 3.1 350 18:40 28.10.2019
5396 Clouds 6 1021 93 10000 2.6 350 18:21 28.10.2019
5397 Clouds 7 1021 93 10000 2.6 350 17:56 28.10.2019
5398 Clouds 7 1021 87 10000 3.1 350 17:38 28.10.2019
5399 Clouds 7 1021 81 10000 2.6 350 17:19 28.10.2019
5400 Clouds 9 1021 81 10000 2.6 360 16:57 28.10.2019
5401 Clouds 9 1021 81 10000 2.6 360 16:57 28.10.2019
5402 Clouds 9 1021 81 10000 2.6 360 16:39 28.10.2019
5403 Clouds 9 1021 70 10000 3.1 350 16:20 28.10.2019
5404 Clouds 9 1021 76 10000 2.6 350 15:58 28.10.2019
5405 Clouds 9 1021 76 10000 2.6 350 15:58 28.10.2019
5406 Clouds 9 1021 76 10000 2.6 350 15:39 28.10.2019
5407 Clouds 9 1021 76 10000 2.6 340 15:20 28.10.2019
5408 Clouds 9 1021 76 10000 2.6 340 14:57 28.10.2019
5409 Clouds 9 1021 76 10000 2.6 340 14:38 28.10.2019
5410 Clouds 9 1021 70 10000 2.1 330 14:18 28.10.2019
5411 Clouds 10 1022 76 10000 2.1 0 13:54 28.10.2019
5412 Clouds 9 1022 76 10000 2.1 0 13:36 28.10.2019
5413 Clouds 9 1022 76 10000 2.1 310 13:18 28.10.2019
5414 Clouds 8 1022 76 10000 2.1 300 12:41 28.10.2019
5415 Clouds 8 1022 76 10000 2.1 300 12:41 28.10.2019
5416 Clouds 8 1022 81 10000 1.5 340 12:20 28.10.2019
5417 Clouds 7 1023 81 10000 2.6 30 11:40 28.10.2019
5418 Clouds 6 1023 87 10000 2.1 330 11:21 28.10.2019
5419 Clouds 6 1023 93 10000 2.6 310 10:57 28.10.2019
5420 Clouds 6 1023 93 10000 2.6 310 10:38 28.10.2019
5421 Clouds 6 1023 93 10000 1.5 340 10:20 28.10.2019
5422 Clouds 6 1023 100 6000 1.5 360 09:55 28.10.2019
5423 Clouds 6 1023 100 6000 1.5 360 09:55 28.10.2019
5424 Clouds 5 1023 100 6000 1.5 360 09:36 28.10.2019
5425 Mist 5 1023 100 1400 1 0 09:18 28.10.2019
5426 Fog 5 1023 100 300 1 0 08:56 28.10.2019
5427 Fog 5 1023 100 300 1 0 08:37 28.10.2019
5428 Fog 5 1023 100 200 2.1 350 08:18 28.10.2019
5429 Fog 5 1022 100 1500 2.6 360 07:43 28.10.2019
5430 Fog 5 1022 100 9000 1.5 320 07:23 28.10.2019
5431 Fog 5 1022 100 9000 1.5 320 06:59 28.10.2019
5432 Clouds 5 1022 93 10000 2.6 340 06:37 28.10.2019
5433 Clouds 6 1022 93 10000 3.1 340 05:19 28.10.2019
5434 Clouds 6 1022 93 10000 2.6 330 03:44 28.10.2019
5435 Clouds 7 1022 93 10000 2.1 310 02:45 28.10.2019
5436 Rain 6 1022 100 10000 2.1 300 01:36 28.10.2019
5437 Drizzle 7 1022 100 4500 3.6 310 00:47 28.10.2019
5438 Rain 7 1021 100 10000 3.1 320 00:24 28.10.2019
5439 Rain 7 1021 100 10000 4.1 320 23:44 27.10.2019
5440 Rain 7 1021 100 10000 4.1 330 23:21 27.10.2019
5441 Rain 8 1021 100 10000 4.6 310 22:56 27.10.2019
5442 Rain 8 1021 100 10000 4.6 310 22:37 27.10.2019
5443 Rain 8 1021 93 10000 5.1 320 22:19 27.10.2019
5444 Rain 9 1021 93 10000 5.1 320 21:55 27.10.2019
5445 Rain 9 1021 87 10000 4.6 320 21:37 27.10.2019
5446 Rain 9 1021 93 8000 5.7 330 21:18 27.10.2019
5447 Rain 11 1020 100 7000 4.1 350 20:41 27.10.2019
5448 Rain 12 1020 100 7000 2.6 330 20:23 27.10.2019
5449 Rain 12 1020 100 7000 2.6 330 19:58 27.10.2019
5450 Rain 13 1020 93 10000 1 0 19:37 27.10.2019
5451 Rain 13 1020 87 10000 3.6 310 19:19 27.10.2019
5452 Clouds 13 1020 87 10000 3.6 300 18:56 27.10.2019
5453 Clouds 14 1020 87 10000 3.6 300 18:38 27.10.2019
5454 Clouds 14 1019 87 10000 2.1 20 18:20 27.10.2019
5455 Clouds 14 1019 87 10000 2.1 20 17:55 27.10.2019
5456 Clouds 15 1019 82 10000 4.1 310 17:36 27.10.2019
5457 Clouds 15 1019 82 10000 4.1 310 17:18 27.10.2019
5458 Clouds 16 1019 77 10000 2.6 290 16:55 27.10.2019
5459 Clouds 16 1019 77 10000 2.6 290 16:55 27.10.2019
5460 Clouds 16 1019 77 10000 2.6 290 16:37 27.10.2019
5461 Clouds 16 1019 77 10000 2.6 280 16:18 27.10.2019
5462 Clouds 16 1019 77 10000 2.6 280 15:54 27.10.2019
5463 Clouds 16 1019 67 10000 4.1 290 15:36 27.10.2019
5464 Clouds 17 1019 67 10000 4.6 260 15:18 27.10.2019
5465 Clouds 18 1019 59 10000 5.1 260 14:41 27.10.2019
5466 Clouds 18 1019 63 10000 4.1 260 14:19 27.10.2019
5467 Clouds 18 1019 63 10000 4.1 260 13:55 27.10.2019
5468 Clouds 18 1019 63 10000 4.6 270 13:36 27.10.2019
5469 Clouds 18 1019 63 10000 6.2 250 13:18 27.10.2019
5470 Clouds 18 1019 59 10000 5.1 260 12:42 27.10.2019
5471 Clouds 18 1019 63 10000 6.2 260 12:23 27.10.2019
5472 Clouds 18 1019 63 10000 6.2 270 11:43 27.10.2019
5473 Clouds 18 1019 63 10000 3.1 230 11:25 27.10.2019
5474 Clouds 18 1019 63 10000 3.1 230 11:25 27.10.2019
5475 Clouds 16 1019 67 10000 3.1 210 10:59 27.10.2019
5476 Clouds 16 1019 63 10000 3.1 230 10:59 27.10.2019
5477 Clouds 15 1019 67 10000 3.1 210 10:41 27.10.2019
5478 Clouds 14 1019 72 10000 3.6 180 10:22 27.10.2019
5479 Clouds 13 1019 82 10000 2.1 110 09:43 27.10.2019
5480 Clouds 11 1019 87 10000 3.1 130 09:19 27.10.2019
5481 Clouds 11 1019 81 10000 1.5 120 08:57 27.10.2019
5482 Clouds 11 1019 81 10000 1.5 120 08:38 27.10.2019
5483 Clouds 9 1019 93 10000 3.1 130 08:19 27.10.2019
5484 Clouds 8 1019 100 10000 3.6 120 07:47 27.10.2019
5485 Clouds 8 1019 100 10000 3.6 120 07:28 27.10.2019
5486 Clouds 8 1018 93 10000 3.6 110 06:55 27.10.2019
5487 Clouds 9 1018 93 10000 4.1 110 06:29 27.10.2019
5488 Clouds 8 1018 93 10000 4.1 110 05:57 27.10.2019
5489 Clouds 8 1018 93 10000 4.6 110 05:36 27.10.2019
5490 Clouds 9 1018 93 10000 3.6 110 04:25 27.10.2019
5491 Clouds 9 1019 100 10000 4.1 120 02:29 27.10.2019
5492 Clouds 10 1019 100 10000 4.1 100 01:27 27.10.2019
5493 Clouds 10 1019 100 10000 3.6 110 00:53 27.10.2019
5494 Clouds 10 1019 100 10000 3.6 110 00:35 27.10.2019
5495 Clear 11 1019 93 10000 3.1 110 23:58 26.10.2019
5496 Clear 11 1019 93 10000 3.1 110 23:40 26.10.2019
5497 Clear 11 1019 93 10000 4.1 120 23:21 26.10.2019
5498 Clear 11 1019 93 10000 4.1 120 22:57 26.10.2019
5499 Clear 11 1019 93 10000 4.1 120 22:38 26.10.2019
5500 Clear 11 1019 93 10000 4.1 130 22:19 26.10.2019
5501 Clear 11 1019 93 10000 4.1 110 21:55 26.10.2019
5502 Clear 11 1019 93 10000 4.1 110 21:36 26.10.2019
5503 Clear 12 1019 93 10000 3.6 110 21:18 26.10.2019
5504 Clear 12 1019 93 10000 4.1 110 20:42 26.10.2019
5505 Clear 12 1019 87 10000 3.1 120 20:19 26.10.2019
5506 Clear 13 1019 87 10000 3.1 130 19:43 26.10.2019
5507 Clear 13 1019 82 10000 3.1 150 19:21 26.10.2019
5508 Clear 13 1019 82 10000 3.1 150 18:58 26.10.2019
5509 Clear 14 1019 77 10000 2.6 160 18:40 26.10.2019
5510 Clear 14 1019 72 10000 3.6 160 18:20 26.10.2019
5511 Clear 15 1019 72 10000 3.6 160 17:58 26.10.2019
5512 Clear 16 1019 68 10000 3.1 170 17:39 26.10.2019
5513 Clear 16 1019 68 10000 3.1 170 17:39 26.10.2019
5514 Clear 16 1019 63 10000 2.6 180 17:20 26.10.2019
5515 Clear 17 1019 59 10000 2.6 200 16:46 26.10.2019
5516 Clear 17 1019 59 10000 2.6 200 16:25 26.10.2019
5517 Clear 17 1019 63 10000 2.6 180 15:59 26.10.2019
5518 Clear 17 1019 59 10000 3.1 190 15:40 26.10.2019
5519 Clear 17 1019 63 10000 3.6 190 15:18 26.10.2019
5520 Clear 17 1019 59 10000 3.6 170 14:40 26.10.2019
5521 Clear 18 1019 64 0 2.6 183 14:20 26.10.2019
5522 Clear 17 1020 63 10000 3.6 190 13:58 26.10.2019
5523 Clear 17 1020 63 10000 3.1 200 13:37 26.10.2019
5524 Clear 18 1019 64 0 2.6 183 13:19 26.10.2019
5525 Clear 15 1021 72 10000 2.6 160 12:44 26.10.2019
5526 Clear 11 1022 82 10000 2.1 130 12:21 26.10.2019
5527 Clear 11 1022 82 10000 2.1 130 11:48 26.10.2019
5528 Clear 11 1022 82 10000 2.1 130 11:26 26.10.2019
5529 Clear 9 1022 87 10000 3.1 130 10:47 26.10.2019
5530 Clear 9 1022 87 10000 3.1 130 10:27 26.10.2019
5531 Clear 7 1022 93 10000 2.6 120 09:50 26.10.2019
5532 Clear 7 1022 93 10000 2.6 120 09:30 26.10.2019
5533 Clouds 6 1022 100 10000 3.1 110 08:57 26.10.2019
5534 Fog 6 1022 100 10000 2.6 120 08:39 26.10.2019
5535 Fog 6 1022 100 8000 2.6 130 08:20 26.10.2019
5536 Clouds 5 1022 100 10000 3.1 110 07:43 26.10.2019
5537 Clouds 5 1021 100 10000 3.6 110 07:23 26.10.2019
5538 Clouds 5 1021 100 10000 3.1 110 06:40 26.10.2019
5539 Clouds 6 1022 100 10000 3.1 110 05:57 26.10.2019
5540 Fog 5 1022 100 10000 2.1 110 05:19 26.10.2019
5541 Clouds 7 1022 93 10000 2.1 100 03:53 26.10.2019
5542 Clouds 7 1022 100 10000 2.1 110 02:33 26.10.2019
5543 Clouds 7 1023 100 10000 2.1 110 01:47 26.10.2019
5544 Clouds 7 1023 100 10000 2.6 120 00:52 26.10.2019
5545 Clouds 8 1023 93 10000 2.1 120 23:56 25.10.2019
5546 Clouds 8 1023 93 10000 2.1 120 23:38 25.10.2019
5547 Clouds 8 1023 100 10000 2.6 120 23:19 25.10.2019
5548 Clouds 9 1023 93 10000 1 100 22:39 25.10.2019
5549 Clouds 9 1024 100 10000 2.1 110 22:21 25.10.2019
5550 Clouds 9 1024 93 10000 3.1 100 21:56 25.10.2019
5551 Clouds 9 1024 93 10000 3.1 100 21:38 25.10.2019
5552 Clouds 10 1024 87 10000 2.1 100 21:19 25.10.2019
5553 Clouds 10 1024 93 10000 1 120 20:43 25.10.2019
5554 Clouds 11 1024 100 10000 1 350 20:20 25.10.2019
5555 Clouds 11 1023 93 10000 0.5 80 19:47 25.10.2019
5556 Clouds 11 1023 93 10000 0.5 80 19:47 25.10.2019
5557 Clouds 12 1023 93 10000 0.5 80 19:29 25.10.2019
5558 Clouds 13 1023 87 10000 1 360 18:56 25.10.2019
5559 Clouds 14 1023 87 10000 1 360 18:37 25.10.2019
5560 Clouds 14 1023 72 10000 1.5 320 18:19 25.10.2019
5561 Clouds 15 1023 72 10000 2.1 300 17:39 25.10.2019
5562 Clouds 15 1023 67 10000 2.1 310 17:20 25.10.2019
5563 Clouds 16 1023 67 10000 2.1 250 16:46 25.10.2019
5564 Clouds 16 1023 59 10000 2.1 260 16:23 25.10.2019
5565 Clouds 16 1023 59 10000 2.1 260 15:57 25.10.2019
5566 Clouds 17 1023 59 10000 2.6 260 15:38 25.10.2019
5567 Clouds 17 1023 59 10000 4.1 250 15:20 25.10.2019
5568 Clouds 17 1023 59 10000 4.1 250 15:20 25.10.2019
5569 Clouds 16 1023 59 10000 4.1 250 15:20 25.10.2019
5570 Clouds 16 1023 59 10000 5.1 270 14:42 25.10.2019
5571 Clouds 17 1023 63 10000 4.6 270 14:23 25.10.2019
5572 Clouds 16 1023 63 10000 4.6 270 13:59 25.10.2019
5573 Clouds 16 1023 59 10000 4.1 250 13:39 25.10.2019
5574 Clouds 16 1023 63 10000 4.1 250 13:21 25.10.2019
5575 Clouds 16 1023 63 10000 3.1 260 12:43 25.10.2019
5576 Clouds 16 1023 63 10000 5.7 280 12:22 25.10.2019
5577 Clouds 15 1023 67 10000 3.6 260 11:59 25.10.2019
5578 Clouds 15 1023 67 10000 3.6 260 11:38 25.10.2019
5579 Clouds 15 1023 72 10000 3.6 240 11:19 25.10.2019
5580 Rain 13 1023 82 10000 3.1 260 10:41 25.10.2019
5581 Clouds 12 1022 82 10000 3.1 250 10:23 25.10.2019
5582 Clouds 11 1022 87 10000 1 0 09:58 25.10.2019
5583 Clouds 11 1022 87 10000 1 0 09:39 25.10.2019
5584 Clouds 11 1021 93 10000 1.5 170 09:20 25.10.2019
5585 Clouds 11 1021 93 10000 2.1 120 08:51 25.10.2019
5586 Clouds 11 1021 93 10000 2.1 120 08:33 25.10.2019
5587 Clouds 11 1020 93 10000 2.6 130 07:57 25.10.2019
5588 Clouds 11 1020 93 10000 2.6 110 07:35 25.10.2019
5589 Clouds 11 1020 100 10000 2.1 110 06:42 25.10.2019
5590 Clouds 11 1019 100 10000 2.1 110 05:59 25.10.2019
5591 Clouds 11 1019 100 10000 2.1 110 05:37 25.10.2019
5592 Clouds 11 1018 100 10000 3.1 100 04:53 25.10.2019
5593 Rain 11 1018 93 10000 2.6 120 03:39 25.10.2019
5594 Clouds 11 1017 93 10000 4.1 110 01:54 25.10.2019
5595 Clouds 11 1017 93 10000 4.1 110 01:27 25.10.2019
5596 Clouds 11 1016 93 10000 1.5 90 00:21 25.10.2019
5597 Clouds 11 1016 93 10000 1.5 110 23:41 24.10.2019
5598 Clouds 11 1015 93 10000 2.6 100 23:22 24.10.2019
5599 Clouds 11 1015 93 10000 2.1 90 22:56 24.10.2019
5600 Clouds 11 1015 93 10000 2.1 90 22:37 24.10.2019
5601 Clouds 11 1015 93 10000 1.5 100 22:18 24.10.2019
5602 Clouds 11 1015 93 10000 1 140 21:56 24.10.2019
5603 Clouds 11 1015 93 10000 1 140 21:37 24.10.2019
5604 Clouds 11 1015 100 10000 1.5 110 21:19 24.10.2019
5605 Clouds 11 1015 100 10000 1.5 110 20:56 24.10.2019
5606 Clouds 11 1015 93 10000 2.6 100 20:38 24.10.2019
5607 Clouds 11 1014 100 10000 2.6 100 20:19 24.10.2019
5608 Fog 11 1014 100 10000 2.1 130 19:44 24.10.2019
5609 Fog 12 1014 93 10000 1 0 19:24 24.10.2019
5610 Fog 12 1014 93 10000 1 0 18:59 24.10.2019
5611 Clouds 12 1014 93 10000 1.5 50 18:40 24.10.2019
5612 Clouds 13 1013 87 10000 1 0 18:21 24.10.2019
5613 Clouds 13 1013 87 10000 2.6 10 17:59 24.10.2019
5614 Clouds 13 1013 87 10000 2.6 10 17:39 24.10.2019
5615 Clouds 14 1013 82 10000 2.1 310 17:19 24.10.2019
5616 Clouds 14 1013 82 10000 2.1 310 16:54 24.10.2019
5617 Clouds 14 1012 87 10000 2.1 360 16:36 24.10.2019
5618 Clouds 14 1012 87 10000 2.1 310 16:18 24.10.2019
5619 Clouds 14 1012 93 8000 3.6 320 15:54 24.10.2019
5620 Clouds 14 1012 93 8000 3.6 320 15:36 24.10.2019
5621 Clouds 14 1012 93 7000 2.6 320 15:18 24.10.2019
5622 Clouds 14 1012 93 7000 1.5 330 14:42 24.10.2019
5623 Clouds 14 1012 93 6000 0.5 0 14:23 24.10.2019
5624 Clouds 13 1012 93 6000 0.5 0 13:58 24.10.2019
5625 Clouds 13 1013 93 6000 1.5 190 13:37 24.10.2019
5626 Mist 12 1012 100 4500 1.5 150 13:18 24.10.2019
5627 Mist 12 1012 100 4500 1.5 150 12:55 24.10.2019
5628 Mist 12 1012 93 2700 2.1 100 12:37 24.10.2019
5629 Mist 12 1012 100 2000 1.5 160 12:18 24.10.2019
5630 Mist 11 1012 100 1600 1.5 140 11:54 24.10.2019
5631 Mist 11 1012 100 1600 1.5 140 11:36 24.10.2019
5632 Mist 11 1011 100 1600 1.5 120 11:18 24.10.2019
5633 Mist 11 1011 100 1600 1.5 70 10:41 24.10.2019
5634 Mist 11 1012 100 1800 1 0 10:23 24.10.2019
5635 Mist 11 1012 100 1200 1 0 09:39 24.10.2019
5636 Fog 10 1012 100 300 1 0 09:19 24.10.2019
5637 Fog 10 1012 100 300 1 0 08:58 24.10.2019
5638 Fog 10 1012 100 150 1 0 08:38 24.10.2019
5639 Fog 10 1011 100 100 1 0 08:19 24.10.2019
5640 Mist 10 1011 100 2000 1 0 07:47 24.10.2019
5641 Fog 10 1011 100 900 1 0 07:23 24.10.2019
5642 Fog 10 1011 100 900 1 0 07:23 24.10.2019
5643 Fog 9 1011 100 200 1 0 06:51 24.10.2019
5644 Fog 9 1011 100 200 1 0 06:32 24.10.2019
5645 Fog 9 1010 100 200 0.5 330 05:54 24.10.2019
5646 Fog 9 1010 100 200 0.5 330 05:30 24.10.2019
5647 Mist 9 1011 100 1800 1.5 120 04:22 24.10.2019
5648 Mist 9 1011 100 2500 1 70 03:29 24.10.2019
5649 Mist 9 1012 100 2500 1 160 02:35 24.10.2019
5650 Mist 9 1012 100 2500 1 0 01:59 24.10.2019
5651 Mist 9 1012 100 2700 1.5 100 01:30 24.10.2019
5652 Mist 9 1012 93 2500 1 0 00:53 24.10.2019
5653 Mist 9 1013 100 3500 2.1 100 00:23 24.10.2019
5654 Fog 9 1013 100 7000 2.6 100 23:44 23.10.2019
5655 Fog 9 1013 100 7000 2.6 100 23:25 23.10.2019
5656 Fog 9 1013 100 7000 1.5 100 22:58 23.10.2019
5657 Fog 9 1013 100 7000 1.5 100 22:39 23.10.2019
5658 Fog 9 1013 100 7000 2.1 100 22:19 23.10.2019
5659 Fog 9 1013 100 7000 2.1 100 21:58 23.10.2019
5660 Fog 9 1014 93 7000 1.5 130 21:40 23.10.2019
5661 Fog 9 1014 93 7000 1.5 130 21:40 23.10.2019
5662 Fog 10 1014 100 7000 2.1 90 21:21 23.10.2019
5663 Fog 10 1014 100 7000 2.1 90 20:59 23.10.2019
5664 Clear 10 1014 100 10000 1.5 80 20:39 23.10.2019
5665 Clear 11 1015 93 10000 1 0 20:21 23.10.2019
5666 Clear 12 1015 93 10000 1.5 100 19:58 23.10.2019
5667 Clear 12 1015 93 10000 1.5 100 19:40 23.10.2019
5668 Clouds 13 1015 93 10000 2.1 140 19:19 23.10.2019
5669 Clouds 13 1015 93 10000 2.1 140 18:56 23.10.2019
5670 Clouds 14 1015 87 10000 3.6 140 18:38 23.10.2019
5671 Clouds 14 1015 82 10000 4.1 120 18:18 23.10.2019
5672 Clouds 14 1015 82 10000 4.1 120 18:18 23.10.2019
5673 Clouds 14 1015 82 10000 4.6 120 17:45 23.10.2019
5674 Clouds 15 1015 82 10000 4.1 110 17:20 23.10.2019
5675 Clouds 15 1015 82 10000 4.6 120 16:58 23.10.2019
5676 Clouds 15 1015 82 10000 4.6 120 16:40 23.10.2019
5677 Clouds 15 1015 82 10000 4.6 90 16:20 23.10.2019
5678 Clouds 15 1016 82 10000 4.6 100 15:42 23.10.2019
5679 Clouds 15 1016 82 10000 4.6 100 15:42 23.10.2019
5680 Clouds 15 1016 82 10000 4.6 100 15:23 23.10.2019
5681 Clouds 15 1016 82 10000 4.6 100 14:58 23.10.2019
5682 Clouds 15 1016 82 10000 4.6 100 14:39 23.10.2019
5683 Clouds 15 1017 82 10000 4.6 100 14:20 23.10.2019
5684 Clouds 15 1017 82 10000 4.6 100 13:59 23.10.2019
5685 Clouds 14 1017 82 10000 4.6 100 13:40 23.10.2019
5686 Clouds 14 1017 93 10000 3.6 110 13:22 23.10.2019
5687 Clouds 14 1017 93 10000 3.6 110 12:56 23.10.2019
5688 Clouds 13 1018 93 10000 3.6 110 12:37 23.10.2019
5689 Clouds 13 1018 87 10000 3.6 90 12:18 23.10.2019
5690 Clouds 13 1018 87 10000 3.6 90 11:56 23.10.2019
5691 Clouds 13 1018 87 10000 3.6 100 11:38 23.10.2019
5692 Drizzle 13 1019 93 10000 3.6 100 11:19 23.10.2019
5693 Drizzle 12 1019 93 9000 2.6 100 10:45 23.10.2019
5694 Drizzle 12 1019 93 8000 2.6 90 10:25 23.10.2019
5695 Drizzle 12 1019 100 5000 2.6 90 09:55 23.10.2019
5696 Drizzle 12 1019 100 5000 2.6 90 09:36 23.10.2019
5697 Drizzle 11 1019 100 3500 1.5 80 09:18 23.10.2019
5698 Drizzle 11 1019 100 4500 1 0 08:41 23.10.2019
5699 Drizzle 11 1019 100 4500 1 0 08:41 23.10.2019
5700 Mist 11 1019 100 5000 2.1 100 08:23 23.10.2019
5701 Clouds 11 1019 93 8000 3.1 120 07:46 23.10.2019
5702 Drizzle 11 1019 93 6000 4.1 110 07:22 23.10.2019
5703 Clouds 11 1019 93 6000 3.6 110 06:47 23.10.2019
5704 Mist 11 1019 100 4000 1 0 06:22 23.10.2019
5705 Mist 10 1019 100 5000 1 110 05:47 23.10.2019
5706 Mist 10 1020 100 5000 1 10 04:54 23.10.2019
5707 Mist 9 1021 100 5000 1 150 03:35 23.10.2019
5708 Mist 9 1021 100 4000 0.5 0 02:40 23.10.2019
5709 Mist 9 1022 100 1800 0.5 0 01:32 23.10.2019
5710 Mist 8 1022 100 1800 0.5 0 00:56 23.10.2019
5711 Mist 9 1022 100 2000 1 0 00:28 23.10.2019
5712 Fog 9 1022 100 9000 0.5 0 23:40 22.10.2019
5713 Fog 9 1022 100 9000 0.5 30 23:18 22.10.2019
5714 Fog 9 1022 100 9000 0.5 30 22:56 22.10.2019
5715 Fog 9 1022 93 10000 2.1 100 22:38 22.10.2019
5716 Fog 10 1022 100 10000 1 0 22:19 22.10.2019
5717 Fog 10 1022 100 10000 1 0 21:56 22.10.2019
5718 Fog 10 1022 93 10000 1 0 21:37 22.10.2019
5719 Fog 11 1023 100 10000 0.5 0 21:18 22.10.2019
5720 Fog 11 1023 100 10000 0.5 0 21:18 22.10.2019
5721 Fog 11 1023 100 10000 1 0 20:55 22.10.2019
5722 Fog 11 1023 100 10000 1 0 20:37 22.10.2019
5723 Fog 11 1023 100 10000 1 0 20:37 22.10.2019
5724 Clouds 12 1023 93 10000 0.5 0 20:18 22.10.2019
5725 Clouds 12 1023 93 10000 0.5 0 19:43 22.10.2019
5726 Clouds 13 1023 93 10000 0.5 0 19:24 22.10.2019
5727 Clouds 14 1023 93 10000 0.5 0 18:58 22.10.2019
5728 Clouds 14 1023 82 10000 1 130 18:40 22.10.2019
5729 Clouds 15 1023 77 10000 1.5 330 18:21 22.10.2019
5730 Clouds 16 1023 72 10000 2.6 320 17:56 22.10.2019
5731 Clouds 16 1023 72 10000 2.6 320 17:38 22.10.2019
5732 Clouds 16 1023 72 10000 1.5 310 17:19 22.10.2019
5733 Clouds 16 1023 72 10000 1.5 310 16:57 22.10.2019
5734 Clouds 16 1023 72 10000 1.5 310 16:37 22.10.2019
5735 Clouds 16 1023 72 10000 2.6 320 16:18 22.10.2019
5736 Clouds 16 1023 72 10000 2.6 330 15:43 22.10.2019
5737 Clouds 16 1023 77 10000 3.1 330 15:21 22.10.2019
5738 Clouds 16 1024 77 10000 3.1 310 14:57 22.10.2019
5739 Clouds 16 1024 77 10000 3.1 310 14:39 22.10.2019
5740 Clouds 16 1024 77 10000 2.1 330 14:18 22.10.2019
5741 Clouds 15 1024 87 10000 2.1 340 13:42 22.10.2019
5742 Clouds 15 1025 87 10000 2.1 350 13:20 22.10.2019
5743 Clouds 14 1025 87 10000 2.1 350 12:57 22.10.2019
5744 Clouds 14 1025 93 10000 2.6 340 12:38 22.10.2019
5745 Mist 13 1025 100 1600 3.1 310 12:20 22.10.2019
5746 Mist 12 1025 100 1100 2.6 290 11:42 22.10.2019
5747 Fog 11 1024 100 400 1 90 11:23 22.10.2019
5748 Fog 11 1024 100 400 1 90 10:59 22.10.2019
5749 Fog 11 1024 100 250 1.5 320 10:38 22.10.2019
5750 Fog 11 1024 100 250 2.1 310 10:19 22.10.2019
5751 Fog 11 1024 100 250 2.1 310 10:19 22.10.2019
5752 Fog 9 1024 100 250 2.1 310 09:59 22.10.2019
5753 Fog 9 1024 100 300 1 0 09:41 22.10.2019
5754 Fog 9 1023 100 300 1.5 60 09:21 22.10.2019
5755 Fog 8 1023 100 300 1.5 60 08:57 22.10.2019
5756 Fog 8 1024 100 300 0.5 0 08:39 22.10.2019
5757 Rain 8 1023 100 350 1.5 280 08:19 22.10.2019
5758 Fog 8 1023 100 500 0.5 0 07:44 22.10.2019
5759 Fog 8 1023 100 400 1 0 07:24 22.10.2019
5760 Fog 8 1023 100 150 1 70 06:44 22.10.2019
5761 Fog 9 1023 100 150 1 70 06:25 22.10.2019
5762 Mist 9 1023 100 1200 1 280 05:40 22.10.2019
5763 Fog 9 1022 100 400 0.5 0 04:22 22.10.2019
5764 Fog 10 1023 100 2500 0.5 310 02:31 22.10.2019
5765 Clouds 10 1023 100 10000 1.5 320 01:38 22.10.2019
5766 Clouds 10 1023 100 10000 2.6 340 01:18 22.10.2019
5767 Fog 11 1022 100 10000 1 320 00:42 22.10.2019
5768 Fog 11 1022 100 10000 1 320 00:24 22.10.2019
5769 Fog 11 1022 100 10000 2.1 250 23:59 21.10.2019
5770 Fog 11 1022 100 10000 1.5 350 23:38 21.10.2019
5771 Fog 11 1022 100 10000 1.5 350 23:19 21.10.2019
5772 Fog 11 1022 100 10000 1.5 350 23:19 21.10.2019
5773 Fog 12 1022 100 10000 1.5 330 22:58 21.10.2019
5774 Fog 12 1022 100 10000 1.5 330 22:39 21.10.2019
5775 Fog 12 1022 100 10000 1 340 22:20 21.10.2019
5776 Fog 12 1022 100 10000 1 340 21:57 21.10.2019
5777 Clouds 12 1021 93 10000 1.5 340 21:38 21.10.2019
5778 Clouds 12 1022 100 10000 0.5 0 21:19 21.10.2019
5779 Clouds 13 1022 93 10000 0.5 0 20:57 21.10.2019
5780 Clouds 13 1022 93 10000 0.5 0 20:38 21.10.2019
5781 Clouds 13 1022 93 10000 1 350 20:20 21.10.2019
5782 Clouds 14 1022 93 10000 1 350 19:55 21.10.2019
5783 -273 0 0 0 0 0 19:55 21.10.2019
5784 Clouds 14 1021 93 10000 1 0 19:36 21.10.2019
5785 Clouds 14 1021 93 10000 1 340 19:18 21.10.2019
5786 Clouds 15 1020 87 10000 1 320 18:55 21.10.2019
5787 Clouds 15 1020 87 10000 1 320 18:36 21.10.2019
5788 Clouds 16 1020 82 10000 0.5 0 18:18 21.10.2019
5789 Clouds 17 1020 72 10000 1 0 17:39 21.10.2019
5790 Clouds 17 1020 72 10000 1 0 17:39 21.10.2019
5791 Clouds 17 1020 68 10000 1 0 17:19 21.10.2019
5792 Clouds 17 1020 68 10000 1 0 16:58 21.10.2019
5793 Clouds 17 1020 72 10000 1 0 16:40 21.10.2019
5794 Clouds 17 1020 72 10000 0.5 0 16:21 21.10.2019
5795 Clouds 17 1020 72 10000 0.5 0 15:58 21.10.2019
5796 Clouds 17 1020 77 10000 1 200 15:39 21.10.2019
5797 Clouds 16 1020 77 10000 1.5 130 15:19 21.10.2019
5798 Clouds 16 1020 77 10000 2.1 110 14:40 21.10.2019
5799 Clouds 16 1020 77 10000 2.6 150 14:21 21.10.2019
5800 Clouds 15 1020 77 10000 2.6 150 13:59 21.10.2019
5801 Clouds 14 1019 87 10000 1 0 13:40 21.10.2019
5802 Clouds 13 1019 87 10000 0.5 0 13:20 21.10.2019
5803 Clouds 12 1019 87 10000 0.5 0 12:58 21.10.2019
5804 Clouds 12 1019 93 10000 1.5 120 12:40 21.10.2019
5805 Clear 12 1019 87 10000 1 0 12:20 21.10.2019
5806 Clear 12 1019 87 10000 1 0 12:20 21.10.2019
5807 Rain 11 1019 93 10000 2.1 0 11:42 21.10.2019
5808 Clear 11 1019 93 10000 2.1 80 11:23 21.10.2019
5809 Clear 11 1019 93 10000 2.1 80 10:59 21.10.2019
5810 Clear 10 1019 100 10000 1 0 10:40 21.10.2019
5811 Clear 11 1018 93 10000 1 0 10:20 21.10.2019
5812 Mist 9 1018 93 10000 1 0 09:58 21.10.2019
5813 Mist 8 1018 100 10000 1 0 09:39 21.10.2019
5814 Mist 9 1017 100 10000 1 0 09:21 21.10.2019
5815 Fog 9 1016 100 10000 1 0 08:41 21.10.2019
5816 Fog 8 1016 100 8000 0.5 0 08:23 21.10.2019
5817 Fog 8 1016 100 8000 0.5 0 08:23 21.10.2019
5818 Mist 8 1015 100 8000 1 0 07:46 21.10.2019
5819 Mist 8 1015 100 8000 1 0 07:23 21.10.2019
5820 Mist 8 1015 100 8000 1 0 07:00 21.10.2019
5821 Fog 8 1014 93 8000 1.5 130 06:41 21.10.2019
5822 Mist 9 1014 100 10000 0.5 0 06:18 21.10.2019
5823 Fog 9 1013 100 10000 1.5 130 05:22 21.10.2019
5824 Mist 10 1013 100 10000 1.5 10 03:41 21.10.2019
5825 Mist 11 1012 93 10000 1 0 02:39 21.10.2019
5826 Clear 11 1011 93 10000 3.6 110 02:20 21.10.2019
5827 Clear 11 1011 93 10000 2.1 140 01:44 21.10.2019
5828 Clear 11 1011 93 10000 1.5 120 00:54 21.10.2019
5829 Clear 11 1011 93 10000 2.6 100 00:28 21.10.2019
5830 Clear 11 1011 93 10000 3.1 50 23:58 20.10.2019
5831 Clear 11 1011 100 10000 0.5 0 23:39 20.10.2019
5832 Clear 11 1011 93 10000 0.5 0 23:21 20.10.2019
5833 Clear 12 1010 93 10000 1 0 22:42 20.10.2019
5834 Clear 12 1010 93 10000 1 0 22:24 20.10.2019
5835 Clear 12 1010 93 10000 1 0 22:24 20.10.2019
5836 Clear 12 1010 93 10000 1 0 22:24 20.10.2019
5837 Clear 12 1010 100 10000 0.5 0 21:59 20.10.2019
5838 Clear 12 1010 93 10000 0.5 0 21:40 20.10.2019
5839 Clear 13 1010 87 10000 1 0 21:22 20.10.2019
5840 Clear 13 1010 87 10000 1 0 21:22 20.10.2019
5841 Clear 13 1010 87 10000 1 0 20:56 20.10.2019
5842 Clear 13 1010 93 10000 0.5 60 20:38 20.10.2019
5843 Clear 13 1010 87 10000 1 0 20:18 20.10.2019
5844 Clear 14 1010 87 10000 1 0 19:55 20.10.2019
5845 Clear 14 1009 82 10000 2.1 90 19:37 20.10.2019
5846 Clear 14 1009 82 10000 1.5 90 19:18 20.10.2019
5847 Clear 15 1009 77 10000 2.6 100 18:40 20.10.2019
5848 Clear 16 1009 77 10000 2.6 100 18:22 20.10.2019
5849 Clear 17 1009 77 10000 2.6 100 17:57 20.10.2019
5850 Clear 17 1009 68 10000 3.6 120 17:38 20.10.2019
5851 Clear 18 1009 63 10000 4.1 140 17:20 20.10.2019
5852 Clear 18 1009 63 10000 4.1 130 16:43 20.10.2019
5853 Clear 18 1009 63 10000 4.1 130 16:24 20.10.2019
5854 Clear 18 1009 63 10000 4.6 130 15:59 20.10.2019
5855 Clear 19 1009 63 10000 5.1 120 15:40 20.10.2019
5856 Clear 18 1009 68 10000 4.1 120 15:20 20.10.2019
5857 Clear 17 1009 68 10000 4.1 120 14:58 20.10.2019
5858 Clear 17 1009 63 10000 3.6 110 14:38 20.10.2019
5859 Clear 17 1009 63 10000 3.6 110 14:38 20.10.2019
5860 Clear 17 1009 63 10000 3.6 120 14:19 20.10.2019
5861 Clear 16 1009 63 10000 3.6 120 13:56 20.10.2019
5862 Clear 15 1010 72 10000 2.6 120 13:37 20.10.2019
5863 Clear 15 1010 77 10000 1.5 130 13:18 20.10.2019
5864 Clear 14 1010 77 10000 1.5 130 12:56 20.10.2019
5865 Clouds 14 1010 82 10000 2.1 150 12:38 20.10.2019
5866 Mist 13 1011 82 10000 2.6 160 12:20 20.10.2019
5867 Mist 13 1011 82 10000 2.6 160 11:57 20.10.2019
5868 Mist 13 1011 87 10000 4.1 140 11:38 20.10.2019
5869 Mist 13 1011 81 10000 2.6 150 11:20 20.10.2019
5870 Fog 12 1010 93 10000 3.1 150 10:41 20.10.2019
5871 Fog 12 1010 93 10000 3.1 150 10:41 20.10.2019
5872 Mist 12 1010 87 8000 4.1 150 10:22 20.10.2019
5873 Mist 11 1010 87 8000 4.1 150 09:59 20.10.2019
5874 Mist 11 1011 87 10000 2.6 140 09:41 20.10.2019
5875 Rain 11 1010 93 10000 3.6 120 09:21 20.10.2019
5876 Rain 10 1010 93 10000 1 0 08:49 20.10.2019
5877 Rain 10 1010 93 10000 1 0 08:27 20.10.2019
5878 Fog 10 1010 100 10000 2.6 110 07:51 20.10.2019
5879 Clear 10 1010 100 10000 2.6 110 07:31 20.10.2019
5880 Clear 10 1010 93 10000 2.1 100 06:59 20.10.2019
5881 Clear 10 1010 93 10000 1 0 06:21 20.10.2019
5882 Mist 10 1010 100 10000 1.5 130 04:28 20.10.2019
5883 Clear 10 1010 100 10000 2.6 80 03:47 20.10.2019
5884 Clear 10 1010 93 10000 4.1 100 03:20 20.10.2019
5885 Rain 11 1011 100 10000 1 0 02:43 20.10.2019
5886 Rain 11 1011 100 10000 0.5 0 01:58 20.10.2019
5887 Rain 11 1011 100 10000 1.5 100 01:24 20.10.2019
5888 Rain 11 1011 100 10000 0.5 0 00:57 20.10.2019
5889 Rain 11 1011 100 10000 1 50 00:39 20.10.2019
5890 Drizzle 11 1011 100 10000 0.5 0 00:19 20.10.2019
5891 Clouds 11 1011 100 10000 1 50 23:42 19.10.2019
5892 Rain 12 1011 93 10000 1.5 90 23:22 19.10.2019
5893 Rain 12 1011 93 10000 1.5 90 22:56 19.10.2019
5894 Rain 12 1011 87 10000 2.6 130 22:38 19.10.2019
5895 Clear 12 1011 87 10000 3.1 130 22:20 19.10.2019
5896 Clear 12 1010 87 10000 3.6 120 21:46 19.10.2019
5897 Clear 12 1010 87 10000 4.1 130 21:23 19.10.2019
5898 Clear 12 1010 87 10000 3.6 130 20:46 19.10.2019
5899 Clear 13 1010 82 10000 3.6 140 20:23 19.10.2019
5900 Drizzle 13 1010 82 10000 3.6 140 19:59 19.10.2019
5901 Drizzle 13 1010 87 10000 4.1 140 19:40 19.10.2019
5902 Clear 13 1010 87 10000 5.1 140 19:22 19.10.2019
5903 Clear 13 1010 82 10000 5.1 150 18:43 19.10.2019
5904 Clear 13 1010 82 10000 4.1 140 18:24 19.10.2019
5905 Clear 13 1010 82 10000 4.1 140 18:24 19.10.2019
5906 Clear 14 1010 82 10000 4.1 140 17:57 19.10.2019
5907 Clear 14 1010 82 10000 3.1 150 17:37 19.10.2019
5908 Clear 14 1010 82 10000 4.1 150 17:19 19.10.2019
5909 Clear 14 1010 72 10000 4.1 160 16:39 19.10.2019
5910 Clear 14 1011 77 10000 4.6 160 16:20 19.10.2019
5911 Clear 14 1011 77 10000 4.6 160 16:20 19.10.2019
5912 Clear 14 1011 77 10000 5.1 150 15:45 19.10.2019
5913 Rain 14 1011 77 10000 5.1 150 15:26 19.10.2019
5914 Rain 13 1011 82 10000 4.1 140 14:56 19.10.2019
5915 Rain 13 1011 82 10000 4.1 140 14:56 19.10.2019
5916 Rain 13 1012 82 10000 4.1 160 14:38 19.10.2019
5917 Rain 13 1012 87 10000 3.1 160 14:19 19.10.2019
5918 Rain 13 1012 87 10000 3.1 160 13:55 19.10.2019
5919 Rain 13 1012 87 10000 5.1 150 13:36 19.10.2019
5920 Rain 13 1012 87 10000 5.1 150 13:18 19.10.2019
5921 Rain 13 1012 93 10000 4.1 130 12:39 19.10.2019
5922 Rain 12 1012 100 10000 4.6 120 12:21 19.10.2019
5923 Rain 12 1012 100 10000 4.6 120 11:56 19.10.2019
5924 Rain 12 1012 93 10000 3.1 140 11:37 19.10.2019
5925 Rain 12 1012 93 10000 4.1 130 11:18 19.10.2019
5926 Rain 12 1012 100 10000 4.6 180 10:41 19.10.2019
5927 Rain 11 1012 93 10000 2.6 110 10:23 19.10.2019
5928 Rain 11 1012 93 7000 1.5 140 09:58 19.10.2019
5929 Rain 11 1012 100 10000 2.1 110 09:39 19.10.2019
5930 Rain 11 1012 100 10000 2.1 110 09:21 19.10.2019
5931 Rain 11 1012 100 10000 2.6 150 08:41 19.10.2019
5932 Rain 11 1012 100 10000 3.1 120 08:22 19.10.2019
5933 Rain 11 1012 100 10000 3.6 120 07:46 19.10.2019
5934 Rain 11 1012 100 10000 3.1 120 07:27 19.10.2019
5935 Rain 11 1012 100 10000 3.6 110 06:52 19.10.2019
5936 Rain 11 1012 100 10000 3.1 100 06:32 19.10.2019
5937 Rain 11 1012 100 10000 1.5 150 05:35 19.10.2019
5938 Rain 11 1012 100 10000 4.6 100 04:26 19.10.2019
5939 Rain 11 1013 100 10000 2.6 120 02:56 19.10.2019
5940 Rain 11 1013 100 10000 2.1 140 01:56 19.10.2019
5941 Rain 11 1013 100 10000 2.1 140 01:37 19.10.2019
5942 Rain 11 1013 93 10000 3.1 110 00:51 19.10.2019
5943 Rain 11 1013 93 10000 1.5 120 00:28 19.10.2019
5944 Rain 10 1013 93 10000 1.5 120 23:56 18.10.2019
5945 Rain 10 1013 100 10000 1.5 80 23:38 18.10.2019
5946 Rain 10 1013 93 10000 1.5 160 23:19 18.10.2019
5947 Rain 11 1013 93 10000 1.5 160 22:54 18.10.2019
5948 Rain 10 1013 100 10000 2.1 140 22:36 18.10.2019
5949 Mist 11 1013 100 10000 1.5 130 22:18 18.10.2019
5950 Clear 11 1013 93 10000 1.5 170 21:54 18.10.2019
5951 Clear 11 1013 93 10000 1.5 170 21:36 18.10.2019
5952 Clear 11 1013 93 10000 3.1 170 21:18 18.10.2019
5953 Clear 12 1013 93 10000 3.1 160 20:41 18.10.2019
5954 Clear 12 1013 87 10000 3.1 150 20:22 18.10.2019
5955 Clouds 12 1013 93 10000 2.1 150 19:58 18.10.2019
5956 Drizzle 13 1013 93 10000 2.1 150 19:40 18.10.2019
5957 Drizzle 13 1013 93 10000 2.1 150 19:40 18.10.2019
5958 Drizzle 13 1013 87 10000 1.5 150 19:21 18.10.2019
5959 Rain 13 1013 87 10000 1.5 150 18:58 18.10.2019
5960 Rain 13 1013 87 10000 1.5 210 18:40 18.10.2019
5961 Rain 13 1013 87 10000 3.1 190 18:21 18.10.2019
5962 Rain 13 1013 76 10000 4.1 230 17:40 18.10.2019
5963 Rain 14 1012 82 10000 4.1 250 17:21 18.10.2019
5964 Rain 14 1012 82 10000 4.1 250 16:59 18.10.2019
5965 Rain 15 1012 76 10000 6.7 250 16:38 18.10.2019
5966 Rain 16 1011 59 10000 5.7 180 16:20 18.10.2019
5967 Thunderstorm 18 1010 59 10000 6.2 170 15:55 18.10.2019
5968 Rain 18 1010 59 10000 6.2 170 15:36 18.10.2019
5969 Rain 19 1011 59 10000 5.7 180 15:18 18.10.2019
5970 Clouds 18 1011 59 10000 5.7 180 14:56 18.10.2019
5971 Clouds 18 1011 63 10000 4.6 190 14:38 18.10.2019
5972 Clouds 18 1011 63 10000 5.1 180 14:18 18.10.2019
5973 Clouds 18 1012 63 10000 4.6 160 13:42 18.10.2019
5974 Clouds 18 1012 63 10000 4.1 170 13:23 18.10.2019
5975 Clouds 18 1012 63 10000 4.1 170 12:58 18.10.2019
5976 Clouds 18 1012 63 10000 4.1 150 12:39 18.10.2019
5977 Clouds 17 1013 68 10000 3.6 190 12:21 18.10.2019
5978 Clouds 16 1013 72 10000 4.1 170 11:57 18.10.2019
5979 Clouds 16 1013 72 10000 4.1 170 11:57 18.10.2019
5980 Clouds 16 1013 72 10000 4.1 170 11:39 18.10.2019
5981 Clouds 16 1013 77 10000 4.6 160 11:20 18.10.2019
5982 Clouds 15 1013 77 10000 4.6 160 10:56 18.10.2019
5983 Clouds 15 1013 77 10000 4.6 160 10:55 18.10.2019
5984 Clouds 15 1013 77 10000 4.6 160 10:55 18.10.2019
5985 Clouds 14 1014 77 10000 3.6 160 10:37 18.10.2019
5986 Clouds 14 1014 82 10000 3.1 140 10:18 18.10.2019
5987 Rain 13 1014 82 10000 3.1 140 09:54 18.10.2019
5988 Rain 13 1014 82 10000 3.1 140 09:36 18.10.2019
5989 Clouds 13 1014 87 10000 3.1 130 09:18 18.10.2019
5990 Rain 12 1014 87 10000 3.6 130 08:42 18.10.2019
5991 Rain 12 1013 93 10000 3.6 120 08:22 18.10.2019
5992 Clouds 12 1014 93 10000 3.1 120 07:43 18.10.2019
5993 Rain 12 1014 93 10000 2.6 120 07:25 18.10.2019
5994 Rain 12 1014 93 10000 1.5 90 06:40 18.10.2019
5995 Clouds 12 1014 100 10000 1 0 06:22 18.10.2019
5996 Clouds 12 1014 100 10000 1 0 05:56 18.10.2019
5997 Clear 12 1014 93 10000 3.1 150 05:23 18.10.2019
5998 Clear 12 1014 93 10000 3.1 110 04:41 18.10.2019
5999 Clouds 13 1014 93 10000 2.6 110 03:32 18.10.2019
6000 Rain 13 1014 93 10000 2.6 120 02:33 18.10.2019
6001 Rain 13 1015 87 10000 2.6 150 01:44 18.10.2019
6002 Rain 13 1015 87 10000 2.6 150 01:26 18.10.2019
6003 Rain 13 1015 82 10000 3.1 170 00:45 18.10.2019
6004 Clouds 13 1015 82 10000 2.6 140 00:21 18.10.2019
6005 Clouds 13 1015 82 10000 2.6 140 00:21 18.10.2019
6006 Rain 13 1015 82 10000 2.6 140 23:57 17.10.2019
6007 Rain 13 1015 87 10000 2.6 140 23:36 17.10.2019
6008 Rain 13 1015 82 10000 1.5 190 23:18 17.10.2019
6009 Rain 14 1015 82 10000 2.1 160 22:54 17.10.2019
6010 Rain 14 1015 82 10000 2.1 160 22:36 17.10.2019
6011 Rain 13 1015 76 10000 1.5 130 22:18 17.10.2019
6012 Rain 13 1015 76 10000 1.5 130 21:55 17.10.2019
6013 Rain 13 1015 76 10000 1.5 130 21:55 17.10.2019
6014 Rain 13 1014 76 10000 2.1 120 21:37 17.10.2019
6015 Rain 13 1014 76 10000 2.6 110 21:19 17.10.2019
6016 -273 0 0 0 0 0 20:56 17.10.2019
6017 Clear 13 1014 76 10000 2.6 100 20:37 17.10.2019
6018 Clear 13 1014 76 10000 2.6 100 20:18 17.10.2019
6019 Clear 13 1014 76 10000 1 100 19:42 17.10.2019
6020 Clear 14 1014 67 10000 1.5 120 19:20 17.10.2019
6021 Clear 14 1014 67 10000 1.5 120 19:20 17.10.2019
6022 Clear 14 1014 67 10000 1.5 120 19:20 17.10.2019
6023 Clear 15 1014 67 10000 1.5 190 18:59 17.10.2019
6024 Clear 15 1014 67 10000 1.5 190 18:38 17.10.2019
6025 Clear 16 1014 63 10000 2.1 170 18:20 17.10.2019
6026 Clouds 17 1014 63 10000 1.5 130 17:43 17.10.2019
6027 Clouds 18 1014 63 10000 1.5 130 17:24 17.10.2019
6028 Clouds 18 1014 63 10000 1 0 16:58 17.10.2019
6029 Clouds 18 1014 55 10000 2.1 220 16:40 17.10.2019
6030 Clouds 18 1014 55 10000 2.1 220 16:40 17.10.2019
6031 Clouds 18 1014 59 10000 2.6 180 16:19 17.10.2019
6032 -273 0 0 0 0 0 15:57 17.10.2019
6033 Clouds 18 1015 55 10000 2.1 160 15:38 17.10.2019
6034 Clouds 18 1015 59 10000 2.1 190 15:20 17.10.2019
6035 -273 0 0 0 0 0 14:56 17.10.2019
6036 Clouds 18 1015 55 10000 1.5 0 14:37 17.10.2019
6037 Clouds 17 1015 59 10000 2.6 210 14:19 17.10.2019
6038 Clouds 17 1016 59 10000 4.1 190 13:39 17.10.2019
6039 Clouds 17 1016 59 10000 4.1 190 13:39 17.10.2019
6040 Clouds 16 1016 63 10000 2.6 200 13:20 17.10.2019
6041 -273 0 0 0 0 0 12:55 17.10.2019
6042 Rain 15 1016 67 10000 1.5 170 12:37 17.10.2019
6043 Clouds 14 1016 62 10000 2.6 150 12:18 17.10.2019
6044 Clouds 14 1016 62 10000 2.6 150 12:18 17.10.2019
6045 Clouds 13 1016 67 10000 3.1 140 11:41 17.10.2019
6046 Clouds 13 1016 67 10000 3.1 140 11:41 17.10.2019
6047 Clouds 13 1016 71 10000 2.6 130 11:22 17.10.2019
6048 Clouds 12 1016 71 10000 2.6 130 10:59 17.10.2019
6049 Clouds 12 1016 71 10000 2.1 140 10:41 17.10.2019
6050 Clouds 12 1016 71 10000 2.6 130 10:19 17.10.2019
6051 Clouds 11 1016 71 10000 3.1 120 09:55 17.10.2019
6052 Clouds 11 1016 71 10000 3.1 120 09:55 17.10.2019
6053 Clouds 11 1016 71 10000 3.1 120 09:37 17.10.2019
6054 Clouds 10 1016 81 10000 3.1 120 09:19 17.10.2019
6055 Clouds 9 1015 81 10000 3.6 100 08:46 17.10.2019
6056 Clouds 9 1015 81 10000 3.6 100 08:26 17.10.2019
6057 Clouds 9 1015 81 10000 3.1 110 07:58 17.10.2019
6058 Clouds 9 1015 87 10000 3.6 110 07:40 17.10.2019
6059 Clouds 9 1015 87 10000 4.6 110 07:20 17.10.2019
6060 Clouds 8 1015 87 10000 3.6 110 06:40 17.10.2019
6061 Clouds 8 1015 87 10000 4.1 100 06:21 17.10.2019
6062 Clouds 8 1015 87 10000 4.1 100 05:58 17.10.2019
6063 Clouds 8 1015 81 10000 4.1 100 05:34 17.10.2019
6064 Clouds 7 1015 87 10000 3.6 100 04:57 17.10.2019
6065 Clouds 8 1015 87 10000 1.5 90 03:55 17.10.2019
6066 Clouds 8 1015 81 10000 3.6 100 02:53 17.10.2019
6067 Clouds 9 1015 87 10000 4.1 110 01:55 17.10.2019
6068 Clouds 9 1015 81 10000 3.6 120 00:41 17.10.2019
6069 Clear 10 1015 81 10000 3.1 120 00:20 17.10.2019
6070 Clear 10 1015 81 10000 3.1 120 00:20 17.10.2019
6071 Clear 11 1015 76 10000 3.6 150 23:42 16.10.2019
6072 Clear 10 1015 76 10000 2.6 130 23:21 16.10.2019
6073 Clear 11 1015 81 10000 3.1 150 22:56 16.10.2019
6074 Clear 11 1015 81 10000 3.1 150 22:38 16.10.2019
6075 Clear 11 1015 76 10000 2.6 160 22:19 16.10.2019
6076 Clear 11 1015 76 10000 2.6 160 21:58 16.10.2019
6077 Clear 12 1015 76 10000 3.6 150 21:38 16.10.2019
6078 Clouds 12 1015 76 10000 3.1 160 21:19 16.10.2019
6079 Clouds 12 1015 76 10000 3.1 160 20:58 16.10.2019
6080 Clouds 13 1015 71 10000 3.6 150 20:39 16.10.2019
6081 Clouds 12 1015 71 10000 3.6 130 20:21 16.10.2019
6082 Clouds 13 1015 71 10000 3.6 130 19:59 16.10.2019
6083 Clouds 13 1015 76 10000 2.6 140 19:39 16.10.2019
6084 Clouds 13 1015 76 10000 2.6 140 19:39 16.10.2019
6085 Clouds 13 1015 71 10000 2.6 160 19:20 16.10.2019
6086 -273 0 0 0 0 0 18:54 16.10.2019
6087 Clouds 14 1015 67 10000 2.6 180 18:54 16.10.2019
6088 Clouds 14 1015 67 10000 2.6 180 18:36 16.10.2019
6089 Clouds 14 1014 62 10000 3.1 180 18:18 16.10.2019
6090 Clouds 14 1014 62 10000 3.1 180 17:54 16.10.2019
6091 Clouds 14 1015 62 10000 3.6 190 17:36 16.10.2019
6092 Clouds 14 1015 62 10000 3.6 180 17:18 16.10.2019
6093 Clouds 14 1015 62 10000 3.6 190 16:41 16.10.2019
6094 Clouds 15 1015 62 10000 4.1 190 16:21 16.10.2019
6095 Clouds 15 1015 62 10000 4.1 190 16:21 16.10.2019
6096 Clouds 14 1015 62 10000 4.1 190 15:57 16.10.2019
6097 Clouds 14 1015 58 10000 4.6 230 15:38 16.10.2019
6098 Clouds 15 1015 58 10000 5.1 240 15:18 16.10.2019
6099 Clouds 15 1015 58 10000 5.1 240 14:58 16.10.2019
6100 Clouds 15 1015 58 10000 5.1 240 14:38 16.10.2019
6101 Clouds 15 1015 58 10000 5.1 220 14:18 16.10.2019
6102 Clouds 15 1015 58 10000 5.1 220 13:56 16.10.2019
6103 Clouds 15 1015 58 10000 5.7 220 13:37 16.10.2019
6104 Clouds 14 1016 62 10000 5.7 230 13:19 16.10.2019
6105 Clouds 14 1016 62 10000 6.7 230 12:41 16.10.2019
6106 Clouds 14 1016 67 10000 5.1 230 12:19 16.10.2019
6107 Clouds 13 1016 71 10000 6.2 240 11:43 16.10.2019
6108 Clouds 13 1016 76 10000 4.1 190 11:18 16.10.2019
6109 Clouds 12 1016 76 10000 4.6 230 10:40 16.10.2019
6110 Clouds 12 1016 76 10000 3.6 210 10:22 16.10.2019
6111 Clouds 11 1016 76 10000 3.6 210 09:58 16.10.2019
6112 Clouds 11 1015 81 10000 4.1 210 09:38 16.10.2019
6113 Clouds 11 1016 87 10000 4.1 210 09:19 16.10.2019
6114 Clouds 11 1015 81 10000 4.1 220 08:43 16.10.2019
6115 Clouds 11 1015 81 10000 4.1 220 08:24 16.10.2019
6116 Clouds 11 1015 81 10000 3.6 220 07:55 16.10.2019
6117 Clouds 11 1014 87 10000 4.1 220 07:37 16.10.2019
6118 Clouds 11 1015 87 10000 4.6 220 07:18 16.10.2019
6119 Clouds 11 1014 81 10000 5.1 240 06:39 16.10.2019
6120 Clouds 11 1014 81 10000 5.1 240 06:39 16.10.2019
6121 Rain 11 1014 87 10000 3.6 240 05:54 16.10.2019
6122 Rain 12 1012 87 10000 6.7 250 03:26 16.10.2019
6123 Rain 12 1012 93 10000 2.6 230 02:49 16.10.2019
6124 Rain 13 1011 100 10000 5.7 250 01:19 16.10.2019
6125 Rain 13 1011 93 4000 3.6 220 00:50 16.10.2019
6126 Rain 13 1011 100 10000 5.1 240 00:28 16.10.2019
6127 Clouds 14 1009 87 10000 4.6 260 23:41 15.10.2019
6128 Clouds 14 1009 87 10000 5.7 280 23:22 15.10.2019
6129 Clouds 14 1009 100 10000 7.2 260 22:56 15.10.2019
6130 Rain 14 1009 93 10000 5.1 270 22:38 15.10.2019
6131 Rain 14 1009 100 10000 8.7 260 22:20 15.10.2019
6132 -273 0 0 0 0 0 21:56 15.10.2019
6133 Rain 14 1008 82 10000 7.7 280 21:56 15.10.2019
6134 Rain 14 1008 82 10000 7.7 280 21:56 15.10.2019
6135 Clouds 14 1008 82 10000 4.6 250 21:38 15.10.2019
6136 Rain 14 1009 100 10000 6.7 250 21:20 15.10.2019
6137 Rain 15 1007 87 10000 3.6 250 20:57 15.10.2019
6138 Clouds 15 1007 87 10000 2.1 160 20:39 15.10.2019
6139 Clouds 15 1007 87 10000 2.1 160 20:39 15.10.2019
6140 Clouds 15 1007 87 10000 3.1 110 20:20 15.10.2019
6141 Clouds 15 1007 87 10000 3.1 110 19:58 15.10.2019
6142 Clouds 15 1006 82 10000 2.6 100 19:40 15.10.2019
6143 Clouds 15 1006 82 10000 3.6 100 19:20 15.10.2019
6144 Clouds 16 1006 77 10000 2.1 70 18:47 15.10.2019
6145 Clouds 17 1006 77 10000 2.1 70 18:29 15.10.2019
6146 Clouds 18 1006 72 10000 2.1 70 17:59 15.10.2019
6147 Clouds 19 1006 68 10000 3.1 100 17:40 15.10.2019
6148 Clouds 20 1005 68 10000 3.6 90 17:20 15.10.2019
6149 Clouds 20 1005 68 10000 3.6 90 16:56 15.10.2019
6150 Clouds 20 1005 64 10000 3.1 90 16:37 15.10.2019
6151 Clouds 20 1005 68 10000 3.1 120 16:19 15.10.2019
6152 Clouds 21 1006 64 10000 3.1 140 15:43 15.10.2019
6153 Clouds 21 1006 60 10000 3.6 160 15:21 15.10.2019
6154 Clouds 21 1006 60 10000 3.6 160 14:58 15.10.2019
6155 Clouds 21 1006 60 10000 3.1 140 14:38 15.10.2019
6156 Clouds 21 1006 60 10000 3.1 140 14:38 15.10.2019
6157 Clouds 21 1006 60 10000 3.1 140 14:38 15.10.2019
6158 Clouds 20 1007 60 10000 4.1 170 14:20 15.10.2019
6159 Clouds 20 1007 60 10000 4.1 170 13:56 15.10.2019
6160 Clouds 20 1007 60 10000 2.6 150 13:37 15.10.2019
6161 Clouds 19 1007 64 10000 2.6 120 13:19 15.10.2019
6162 Clouds 17 1008 68 10000 1.5 130 12:42 15.10.2019
6163 Clear 17 1008 72 10000 2.1 160 12:21 15.10.2019
6164 Clear 17 1008 72 10000 2.1 160 11:56 15.10.2019
6165 Clear 17 1008 72 10000 2.1 160 11:56 15.10.2019
6166 Clear 16 1008 77 10000 3.6 110 11:37 15.10.2019
6167 Clear 16 1009 82 10000 3.1 120 11:18 15.10.2019
6168 Mist 14 1009 82 10000 3.1 130 10:43 15.10.2019
6169 Fog 13 1009 87 10000 2.6 140 10:19 15.10.2019
6170 Mist 12 1009 87 10000 2.6 140 09:58 15.10.2019
6171 Mist 12 1009 87 10000 2.1 140 09:37 15.10.2019
6172 Mist 12 1009 87 10000 2.1 140 09:37 15.10.2019
6173 Mist 11 1009 93 10000 2.1 140 09:19 15.10.2019
6174 Mist 10 1009 100 10000 1.5 120 08:43 15.10.2019
6175 Mist 9 1009 100 1800 2.6 150 08:22 15.10.2019
6176 Mist 9 1009 100 10000 2.6 110 07:58 15.10.2019
6177 Mist 9 1010 100 10000 2.1 130 07:39 15.10.2019
6178 Mist 9 1010 100 10000 1.5 120 07:19 15.10.2019
6179 Fog 10 1010 100 10000 2.1 100 06:45 15.10.2019
6180 Fog 10 1010 100 10000 2.1 100 06:26 15.10.2019
6181 Fog 10 1010 100 10000 2.1 110 05:41 15.10.2019
6182 Fog 10 1011 100 10000 1 110 05:23 15.10.2019
6183 Fog 10 1011 93 10000 1.5 150 04:32 15.10.2019
6184 Mist 10 1011 93 10000 2.1 100 03:37 15.10.2019
6185 Mist 10 1011 93 10000 2.1 100 03:37 15.10.2019
6186 Mist 11 1011 93 10000 1.5 160 02:29 15.10.2019
6187 Mist 11 1011 100 8000 2.1 100 01:48 15.10.2019
6188 Mist 11 1012 100 10000 2.6 90 01:22 15.10.2019
6189 Mist 12 1012 100 10000 1 110 00:49 15.10.2019
6190 Mist 13 1012 93 10000 2.1 110 00:21 15.10.2019
6191 Haze 13 1012 93 10000 2.1 110 23:44 14.10.2019
6192 Haze 14 1012 87 10000 2.1 120 23:20 14.10.2019
6193 Haze 14 1012 87 10000 2.1 120 22:57 14.10.2019
6194 Haze 14 1012 93 10000 2.1 110 22:38 14.10.2019
6195 Haze 14 1011 87 10000 4.6 110 22:18 14.10.2019
6196 Mist 15 1012 87 10000 4.6 100 21:41 14.10.2019
6197 Mist 16 1012 82 10000 3.1 100 21:22 14.10.2019
6198 Mist 16 1012 82 10000 2.6 90 20:59 14.10.2019
6199 Mist 16 1012 82 10000 2.6 90 20:40 14.10.2019
6200 Mist 17 1012 82 10000 1 90 20:22 14.10.2019
6201 Haze 17 1012 82 10000 1 90 19:59 14.10.2019
6202 Clear 17 1013 72 10000 1.5 80 19:41 14.10.2019
6203 Clear 18 1013 72 10000 1.5 80 19:23 14.10.2019
6204 Haze 20 1013 68 10000 1.5 110 18:58 14.10.2019
6205 Haze 20 1013 68 10000 1.5 110 18:58 14.10.2019
6206 Haze 20 1013 68 10000 1.5 110 18:58 14.10.2019
6207 Haze 21 1013 60 10000 2.6 90 18:38 14.10.2019
6208 Haze 21 1013 64 10000 2.6 120 18:19 14.10.2019
6209 Haze 23 1013 57 10000 2.6 90 17:44 14.10.2019
6210 Haze 24 1013 57 10000 2.6 90 17:26 14.10.2019
6211 Haze 24 1014 53 1600 2.1 140 16:59 14.10.2019
6212 Haze 24 1014 53 1600 2.1 140 16:40 14.10.2019
6213 Haze 24 1014 47 10000 1.5 140 16:21 14.10.2019
6214 Haze 24 1014 47 10000 1.5 180 15:42 14.10.2019
6215 Haze 24 1014 50 10000 2.1 150 15:22 14.10.2019
6216 Haze 23 1015 50 10000 2.1 160 14:56 14.10.2019
6217 Haze 24 1014 50 10000 2.1 150 14:56 14.10.2019
6218 Haze 23 1015 50 10000 2.1 160 14:38 14.10.2019
6219 Haze 23 1015 53 10000 1.5 150 14:19 14.10.2019
6220 Haze 22 1015 53 10000 1 0 13:43 14.10.2019
6221 Haze 22 1016 53 10000 1 0 13:21 14.10.2019
6222 Haze 21 1016 60 10000 1 0 12:55 14.10.2019
6223 Haze 21 1016 60 10000 1 0 12:37 14.10.2019
6224 Haze 19 1017 64 10000 1.5 160 12:18 14.10.2019
6225 Haze 20 1017 64 10000 1.5 160 12:18 14.10.2019
6226 Clear 18 1017 68 10000 1.5 150 11:44 14.10.2019
6227 Clear 17 1017 72 10000 2.1 150 11:24 14.10.2019
6228 Mist 16 1017 72 10000 2.1 150 10:57 14.10.2019
6229 Mist 16 1017 72 10000 2.1 150 10:37 14.10.2019
6230 Mist 15 1017 77 10000 2.1 130 10:18 14.10.2019
6231 Clear 13 1017 82 10000 2.1 120 09:42 14.10.2019
6232 Clear 13 1017 82 10000 2.1 120 09:41 14.10.2019
6233 Mist 11 1017 93 10000 1 110 09:21 14.10.2019
6234 Mist 10 1017 93 10000 1 130 08:50 14.10.2019
6235 Clear 10 1017 100 10000 2.1 110 08:23 14.10.2019
6236 Clear 10 1016 100 10000 3.1 110 07:47 14.10.2019
6237 Clear 10 1016 93 10000 3.6 110 07:25 14.10.2019
6238 Clear 11 1017 93 10000 3.1 120 06:59 14.10.2019
6239 Clear 11 1017 93 10000 2.1 120 06:28 14.10.2019
6240 Clear 11 1016 100 10000 2.1 130 05:57 14.10.2019
6241 Clear 11 1016 100 10000 2.6 120 05:27 14.10.2019
6242 Clear 11 1016 93 10000 1.5 120 03:50 14.10.2019
6243 Clear 13 1016 87 10000 2.6 120 03:26 14.10.2019
6244 Clear 13 1016 87 10000 3.1 120 02:32 14.10.2019
6245 Clear 13 1016 87 10000 4.1 110 01:21 14.10.2019
6246 Clear 14 1016 87 10000 3.1 110 00:42 14.10.2019
6247 Clear 15 1016 87 10000 2.6 130 00:18 14.10.2019
6248 Clear 15 1016 82 10000 4.1 110 23:41 13.10.2019
6249 Clear 15 1016 87 10000 3.6 120 23:20 13.10.2019
6250 Clear 15 1016 82 10000 4.1 110 22:57 13.10.2019
6251 Clear 15 1016 87 10000 3.6 120 22:57 13.10.2019
6252 Clear 16 1016 82 10000 4.1 110 22:39 13.10.2019
6253 Clear 16 1016 77 10000 3.1 110 22:20 13.10.2019
6254 Clear 16 1016 77 10000 3.1 110 22:20 13.10.2019
6255 Clear 16 1016 77 10000 3.1 110 21:57 13.10.2019
6256 Clear 16 1016 82 10000 3.6 110 21:36 13.10.2019
6257 Clear 17 1016 77 10000 4.1 120 21:18 13.10.2019
6258 Clear 17 1016 77 10000 4.1 120 20:56 13.10.2019
6259 Clear 17 1015 82 10000 3.1 120 20:37 13.10.2019
6260 Clear 17 1015 82 10000 3.1 120 20:37 13.10.2019
6261 Clear 18 1015 82 10000 3.1 120 20:37 13.10.2019
6262 Clear 18 1015 82 10000 3.1 120 20:37 13.10.2019
6263 Clear 18 1015 77 10000 4.1 110 20:18 13.10.2019
6264 Clear 18 1015 68 10000 2.6 120 19:55 13.10.2019
6265 Clear 18 1015 68 10000 2.6 120 19:36 13.10.2019
6266 Clear 18 1015 68 10000 3.6 140 19:18 13.10.2019
6267 Clear 21 1015 56 10000 4.6 140 18:41 13.10.2019
6268 Clear 22 1015 49 10000 5.7 140 18:21 13.10.2019
6269 Clear 22 1015 49 10000 5.7 140 17:59 13.10.2019
6270 Clear 23 1015 49 10000 5.1 140 17:41 13.10.2019
6271 Clear 23 1015 50 10000 5.1 140 17:23 13.10.2019
6272 Clear 24 1015 47 10000 5.7 150 16:44 13.10.2019
6273 Clear 24 1015 47 10000 5.7 150 16:44 13.10.2019
6274 Clear 24 1015 50 10000 4.1 150 16:20 13.10.2019
6275 Clear 24 1015 50 10000 4.1 150 16:20 13.10.2019
6276 Clear 24 1015 50 10000 4.1 150 15:58 13.10.2019
6277 Clear 24 1015 50 10000 4.6 160 15:39 13.10.2019
6278 Haze 24 1015 53 10000 3.6 150 15:21 13.10.2019
6279 Haze 24 1015 53 10000 3.6 150 14:58 13.10.2019
6280 Haze 24 1015 53 10000 4.1 130 14:40 13.10.2019
6281 Haze 24 1016 53 10000 3.6 140 14:21 13.10.2019
6282 Haze 23 1016 56 10000 3.1 140 13:58 13.10.2019
6283 Haze 23 1016 56 10000 3.1 140 13:37 13.10.2019
6284 Clear 23 1016 56 10000 3.1 130 13:19 13.10.2019
6285 Clear 23 1016 56 10000 3.1 130 12:56 13.10.2019
6286 Clear 21 1016 60 10000 3.6 150 12:38 13.10.2019
6287 Clear 20 1016 60 10000 3.6 150 12:18 13.10.2019
6288 Clear 18 1016 64 10000 4.1 140 11:55 13.10.2019
6289 Clear 18 1016 64 10000 4.1 140 11:55 13.10.2019
6290 Clear 18 1016 64 10000 4.1 140 11:37 13.10.2019
6291 Clear 18 1016 64 10000 4.1 140 11:37 13.10.2019
6292 Clear 17 1017 68 10000 4.1 130 11:18 13.10.2019
6293 Clear 17 1017 68 10000 4.1 130 11:18 13.10.2019
6294 Mist 17 1017 68 10000 4.1 130 10:41 13.10.2019
6295 Mist 17 1017 68 10000 4.1 130 10:41 13.10.2019
6296 Mist 16 1017 72 10000 3.1 130 10:23 13.10.2019
6297 Mist 16 1017 72 10000 3.1 130 10:23 13.10.2019
6298 Mist 15 1017 77 10000 3.6 130 09:41 13.10.2019
6299 Mist 14 1016 77 10000 3.6 130 09:21 13.10.2019
6300 Mist 14 1016 77 10000 3.6 130 09:21 13.10.2019
6301 Mist 13 1016 82 10000 4.1 130 08:58 13.10.2019
6302 Mist 13 1016 77 10000 3.6 130 08:58 13.10.2019
6303 Clear 13 1016 82 10000 4.1 130 08:38 13.10.2019
6304 Clear 13 1016 87 10000 3.6 120 08:19 13.10.2019
6305 Clear 12 1016 87 10000 4.1 110 07:46 13.10.2019
6306 Mist 12 1016 87 10000 3.1 110 07:21 13.10.2019
6307 Clear 13 1016 82 10000 3.1 120 06:41 13.10.2019
6308 Clear 13 1016 87 10000 3.1 130 05:39 13.10.2019
6309 Clear 13 1016 82 10000 3.1 120 04:46 13.10.2019
6310 Clear 13 1016 82 10000 4.1 110 03:51 13.10.2019
6311 Clear 14 1016 82 10000 2.6 130 02:41 13.10.2019
6312 Clear 14 1016 82 10000 3.6 130 01:54 13.10.2019
6313 Clear 14 1016 87 10000 3.6 140 01:30 13.10.2019
6314 Clear 15 1016 82 10000 3.1 110 00:47 13.10.2019
6315 Clear 15 1016 82 10000 3.1 110 00:47 13.10.2019
6316 Clear 15 1016 77 10000 3.6 100 00:21 13.10.2019
6317 Clear 16 1016 77 10000 3.6 100 23:56 12.10.2019
6318 Clear 16 1016 77 10000 3.1 120 23:37 12.10.2019
6319 Rain 16 1016 77 10000 2.6 130 23:19 12.10.2019
6320 Clear 16 1016 77 10000 3.6 130 22:57 12.10.2019
6321 Clear 16 1016 77 10000 3.6 130 22:38 12.10.2019
6322 Clear 16 1016 77 10000 3.1 150 22:20 12.10.2019
6323 Clear 15 1016 77 10000 3.1 150 21:54 12.10.2019
6324 Clear 15 1016 82 10000 3.1 120 21:54 12.10.2019
6325 Clear 15 1016 82 10000 3.1 120 21:36 12.10.2019
6326 Clear 15 1016 82 10000 3.6 110 21:18 12.10.2019
6327 Haze 16 1016 77 10000 3.6 110 20:40 12.10.2019
6328 Clear 16 1016 77 10000 3.1 100 20:22 12.10.2019
6329 Clear 16 1016 72 10000 3.1 110 19:38 12.10.2019
6330 Clear 16 1016 72 10000 3.6 100 19:20 12.10.2019
6331 Clear 18 1016 68 10000 1.5 160 18:56 12.10.2019
6332 Clear 18 1016 68 10000 1.5 160 18:37 12.10.2019
6333 Clear 19 1016 63 10000 3.1 170 18:19 12.10.2019
6334 Clear 20 1016 64 10000 3.1 190 17:42 12.10.2019
6335 Clear 20 1016 60 10000 4.1 190 17:19 12.10.2019
6336 Rain 21 1015 64 10000 4.1 180 16:54 12.10.2019
6337 Clear 21 1015 64 10000 4.1 180 16:36 12.10.2019
6338 Clear 21 1015 49 10000 4.1 210 16:18 12.10.2019
6339 Clear 22 1016 49 10000 4.6 220 15:40 12.10.2019
6340 Clear 22 1016 49 10000 4.6 220 15:21 12.10.2019
6341 Clear 22 1016 53 10000 4.1 200 14:41 12.10.2019
6342 Clear 22 1016 53 10000 5.1 200 14:22 12.10.2019
6343 Clear 22 1016 52 10000 5.1 210 13:53 12.10.2019
6344 Clear 22 1016 52 10000 5.1 210 13:33 12.10.2019
6345 Clear 21 1016 52 10000 4.6 200 12:59 12.10.2019
6346 Clear 21 1016 52 10000 4.6 200 12:59 12.10.2019
6347 Clear 20 1016 56 10000 4.6 190 12:38 12.10.2019
6348 Clear 19 1016 59 10000 4.6 180 12:20 12.10.2019
6349 Clear 18 1016 59 10000 4.6 180 11:56 12.10.2019
6350 Clear 17 1016 59 10000 4.1 180 11:38 12.10.2019
6351 Clear 17 1016 59 10000 4.1 180 11:38 12.10.2019
6352 Clear 16 1016 67 10000 3.6 160 11:18 12.10.2019
6353 Clear 15 1017 67 10000 3.1 150 10:40 12.10.2019
6354 Clear 14 1016 76 10000 3.6 150 10:22 12.10.2019
6355 Clear 13 1016 81 10000 2.6 150 09:57 12.10.2019
6356 Clear 13 1016 81 10000 2.6 150 09:57 12.10.2019
6357 Clear 12 1016 81 10000 2.6 150 09:39 12.10.2019
6358 Clear 10 1016 81 10000 3.6 150 09:20 12.10.2019
6359 Clear 9 1016 81 10000 4.1 160 08:55 12.10.2019
6360 Clear 9 1016 81 10000 4.1 160 08:36 12.10.2019
6361 Clear 8 1016 93 10000 4.1 150 08:18 12.10.2019
6362 Clear 8 1016 93 10000 4.1 150 08:18 12.10.2019
6363 Clear 7 1016 93 10000 3.6 120 07:32 12.10.2019
6364 Clear 7 1016 93 10000 3.1 120 06:38 12.10.2019
6365 -273 0 0 0 0 0 05:44 12.10.2019
6366 Clear 8 1016 93 10000 3.1 110 04:47 12.10.2019
6367 Clear 8 1016 87 10000 3.6 120 03:56 12.10.2019
6368 Mist 8 1016 87 10000 3.1 110 02:54 12.10.2019
6369 Clear 9 1016 93 10000 3.6 130 01:35 12.10.2019
6370 Clear 9 1016 87 10000 3.6 120 00:57 12.10.2019
6371 Clear 9 1016 87 10000 3.6 120 00:38 12.10.2019
6372 Clear 9 1016 93 10000 3.1 120 23:55 11.10.2019
6373 Clear 9 1016 87 10000 3.1 140 23:37 11.10.2019
6374 Clear 10 1016 81 10000 2.6 140 23:18 11.10.2019
6375 Clear 9 1016 87 10000 3.1 140 22:38 11.10.2019
6376 Clear 10 1016 87 10000 2.6 120 22:19 11.10.2019
6377 Clear 11 1016 87 10000 2.6 130 21:44 11.10.2019
6378 Clear 11 1016 81 10000 2.6 140 21:22 11.10.2019
6379 Clear 11 1016 81 10000 2.6 140 20:59 11.10.2019
6380 Clear 11 1016 81 10000 2.6 140 20:59 11.10.2019
6381 Clear 12 1016 81 10000 2.6 140 20:41 11.10.2019
6382 Clear 12 1017 82 10000 2.1 130 20:23 11.10.2019
6383 Clear 12 1017 82 10000 2.1 130 19:56 11.10.2019
6384 Clouds 12 1016 76 10000 2.1 140 19:37 11.10.2019
6385 Clouds 13 1017 72 10000 2.1 180 19:18 11.10.2019
6386 Clouds 13 1017 72 10000 2.1 180 19:18 11.10.2019
6387 Clouds 13 1017 72 10000 2.1 180 19:18 11.10.2019
6388 Clouds 15 1017 72 10000 2.1 180 18:56 11.10.2019
6389 Clouds 15 1017 72 10000 2.6 180 18:37 11.10.2019
6390 Clouds 16 1017 67 10000 3.6 180 18:18 11.10.2019
6391 Clouds 17 1017 67 10000 3.6 180 17:57 11.10.2019
6392 Clouds 17 1017 63 10000 3.1 210 17:37 11.10.2019
6393 Clouds 17 1017 59 10000 3.1 220 17:18 11.10.2019
6394 Clouds 17 1017 59 10000 3.1 220 17:18 11.10.2019
6395 Clouds 17 1018 63 10000 3.1 210 16:41 11.10.2019
6396 Clouds 17 1018 59 10000 4.6 230 16:20 11.10.2019
6397 Clouds 17 1018 59 10000 4.6 230 15:59 11.10.2019
6398 Clouds 17 1018 59 10000 4.6 230 15:59 11.10.2019
6399 Clouds 16 1018 63 10000 2.6 230 15:38 11.10.2019
6400 Clouds 16 1018 63 10000 3.1 220 15:19 11.10.2019
6401 Clouds 16 1018 63 10000 2.6 210 14:47 11.10.2019
6402 Clouds 16 1018 63 10000 2.6 210 14:29 11.10.2019
6403 Clouds 15 1019 67 10000 4.1 210 13:56 11.10.2019
6404 Clouds 15 1019 67 10000 4.1 210 13:38 11.10.2019
6405 Clouds 15 1019 63 10000 4.6 200 13:19 11.10.2019
6406 Clouds 14 1020 67 10000 3.6 180 12:54 11.10.2019
6407 Clouds 14 1020 67 10000 3.6 180 12:36 11.10.2019
6408 Clouds 14 1020 72 0 4.1 160 12:18 11.10.2019
6409 Clouds 12 1020 76 10000 4.1 180 11:41 11.10.2019
6410 Clouds 12 1021 81 10000 4.1 190 11:22 11.10.2019
6411 Clouds 11 1021 81 10000 4.1 190 10:56 11.10.2019
6412 Clouds 11 1020 81 10000 3.6 160 10:38 11.10.2019
6413 Clouds 10 1020 81 10000 3.6 160 10:20 11.10.2019
6414 Clouds 10 1020 81 10000 3.6 160 10:20 11.10.2019
6415 Clouds 9 1021 87 10000 4.1 160 09:55 11.10.2019
6416 Clouds 9 1021 87 10000 4.1 160 09:37 11.10.2019
6417 Clouds 8 1021 87 10000 3.1 140 09:18 11.10.2019
6418 Clouds 8 1021 87 10000 3.1 140 09:18 11.10.2019
6419 Clouds 7 1020 93 10000 2.6 150 08:40 11.10.2019
6420 Clouds 7 1020 93 10000 2.1 160 08:21 11.10.2019
6421 Clouds 7 1020 93 10000 2.1 160 07:59 11.10.2019
6422 Mist 6 1020 93 10000 2.1 170 07:40 11.10.2019
6423 Mist 6 1020 93 10000 2.6 150 07:20 11.10.2019
6424 Clear 7 1020 93 10000 3.1 140 06:44 11.10.2019
6425 Clear 7 1020 93 10000 3.1 160 06:21 11.10.2019
6426 Clouds 7 1021 100 10000 2.6 150 05:37 11.10.2019
6427 Clouds 7 1021 100 10000 2.6 120 04:59 11.10.2019
6428 Clouds 7 1021 93 10000 2.1 190 04:24 11.10.2019
6429 Clouds 8 1021 100 10000 2.6 130 01:58 11.10.2019
6430 Clear 8 1021 93 10000 2.6 160 00:42 11.10.2019
6431 Clear 8 1021 93 10000 2.6 160 00:42 11.10.2019
6432 Clear 8 1021 93 10000 2.1 170 00:23 11.10.2019
6433 Clear 8 1021 93 10000 2.1 170 00:23 11.10.2019
6434 Clouds 9 1021 93 10000 2.1 160 23:42 10.10.2019
6435 Clear 9 1021 93 10000 1.5 180 23:20 10.10.2019
6436 Clear 9 1021 93 10000 1.5 180 22:57 10.10.2019
6437 Clear 9 1020 93 10000 2.1 200 22:38 10.10.2019
6438 Clear 9 1020 87 10000 2.6 210 22:19 10.10.2019
6439 Clear 9 1020 87 10000 3.1 210 21:54 10.10.2019
6440 Clear 9 1020 87 10000 3.1 210 21:36 10.10.2019
6441 Clear 9 1020 87 10000 3.6 210 21:18 10.10.2019
6442 Clouds 9 1019 87 10000 2.6 210 20:41 10.10.2019
6443 Clouds 9 1019 81 10000 3.1 230 20:21 10.10.2019
6444 Drizzle 10 1019 81 10000 3.1 230 19:58 10.10.2019
6445 Drizzle 10 1019 81 10000 2.1 220 19:39 10.10.2019
6446 Clouds 10 1018 81 10000 3.6 240 19:20 10.10.2019
6447 Clouds 11 1018 81 10000 3.6 240 18:56 10.10.2019
6448 Clouds 11 1018 81 10000 2.6 240 18:38 10.10.2019
6449 Clouds 11 1018 76 10000 3.6 250 18:19 10.10.2019
6450 Rain 12 1018 76 10000 5.1 240 17:41 10.10.2019
6451 Rain 11 1018 76 10000 5.1 240 17:41 10.10.2019
6452 Rain 12 1017 66 10000 5.7 250 17:20 10.10.2019
6453 Rain 13 1017 66 10000 5.7 240 16:58 10.10.2019
6454 Rain 13 1017 66 10000 5.7 240 16:40 10.10.2019
6455 Rain 13 1017 62 10000 5.7 250 16:21 10.10.2019
6456 Clouds 13 1017 66 10000 5.1 280 15:43 10.10.2019
6457 Clouds 13 1017 66 10000 5.1 280 15:43 10.10.2019
6458 Clouds 12 1017 71 10000 5.7 280 15:24 10.10.2019
6459 Rain 12 1017 71 10000 5.7 280 14:59 10.10.2019
6460 Clouds 12 1017 62 10000 7.7 270 14:37 10.10.2019
6461 Clouds 12 1016 62 10000 8.7 270 14:19 10.10.2019
6462 Clouds 12 1016 62 10000 8.7 270 14:19 10.10.2019
6463 Clouds 12 1016 62 10000 8.7 270 13:59 10.10.2019
6464 Clouds 12 1016 76 10000 6.2 260 13:39 10.10.2019
6465 Rain 11 1016 76 10000 6.7 260 13:18 10.10.2019
6466 Rain 11 1016 76 10000 6.7 260 13:18 10.10.2019
6467 Clouds 11 1016 76 10000 8.2 270 12:55 10.10.2019
6468 Clouds 11 1016 76 10000 8.2 270 12:37 10.10.2019
6469 Clouds 11 1016 76 10000 8.2 260 12:18 10.10.2019
6470 Rain 10 1015 81 10000 6.7 250 11:42 10.10.2019
6471 Rain 10 1015 81 10000 6.7 250 11:42 10.10.2019
6472 Rain 10 1015 81 10000 6.7 250 11:20 10.10.2019
6473 Rain 10 1015 81 10000 6.7 250 10:59 10.10.2019
6474 Rain 9 1014 87 10000 5.1 250 10:41 10.10.2019
6475 Rain 9 1014 93 10000 3.6 260 10:22 10.10.2019
6476 Rain 9 1013 93 10000 4.6 190 09:54 10.10.2019
6477 Rain 9 1013 93 10000 4.6 190 09:36 10.10.2019
6478 Rain 9 1012 93 10000 4.1 170 09:18 10.10.2019
6479 Rain 9 1012 93 10000 4.1 170 08:41 10.10.2019
6480 Rain 9 1012 87 10000 4.1 170 08:21 10.10.2019
6481 Rain 9 1012 87 10000 4.1 170 07:58 10.10.2019
6482 Rain 8 1012 87 10000 4.1 170 07:37 10.10.2019
6483 Rain 8 1013 87 10000 3.6 180 07:19 10.10.2019
6484 Rain 8 1013 93 10000 2.1 0 06:40 10.10.2019
6485 Rain 8 1013 93 8000 2.6 170 05:57 10.10.2019
6486 Rain 8 1013 93 10000 3.1 160 05:22 10.10.2019
6487 Rain 8 1013 93 10000 3.6 180 04:36 10.10.2019
6488 Rain 8 1013 93 10000 3.1 210 02:46 10.10.2019
6489 Rain 9 1013 87 10000 5.1 240 01:39 10.10.2019
6490 Rain 9 1013 87 10000 5.1 240 01:39 10.10.2019
6491 Rain 9 1012 87 10000 4.6 250 01:21 10.10.2019
6492 Rain 10 1012 87 10000 2.6 190 00:41 10.10.2019
6493 Rain 10 1012 93 6000 4.6 200 23:57 09.10.2019
6494 Rain 10 1012 93 6000 4.6 200 23:36 09.10.2019
6495 Rain 10 1012 81 10000 4.1 220 23:18 09.10.2019
6496 Rain 10 1012 81 10000 4.1 220 23:18 09.10.2019
6497 Rain 10 1012 81 10000 4.1 230 22:41 09.10.2019
6498 Rain 10 1012 81 10000 3.6 220 22:22 09.10.2019
6499 Clouds 10 1012 81 10000 3.6 230 21:58 09.10.2019
6500 Clouds 10 1012 81 10000 3.6 230 21:39 09.10.2019
6501 Rain 10 1012 81 10000 3.6 220 21:19 09.10.2019
6502 Clouds 10 1011 81 10000 5.1 220 20:55 09.10.2019
6503 Clouds 11 1011 81 10000 5.1 220 20:37 09.10.2019
6504 Rain 11 1011 81 10000 4.6 210 20:18 09.10.2019
6505 Rain 11 1011 81 10000 4.6 210 20:18 09.10.2019
6506 Clouds 11 1011 81 10000 3.6 190 19:44 09.10.2019
6507 Clouds 11 1011 81 10000 3.1 220 19:23 09.10.2019
6508 Clouds 11 1010 87 10000 4.1 220 18:40 09.10.2019
6509 Rain 12 1010 87 10000 3.6 210 18:21 09.10.2019
6510 Rain 12 1010 87 10000 3.6 210 17:59 09.10.2019
6511 Rain 12 1010 87 10000 4.1 190 17:40 09.10.2019
6512 Rain 12 1010 87 10000 3.1 190 17:22 09.10.2019
6513 Rain 12 1010 81 10000 2.6 180 16:57 09.10.2019
6514 Rain 12 1010 81 10000 2.6 180 16:39 09.10.2019
6515 Clouds 12 1011 81 10000 3.1 180 16:21 09.10.2019
6516 Clouds 12 1011 81 10000 3.1 180 16:21 09.10.2019
6517 Clouds 12 1010 81 10000 2.1 180 15:57 09.10.2019
6518 Clouds 12 1010 81 10000 2.1 180 15:38 09.10.2019
6519 Clouds 12 1011 81 10000 4.6 190 15:19 09.10.2019
6520 Clouds 13 1010 81 10000 2.6 190 14:55 09.10.2019
6521 Clouds 13 1010 81 10000 2.6 190 14:36 09.10.2019
6522 Clouds 13 1010 81 10000 2.6 190 14:36 09.10.2019
6523 Clouds 13 1011 76 10000 3.6 190 14:18 09.10.2019
6524 Clouds 13 1011 76 10000 4.1 200 13:38 09.10.2019
6525 Clouds 13 1011 76 10000 3.6 190 13:19 09.10.2019
6526 Clouds 13 1011 76 10000 3.6 190 12:55 09.10.2019
6527 Clouds 13 1011 76 10000 3.1 170 12:37 09.10.2019
6528 Clouds 12 1012 82 10000 2.1 190 12:18 09.10.2019
6529 Clouds 12 1012 82 10000 1.5 200 11:40 09.10.2019
6530 Clouds 12 1013 87 10000 2.1 250 11:21 09.10.2019
6531 Clouds 12 1013 87 10000 2.1 240 10:59 09.10.2019
6532 Clouds 12 1013 87 10000 2.1 240 10:40 09.10.2019
6533 Rain 12 1013 87 10000 3.1 200 10:19 09.10.2019
6534 Mist 11 1013 87 10000 2.1 210 09:43 09.10.2019
6535 Mist 11 1014 87 10000 1 0 09:21 09.10.2019
6536 Mist 10 1014 87 10000 1 0 08:58 09.10.2019
6537 Mist 10 1013 100 10000 1 0 08:39 09.10.2019
6538 Fog 9 1013 93 10000 1.5 170 08:19 09.10.2019
6539 Fog 9 1013 100 10000 2.1 190 07:47 09.10.2019
6540 Clouds 9 1013 93 10000 2.6 220 07:25 09.10.2019
6541 Clouds 10 1013 93 10000 2.6 220 06:58 09.10.2019
6542 Clouds 10 1013 93 10000 2.6 230 06:35 09.10.2019
6543 Clouds 11 1012 93 10000 3.1 250 05:52 09.10.2019
6544 Clouds 11 1012 93 10000 2.6 260 04:56 09.10.2019
6545 Rain 12 1011 93 10000 3.1 270 03:47 09.10.2019
6546 Rain 13 1011 93 10000 5.1 280 02:27 09.10.2019
6547 Rain 13 1010 100 9000 2.6 260 01:39 09.10.2019
6548 Rain 13 1009 100 9000 2.1 230 01:18 09.10.2019
6549 Rain 13 1009 100 4500 1.5 190 00:41 09.10.2019
6550 Rain 13 1009 100 4200 1 0 00:23 09.10.2019
6551 Rain 13 1009 100 4200 1 0 23:58 08.10.2019
6552 Rain 13 1009 100 9000 2.1 180 23:38 08.10.2019
6553 Rain 13 1009 100 9000 2.1 150 23:18 08.10.2019
6554 Rain 13 1009 100 9000 2.1 150 23:18 08.10.2019
6555 Rain 13 1009 100 9000 2.6 150 22:41 08.10.2019
6556 Rain 13 1009 100 9000 2.1 160 22:22 08.10.2019
6557 Drizzle 13 1009 100 9000 2.1 160 21:58 08.10.2019
6558 Drizzle 13 1009 100 10000 2.6 150 21:39 08.10.2019
6559 Drizzle 12 1009 100 10000 2.1 140 21:20 08.10.2019
6560 Drizzle 12 1009 100 10000 2.1 140 20:58 08.10.2019
6561 Drizzle 12 1010 100 10000 3.1 170 20:58 08.10.2019
6562 Drizzle 13 1010 100 10000 3.1 170 20:39 08.10.2019
6563 Rain 13 1010 100 8000 2.6 150 20:21 08.10.2019
6564 Rain 13 1010 100 8000 2.6 150 20:21 08.10.2019
6565 Mist 12 1010 100 8000 2.6 150 19:59 08.10.2019
6566 Rain 12 1010 93 4500 2.6 160 19:41 08.10.2019
6567 Rain 12 1010 93 5000 2.6 170 19:23 08.10.2019
6568 Rain 12 1010 93 6000 3.1 190 18:57 08.10.2019
6569 Rain 12 1010 93 6000 3.1 190 18:39 08.10.2019
6570 Rain 12 1010 93 6000 3.6 200 18:19 08.10.2019
6571 Drizzle 12 1010 93 9000 2.6 200 17:55 08.10.2019
6572 Drizzle 12 1010 93 9000 2.6 200 17:36 08.10.2019
6573 Rain 12 1010 93 6000 3.1 170 17:18 08.10.2019
6574 Rain 12 1011 93 4000 3.6 190 16:40 08.10.2019
6575 Rain 12 1011 93 4700 3.6 200 16:22 08.10.2019
6576 Rain 12 1011 100 3700 3.1 190 15:56 08.10.2019
6577 Rain 12 1011 100 3700 3.1 190 15:37 08.10.2019
6578 Rain 12 1011 100 8000 2.6 180 15:19 08.10.2019
6579 Rain 12 1011 93 8000 3.6 180 14:42 08.10.2019
6580 Rain 11 1012 93 4000 3.6 180 14:21 08.10.2019
6581 Rain 12 1012 93 4000 3.6 180 13:57 08.10.2019
6582 Rain 11 1012 100 8000 4.6 170 13:39 08.10.2019
6583 Rain 11 1012 93 4000 4.1 170 13:19 08.10.2019
6584 Rain 11 1012 93 4000 4.1 170 12:59 08.10.2019
6585 Rain 11 1012 93 10000 4.6 170 12:38 08.10.2019
6586 Rain 11 1013 93 7000 4.1 180 12:18 08.10.2019
6587 Rain 11 1013 93 4000 4.1 200 11:43 08.10.2019
6588 Rain 11 1013 81 10000 4.6 190 11:24 08.10.2019
6589 Rain 11 1013 81 10000 4.1 180 10:58 08.10.2019
6590 Rain 11 1013 81 10000 4.1 180 10:38 08.10.2019
6591 Rain 11 1014 87 10000 4.1 170 10:20 08.10.2019
6592 Rain 10 1014 87 10000 3.6 180 09:56 08.10.2019
6593 Rain 10 1014 87 10000 3.6 180 09:56 08.10.2019
6594 Rain 10 1014 87 10000 3.6 180 09:38 08.10.2019
6595 Rain 10 1014 93 10000 3.6 170 09:19 08.10.2019
6596 Mist 10 1014 93 10000 3.6 160 08:42 08.10.2019
6597 Mist 10 1014 93 10000 3.1 160 08:23 08.10.2019
6598 Rain 9 1014 100 10000 3.1 170 07:45 08.10.2019
6599 Rain 9 1015 100 10000 2.6 160 07:21 08.10.2019
6600 Mist 9 1015 93 10000 3.6 170 06:53 08.10.2019
6601 Mist 9 1015 93 10000 3.1 160 06:29 08.10.2019
6602 Rain 9 1016 93 10000 2.1 170 05:55 08.10.2019
6603 Rain 9 1016 93 10000 2.1 170 05:36 08.10.2019
6604 Clouds 8 1016 93 10000 2.6 160 04:31 08.10.2019
6605 Mist 8 1017 100 10000 3.6 140 03:28 08.10.2019
6606 Clouds 8 1017 93 10000 2.6 140 02:37 08.10.2019
6607 Clouds 8 1018 93 10000 3.1 140 01:47 08.10.2019
6608 Clouds 8 1018 93 10000 3.6 130 01:27 08.10.2019
6609 Clouds 8 1018 93 10000 2.6 140 00:46 08.10.2019
6610 Clouds 8 1019 100 10000 2.6 130 00:21 08.10.2019
6611 Clouds 8 1019 93 10000 3.1 130 23:40 07.10.2019
6612 Clouds 8 1019 100 10000 3.1 120 23:20 07.10.2019
6613 Clouds 7 1019 100 10000 3.1 120 22:56 07.10.2019
6614 Clouds 7 1019 93 10000 3.1 100 22:56 07.10.2019
6615 Mist 7 1019 93 10000 3.1 100 22:38 07.10.2019
6616 Mist 7 1019 93 10000 3.1 100 22:38 07.10.2019
6617 Mist 7 1019 93 10000 2.6 100 22:20 07.10.2019
6618 Clouds 7 1019 100 10000 3.1 100 21:56 07.10.2019
6619 Clouds 7 1019 100 10000 3.1 100 21:37 07.10.2019
6620 Clouds 7 1019 100 10000 1 0 21:19 07.10.2019
6621 Mist 8 1019 100 10000 1 0 20:57 07.10.2019
6622 Mist 8 1019 100 10000 0.5 0 20:39 07.10.2019
6623 Clear 8 1019 93 10000 1.5 160 20:20 07.10.2019
6624 Clear 8 1019 93 10000 1.5 160 19:57 07.10.2019
6625 Clouds 8 1019 93 10000 1.5 100 19:39 07.10.2019
6626 Clouds 9 1019 93 10000 3.1 90 19:18 07.10.2019
6627 Clouds 9 1019 93 10000 3.1 90 18:56 07.10.2019
6628 Clouds 9 1019 87 10000 2.6 100 18:38 07.10.2019
6629 Clouds 9 1019 87 10000 2.1 120 18:18 07.10.2019
6630 Clouds 9 1019 87 10000 1 0 17:42 07.10.2019
6631 Clouds 10 1019 87 10000 2.1 180 17:19 07.10.2019
6632 Clouds 10 1020 87 10000 2.1 180 16:55 07.10.2019
6633 Clouds 10 1020 87 10000 2.1 180 16:37 07.10.2019
6634 Clouds 9 1019 81 10000 2.1 180 16:19 07.10.2019
6635 Clouds 9 1020 81 10000 2.1 160 15:42 07.10.2019
6636 Clouds 10 1019 81 10000 2.6 130 15:24 07.10.2019
6637 Clouds 10 1019 81 10000 2.6 130 14:42 07.10.2019
6638 Clouds 10 1019 81 10000 1.5 100 14:23 07.10.2019
6639 Clouds 10 1019 81 10000 1.5 100 13:59 07.10.2019
6640 Clouds 10 1020 81 10000 1.5 110 13:40 07.10.2019
6641 Clouds 10 1020 81 10000 1.5 110 13:18 07.10.2019
6642 Clouds 9 1020 81 10000 1.5 90 12:54 07.10.2019
6643 Mist 9 1020 81 10000 1.5 90 12:36 07.10.2019
6644 Mist 9 1020 81 10000 1.5 90 12:36 07.10.2019
6645 Mist 9 1019 81 10000 2.1 80 12:18 07.10.2019
6646 Mist 8 1019 87 10000 2.6 90 11:56 07.10.2019
6647 Mist 8 1019 87 10000 2.6 90 11:36 07.10.2019
6648 Mist 8 1019 87 10000 3.6 100 11:18 07.10.2019
6649 Mist 7 1019 93 10000 2.1 70 10:40 07.10.2019
6650 Clouds 7 1018 93 10000 2.1 60 10:20 07.10.2019
6651 Clouds 7 1018 93 10000 2.1 70 09:42 07.10.2019
6652 Clouds 7 1017 93 10000 2.1 80 09:23 07.10.2019
6653 Clouds 7 1017 93 10000 2.1 80 08:55 07.10.2019
6654 Clouds 7 1017 93 10000 1.5 80 08:37 07.10.2019
6655 Rain 7 1017 93 10000 1.5 80 08:18 07.10.2019
6656 Rain 6 1017 93 8000 1 0 07:40 07.10.2019
6657 Rain 6 1016 93 8000 1.5 60 07:20 07.10.2019
6658 Rain 7 1016 93 9000 2.1 30 06:44 07.10.2019
6659 Drizzle 7 1016 93 9000 1.5 20 06:23 07.10.2019
6660 Clouds 7 1015 93 10000 1.5 360 05:30 07.10.2019
6661 Rain 7 1015 93 10000 1 0 04:58 07.10.2019
6662 Rain 7 1014 93 10000 1 0 04:20 07.10.2019
6663 Clouds 7 1014 93 10000 1.5 30 03:44 07.10.2019
6664 Clouds 7 1014 93 10000 1.5 30 03:44 07.10.2019
6665 Rain 7 1013 93 10000 2.1 70 03:19 07.10.2019
6666 Rain 7 1013 93 10000 2.1 60 02:20 07.10.2019
6667 Rain 7 1012 93 10000 2.6 80 01:47 07.10.2019
6668 Rain 7 1012 93 10000 3.1 70 01:19 07.10.2019
6669 Rain 7 1012 93 10000 3.6 80 00:38 07.10.2019
6670 Rain 7 1012 100 10000 4.1 70 00:19 07.10.2019
6671 Rain 7 1012 100 10000 3.1 60 23:42 06.10.2019
6672 Rain 7 1012 100 10000 2.6 50 23:21 06.10.2019
6673 Rain 7 1012 100 10000 2.6 50 22:58 06.10.2019
6674 Rain 7 1012 93 10000 2.6 70 22:40 06.10.2019
6675 Rain 8 1012 87 10000 2.1 90 22:21 06.10.2019
6676 Rain 7 1012 93 10000 3.6 90 21:57 06.10.2019
6677 Rain 7 1012 93 10000 3.6 90 21:37 06.10.2019
6678 Rain 7 1012 93 10000 3.6 90 21:37 06.10.2019
6679 Rain 7 1012 93 10000 3.6 90 21:37 06.10.2019
6680 Rain 7 1012 93 10000 3.1 80 21:19 06.10.2019
6681 Rain 8 1012 93 10000 3.1 80 20:57 06.10.2019
6682 Rain 8 1012 93 10000 4.1 80 20:38 06.10.2019
6683 Rain 8 1013 93 10000 2.6 90 20:20 06.10.2019
6684 Rain 8 1013 93 10000 3.1 90 19:57 06.10.2019
6685 Rain 8 1013 93 10000 3.1 90 19:37 06.10.2019
6686 Rain 8 1013 93 10000 3.6 80 19:19 06.10.2019
6687 Rain 9 1013 87 10000 3.1 80 18:56 06.10.2019
6688 Rain 8 1013 93 10000 3.6 80 18:56 06.10.2019
6689 Rain 9 1013 87 10000 3.1 80 18:37 06.10.2019
6690 Rain 9 1013 87 10000 2.1 90 18:18 06.10.2019
6691 Rain 10 1013 81 10000 3.6 110 17:43 06.10.2019
6692 Rain 10 1014 81 10000 4.6 120 17:20 06.10.2019
6693 Rain 10 1014 81 10000 4.6 120 16:56 06.10.2019
6694 Rain 10 1014 71 10000 5.1 130 16:38 06.10.2019
6695 Rain 10 1014 66 10000 5.7 120 16:19 06.10.2019
6696 Rain 10 1015 62 10000 5.7 110 15:44 06.10.2019
6697 Rain 10 1015 62 10000 5.7 110 15:44 06.10.2019
6698 Rain 10 1015 66 10000 4.6 130 15:22 06.10.2019
6699 Rain 10 1015 66 10000 4.6 130 14:57 06.10.2019
6700 Rain 10 1016 62 10000 4.1 140 14:39 06.10.2019
6701 Rain 10 1016 71 10000 4.1 120 14:20 06.10.2019
6702 -273 0 0 0 0 0 13:54 06.10.2019
6703 -273 0 0 0 0 0 13:54 06.10.2019
6704 -273 0 0 0 0 0 13:54 06.10.2019
6705 Clouds 10 1016 71 10000 5.7 120 13:36 06.10.2019
6706 Clouds 10 1016 71 10000 5.7 120 13:36 06.10.2019
6707 Clouds 10 1017 71 10000 4.6 110 13:18 06.10.2019
6708 Clouds 10 1017 71 10000 4.6 110 13:18 06.10.2019
6709 Clouds 10 1017 71 10000 4.6 110 12:54 06.10.2019
6710 Clouds 9 1017 71 10000 5.1 110 12:54 06.10.2019
6711 Clouds 9 1017 71 10000 5.1 110 12:36 06.10.2019
6712 Clouds 9 1017 71 10000 5.1 110 12:36 06.10.2019
6713 Clouds 9 1018 81 10000 4.1 110 12:18 06.10.2019
6714 Clouds 8 1018 87 10000 2.6 100 11:41 06.10.2019
6715 Clouds 7 1018 87 10000 2.6 130 11:23 06.10.2019
6716 Clear 6 1018 93 10000 2.6 100 10:56 06.10.2019
6717 Clear 6 1018 93 10000 2.6 100 10:37 06.10.2019
6718 Clear 6 1019 87 10000 2.1 130 10:19 06.10.2019
6719 Clear 6 1019 87 10000 2.1 130 10:19 06.10.2019
6720 Clear 5 1019 93 10000 2.1 150 09:41 06.10.2019
6721 Clear 5 1019 93 10000 2.1 150 09:41 06.10.2019
6722 Clear 5 1019 100